<?xml version="1.0" encoding="UTF-8" standalone="no" ?>
<gpx xmlns="http://www.topografix.com/GPX/1/1" xmlns:xsi="http://www.w3.org/2001/XMLSchema-instance" xsi:schemaLocation="http://www.topografix.com/GPX/1/1 http://www.topografix.com/GPX/1/1/gpx.xsd" version="1.1" creator="VisuGPX - https://www.visugpx.com">
  <metadata>
    <name>Beaumont La Ferrière </name>
    <desc><![CDATA[Belle rando , temps magnifique ! ]]></desc>
  </metadata>
  <trk>
    <name><![CDATA[Beaumont La Ferrière _1]]></name>
    <trkseg>
      <trkpt lat="47.19014" lon="3.22535">
        <ele>231.09443664551</ele>
        <time>2015-11-04T12:55:11.000Z</time>
      </trkpt>
      <trkpt lat="47.19016" lon="3.22533">
        <ele>231.01983642578</ele>
        <time>2015-11-04T12:55:35.000Z</time>
      </trkpt>
      <trkpt lat="47.19017" lon="3.22532">
        <ele>230.96803283691</ele>
        <time>2015-11-04T12:55:46.000Z</time>
      </trkpt>
      <trkpt lat="47.19018" lon="3.22531">
        <ele>230.91819763184</ele>
        <time>2015-11-04T12:55:48.000Z</time>
      </trkpt>
      <trkpt lat="47.19019" lon="3.22531">
        <ele>230.875</ele>
        <time>2015-11-04T12:55:49.000Z</time>
      </trkpt>
      <trkpt lat="47.19019" lon="3.22529">
        <ele>230.78935241699</ele>
        <time>2015-11-04T12:55:49.000Z</time>
      </trkpt>
      <trkpt lat="47.19018" lon="3.22527">
        <ele>230.73071289062</ele>
        <time>2015-11-04T12:55:50.000Z</time>
      </trkpt>
      <trkpt lat="47.19017" lon="3.22525">
        <ele>230.69075012207</ele>
        <time>2015-11-04T12:55:51.000Z</time>
      </trkpt>
      <trkpt lat="47.19015" lon="3.22524">
        <ele>230.67240905762</ele>
        <time>2015-11-04T12:55:52.000Z</time>
      </trkpt>
      <trkpt lat="47.19014" lon="3.22522">
        <ele>230.67678833008</ele>
        <time>2015-11-04T12:55:55.000Z</time>
      </trkpt>
      <trkpt lat="47.19012" lon="3.22521">
        <ele>230.70133972168</ele>
        <time>2015-11-04T12:55:57.000Z</time>
      </trkpt>
      <trkpt lat="47.1901" lon="3.22518">
        <ele>230.73124694824</ele>
        <time>2015-11-04T12:56:00.000Z</time>
      </trkpt>
      <trkpt lat="47.19009" lon="3.22515">
        <ele>230.74597167969</ele>
        <time>2015-11-04T12:56:02.000Z</time>
      </trkpt>
      <trkpt lat="47.19007" lon="3.22512">
        <ele>230.76736450195</ele>
        <time>2015-11-04T12:56:05.000Z</time>
      </trkpt>
      <trkpt lat="47.19006" lon="3.22509">
        <ele>230.78776550293</ele>
        <time>2015-11-04T12:56:07.000Z</time>
      </trkpt>
      <trkpt lat="47.19005" lon="3.22508">
        <ele>230.79960632324</ele>
        <time>2015-11-04T12:56:09.000Z</time>
      </trkpt>
      <trkpt lat="47.19004" lon="3.22501">
        <ele>230.79418945312</ele>
        <time>2015-11-04T12:56:12.000Z</time>
      </trkpt>
      <trkpt lat="47.19004" lon="3.22497">
        <ele>230.78935241699</ele>
        <time>2015-11-04T12:56:15.000Z</time>
      </trkpt>
      <trkpt lat="47.19005" lon="3.22492">
        <ele>230.76118469238</ele>
        <time>2015-11-04T12:56:18.000Z</time>
      </trkpt>
      <trkpt lat="47.19006" lon="3.22488">
        <ele>230.69812011719</ele>
        <time>2015-11-04T12:56:21.000Z</time>
      </trkpt>
      <trkpt lat="47.19007" lon="3.22486">
        <ele>230.61015319824</ele>
        <time>2015-11-04T12:56:24.000Z</time>
      </trkpt>
      <trkpt lat="47.19007" lon="3.22484">
        <ele>230.53567504883</ele>
        <time>2015-11-04T12:56:27.000Z</time>
      </trkpt>
      <trkpt lat="47.19008" lon="3.22481">
        <ele>230.45825195312</ele>
        <time>2015-11-04T12:56:30.000Z</time>
      </trkpt>
      <trkpt lat="47.19009" lon="3.22477">
        <ele>230.37899780273</ele>
        <time>2015-11-04T12:56:35.000Z</time>
      </trkpt>
      <trkpt lat="47.1901" lon="3.22475">
        <ele>230.31767272949</ele>
        <time>2015-11-04T12:56:38.000Z</time>
      </trkpt>
      <trkpt lat="47.19012" lon="3.22469">
        <ele>230.23677062988</ele>
        <time>2015-11-04T12:56:45.000Z</time>
      </trkpt>
      <trkpt lat="47.19012" lon="3.22466">
        <ele>230.14001464844</ele>
        <time>2015-11-04T12:56:48.000Z</time>
      </trkpt>
      <trkpt lat="47.19013" lon="3.22464">
        <ele>230.04914855957</ele>
        <time>2015-11-04T12:56:51.000Z</time>
      </trkpt>
      <trkpt lat="47.19016" lon="3.22464">
        <ele>229.91760253906</ele>
        <time>2015-11-04T12:57:06.000Z</time>
      </trkpt>
      <trkpt lat="47.19019" lon="3.22468">
        <ele>229.75772094727</ele>
        <time>2015-11-04T12:57:09.000Z</time>
      </trkpt>
      <trkpt lat="47.1902" lon="3.22469">
        <ele>229.6118927002</ele>
        <time>2015-11-04T12:57:22.000Z</time>
      </trkpt>
      <trkpt lat="47.19022" lon="3.22469">
        <ele>229.45581054688</ele>
        <time>2015-11-04T12:57:26.000Z</time>
      </trkpt>
      <trkpt lat="47.19023" lon="3.22467">
        <ele>229.29196166992</ele>
        <time>2015-11-04T12:57:28.000Z</time>
      </trkpt>
      <trkpt lat="47.19024" lon="3.22465">
        <ele>229.15104675293</ele>
        <time>2015-11-04T12:57:31.000Z</time>
      </trkpt>
      <trkpt lat="47.19024" lon="3.22463">
        <ele>229.04341125488</ele>
        <time>2015-11-04T12:57:34.000Z</time>
      </trkpt>
      <trkpt lat="47.19024" lon="3.2246">
        <ele>228.95503234863</ele>
        <time>2015-11-04T12:57:37.000Z</time>
      </trkpt>
      <trkpt lat="47.19025" lon="3.22457">
        <ele>228.88162231445</ele>
        <time>2015-11-04T12:57:40.000Z</time>
      </trkpt>
      <trkpt lat="47.19025" lon="3.22455">
        <ele>228.8052520752</ele>
        <time>2015-11-04T12:57:43.000Z</time>
      </trkpt>
      <trkpt lat="47.19027" lon="3.22452">
        <ele>228.72668457031</ele>
        <time>2015-11-04T12:57:51.000Z</time>
      </trkpt>
      <trkpt lat="47.19027" lon="3.22451">
        <ele>228.64070129395</ele>
        <time>2015-11-04T12:57:52.000Z</time>
      </trkpt>
      <trkpt lat="47.1903" lon="3.22446">
        <ele>228.51127624512</ele>
        <time>2015-11-04T12:57:52.000Z</time>
      </trkpt>
      <trkpt lat="47.1903" lon="3.22442">
        <ele>228.37661743164</ele>
        <time>2015-11-04T12:57:54.000Z</time>
      </trkpt>
      <trkpt lat="47.19031" lon="3.22439">
        <ele>228.23721313477</ele>
        <time>2015-11-04T12:57:57.000Z</time>
      </trkpt>
      <trkpt lat="47.19031" lon="3.22438">
        <ele>228.1224822998</ele>
        <time>2015-11-04T12:58:01.000Z</time>
      </trkpt>
      <trkpt lat="47.19033" lon="3.22437">
        <ele>227.98361206055</ele>
        <time>2015-11-04T12:58:08.000Z</time>
      </trkpt>
      <trkpt lat="47.19033" lon="3.22435">
        <ele>227.88203430176</ele>
        <time>2015-11-04T12:58:10.000Z</time>
      </trkpt>
      <trkpt lat="47.19034" lon="3.22432">
        <ele>227.77145385742</ele>
        <time>2015-11-04T12:58:12.000Z</time>
      </trkpt>
      <trkpt lat="47.19035" lon="3.22428">
        <ele>227.64950561523</ele>
        <time>2015-11-04T12:58:14.000Z</time>
      </trkpt>
      <trkpt lat="47.19036" lon="3.22424">
        <ele>227.50276184082</ele>
        <time>2015-11-04T12:58:17.000Z</time>
      </trkpt>
      <trkpt lat="47.19037" lon="3.22425">
        <ele>227.38603210449</ele>
        <time>2015-11-04T12:58:21.000Z</time>
      </trkpt>
      <trkpt lat="47.19038" lon="3.22424">
        <ele>227.26162719727</ele>
        <time>2015-11-04T12:58:25.000Z</time>
      </trkpt>
      <trkpt lat="47.19039" lon="3.22422">
        <ele>227.1298828125</ele>
        <time>2015-11-04T12:58:27.000Z</time>
      </trkpt>
      <trkpt lat="47.1904" lon="3.22417">
        <ele>226.99276733398</ele>
        <time>2015-11-04T12:58:30.000Z</time>
      </trkpt>
      <trkpt lat="47.19041" lon="3.22415">
        <ele>226.86470031738</ele>
        <time>2015-11-04T12:58:32.000Z</time>
      </trkpt>
      <trkpt lat="47.19042" lon="3.22412">
        <ele>226.6760559082</ele>
        <time>2015-11-04T12:58:34.000Z</time>
      </trkpt>
      <trkpt lat="47.19043" lon="3.2241">
        <ele>226.46699523926</ele>
        <time>2015-11-04T12:58:37.000Z</time>
      </trkpt>
      <trkpt lat="47.19046" lon="3.22408">
        <ele>226.21194458008</ele>
        <time>2015-11-04T12:58:39.000Z</time>
      </trkpt>
      <trkpt lat="47.19047" lon="3.22409">
        <ele>225.98324584961</ele>
        <time>2015-11-04T12:58:42.000Z</time>
      </trkpt>
      <trkpt lat="47.19049" lon="3.22406">
        <ele>225.72050476074</ele>
        <time>2015-11-04T12:58:47.000Z</time>
      </trkpt>
      <trkpt lat="47.1905" lon="3.22403">
        <ele>225.47827148438</ele>
        <time>2015-11-04T12:58:53.000Z</time>
      </trkpt>
      <trkpt lat="47.19051" lon="3.22402">
        <ele>225.25285339355</ele>
        <time>2015-11-04T12:58:53.000Z</time>
      </trkpt>
      <trkpt lat="47.19053" lon="3.22401">
        <ele>225.06130981445</ele>
        <time>2015-11-04T12:58:53.000Z</time>
      </trkpt>
      <trkpt lat="47.19055" lon="3.22401">
        <ele>224.84170532227</ele>
        <time>2015-11-04T12:58:54.000Z</time>
      </trkpt>
      <trkpt lat="47.19057" lon="3.22399">
        <ele>224.63204956055</ele>
        <time>2015-11-04T12:58:56.000Z</time>
      </trkpt>
      <trkpt lat="47.19059" lon="3.22398">
        <ele>224.4169921875</ele>
        <time>2015-11-04T12:58:59.000Z</time>
      </trkpt>
      <trkpt lat="47.19063" lon="3.22396">
        <ele>224.14518737793</ele>
        <time>2015-11-04T12:59:02.000Z</time>
      </trkpt>
      <trkpt lat="47.19067" lon="3.22394">
        <ele>223.84379577637</ele>
        <time>2015-11-04T12:59:11.000Z</time>
      </trkpt>
      <trkpt lat="47.19069" lon="3.22392">
        <ele>223.54460144043</ele>
        <time>2015-11-04T12:59:13.000Z</time>
      </trkpt>
      <trkpt lat="47.19071" lon="3.22391">
        <ele>223.25483703613</ele>
        <time>2015-11-04T12:59:13.000Z</time>
      </trkpt>
      <trkpt lat="47.19072" lon="3.2239">
        <ele>222.98950195312</ele>
        <time>2015-11-04T12:59:14.000Z</time>
      </trkpt>
      <trkpt lat="47.19074" lon="3.22386">
        <ele>222.74966430664</ele>
        <time>2015-11-04T12:59:15.000Z</time>
      </trkpt>
      <trkpt lat="47.19076" lon="3.22383">
        <ele>222.54232788086</ele>
        <time>2015-11-04T12:59:17.000Z</time>
      </trkpt>
      <trkpt lat="47.19078" lon="3.22381">
        <ele>222.33964538574</ele>
        <time>2015-11-04T12:59:19.000Z</time>
      </trkpt>
      <trkpt lat="47.19083" lon="3.2238">
        <ele>222.11201477051</ele>
        <time>2015-11-04T12:59:22.000Z</time>
      </trkpt>
      <trkpt lat="47.19084" lon="3.2238">
        <ele>221.89926147461</ele>
        <time>2015-11-04T12:59:24.000Z</time>
      </trkpt>
      <trkpt lat="47.19086" lon="3.2238">
        <ele>221.72802734375</ele>
        <time>2015-11-04T12:59:27.000Z</time>
      </trkpt>
      <trkpt lat="47.19092" lon="3.22376">
        <ele>221.55757141113</ele>
        <time>2015-11-04T12:59:33.000Z</time>
      </trkpt>
      <trkpt lat="47.19096" lon="3.22374">
        <ele>221.39465332031</ele>
        <time>2015-11-04T12:59:35.000Z</time>
      </trkpt>
      <trkpt lat="47.19099" lon="3.22372">
        <ele>221.27456665039</ele>
        <time>2015-11-04T12:59:35.000Z</time>
      </trkpt>
      <trkpt lat="47.19104" lon="3.22369">
        <ele>221.13394165039</ele>
        <time>2015-11-04T12:59:38.000Z</time>
      </trkpt>
      <trkpt lat="47.19106" lon="3.22367">
        <ele>220.98818969727</ele>
        <time>2015-11-04T12:59:42.000Z</time>
      </trkpt>
      <trkpt lat="47.19109" lon="3.22366">
        <ele>220.87063598633</ele>
        <time>2015-11-04T12:59:42.000Z</time>
      </trkpt>
      <trkpt lat="47.19112" lon="3.22364">
        <ele>220.76005554199</ele>
        <time>2015-11-04T12:59:44.000Z</time>
      </trkpt>
      <trkpt lat="47.19114" lon="3.22363">
        <ele>220.65737915039</ele>
        <time>2015-11-04T12:59:46.000Z</time>
      </trkpt>
      <trkpt lat="47.19117" lon="3.22362">
        <ele>220.56900024414</ele>
        <time>2015-11-04T12:59:48.000Z</time>
      </trkpt>
      <trkpt lat="47.1912" lon="3.2236">
        <ele>220.48403930664</ele>
        <time>2015-11-04T12:59:51.000Z</time>
      </trkpt>
      <trkpt lat="47.19123" lon="3.22358">
        <ele>220.39248657227</ele>
        <time>2015-11-04T12:59:53.000Z</time>
      </trkpt>
      <trkpt lat="47.19125" lon="3.22356">
        <ele>220.30693054199</ele>
        <time>2015-11-04T12:59:56.000Z</time>
      </trkpt>
      <trkpt lat="47.19128" lon="3.22353">
        <ele>220.22058105469</ele>
        <time>2015-11-04T12:59:59.000Z</time>
      </trkpt>
      <trkpt lat="47.1913" lon="3.2235">
        <ele>220.13554382324</ele>
        <time>2015-11-04T13:00:00.000Z</time>
      </trkpt>
      <trkpt lat="47.19133" lon="3.22349">
        <ele>220.04721069336</ele>
        <time>2015-11-04T13:00:03.000Z</time>
      </trkpt>
      <trkpt lat="47.19135" lon="3.22348">
        <ele>219.96870422363</ele>
        <time>2015-11-04T13:00:05.000Z</time>
      </trkpt>
      <trkpt lat="47.19139" lon="3.22346">
        <ele>219.88496398926</ele>
        <time>2015-11-04T13:00:10.000Z</time>
      </trkpt>
      <trkpt lat="47.19144" lon="3.22341">
        <ele>219.78967285156</ele>
        <time>2015-11-04T13:00:13.000Z</time>
      </trkpt>
      <trkpt lat="47.19149" lon="3.22338">
        <ele>219.6842956543</ele>
        <time>2015-11-04T13:00:16.000Z</time>
      </trkpt>
      <trkpt lat="47.19151" lon="3.22337">
        <ele>219.58529663086</ele>
        <time>2015-11-04T13:00:18.000Z</time>
      </trkpt>
      <trkpt lat="47.19154" lon="3.22335">
        <ele>219.48263549805</ele>
        <time>2015-11-04T13:00:20.000Z</time>
      </trkpt>
      <trkpt lat="47.19157" lon="3.22333">
        <ele>219.38671875</ele>
        <time>2015-11-04T13:00:22.000Z</time>
      </trkpt>
      <trkpt lat="47.19162" lon="3.22331">
        <ele>219.29489135742</ele>
        <time>2015-11-04T13:00:25.000Z</time>
      </trkpt>
      <trkpt lat="47.19164" lon="3.22329">
        <ele>219.21781921387</ele>
        <time>2015-11-04T13:00:27.000Z</time>
      </trkpt>
      <trkpt lat="47.19166" lon="3.22327">
        <ele>219.14379882812</ele>
        <time>2015-11-04T13:00:29.000Z</time>
      </trkpt>
      <trkpt lat="47.19168" lon="3.22325">
        <ele>219.09671020508</ele>
        <time>2015-11-04T13:00:32.000Z</time>
      </trkpt>
      <trkpt lat="47.1917" lon="3.22324">
        <ele>219.08114624023</ele>
        <time>2015-11-04T13:00:34.000Z</time>
      </trkpt>
      <trkpt lat="47.19174" lon="3.22321">
        <ele>219.11813354492</ele>
        <time>2015-11-04T13:00:37.000Z</time>
      </trkpt>
      <trkpt lat="47.19178" lon="3.22318">
        <ele>219.19267272949</ele>
        <time>2015-11-04T13:00:40.000Z</time>
      </trkpt>
      <trkpt lat="47.1918" lon="3.22316">
        <ele>219.29570007324</ele>
        <time>2015-11-04T13:00:42.000Z</time>
      </trkpt>
      <trkpt lat="47.19182" lon="3.22314">
        <ele>219.39486694336</ele>
        <time>2015-11-04T13:00:45.000Z</time>
      </trkpt>
      <trkpt lat="47.19186" lon="3.22313">
        <ele>219.50170898438</ele>
        <time>2015-11-04T13:00:48.000Z</time>
      </trkpt>
      <trkpt lat="47.1919" lon="3.2231">
        <ele>219.60498046875</ele>
        <time>2015-11-04T13:00:51.000Z</time>
      </trkpt>
      <trkpt lat="47.19196" lon="3.22306">
        <ele>219.70698547363</ele>
        <time>2015-11-04T13:00:54.000Z</time>
      </trkpt>
      <trkpt lat="47.19199" lon="3.22303">
        <ele>219.79769897461</ele>
        <time>2015-11-04T13:00:56.000Z</time>
      </trkpt>
      <trkpt lat="47.19202" lon="3.22297">
        <ele>219.8779296875</ele>
        <time>2015-11-04T13:00:59.000Z</time>
      </trkpt>
      <trkpt lat="47.19207" lon="3.22294">
        <ele>219.94731140137</ele>
        <time>2015-11-04T13:01:02.000Z</time>
      </trkpt>
      <trkpt lat="47.1921" lon="3.22293">
        <ele>220.00015258789</ele>
        <time>2015-11-04T13:01:04.000Z</time>
      </trkpt>
      <trkpt lat="47.19213" lon="3.22292">
        <ele>220.04116821289</ele>
        <time>2015-11-04T13:01:06.000Z</time>
      </trkpt>
      <trkpt lat="47.19218" lon="3.22293">
        <ele>220.09945678711</ele>
        <time>2015-11-04T13:01:09.000Z</time>
      </trkpt>
      <trkpt lat="47.19223" lon="3.22295">
        <ele>220.19540405273</ele>
        <time>2015-11-04T13:01:12.000Z</time>
      </trkpt>
      <trkpt lat="47.19225" lon="3.22295">
        <ele>220.29064941406</ele>
        <time>2015-11-04T13:01:14.000Z</time>
      </trkpt>
      <trkpt lat="47.19228" lon="3.22295">
        <ele>220.39212036133</ele>
        <time>2015-11-04T13:01:17.000Z</time>
      </trkpt>
      <trkpt lat="47.1923" lon="3.22294">
        <ele>220.48385620117</ele>
        <time>2015-11-04T13:01:19.000Z</time>
      </trkpt>
      <trkpt lat="47.19234" lon="3.22291">
        <ele>220.54837036133</ele>
        <time>2015-11-04T13:01:22.000Z</time>
      </trkpt>
      <trkpt lat="47.19238" lon="3.22289">
        <ele>220.58073425293</ele>
        <time>2015-11-04T13:01:24.000Z</time>
      </trkpt>
      <trkpt lat="47.19241" lon="3.22284">
        <ele>220.56564331055</ele>
        <time>2015-11-04T13:01:27.000Z</time>
      </trkpt>
      <trkpt lat="47.19243" lon="3.22278">
        <ele>220.4970703125</ele>
        <time>2015-11-04T13:01:30.000Z</time>
      </trkpt>
      <trkpt lat="47.19246" lon="3.22276">
        <ele>220.41166687012</ele>
        <time>2015-11-04T13:01:32.000Z</time>
      </trkpt>
      <trkpt lat="47.19248" lon="3.22271">
        <ele>220.28630065918</ele>
        <time>2015-11-04T13:01:35.000Z</time>
      </trkpt>
      <trkpt lat="47.1925" lon="3.22268">
        <ele>220.13777160645</ele>
        <time>2015-11-04T13:01:37.000Z</time>
      </trkpt>
      <trkpt lat="47.19253" lon="3.22263">
        <ele>219.97872924805</ele>
        <time>2015-11-04T13:01:40.000Z</time>
      </trkpt>
      <trkpt lat="47.19254" lon="3.22259">
        <ele>219.82148742676</ele>
        <time>2015-11-04T13:01:42.000Z</time>
      </trkpt>
      <trkpt lat="47.19257" lon="3.22253">
        <ele>219.6266784668</ele>
        <time>2015-11-04T13:01:45.000Z</time>
      </trkpt>
      <trkpt lat="47.19259" lon="3.22248">
        <ele>219.4609375</ele>
        <time>2015-11-04T13:01:48.000Z</time>
      </trkpt>
      <trkpt lat="47.19262" lon="3.22242">
        <ele>219.33613586426</ele>
        <time>2015-11-04T13:01:51.000Z</time>
      </trkpt>
      <trkpt lat="47.19265" lon="3.22237">
        <ele>219.27587890625</ele>
        <time>2015-11-04T13:01:54.000Z</time>
      </trkpt>
      <trkpt lat="47.19267" lon="3.22233">
        <ele>219.26620483398</ele>
        <time>2015-11-04T13:01:56.000Z</time>
      </trkpt>
      <trkpt lat="47.19269" lon="3.22229">
        <ele>219.32344055176</ele>
        <time>2015-11-04T13:01:58.000Z</time>
      </trkpt>
      <trkpt lat="47.19271" lon="3.22223">
        <ele>219.41377258301</ele>
        <time>2015-11-04T13:02:01.000Z</time>
      </trkpt>
      <trkpt lat="47.19274" lon="3.22217">
        <ele>219.50024414062</ele>
        <time>2015-11-04T13:02:04.000Z</time>
      </trkpt>
      <trkpt lat="47.19277" lon="3.22212">
        <ele>219.58793640137</ele>
        <time>2015-11-04T13:02:07.000Z</time>
      </trkpt>
      <trkpt lat="47.19279" lon="3.22207">
        <ele>219.68017578125</ele>
        <time>2015-11-04T13:02:10.000Z</time>
      </trkpt>
      <trkpt lat="47.19281" lon="3.22204">
        <ele>219.76745605469</ele>
        <time>2015-11-04T13:02:12.000Z</time>
      </trkpt>
      <trkpt lat="47.19282" lon="3.222">
        <ele>219.84648132324</ele>
        <time>2015-11-04T13:02:14.000Z</time>
      </trkpt>
      <trkpt lat="47.19284" lon="3.22196">
        <ele>219.92158508301</ele>
        <time>2015-11-04T13:02:17.000Z</time>
      </trkpt>
      <trkpt lat="47.19285" lon="3.22192">
        <ele>219.98864746094</ele>
        <time>2015-11-04T13:02:20.000Z</time>
      </trkpt>
      <trkpt lat="47.19286" lon="3.22188">
        <ele>220.04992675781</ele>
        <time>2015-11-04T13:02:23.000Z</time>
      </trkpt>
      <trkpt lat="47.19288" lon="3.22184">
        <ele>220.11560058594</ele>
        <time>2015-11-04T13:02:26.000Z</time>
      </trkpt>
      <trkpt lat="47.1929" lon="3.2218">
        <ele>220.18193054199</ele>
        <time>2015-11-04T13:02:29.000Z</time>
      </trkpt>
      <trkpt lat="47.19291" lon="3.2218">
        <ele>220.23840332031</ele>
        <time>2015-11-04T13:02:32.000Z</time>
      </trkpt>
      <trkpt lat="47.19294" lon="3.2218">
        <ele>220.2900390625</ele>
        <time>2015-11-04T13:02:35.000Z</time>
      </trkpt>
      <trkpt lat="47.19297" lon="3.22179">
        <ele>220.33793640137</ele>
        <time>2015-11-04T13:02:38.000Z</time>
      </trkpt>
      <trkpt lat="47.19301" lon="3.22178">
        <ele>220.38154602051</ele>
        <time>2015-11-04T13:02:41.000Z</time>
      </trkpt>
      <trkpt lat="47.19303" lon="3.22178">
        <ele>220.41874694824</ele>
        <time>2015-11-04T13:02:43.000Z</time>
      </trkpt>
      <trkpt lat="47.19307" lon="3.22179">
        <ele>220.46166992188</ele>
        <time>2015-11-04T13:02:46.000Z</time>
      </trkpt>
      <trkpt lat="47.1931" lon="3.22178">
        <ele>220.50439453125</ele>
        <time>2015-11-04T13:02:48.000Z</time>
      </trkpt>
      <trkpt lat="47.19314" lon="3.22177">
        <ele>220.54968261719</ele>
        <time>2015-11-04T13:02:51.000Z</time>
      </trkpt>
      <trkpt lat="47.19316" lon="3.22178">
        <ele>220.587890625</ele>
        <time>2015-11-04T13:02:53.000Z</time>
      </trkpt>
      <trkpt lat="47.1932" lon="3.22177">
        <ele>220.62992858887</ele>
        <time>2015-11-04T13:02:56.000Z</time>
      </trkpt>
      <trkpt lat="47.19322" lon="3.22177">
        <ele>220.66777038574</ele>
        <time>2015-11-04T13:02:58.000Z</time>
      </trkpt>
      <trkpt lat="47.19324" lon="3.22177">
        <ele>220.70227050781</ele>
        <time>2015-11-04T13:03:01.000Z</time>
      </trkpt>
      <trkpt lat="47.19325" lon="3.22177">
        <ele>220.72969055176</ele>
        <time>2015-11-04T13:03:03.000Z</time>
      </trkpt>
      <trkpt lat="47.19326" lon="3.22177">
        <ele>220.75634765625</ele>
        <time>2015-11-04T13:03:14.000Z</time>
      </trkpt>
      <trkpt lat="47.19328" lon="3.22176">
        <ele>220.77729797363</ele>
        <time>2015-11-04T13:03:25.000Z</time>
      </trkpt>
      <trkpt lat="47.19329" lon="3.22176">
        <ele>220.79716491699</ele>
        <time>2015-11-04T13:03:28.000Z</time>
      </trkpt>
      <trkpt lat="47.19333" lon="3.22175">
        <ele>220.82263183594</ele>
        <time>2015-11-04T13:03:31.000Z</time>
      </trkpt>
      <trkpt lat="47.19337" lon="3.22174">
        <ele>220.84867858887</ele>
        <time>2015-11-04T13:03:34.000Z</time>
      </trkpt>
      <trkpt lat="47.19341" lon="3.22173">
        <ele>220.87617492676</ele>
        <time>2015-11-04T13:03:37.000Z</time>
      </trkpt>
      <trkpt lat="47.19343" lon="3.22171">
        <ele>220.90432739258</ele>
        <time>2015-11-04T13:03:40.000Z</time>
      </trkpt>
      <trkpt lat="47.19346" lon="3.22169">
        <ele>220.93258666992</ele>
        <time>2015-11-04T13:03:43.000Z</time>
      </trkpt>
      <trkpt lat="47.1935" lon="3.22168">
        <ele>220.9521484375</ele>
        <time>2015-11-04T13:03:46.000Z</time>
      </trkpt>
      <trkpt lat="47.19353" lon="3.22168">
        <ele>220.96806335449</ele>
        <time>2015-11-04T13:03:49.000Z</time>
      </trkpt>
      <trkpt lat="47.19355" lon="3.22167">
        <ele>220.98095703125</ele>
        <time>2015-11-04T13:03:51.000Z</time>
      </trkpt>
      <trkpt lat="47.19358" lon="3.22167">
        <ele>220.9889831543</ele>
        <time>2015-11-04T13:03:54.000Z</time>
      </trkpt>
      <trkpt lat="47.19361" lon="3.22166">
        <ele>220.99528503418</ele>
        <time>2015-11-04T13:03:57.000Z</time>
      </trkpt>
      <trkpt lat="47.19364" lon="3.22166">
        <ele>221.00166320801</ele>
        <time>2015-11-04T13:03:59.000Z</time>
      </trkpt>
      <trkpt lat="47.19367" lon="3.22164">
        <ele>221.01139831543</ele>
        <time>2015-11-04T13:04:02.000Z</time>
      </trkpt>
      <trkpt lat="47.1937" lon="3.22163">
        <ele>221.02090454102</ele>
        <time>2015-11-04T13:04:04.000Z</time>
      </trkpt>
      <trkpt lat="47.19374" lon="3.22164">
        <ele>221.02938842773</ele>
        <time>2015-11-04T13:04:07.000Z</time>
      </trkpt>
      <trkpt lat="47.19376" lon="3.22163">
        <ele>221.03559875488</ele>
        <time>2015-11-04T13:04:09.000Z</time>
      </trkpt>
      <trkpt lat="47.19379" lon="3.22163">
        <ele>221.04028320312</ele>
        <time>2015-11-04T13:04:12.000Z</time>
      </trkpt>
      <trkpt lat="47.19381" lon="3.22162">
        <ele>221.04177856445</ele>
        <time>2015-11-04T13:04:15.000Z</time>
      </trkpt>
      <trkpt lat="47.19385" lon="3.22163">
        <ele>221.03909301758</ele>
        <time>2015-11-04T13:04:18.000Z</time>
      </trkpt>
      <trkpt lat="47.19386" lon="3.22165">
        <ele>221.03482055664</ele>
        <time>2015-11-04T13:04:20.000Z</time>
      </trkpt>
      <trkpt lat="47.19387" lon="3.22164">
        <ele>221.0322265625</ele>
        <time>2015-11-04T13:04:27.000Z</time>
      </trkpt>
      <trkpt lat="47.19389" lon="3.22163">
        <ele>221.03018188477</ele>
        <time>2015-11-04T13:04:30.000Z</time>
      </trkpt>
      <trkpt lat="47.1939" lon="3.22163">
        <ele>221.02612304688</ele>
        <time>2015-11-04T13:04:33.000Z</time>
      </trkpt>
      <trkpt lat="47.19391" lon="3.22163">
        <ele>221.02465820312</ele>
        <time>2015-11-04T13:04:43.000Z</time>
      </trkpt>
      <trkpt lat="47.19392" lon="3.22164">
        <ele>221.02554321289</ele>
        <time>2015-11-04T13:04:49.000Z</time>
      </trkpt>
      <trkpt lat="47.19394" lon="3.22163">
        <ele>221.02563476562</ele>
        <time>2015-11-04T13:04:51.000Z</time>
      </trkpt>
      <trkpt lat="47.19397" lon="3.22162">
        <ele>221.02462768555</ele>
        <time>2015-11-04T13:04:54.000Z</time>
      </trkpt>
      <trkpt lat="47.194" lon="3.22162">
        <ele>221.02404785156</ele>
        <time>2015-11-04T13:04:57.000Z</time>
      </trkpt>
      <trkpt lat="47.19402" lon="3.22162">
        <ele>221.02380371094</ele>
        <time>2015-11-04T13:05:02.000Z</time>
      </trkpt>
      <trkpt lat="47.19404" lon="3.22161">
        <ele>221.02331542969</ele>
        <time>2015-11-04T13:05:11.000Z</time>
      </trkpt>
      <trkpt lat="47.19407" lon="3.22161">
        <ele>221.02116394043</ele>
        <time>2015-11-04T13:05:12.000Z</time>
      </trkpt>
      <trkpt lat="47.1941" lon="3.22162">
        <ele>221.01779174805</ele>
        <time>2015-11-04T13:05:12.000Z</time>
      </trkpt>
      <trkpt lat="47.19413" lon="3.22162">
        <ele>221.01445007324</ele>
        <time>2015-11-04T13:05:12.000Z</time>
      </trkpt>
      <trkpt lat="47.19415" lon="3.22162">
        <ele>221.01042175293</ele>
        <time>2015-11-04T13:05:13.000Z</time>
      </trkpt>
      <trkpt lat="47.19419" lon="3.22162">
        <ele>221.01528930664</ele>
        <time>2015-11-04T13:05:16.000Z</time>
      </trkpt>
      <trkpt lat="47.19421" lon="3.22162">
        <ele>221.03022766113</ele>
        <time>2015-11-04T13:05:19.000Z</time>
      </trkpt>
      <trkpt lat="47.19423" lon="3.22161">
        <ele>221.05606079102</ele>
        <time>2015-11-04T13:05:21.000Z</time>
      </trkpt>
      <trkpt lat="47.19423" lon="3.2216">
        <ele>221.08598327637</ele>
        <time>2015-11-04T13:05:29.000Z</time>
      </trkpt>
      <trkpt lat="47.19426" lon="3.22159">
        <ele>221.12783813477</ele>
        <time>2015-11-04T13:05:31.000Z</time>
      </trkpt>
      <trkpt lat="47.19429" lon="3.22159">
        <ele>221.17416381836</ele>
        <time>2015-11-04T13:05:33.000Z</time>
      </trkpt>
      <trkpt lat="47.19434" lon="3.22159">
        <ele>221.23364257812</ele>
        <time>2015-11-04T13:05:36.000Z</time>
      </trkpt>
      <trkpt lat="47.19438" lon="3.22159">
        <ele>221.30229187012</ele>
        <time>2015-11-04T13:05:39.000Z</time>
      </trkpt>
      <trkpt lat="47.19442" lon="3.22158">
        <ele>221.38925170898</ele>
        <time>2015-11-04T13:05:42.000Z</time>
      </trkpt>
      <trkpt lat="47.19447" lon="3.22159">
        <ele>221.48574829102</ele>
        <time>2015-11-04T13:05:45.000Z</time>
      </trkpt>
      <trkpt lat="47.1945" lon="3.22159">
        <ele>221.58493041992</ele>
        <time>2015-11-04T13:05:48.000Z</time>
      </trkpt>
      <trkpt lat="47.19455" lon="3.22161">
        <ele>221.68338012695</ele>
        <time>2015-11-04T13:05:51.000Z</time>
      </trkpt>
      <trkpt lat="47.19459" lon="3.2216">
        <ele>221.78158569336</ele>
        <time>2015-11-04T13:05:54.000Z</time>
      </trkpt>
      <trkpt lat="47.19462" lon="3.22159">
        <ele>221.87130737305</ele>
        <time>2015-11-04T13:05:57.000Z</time>
      </trkpt>
      <trkpt lat="47.19465" lon="3.22158">
        <ele>221.95413208008</ele>
        <time>2015-11-04T13:05:59.000Z</time>
      </trkpt>
      <trkpt lat="47.1947" lon="3.22156">
        <ele>222.04037475586</ele>
        <time>2015-11-04T13:06:02.000Z</time>
      </trkpt>
      <trkpt lat="47.19474" lon="3.22154">
        <ele>222.11962890625</ele>
        <time>2015-11-04T13:06:05.000Z</time>
      </trkpt>
      <trkpt lat="47.19479" lon="3.22153">
        <ele>222.20092773438</ele>
        <time>2015-11-04T13:06:08.000Z</time>
      </trkpt>
      <trkpt lat="47.19482" lon="3.22152">
        <ele>222.27934265137</ele>
        <time>2015-11-04T13:06:10.000Z</time>
      </trkpt>
      <trkpt lat="47.19486" lon="3.2215">
        <ele>222.35568237305</ele>
        <time>2015-11-04T13:06:13.000Z</time>
      </trkpt>
      <trkpt lat="47.19489" lon="3.22149">
        <ele>222.42391967773</ele>
        <time>2015-11-04T13:06:15.000Z</time>
      </trkpt>
      <trkpt lat="47.19492" lon="3.22149">
        <ele>222.48905944824</ele>
        <time>2015-11-04T13:06:18.000Z</time>
      </trkpt>
      <trkpt lat="47.19495" lon="3.22147">
        <ele>222.54614257812</ele>
        <time>2015-11-04T13:06:21.000Z</time>
      </trkpt>
      <trkpt lat="47.19498" lon="3.22146">
        <ele>222.60043334961</ele>
        <time>2015-11-04T13:06:23.000Z</time>
      </trkpt>
      <trkpt lat="47.19501" lon="3.22144">
        <ele>222.65287780762</ele>
        <time>2015-11-04T13:06:25.000Z</time>
      </trkpt>
      <trkpt lat="47.19503" lon="3.22143">
        <ele>222.70532226562</ele>
        <time>2015-11-04T13:06:27.000Z</time>
      </trkpt>
      <trkpt lat="47.19506" lon="3.22142">
        <ele>222.75634765625</ele>
        <time>2015-11-04T13:06:30.000Z</time>
      </trkpt>
      <trkpt lat="47.19511" lon="3.2214">
        <ele>222.81098937988</ele>
        <time>2015-11-04T13:06:33.000Z</time>
      </trkpt>
      <trkpt lat="47.19515" lon="3.22139">
        <ele>222.87780761719</ele>
        <time>2015-11-04T13:06:36.000Z</time>
      </trkpt>
      <trkpt lat="47.19518" lon="3.22138">
        <ele>222.94592285156</ele>
        <time>2015-11-04T13:06:38.000Z</time>
      </trkpt>
      <trkpt lat="47.19521" lon="3.22137">
        <ele>223.01574707031</ele>
        <time>2015-11-04T13:06:40.000Z</time>
      </trkpt>
      <trkpt lat="47.19524" lon="3.22136">
        <ele>223.08740234375</ele>
        <time>2015-11-04T13:06:43.000Z</time>
      </trkpt>
      <trkpt lat="47.19528" lon="3.22134">
        <ele>223.15596008301</ele>
        <time>2015-11-04T13:06:46.000Z</time>
      </trkpt>
      <trkpt lat="47.1953" lon="3.22133">
        <ele>223.21203613281</ele>
        <time>2015-11-04T13:06:50.000Z</time>
      </trkpt>
      <trkpt lat="47.19534" lon="3.2213">
        <ele>223.27095031738</ele>
        <time>2015-11-04T13:06:52.000Z</time>
      </trkpt>
      <trkpt lat="47.19538" lon="3.22127">
        <ele>223.32983398438</ele>
        <time>2015-11-04T13:06:54.000Z</time>
      </trkpt>
      <trkpt lat="47.1954" lon="3.22126">
        <ele>223.38037109375</ele>
        <time>2015-11-04T13:06:58.000Z</time>
      </trkpt>
      <trkpt lat="47.19544" lon="3.22123">
        <ele>223.43281555176</ele>
        <time>2015-11-04T13:06:59.000Z</time>
      </trkpt>
      <trkpt lat="47.19548" lon="3.2212">
        <ele>223.48832702637</ele>
        <time>2015-11-04T13:07:02.000Z</time>
      </trkpt>
      <trkpt lat="47.19551" lon="3.22119">
        <ele>223.54365539551</ele>
        <time>2015-11-04T13:07:05.000Z</time>
      </trkpt>
      <trkpt lat="47.19555" lon="3.22117">
        <ele>223.59663391113</ele>
        <time>2015-11-04T13:07:08.000Z</time>
      </trkpt>
      <trkpt lat="47.19556" lon="3.22116">
        <ele>223.65185546875</ele>
        <time>2015-11-04T13:07:23.000Z</time>
      </trkpt>
      <trkpt lat="47.19559" lon="3.22114">
        <ele>223.69917297363</ele>
        <time>2015-11-04T13:07:24.000Z</time>
      </trkpt>
      <trkpt lat="47.19563" lon="3.22111">
        <ele>223.74816894531</ele>
        <time>2015-11-04T13:07:24.000Z</time>
      </trkpt>
      <trkpt lat="47.19566" lon="3.22109">
        <ele>223.794921875</ele>
        <time>2015-11-04T13:07:24.000Z</time>
      </trkpt>
      <trkpt lat="47.1957" lon="3.22108">
        <ele>223.84834289551</ele>
        <time>2015-11-04T13:07:25.000Z</time>
      </trkpt>
      <trkpt lat="47.19572" lon="3.22107">
        <ele>223.89839172363</ele>
        <time>2015-11-04T13:07:25.000Z</time>
      </trkpt>
      <trkpt lat="47.19575" lon="3.22105">
        <ele>223.95581054688</ele>
        <time>2015-11-04T13:07:28.000Z</time>
      </trkpt>
      <trkpt lat="47.19579" lon="3.22103">
        <ele>224.01533508301</ele>
        <time>2015-11-04T13:07:29.000Z</time>
      </trkpt>
      <trkpt lat="47.19582" lon="3.22102">
        <ele>224.07385253906</ele>
        <time>2015-11-04T13:07:31.000Z</time>
      </trkpt>
      <trkpt lat="47.19585" lon="3.221">
        <ele>224.12551879883</ele>
        <time>2015-11-04T13:07:33.000Z</time>
      </trkpt>
      <trkpt lat="47.19588" lon="3.22098">
        <ele>224.19721984863</ele>
        <time>2015-11-04T13:07:36.000Z</time>
      </trkpt>
      <trkpt lat="47.19593" lon="3.22095">
        <ele>224.27673339844</ele>
        <time>2015-11-04T13:07:39.000Z</time>
      </trkpt>
      <trkpt lat="47.19596" lon="3.22093">
        <ele>224.359375</ele>
        <time>2015-11-04T13:07:42.000Z</time>
      </trkpt>
      <trkpt lat="47.19598" lon="3.22092">
        <ele>224.44416809082</ele>
        <time>2015-11-04T13:07:44.000Z</time>
      </trkpt>
      <trkpt lat="47.19601" lon="3.22091">
        <ele>224.53588867188</ele>
        <time>2015-11-04T13:07:46.000Z</time>
      </trkpt>
      <trkpt lat="47.19604" lon="3.22089">
        <ele>224.62142944336</ele>
        <time>2015-11-04T13:07:49.000Z</time>
      </trkpt>
      <trkpt lat="47.19608" lon="3.22087">
        <ele>224.71072387695</ele>
        <time>2015-11-04T13:07:52.000Z</time>
      </trkpt>
      <trkpt lat="47.1961" lon="3.22086">
        <ele>224.79472351074</ele>
        <time>2015-11-04T13:07:54.000Z</time>
      </trkpt>
      <trkpt lat="47.19614" lon="3.22083">
        <ele>224.89643859863</ele>
        <time>2015-11-04T13:07:57.000Z</time>
      </trkpt>
      <trkpt lat="47.19617" lon="3.22081">
        <ele>225.01196289062</ele>
        <time>2015-11-04T13:07:59.000Z</time>
      </trkpt>
      <trkpt lat="47.19622" lon="3.2208">
        <ele>225.14663696289</ele>
        <time>2015-11-04T13:08:02.000Z</time>
      </trkpt>
      <trkpt lat="47.19626" lon="3.22079">
        <ele>225.29028320312</ele>
        <time>2015-11-04T13:08:05.000Z</time>
      </trkpt>
      <trkpt lat="47.19629" lon="3.22078">
        <ele>225.4453125</ele>
        <time>2015-11-04T13:08:07.000Z</time>
      </trkpt>
      <trkpt lat="47.19632" lon="3.22078">
        <ele>225.59973144531</ele>
        <time>2015-11-04T13:08:10.000Z</time>
      </trkpt>
      <trkpt lat="47.19635" lon="3.22077">
        <ele>225.75219726562</ele>
        <time>2015-11-04T13:08:12.000Z</time>
      </trkpt>
      <trkpt lat="47.19638" lon="3.22075">
        <ele>225.89599609375</ele>
        <time>2015-11-04T13:08:15.000Z</time>
      </trkpt>
      <trkpt lat="47.19641" lon="3.22074">
        <ele>226.0302734375</ele>
        <time>2015-11-04T13:08:17.000Z</time>
      </trkpt>
      <trkpt lat="47.19644" lon="3.22072">
        <ele>226.17614746094</ele>
        <time>2015-11-04T13:08:20.000Z</time>
      </trkpt>
      <trkpt lat="47.19648" lon="3.22069">
        <ele>226.32983398438</ele>
        <time>2015-11-04T13:08:23.000Z</time>
      </trkpt>
      <trkpt lat="47.19651" lon="3.22068">
        <ele>226.48498535156</ele>
        <time>2015-11-04T13:08:26.000Z</time>
      </trkpt>
      <trkpt lat="47.19655" lon="3.22066">
        <ele>226.64990234375</ele>
        <time>2015-11-04T13:08:29.000Z</time>
      </trkpt>
      <trkpt lat="47.19659" lon="3.22065">
        <ele>226.82092285156</ele>
        <time>2015-11-04T13:08:31.000Z</time>
      </trkpt>
      <trkpt lat="47.19663" lon="3.22062">
        <ele>226.99731445312</ele>
        <time>2015-11-04T13:08:34.000Z</time>
      </trkpt>
      <trkpt lat="47.19667" lon="3.22061">
        <ele>227.17304992676</ele>
        <time>2015-11-04T13:08:37.000Z</time>
      </trkpt>
      <trkpt lat="47.1967" lon="3.22059">
        <ele>227.33589172363</ele>
        <time>2015-11-04T13:08:40.000Z</time>
      </trkpt>
      <trkpt lat="47.19674" lon="3.22057">
        <ele>227.48693847656</ele>
        <time>2015-11-04T13:08:43.000Z</time>
      </trkpt>
      <trkpt lat="47.19677" lon="3.22056">
        <ele>227.61917114258</ele>
        <time>2015-11-04T13:08:45.000Z</time>
      </trkpt>
      <trkpt lat="47.19679" lon="3.22053">
        <ele>227.73161315918</ele>
        <time>2015-11-04T13:08:48.000Z</time>
      </trkpt>
      <trkpt lat="47.19682" lon="3.2205">
        <ele>227.8285369873</ele>
        <time>2015-11-04T13:08:51.000Z</time>
      </trkpt>
      <trkpt lat="47.19686" lon="3.22048">
        <ele>227.92594909668</ele>
        <time>2015-11-04T13:08:54.000Z</time>
      </trkpt>
      <trkpt lat="47.19687" lon="3.22047">
        <ele>228.00436401367</ele>
        <time>2015-11-04T13:08:56.000Z</time>
      </trkpt>
      <trkpt lat="47.1969" lon="3.22046">
        <ele>228.08090209961</ele>
        <time>2015-11-04T13:08:58.000Z</time>
      </trkpt>
      <trkpt lat="47.19694" lon="3.22045">
        <ele>228.14965820312</ele>
        <time>2015-11-04T13:09:01.000Z</time>
      </trkpt>
      <trkpt lat="47.19698" lon="3.22043">
        <ele>228.21366882324</ele>
        <time>2015-11-04T13:09:04.000Z</time>
      </trkpt>
      <trkpt lat="47.19701" lon="3.22042">
        <ele>228.27035522461</ele>
        <time>2015-11-04T13:09:06.000Z</time>
      </trkpt>
      <trkpt lat="47.19703" lon="3.22041">
        <ele>228.33139038086</ele>
        <time>2015-11-04T13:09:08.000Z</time>
      </trkpt>
      <trkpt lat="47.19706" lon="3.22041">
        <ele>228.38827514648</ele>
        <time>2015-11-04T13:09:11.000Z</time>
      </trkpt>
      <trkpt lat="47.19708" lon="3.2204">
        <ele>228.43960571289</ele>
        <time>2015-11-04T13:09:13.000Z</time>
      </trkpt>
      <trkpt lat="47.19711" lon="3.22038">
        <ele>228.484375</ele>
        <time>2015-11-04T13:09:16.000Z</time>
      </trkpt>
      <trkpt lat="47.19715" lon="3.22037">
        <ele>228.53060913086</ele>
        <time>2015-11-04T13:09:19.000Z</time>
      </trkpt>
      <trkpt lat="47.19719" lon="3.22035">
        <ele>228.57829284668</ele>
        <time>2015-11-04T13:09:22.000Z</time>
      </trkpt>
      <trkpt lat="47.1972" lon="3.2203">
        <ele>228.63150024414</ele>
        <time>2015-11-04T13:09:25.000Z</time>
      </trkpt>
      <trkpt lat="47.19722" lon="3.22027">
        <ele>228.68371582031</ele>
        <time>2015-11-04T13:09:27.000Z</time>
      </trkpt>
      <trkpt lat="47.19723" lon="3.22024">
        <ele>228.73300170898</ele>
        <time>2015-11-04T13:09:29.000Z</time>
      </trkpt>
      <trkpt lat="47.19724" lon="3.22022">
        <ele>228.7748260498</ele>
        <time>2015-11-04T13:09:31.000Z</time>
      </trkpt>
      <trkpt lat="47.19726" lon="3.22017">
        <ele>228.81327819824</ele>
        <time>2015-11-04T13:09:34.000Z</time>
      </trkpt>
      <trkpt lat="47.19728" lon="3.22014">
        <ele>228.84609985352</ele>
        <time>2015-11-04T13:09:36.000Z</time>
      </trkpt>
      <trkpt lat="47.19729" lon="3.2201">
        <ele>228.8779296875</ele>
        <time>2015-11-04T13:09:38.000Z</time>
      </trkpt>
      <trkpt lat="47.19731" lon="3.22006">
        <ele>228.90853881836</ele>
        <time>2015-11-04T13:09:41.000Z</time>
      </trkpt>
      <trkpt lat="47.19733" lon="3.22002">
        <ele>228.93872070312</ele>
        <time>2015-11-04T13:09:43.000Z</time>
      </trkpt>
      <trkpt lat="47.19735" lon="3.21996">
        <ele>228.96899414062</ele>
        <time>2015-11-04T13:09:46.000Z</time>
      </trkpt>
      <trkpt lat="47.19736" lon="3.21993">
        <ele>228.99694824219</ele>
        <time>2015-11-04T13:09:48.000Z</time>
      </trkpt>
      <trkpt lat="47.19736" lon="3.21989">
        <ele>229.02709960938</ele>
        <time>2015-11-04T13:09:51.000Z</time>
      </trkpt>
      <trkpt lat="47.19737" lon="3.21986">
        <ele>229.05700683594</ele>
        <time>2015-11-04T13:09:53.000Z</time>
      </trkpt>
      <trkpt lat="47.19739" lon="3.21981">
        <ele>229.09292602539</ele>
        <time>2015-11-04T13:09:56.000Z</time>
      </trkpt>
      <trkpt lat="47.1974" lon="3.21979">
        <ele>229.1252746582</ele>
        <time>2015-11-04T13:09:58.000Z</time>
      </trkpt>
      <trkpt lat="47.19741" lon="3.21973">
        <ele>229.16589355469</ele>
        <time>2015-11-04T13:10:01.000Z</time>
      </trkpt>
      <trkpt lat="47.19743" lon="3.21969">
        <ele>229.2084197998</ele>
        <time>2015-11-04T13:10:03.000Z</time>
      </trkpt>
      <trkpt lat="47.19744" lon="3.21964">
        <ele>229.2578125</ele>
        <time>2015-11-04T13:10:06.000Z</time>
      </trkpt>
      <trkpt lat="47.19745" lon="3.21961">
        <ele>229.30673217773</ele>
        <time>2015-11-04T13:10:08.000Z</time>
      </trkpt>
      <trkpt lat="47.19747" lon="3.21958">
        <ele>229.36169433594</ele>
        <time>2015-11-04T13:10:10.000Z</time>
      </trkpt>
      <trkpt lat="47.19749" lon="3.21953">
        <ele>229.42024230957</ele>
        <time>2015-11-04T13:10:13.000Z</time>
      </trkpt>
      <trkpt lat="47.19751" lon="3.21948">
        <ele>229.49841308594</ele>
        <time>2015-11-04T13:10:16.000Z</time>
      </trkpt>
      <trkpt lat="47.19754" lon="3.21944">
        <ele>229.59628295898</ele>
        <time>2015-11-04T13:10:19.000Z</time>
      </trkpt>
      <trkpt lat="47.19755" lon="3.2194">
        <ele>229.70536804199</ele>
        <time>2015-11-04T13:10:22.000Z</time>
      </trkpt>
      <trkpt lat="47.19757" lon="3.21936">
        <ele>229.82943725586</ele>
        <time>2015-11-04T13:10:25.000Z</time>
      </trkpt>
      <trkpt lat="47.19758" lon="3.21932">
        <ele>229.95976257324</ele>
        <time>2015-11-04T13:10:27.000Z</time>
      </trkpt>
      <trkpt lat="47.19759" lon="3.21927">
        <ele>230.08837890625</ele>
        <time>2015-11-04T13:10:30.000Z</time>
      </trkpt>
      <trkpt lat="47.19761" lon="3.21923">
        <ele>230.20268249512</ele>
        <time>2015-11-04T13:10:33.000Z</time>
      </trkpt>
      <trkpt lat="47.19761" lon="3.21918">
        <ele>230.31391906738</ele>
        <time>2015-11-04T13:10:35.000Z</time>
      </trkpt>
      <trkpt lat="47.19761" lon="3.21915">
        <ele>230.40747070312</ele>
        <time>2015-11-04T13:10:38.000Z</time>
      </trkpt>
      <trkpt lat="47.19762" lon="3.2191">
        <ele>230.49914550781</ele>
        <time>2015-11-04T13:10:41.000Z</time>
      </trkpt>
      <trkpt lat="47.19762" lon="3.21907">
        <ele>230.56513977051</ele>
        <time>2015-11-04T13:10:43.000Z</time>
      </trkpt>
      <trkpt lat="47.19762" lon="3.21903">
        <ele>230.63232421875</ele>
        <time>2015-11-04T13:10:46.000Z</time>
      </trkpt>
      <trkpt lat="47.19764" lon="3.219">
        <ele>230.70373535156</ele>
        <time>2015-11-04T13:10:48.000Z</time>
      </trkpt>
      <trkpt lat="47.19766" lon="3.21896">
        <ele>230.79692077637</ele>
        <time>2015-11-04T13:10:51.000Z</time>
      </trkpt>
      <trkpt lat="47.19767" lon="3.21893">
        <ele>230.88334655762</ele>
        <time>2015-11-04T13:10:53.000Z</time>
      </trkpt>
      <trkpt lat="47.19768" lon="3.21888">
        <ele>230.99230957031</ele>
        <time>2015-11-04T13:10:56.000Z</time>
      </trkpt>
      <trkpt lat="47.1977" lon="3.21883">
        <ele>231.11840820312</ele>
        <time>2015-11-04T13:10:59.000Z</time>
      </trkpt>
      <trkpt lat="47.19772" lon="3.21879">
        <ele>231.24296569824</ele>
        <time>2015-11-04T13:11:01.000Z</time>
      </trkpt>
      <trkpt lat="47.19773" lon="3.21874">
        <ele>231.36528015137</ele>
        <time>2015-11-04T13:11:04.000Z</time>
      </trkpt>
      <trkpt lat="47.19774" lon="3.21871">
        <ele>231.48905944824</ele>
        <time>2015-11-04T13:11:06.000Z</time>
      </trkpt>
      <trkpt lat="47.19777" lon="3.21865">
        <ele>231.62573242188</ele>
        <time>2015-11-04T13:11:09.000Z</time>
      </trkpt>
      <trkpt lat="47.19777" lon="3.21862">
        <ele>231.74169921875</ele>
        <time>2015-11-04T13:11:11.000Z</time>
      </trkpt>
      <trkpt lat="47.19779" lon="3.21857">
        <ele>231.86169433594</ele>
        <time>2015-11-04T13:11:14.000Z</time>
      </trkpt>
      <trkpt lat="47.19781" lon="3.21851">
        <ele>231.99189758301</ele>
        <time>2015-11-04T13:11:17.000Z</time>
      </trkpt>
      <trkpt lat="47.19783" lon="3.21846">
        <ele>232.13862609863</ele>
        <time>2015-11-04T13:11:20.000Z</time>
      </trkpt>
      <trkpt lat="47.19784" lon="3.21843">
        <ele>232.26623535156</ele>
        <time>2015-11-04T13:11:22.000Z</time>
      </trkpt>
      <trkpt lat="47.19785" lon="3.2184">
        <ele>232.392578125</ele>
        <time>2015-11-04T13:11:25.000Z</time>
      </trkpt>
      <trkpt lat="47.19785" lon="3.21839">
        <ele>232.49743652344</ele>
        <time>2015-11-04T13:11:27.000Z</time>
      </trkpt>
      <trkpt lat="47.19786" lon="3.21837">
        <ele>232.58110046387</ele>
        <time>2015-11-04T13:11:29.000Z</time>
      </trkpt>
      <trkpt lat="47.19788" lon="3.21834">
        <ele>232.65653991699</ele>
        <time>2015-11-04T13:11:32.000Z</time>
      </trkpt>
      <trkpt lat="47.1979" lon="3.21828">
        <ele>232.73025512695</ele>
        <time>2015-11-04T13:11:35.000Z</time>
      </trkpt>
      <trkpt lat="47.19791" lon="3.21825">
        <ele>232.80160522461</ele>
        <time>2015-11-04T13:11:48.000Z</time>
      </trkpt>
      <trkpt lat="47.19792" lon="3.21823">
        <ele>232.88150024414</ele>
        <time>2015-11-04T13:11:48.000Z</time>
      </trkpt>
      <trkpt lat="47.19794" lon="3.21818">
        <ele>232.96011352539</ele>
        <time>2015-11-04T13:11:49.000Z</time>
      </trkpt>
      <trkpt lat="47.19796" lon="3.21813">
        <ele>233.03515625</ele>
        <time>2015-11-04T13:11:49.000Z</time>
      </trkpt>
      <trkpt lat="47.19797" lon="3.2181">
        <ele>233.1015625</ele>
        <time>2015-11-04T13:11:49.000Z</time>
      </trkpt>
      <trkpt lat="47.19798" lon="3.21806">
        <ele>233.171875</ele>
        <time>2015-11-04T13:11:51.000Z</time>
      </trkpt>
      <trkpt lat="47.19799" lon="3.21804">
        <ele>233.23828125</ele>
        <time>2015-11-04T13:11:53.000Z</time>
      </trkpt>
      <trkpt lat="47.198" lon="3.21801">
        <ele>233.296875</ele>
        <time>2015-11-04T13:11:55.000Z</time>
      </trkpt>
      <trkpt lat="47.19801" lon="3.21796">
        <ele>233.3515625</ele>
        <time>2015-11-04T13:11:58.000Z</time>
      </trkpt>
      <trkpt lat="47.19802" lon="3.2179">
        <ele>233.41015625</ele>
        <time>2015-11-04T13:12:01.000Z</time>
      </trkpt>
      <trkpt lat="47.19804" lon="3.21784">
        <ele>233.46484375</ele>
        <time>2015-11-04T13:12:04.000Z</time>
      </trkpt>
      <trkpt lat="47.19805" lon="3.21781">
        <ele>233.5234375</ele>
        <time>2015-11-04T13:12:06.000Z</time>
      </trkpt>
      <trkpt lat="47.19807" lon="3.21777">
        <ele>233.59375</ele>
        <time>2015-11-04T13:12:09.000Z</time>
      </trkpt>
      <trkpt lat="47.19809" lon="3.21774">
        <ele>233.6640625</ele>
        <time>2015-11-04T13:12:11.000Z</time>
      </trkpt>
      <trkpt lat="47.1981" lon="3.2177">
        <ele>233.73046875</ele>
        <time>2015-11-04T13:12:13.000Z</time>
      </trkpt>
      <trkpt lat="47.19811" lon="3.21767">
        <ele>233.796875</ele>
        <time>2015-11-04T13:12:15.000Z</time>
      </trkpt>
      <trkpt lat="47.19813" lon="3.21762">
        <ele>233.87109375</ele>
        <time>2015-11-04T13:12:18.000Z</time>
      </trkpt>
      <trkpt lat="47.19814" lon="3.21758">
        <ele>233.93359375</ele>
        <time>2015-11-04T13:12:21.000Z</time>
      </trkpt>
      <trkpt lat="47.19815" lon="3.21754">
        <ele>233.99609375</ele>
        <time>2015-11-04T13:12:24.000Z</time>
      </trkpt>
      <trkpt lat="47.19817" lon="3.21748">
        <ele>234.06257629395</ele>
        <time>2015-11-04T13:12:27.000Z</time>
      </trkpt>
      <trkpt lat="47.19819" lon="3.21743">
        <ele>234.12881469727</ele>
        <time>2015-11-04T13:12:30.000Z</time>
      </trkpt>
      <trkpt lat="47.1982" lon="3.2174">
        <ele>234.17520141602</ele>
        <time>2015-11-04T13:12:32.000Z</time>
      </trkpt>
      <trkpt lat="47.19822" lon="3.21736">
        <ele>234.21989440918</ele>
        <time>2015-11-04T13:12:34.000Z</time>
      </trkpt>
      <trkpt lat="47.19824" lon="3.21732">
        <ele>234.25793457031</ele>
        <time>2015-11-04T13:12:37.000Z</time>
      </trkpt>
      <trkpt lat="47.19825" lon="3.21727">
        <ele>234.28491210938</ele>
        <time>2015-11-04T13:12:40.000Z</time>
      </trkpt>
      <trkpt lat="47.19826" lon="3.21724">
        <ele>234.30114746094</ele>
        <time>2015-11-04T13:12:42.000Z</time>
      </trkpt>
      <trkpt lat="47.19828" lon="3.21719">
        <ele>234.32189941406</ele>
        <time>2015-11-04T13:12:45.000Z</time>
      </trkpt>
      <trkpt lat="47.19828" lon="3.21715">
        <ele>234.32666015625</ele>
        <time>2015-11-04T13:12:47.000Z</time>
      </trkpt>
      <trkpt lat="47.19829" lon="3.21709">
        <ele>234.32275390625</ele>
        <time>2015-11-04T13:12:50.000Z</time>
      </trkpt>
      <trkpt lat="47.1983" lon="3.21705">
        <ele>234.31982421875</ele>
        <time>2015-11-04T13:12:52.000Z</time>
      </trkpt>
      <trkpt lat="47.19832" lon="3.217">
        <ele>234.31994628906</ele>
        <time>2015-11-04T13:12:55.000Z</time>
      </trkpt>
      <trkpt lat="47.19833" lon="3.21697">
        <ele>234.31665039062</ele>
        <time>2015-11-04T13:12:57.000Z</time>
      </trkpt>
      <trkpt lat="47.19834" lon="3.21691">
        <ele>234.32385253906</ele>
        <time>2015-11-04T13:13:00.000Z</time>
      </trkpt>
      <trkpt lat="47.19835" lon="3.21689">
        <ele>234.33500671387</ele>
        <time>2015-11-04T13:13:02.000Z</time>
      </trkpt>
      <trkpt lat="47.19835" lon="3.21686">
        <ele>234.34399414062</ele>
        <time>2015-11-04T13:13:04.000Z</time>
      </trkpt>
      <trkpt lat="47.19836" lon="3.21681">
        <ele>234.35513305664</ele>
        <time>2015-11-04T13:13:07.000Z</time>
      </trkpt>
      <trkpt lat="47.19838" lon="3.21675">
        <ele>234.37466430664</ele>
        <time>2015-11-04T13:13:10.000Z</time>
      </trkpt>
      <trkpt lat="47.19839" lon="3.2167">
        <ele>234.39421081543</ele>
        <time>2015-11-04T13:13:13.000Z</time>
      </trkpt>
      <trkpt lat="47.19839" lon="3.21665">
        <ele>234.41230773926</ele>
        <time>2015-11-04T13:13:16.000Z</time>
      </trkpt>
      <trkpt lat="47.19839" lon="3.21661">
        <ele>234.4418182373</ele>
        <time>2015-11-04T13:13:19.000Z</time>
      </trkpt>
      <trkpt lat="47.1984" lon="3.21656">
        <ele>234.48616027832</ele>
        <time>2015-11-04T13:13:22.000Z</time>
      </trkpt>
      <trkpt lat="47.1984" lon="3.21651">
        <ele>234.54000854492</ele>
        <time>2015-11-04T13:13:25.000Z</time>
      </trkpt>
      <trkpt lat="47.19841" lon="3.21646">
        <ele>234.62129211426</ele>
        <time>2015-11-04T13:13:28.000Z</time>
      </trkpt>
      <trkpt lat="47.19841" lon="3.21642">
        <ele>234.7154083252</ele>
        <time>2015-11-04T13:13:30.000Z</time>
      </trkpt>
      <trkpt lat="47.19843" lon="3.2164">
        <ele>234.8256072998</ele>
        <time>2015-11-04T13:13:32.000Z</time>
      </trkpt>
      <trkpt lat="47.19844" lon="3.21635">
        <ele>234.94909667969</ele>
        <time>2015-11-04T13:13:35.000Z</time>
      </trkpt>
      <trkpt lat="47.19844" lon="3.21631">
        <ele>235.07290649414</ele>
        <time>2015-11-04T13:13:38.000Z</time>
      </trkpt>
      <trkpt lat="47.19844" lon="3.21626">
        <ele>235.19160461426</ele>
        <time>2015-11-04T13:13:41.000Z</time>
      </trkpt>
      <trkpt lat="47.19845" lon="3.21621">
        <ele>235.31408691406</ele>
        <time>2015-11-04T13:13:44.000Z</time>
      </trkpt>
      <trkpt lat="47.19846" lon="3.21617">
        <ele>235.43103027344</ele>
        <time>2015-11-04T13:13:46.000Z</time>
      </trkpt>
      <trkpt lat="47.19846" lon="3.21612">
        <ele>235.53691101074</ele>
        <time>2015-11-04T13:13:49.000Z</time>
      </trkpt>
      <trkpt lat="47.19846" lon="3.21609">
        <ele>235.63932800293</ele>
        <time>2015-11-04T13:13:51.000Z</time>
      </trkpt>
      <trkpt lat="47.19847" lon="3.21604">
        <ele>235.748046875</ele>
        <time>2015-11-04T13:13:54.000Z</time>
      </trkpt>
      <trkpt lat="47.19847" lon="3.21601">
        <ele>235.85513305664</ele>
        <time>2015-11-04T13:13:56.000Z</time>
      </trkpt>
      <trkpt lat="47.19848" lon="3.21598">
        <ele>235.96548461914</ele>
        <time>2015-11-04T13:13:58.000Z</time>
      </trkpt>
      <trkpt lat="47.1985" lon="3.21593">
        <ele>236.09945678711</ele>
        <time>2015-11-04T13:14:01.000Z</time>
      </trkpt>
      <trkpt lat="47.19851" lon="3.21587">
        <ele>236.2619934082</ele>
        <time>2015-11-04T13:14:04.000Z</time>
      </trkpt>
      <trkpt lat="47.19852" lon="3.21582">
        <ele>236.43127441406</ele>
        <time>2015-11-04T13:14:07.000Z</time>
      </trkpt>
      <trkpt lat="47.19852" lon="3.21578">
        <ele>236.61303710938</ele>
        <time>2015-11-04T13:14:09.000Z</time>
      </trkpt>
      <trkpt lat="47.19853" lon="3.21575">
        <ele>236.79333496094</ele>
        <time>2015-11-04T13:14:11.000Z</time>
      </trkpt>
      <trkpt lat="47.19854" lon="3.21571">
        <ele>236.98042297363</ele>
        <time>2015-11-04T13:14:14.000Z</time>
      </trkpt>
      <trkpt lat="47.19854" lon="3.21566">
        <ele>237.15803527832</ele>
        <time>2015-11-04T13:14:17.000Z</time>
      </trkpt>
      <trkpt lat="47.19854" lon="3.21562">
        <ele>237.32173156738</ele>
        <time>2015-11-04T13:14:20.000Z</time>
      </trkpt>
      <trkpt lat="47.19855" lon="3.21557">
        <ele>237.49531555176</ele>
        <time>2015-11-04T13:14:23.000Z</time>
      </trkpt>
      <trkpt lat="47.19855" lon="3.21552">
        <ele>237.68330383301</ele>
        <time>2015-11-04T13:14:26.000Z</time>
      </trkpt>
      <trkpt lat="47.19854" lon="3.21547">
        <ele>237.83154296875</ele>
        <time>2015-11-04T13:14:33.000Z</time>
      </trkpt>
      <trkpt lat="47.19854" lon="3.21545">
        <ele>237.96130371094</ele>
        <time>2015-11-04T13:14:37.000Z</time>
      </trkpt>
      <trkpt lat="47.19854" lon="3.21539">
        <ele>238.099609375</ele>
        <time>2015-11-04T13:14:38.000Z</time>
      </trkpt>
      <trkpt lat="47.19855" lon="3.21536">
        <ele>238.22848510742</ele>
        <time>2015-11-04T13:14:38.000Z</time>
      </trkpt>
      <trkpt lat="47.19855" lon="3.21531">
        <ele>238.35664367676</ele>
        <time>2015-11-04T13:14:38.000Z</time>
      </trkpt>
      <trkpt lat="47.19856" lon="3.21528">
        <ele>238.50581359863</ele>
        <time>2015-11-04T13:14:42.000Z</time>
      </trkpt>
      <trkpt lat="47.19856" lon="3.21523">
        <ele>238.66906738281</ele>
        <time>2015-11-04T13:14:54.000Z</time>
      </trkpt>
      <trkpt lat="47.19856" lon="3.2152">
        <ele>238.8251953125</ele>
        <time>2015-11-04T13:14:59.000Z</time>
      </trkpt>
      <trkpt lat="47.19856" lon="3.21517">
        <ele>238.97616577148</ele>
        <time>2015-11-04T13:14:59.000Z</time>
      </trkpt>
      <trkpt lat="47.19857" lon="3.21513">
        <ele>239.12588500977</ele>
        <time>2015-11-04T13:14:59.000Z</time>
      </trkpt>
      <trkpt lat="47.19857" lon="3.21508">
        <ele>239.28726196289</ele>
        <time>2015-11-04T13:15:01.000Z</time>
      </trkpt>
      <trkpt lat="47.19858" lon="3.21504">
        <ele>239.44198608398</ele>
        <time>2015-11-04T13:15:06.000Z</time>
      </trkpt>
      <trkpt lat="47.19858" lon="3.21504">
        <ele>239.44198608398</ele>
        <time>2015-11-04T13:15:33.000Z</time>
      </trkpt>
      <trkpt lat="47.19859" lon="3.21499">
        <ele>239.62446594238</ele>
        <time>2015-11-04T13:15:40.000Z</time>
      </trkpt>
      <trkpt lat="47.19859" lon="3.21495">
        <ele>239.81513977051</ele>
        <time>2015-11-04T13:15:41.000Z</time>
      </trkpt>
      <trkpt lat="47.1986" lon="3.2149">
        <ele>240.01889038086</ele>
        <time>2015-11-04T13:15:41.000Z</time>
      </trkpt>
      <trkpt lat="47.19861" lon="3.21484">
        <ele>240.23513793945</ele>
        <time>2015-11-04T13:15:42.000Z</time>
      </trkpt>
      <trkpt lat="47.19862" lon="3.21481">
        <ele>240.47875976562</ele>
        <time>2015-11-04T13:15:42.000Z</time>
      </trkpt>
      <trkpt lat="47.19863" lon="3.21477">
        <ele>240.72305297852</ele>
        <time>2015-11-04T13:15:42.000Z</time>
      </trkpt>
      <trkpt lat="47.19864" lon="3.21471">
        <ele>240.98469543457</ele>
        <time>2015-11-04T13:15:43.000Z</time>
      </trkpt>
      <trkpt lat="47.19867" lon="3.21467">
        <ele>241.28378295898</ele>
        <time>2015-11-04T13:15:44.000Z</time>
      </trkpt>
      <trkpt lat="47.19868" lon="3.21462">
        <ele>241.60293579102</ele>
        <time>2015-11-04T13:15:44.000Z</time>
      </trkpt>
      <trkpt lat="47.1987" lon="3.21459">
        <ele>241.92057800293</ele>
        <time>2015-11-04T13:15:44.000Z</time>
      </trkpt>
      <trkpt lat="47.19871" lon="3.21456">
        <ele>242.23397827148</ele>
        <time>2015-11-04T13:15:44.000Z</time>
      </trkpt>
      <trkpt lat="47.19873" lon="3.21453">
        <ele>242.5680847168</ele>
        <time>2015-11-04T13:15:44.000Z</time>
      </trkpt>
      <trkpt lat="47.19874" lon="3.2145">
        <ele>242.85144042969</ele>
        <time>2015-11-04T13:15:45.000Z</time>
      </trkpt>
      <trkpt lat="47.19875" lon="3.21448">
        <ele>243.10122680664</ele>
        <time>2015-11-04T13:15:45.000Z</time>
      </trkpt>
      <trkpt lat="47.19876" lon="3.21444">
        <ele>243.35331726074</ele>
        <time>2015-11-04T13:15:45.000Z</time>
      </trkpt>
      <trkpt lat="47.19877" lon="3.21442">
        <ele>243.58264160156</ele>
        <time>2015-11-04T13:15:45.000Z</time>
      </trkpt>
      <trkpt lat="47.19878" lon="3.21438">
        <ele>243.80285644531</ele>
        <time>2015-11-04T13:15:45.000Z</time>
      </trkpt>
      <trkpt lat="47.1988" lon="3.21433">
        <ele>244.06108093262</ele>
        <time>2015-11-04T13:15:46.000Z</time>
      </trkpt>
      <trkpt lat="47.19882" lon="3.21428">
        <ele>244.361328125</ele>
        <time>2015-11-04T13:15:46.000Z</time>
      </trkpt>
      <trkpt lat="47.19884" lon="3.21421">
        <ele>244.69157409668</ele>
        <time>2015-11-04T13:15:47.000Z</time>
      </trkpt>
      <trkpt lat="47.19884" lon="3.21418">
        <ele>245.02896118164</ele>
        <time>2015-11-04T13:15:49.000Z</time>
      </trkpt>
      <trkpt lat="47.19885" lon="3.21415">
        <ele>245.34692382812</ele>
        <time>2015-11-04T13:15:51.000Z</time>
      </trkpt>
      <trkpt lat="47.19887" lon="3.21412">
        <ele>245.63891601562</ele>
        <time>2015-11-04T13:15:54.000Z</time>
      </trkpt>
      <trkpt lat="47.19887" lon="3.21407">
        <ele>245.861328125</ele>
        <time>2015-11-04T13:15:57.000Z</time>
      </trkpt>
      <trkpt lat="47.19888" lon="3.21406">
        <ele>246.01542663574</ele>
        <time>2015-11-04T13:15:59.000Z</time>
      </trkpt>
      <trkpt lat="47.19888" lon="3.21403">
        <ele>246.15238952637</ele>
        <time>2015-11-04T13:16:01.000Z</time>
      </trkpt>
      <trkpt lat="47.19889" lon="3.21398">
        <ele>246.26480102539</ele>
        <time>2015-11-04T13:16:04.000Z</time>
      </trkpt>
      <trkpt lat="47.1989" lon="3.21394">
        <ele>246.38095092773</ele>
        <time>2015-11-04T13:16:07.000Z</time>
      </trkpt>
      <trkpt lat="47.19891" lon="3.21391">
        <ele>246.49496459961</ele>
        <time>2015-11-04T13:16:09.000Z</time>
      </trkpt>
      <trkpt lat="47.19891" lon="3.21389">
        <ele>246.62112426758</ele>
        <time>2015-11-04T13:16:11.000Z</time>
      </trkpt>
      <trkpt lat="47.19893" lon="3.21386">
        <ele>246.77066040039</ele>
        <time>2015-11-04T13:16:13.000Z</time>
      </trkpt>
      <trkpt lat="47.19893" lon="3.21384">
        <ele>246.90530395508</ele>
        <time>2015-11-04T13:16:16.000Z</time>
      </trkpt>
      <trkpt lat="47.19893" lon="3.2138">
        <ele>247.00619506836</ele>
        <time>2015-11-04T13:16:19.000Z</time>
      </trkpt>
      <trkpt lat="47.19894" lon="3.21375">
        <ele>247.13317871094</ele>
        <time>2015-11-04T13:16:22.000Z</time>
      </trkpt>
      <trkpt lat="47.19896" lon="3.21369">
        <ele>247.27871704102</ele>
        <time>2015-11-04T13:16:25.000Z</time>
      </trkpt>
      <trkpt lat="47.19896" lon="3.21366">
        <ele>247.40315246582</ele>
        <time>2015-11-04T13:16:28.000Z</time>
      </trkpt>
      <trkpt lat="47.19897" lon="3.21362">
        <ele>247.5541229248</ele>
        <time>2015-11-04T13:16:31.000Z</time>
      </trkpt>
      <trkpt lat="47.19897" lon="3.21359">
        <ele>247.71549987793</ele>
        <time>2015-11-04T13:16:33.000Z</time>
      </trkpt>
      <trkpt lat="47.19899" lon="3.21355">
        <ele>247.88790893555</ele>
        <time>2015-11-04T13:16:35.000Z</time>
      </trkpt>
      <trkpt lat="47.199" lon="3.21351">
        <ele>248.05952453613</ele>
        <time>2015-11-04T13:16:38.000Z</time>
      </trkpt>
      <trkpt lat="47.19902" lon="3.21346">
        <ele>248.26847839355</ele>
        <time>2015-11-04T13:16:41.000Z</time>
      </trkpt>
      <trkpt lat="47.19904" lon="3.21341">
        <ele>248.50381469727</ele>
        <time>2015-11-04T13:16:44.000Z</time>
      </trkpt>
      <trkpt lat="47.19905" lon="3.21336">
        <ele>248.78019714355</ele>
        <time>2015-11-04T13:16:47.000Z</time>
      </trkpt>
      <trkpt lat="47.19906" lon="3.21331">
        <ele>249.03036499023</ele>
        <time>2015-11-04T13:16:50.000Z</time>
      </trkpt>
      <trkpt lat="47.19907" lon="3.21327">
        <ele>249.23129272461</ele>
        <time>2015-11-04T13:16:53.000Z</time>
      </trkpt>
      <trkpt lat="47.19907" lon="3.21323">
        <ele>249.39639282227</ele>
        <time>2015-11-04T13:16:55.000Z</time>
      </trkpt>
      <trkpt lat="47.19909" lon="3.21319">
        <ele>249.53239440918</ele>
        <time>2015-11-04T13:16:58.000Z</time>
      </trkpt>
      <trkpt lat="47.1991" lon="3.21317">
        <ele>249.65034484863</ele>
        <time>2015-11-04T13:17:00.000Z</time>
      </trkpt>
      <trkpt lat="47.19912" lon="3.21314">
        <ele>249.78103637695</ele>
        <time>2015-11-04T13:17:02.000Z</time>
      </trkpt>
      <trkpt lat="47.19913" lon="3.21309">
        <ele>249.94033813477</ele>
        <time>2015-11-04T13:17:05.000Z</time>
      </trkpt>
      <trkpt lat="47.19915" lon="3.21304">
        <ele>250.11141967773</ele>
        <time>2015-11-04T13:17:08.000Z</time>
      </trkpt>
      <trkpt lat="47.19917" lon="3.21298">
        <ele>250.28198242188</ele>
        <time>2015-11-04T13:17:11.000Z</time>
      </trkpt>
      <trkpt lat="47.19918" lon="3.21293">
        <ele>250.43029785156</ele>
        <time>2015-11-04T13:17:14.000Z</time>
      </trkpt>
      <trkpt lat="47.1992" lon="3.21291">
        <ele>250.54804992676</ele>
        <time>2015-11-04T13:17:16.000Z</time>
      </trkpt>
      <trkpt lat="47.19921" lon="3.21287">
        <ele>250.67073059082</ele>
        <time>2015-11-04T13:17:19.000Z</time>
      </trkpt>
      <trkpt lat="47.19922" lon="3.21281">
        <ele>250.76286315918</ele>
        <time>2015-11-04T13:17:22.000Z</time>
      </trkpt>
      <trkpt lat="47.19924" lon="3.21276">
        <ele>250.85185241699</ele>
        <time>2015-11-04T13:17:25.000Z</time>
      </trkpt>
      <trkpt lat="47.19925" lon="3.21273">
        <ele>250.91960144043</ele>
        <time>2015-11-04T13:17:27.000Z</time>
      </trkpt>
      <trkpt lat="47.19926" lon="3.21268">
        <ele>250.9691619873</ele>
        <time>2015-11-04T13:17:30.000Z</time>
      </trkpt>
      <trkpt lat="47.19926" lon="3.21264">
        <ele>250.9948425293</ele>
        <time>2015-11-04T13:17:32.000Z</time>
      </trkpt>
      <trkpt lat="47.19927" lon="3.21262">
        <ele>251.02043151855</ele>
        <time>2015-11-04T13:17:34.000Z</time>
      </trkpt>
      <trkpt lat="47.19929" lon="3.21257">
        <ele>251.04228210449</ele>
        <time>2015-11-04T13:17:37.000Z</time>
      </trkpt>
      <trkpt lat="47.1993" lon="3.21254">
        <ele>251.06790161133</ele>
        <time>2015-11-04T13:17:39.000Z</time>
      </trkpt>
      <trkpt lat="47.1993" lon="3.21251">
        <ele>251.10073852539</ele>
        <time>2015-11-04T13:17:41.000Z</time>
      </trkpt>
      <trkpt lat="47.19931" lon="3.21248">
        <ele>251.14248657227</ele>
        <time>2015-11-04T13:17:44.000Z</time>
      </trkpt>
      <trkpt lat="47.19931" lon="3.21246">
        <ele>251.19473266602</ele>
        <time>2015-11-04T13:17:55.000Z</time>
      </trkpt>
      <trkpt lat="47.19931" lon="3.21244">
        <ele>251.23287963867</ele>
        <time>2015-11-04T13:17:58.000Z</time>
      </trkpt>
      <trkpt lat="47.19931" lon="3.21246">
        <ele>251.25344848633</ele>
        <time>2015-11-04T13:18:07.000Z</time>
      </trkpt>
      <trkpt lat="47.19931" lon="3.21246">
        <ele>251.25344848633</ele>
        <time>2015-11-04T13:18:27.000Z</time>
      </trkpt>
      <trkpt lat="47.19933" lon="3.21245">
        <ele>251.31205749512</ele>
        <time>2015-11-04T13:18:36.000Z</time>
      </trkpt>
      <trkpt lat="47.19933" lon="3.21247">
        <ele>251.35173034668</ele>
        <time>2015-11-04T13:18:39.000Z</time>
      </trkpt>
      <trkpt lat="47.19933" lon="3.21247">
        <ele>251.35173034668</ele>
        <time>2015-11-04T13:18:59.000Z</time>
      </trkpt>
      <trkpt lat="47.19932" lon="3.21248">
        <ele>251.36235046387</ele>
        <time>2015-11-04T13:18:59.000Z</time>
      </trkpt>
      <trkpt lat="47.19931" lon="3.21251">
        <ele>251.34126281738</ele>
        <time>2015-11-04T13:19:09.000Z</time>
      </trkpt>
      <trkpt lat="47.1993" lon="3.21252">
        <ele>251.32234191895</ele>
        <time>2015-11-04T13:19:14.000Z</time>
      </trkpt>
      <trkpt lat="47.19928" lon="3.21253">
        <ele>251.23767089844</ele>
        <time>2015-11-04T13:19:33.000Z</time>
      </trkpt>
      <trkpt lat="47.19928" lon="3.21255">
        <ele>251.14961242676</ele>
        <time>2015-11-04T13:19:35.000Z</time>
      </trkpt>
      <trkpt lat="47.19927" lon="3.21257">
        <ele>251.0739440918</ele>
        <time>2015-11-04T13:19:38.000Z</time>
      </trkpt>
      <trkpt lat="47.19927" lon="3.21259">
        <ele>251.02847290039</ele>
        <time>2015-11-04T13:19:40.000Z</time>
      </trkpt>
      <trkpt lat="47.19928" lon="3.21259">
        <ele>251.01571655273</ele>
        <time>2015-11-04T13:19:48.000Z</time>
      </trkpt>
      <trkpt lat="47.19933" lon="3.21261">
        <ele>251.11633300781</ele>
        <time>2015-11-04T13:20:05.000Z</time>
      </trkpt>
      <trkpt lat="47.19934" lon="3.21261">
        <ele>251.25024414062</ele>
        <time>2015-11-04T13:20:13.000Z</time>
      </trkpt>
      <trkpt lat="47.19934" lon="3.21259">
        <ele>251.38919067383</ele>
        <time>2015-11-04T13:20:18.000Z</time>
      </trkpt>
      <trkpt lat="47.19936" lon="3.21257">
        <ele>251.53791809082</ele>
        <time>2015-11-04T13:20:20.000Z</time>
      </trkpt>
      <trkpt lat="47.19936" lon="3.21253">
        <ele>251.65808105469</ele>
        <time>2015-11-04T13:20:23.000Z</time>
      </trkpt>
      <trkpt lat="47.19937" lon="3.21251">
        <ele>251.69409179688</ele>
        <time>2015-11-04T13:20:25.000Z</time>
      </trkpt>
      <trkpt lat="47.19938" lon="3.21246">
        <ele>251.72476196289</ele>
        <time>2015-11-04T13:20:28.000Z</time>
      </trkpt>
      <trkpt lat="47.19938" lon="3.2124">
        <ele>251.79721069336</ele>
        <time>2015-11-04T13:20:31.000Z</time>
      </trkpt>
      <trkpt lat="47.19938" lon="3.21234">
        <ele>251.88021850586</ele>
        <time>2015-11-04T13:20:34.000Z</time>
      </trkpt>
      <trkpt lat="47.19939" lon="3.2123">
        <ele>251.99429321289</ele>
        <time>2015-11-04T13:20:37.000Z</time>
      </trkpt>
      <trkpt lat="47.19941" lon="3.21227">
        <ele>252.14875793457</ele>
        <time>2015-11-04T13:20:40.000Z</time>
      </trkpt>
      <trkpt lat="47.19941" lon="3.21224">
        <ele>252.30659484863</ele>
        <time>2015-11-04T13:20:42.000Z</time>
      </trkpt>
      <trkpt lat="47.19942" lon="3.21221">
        <ele>252.44441223145</ele>
        <time>2015-11-04T13:20:45.000Z</time>
      </trkpt>
      <trkpt lat="47.19942" lon="3.21216">
        <ele>252.58280944824</ele>
        <time>2015-11-04T13:20:48.000Z</time>
      </trkpt>
      <trkpt lat="47.19942" lon="3.21214">
        <ele>252.70516967773</ele>
        <time>2015-11-04T13:20:50.000Z</time>
      </trkpt>
      <trkpt lat="47.19942" lon="3.2121">
        <ele>252.80078125</ele>
        <time>2015-11-04T13:20:53.000Z</time>
      </trkpt>
      <trkpt lat="47.19943" lon="3.21205">
        <ele>252.90658569336</ele>
        <time>2015-11-04T13:20:56.000Z</time>
      </trkpt>
      <trkpt lat="47.19944" lon="3.212">
        <ele>253.029296875</ele>
        <time>2015-11-04T13:21:07.000Z</time>
      </trkpt>
      <trkpt lat="47.19946" lon="3.21197">
        <ele>253.1644744873</ele>
        <time>2015-11-04T13:21:07.000Z</time>
      </trkpt>
      <trkpt lat="47.19947" lon="3.21194">
        <ele>253.32048034668</ele>
        <time>2015-11-04T13:21:07.000Z</time>
      </trkpt>
      <trkpt lat="47.19949" lon="3.21192">
        <ele>253.48860168457</ele>
        <time>2015-11-04T13:21:08.000Z</time>
      </trkpt>
      <trkpt lat="47.19949" lon="3.21188">
        <ele>253.65507507324</ele>
        <time>2015-11-04T13:21:11.000Z</time>
      </trkpt>
      <trkpt lat="47.19951" lon="3.21184">
        <ele>253.8159942627</ele>
        <time>2015-11-04T13:21:14.000Z</time>
      </trkpt>
      <trkpt lat="47.19952" lon="3.21181">
        <ele>253.96231079102</ele>
        <time>2015-11-04T13:21:17.000Z</time>
      </trkpt>
      <trkpt lat="47.19952" lon="3.21177">
        <ele>254.08723449707</ele>
        <time>2015-11-04T13:21:20.000Z</time>
      </trkpt>
      <trkpt lat="47.19952" lon="3.21172">
        <ele>254.21920776367</ele>
        <time>2015-11-04T13:21:23.000Z</time>
      </trkpt>
      <trkpt lat="47.19956" lon="3.21163">
        <ele>254.408203125</ele>
        <time>2015-11-04T13:21:26.000Z</time>
      </trkpt>
      <trkpt lat="47.19957" lon="3.21159">
        <ele>254.59494018555</ele>
        <time>2015-11-04T13:21:28.000Z</time>
      </trkpt>
      <trkpt lat="47.19956" lon="3.21152">
        <ele>254.79130554199</ele>
        <time>2015-11-04T13:21:31.000Z</time>
      </trkpt>
      <trkpt lat="47.19957" lon="3.21148">
        <ele>255.00588989258</ele>
        <time>2015-11-04T13:21:34.000Z</time>
      </trkpt>
      <trkpt lat="47.1996" lon="3.2114">
        <ele>255.26362609863</ele>
        <time>2015-11-04T13:21:37.000Z</time>
      </trkpt>
      <trkpt lat="47.1996" lon="3.21136">
        <ele>255.45431518555</ele>
        <time>2015-11-04T13:21:39.000Z</time>
      </trkpt>
      <trkpt lat="47.19963" lon="3.21132">
        <ele>255.6547088623</ele>
        <time>2015-11-04T13:21:41.000Z</time>
      </trkpt>
      <trkpt lat="47.19963" lon="3.21128">
        <ele>255.84066772461</ele>
        <time>2015-11-04T13:21:43.000Z</time>
      </trkpt>
      <trkpt lat="47.19965" lon="3.21125">
        <ele>256.02740478516</ele>
        <time>2015-11-04T13:21:46.000Z</time>
      </trkpt>
      <trkpt lat="47.19967" lon="3.21123">
        <ele>256.16268920898</ele>
        <time>2015-11-04T13:21:48.000Z</time>
      </trkpt>
      <trkpt lat="47.19968" lon="3.21119">
        <ele>256.2998046875</ele>
        <time>2015-11-04T13:21:51.000Z</time>
      </trkpt>
      <trkpt lat="47.19969" lon="3.21118">
        <ele>256.41415405273</ele>
        <time>2015-11-04T13:21:53.000Z</time>
      </trkpt>
      <trkpt lat="47.1997" lon="3.21113">
        <ele>256.53662109375</ele>
        <time>2015-11-04T13:21:56.000Z</time>
      </trkpt>
      <trkpt lat="47.19971" lon="3.21108">
        <ele>256.6565246582</ele>
        <time>2015-11-04T13:21:58.000Z</time>
      </trkpt>
      <trkpt lat="47.19972" lon="3.21103">
        <ele>256.77105712891</ele>
        <time>2015-11-04T13:22:01.000Z</time>
      </trkpt>
      <trkpt lat="47.19973" lon="3.211">
        <ele>256.87969970703</ele>
        <time>2015-11-04T13:22:03.000Z</time>
      </trkpt>
      <trkpt lat="47.19975" lon="3.21096">
        <ele>256.99502563477</ele>
        <time>2015-11-04T13:22:05.000Z</time>
      </trkpt>
      <trkpt lat="47.19975" lon="3.2109">
        <ele>257.10504150391</ele>
        <time>2015-11-04T13:22:08.000Z</time>
      </trkpt>
      <trkpt lat="47.19975" lon="3.21086">
        <ele>257.19317626953</ele>
        <time>2015-11-04T13:22:10.000Z</time>
      </trkpt>
      <trkpt lat="47.19975" lon="3.21084">
        <ele>257.26947021484</ele>
        <time>2015-11-04T13:22:12.000Z</time>
      </trkpt>
      <trkpt lat="47.19975" lon="3.21083">
        <ele>257.33081054688</ele>
        <time>2015-11-04T13:22:14.000Z</time>
      </trkpt>
      <trkpt lat="47.19976" lon="3.21077">
        <ele>257.37286376953</ele>
        <time>2015-11-04T13:22:17.000Z</time>
      </trkpt>
      <trkpt lat="47.19978" lon="3.21072">
        <ele>257.40322875977</ele>
        <time>2015-11-04T13:22:20.000Z</time>
      </trkpt>
      <trkpt lat="47.19979" lon="3.21068">
        <ele>257.43048095703</ele>
        <time>2015-11-04T13:22:23.000Z</time>
      </trkpt>
      <trkpt lat="47.19981" lon="3.21064">
        <ele>257.458984375</ele>
        <time>2015-11-04T13:22:26.000Z</time>
      </trkpt>
      <trkpt lat="47.19983" lon="3.2106">
        <ele>257.5</ele>
        <time>2015-11-04T13:22:29.000Z</time>
      </trkpt>
      <trkpt lat="47.19984" lon="3.21054">
        <ele>257.541015625</ele>
        <time>2015-11-04T13:22:31.000Z</time>
      </trkpt>
      <trkpt lat="47.19984" lon="3.21051">
        <ele>257.57421875</ele>
        <time>2015-11-04T13:22:34.000Z</time>
      </trkpt>
      <trkpt lat="47.19986" lon="3.21046">
        <ele>257.609375</ele>
        <time>2015-11-04T13:22:42.000Z</time>
      </trkpt>
      <trkpt lat="47.19987" lon="3.21043">
        <ele>257.638671875</ele>
        <time>2015-11-04T13:22:42.000Z</time>
      </trkpt>
      <trkpt lat="47.1999" lon="3.21037">
        <ele>257.669921875</ele>
        <time>2015-11-04T13:22:42.000Z</time>
      </trkpt>
      <trkpt lat="47.1999" lon="3.21034">
        <ele>257.69921875</ele>
        <time>2015-11-04T13:22:44.000Z</time>
      </trkpt>
      <trkpt lat="47.1999" lon="3.21029">
        <ele>257.7265625</ele>
        <time>2015-11-04T13:22:47.000Z</time>
      </trkpt>
      <trkpt lat="47.19992" lon="3.21026">
        <ele>257.75390625</ele>
        <time>2015-11-04T13:22:50.000Z</time>
      </trkpt>
      <trkpt lat="47.19994" lon="3.2102">
        <ele>257.7890625</ele>
        <time>2015-11-04T13:22:54.000Z</time>
      </trkpt>
      <trkpt lat="47.19995" lon="3.21017">
        <ele>257.8125</ele>
        <time>2015-11-04T13:22:56.000Z</time>
      </trkpt>
      <trkpt lat="47.19996" lon="3.21014">
        <ele>257.83984375</ele>
        <time>2015-11-04T13:23:01.000Z</time>
      </trkpt>
      <trkpt lat="47.19997" lon="3.21009">
        <ele>257.875</ele>
        <time>2015-11-04T13:23:02.000Z</time>
      </trkpt>
      <trkpt lat="47.19999" lon="3.21004">
        <ele>257.908203125</ele>
        <time>2015-11-04T13:23:05.000Z</time>
      </trkpt>
      <trkpt lat="47.19999" lon="3.21">
        <ele>257.93359375</ele>
        <time>2015-11-04T13:23:09.000Z</time>
      </trkpt>
      <trkpt lat="47.20001" lon="3.20995">
        <ele>257.98629760742</ele>
        <time>2015-11-04T13:23:10.000Z</time>
      </trkpt>
      <trkpt lat="47.20002" lon="3.20992">
        <ele>258.04348754883</ele>
        <time>2015-11-04T13:23:12.000Z</time>
      </trkpt>
      <trkpt lat="47.20001" lon="3.20989">
        <ele>258.09176635742</ele>
        <time>2015-11-04T13:23:15.000Z</time>
      </trkpt>
      <trkpt lat="47.20001" lon="3.20987">
        <ele>258.13836669922</ele>
        <time>2015-11-04T13:23:17.000Z</time>
      </trkpt>
      <trkpt lat="47.20002" lon="3.20981">
        <ele>258.21640014648</ele>
        <time>2015-11-04T13:23:20.000Z</time>
      </trkpt>
      <trkpt lat="47.20004" lon="3.20977">
        <ele>258.29071044922</ele>
        <time>2015-11-04T13:23:22.000Z</time>
      </trkpt>
      <trkpt lat="47.20007" lon="3.20973">
        <ele>258.40029907227</ele>
        <time>2015-11-04T13:23:25.000Z</time>
      </trkpt>
      <trkpt lat="47.20008" lon="3.20968">
        <ele>258.53091430664</ele>
        <time>2015-11-04T13:23:28.000Z</time>
      </trkpt>
      <trkpt lat="47.2001" lon="3.20963">
        <ele>258.68975830078</ele>
        <time>2015-11-04T13:23:31.000Z</time>
      </trkpt>
      <trkpt lat="47.20011" lon="3.20958">
        <ele>258.8310546875</ele>
        <time>2015-11-04T13:23:34.000Z</time>
      </trkpt>
      <trkpt lat="47.20012" lon="3.20956">
        <ele>258.95797729492</ele>
        <time>2015-11-04T13:23:37.000Z</time>
      </trkpt>
      <trkpt lat="47.20013" lon="3.20953">
        <ele>259.05697631836</ele>
        <time>2015-11-04T13:23:39.000Z</time>
      </trkpt>
      <trkpt lat="47.20013" lon="3.20949">
        <ele>259.14910888672</ele>
        <time>2015-11-04T13:23:42.000Z</time>
      </trkpt>
      <trkpt lat="47.20013" lon="3.20946">
        <ele>259.21542358398</ele>
        <time>2015-11-04T13:23:45.000Z</time>
      </trkpt>
      <trkpt lat="47.20012" lon="3.2094">
        <ele>259.27026367188</ele>
        <time>2015-11-04T13:23:48.000Z</time>
      </trkpt>
      <trkpt lat="47.20012" lon="3.20937">
        <ele>259.31790161133</ele>
        <time>2015-11-04T13:23:51.000Z</time>
      </trkpt>
      <trkpt lat="47.20013" lon="3.20934">
        <ele>259.35833740234</ele>
        <time>2015-11-04T13:23:53.000Z</time>
      </trkpt>
      <trkpt lat="47.20014" lon="3.20931">
        <ele>259.40225219727</ele>
        <time>2015-11-04T13:23:55.000Z</time>
      </trkpt>
      <trkpt lat="47.20015" lon="3.20928">
        <ele>259.45782470703</ele>
        <time>2015-11-04T13:23:58.000Z</time>
      </trkpt>
      <trkpt lat="47.20015" lon="3.20922">
        <ele>259.52157592773</ele>
        <time>2015-11-04T13:24:01.000Z</time>
      </trkpt>
      <trkpt lat="47.20017" lon="3.20918">
        <ele>259.60342407227</ele>
        <time>2015-11-04T13:24:06.000Z</time>
      </trkpt>
      <trkpt lat="47.20019" lon="3.20913">
        <ele>259.68832397461</ele>
        <time>2015-11-04T13:24:08.000Z</time>
      </trkpt>
      <trkpt lat="47.20019" lon="3.20909">
        <ele>259.75088500977</ele>
        <time>2015-11-04T13:24:11.000Z</time>
      </trkpt>
      <trkpt lat="47.2002" lon="3.20907">
        <ele>259.79525756836</ele>
        <time>2015-11-04T13:24:13.000Z</time>
      </trkpt>
      <trkpt lat="47.2002" lon="3.20905">
        <ele>259.82250976562</ele>
        <time>2015-11-04T13:24:16.000Z</time>
      </trkpt>
      <trkpt lat="47.2002" lon="3.20897">
        <ele>259.81121826172</ele>
        <time>2015-11-04T13:24:19.000Z</time>
      </trkpt>
      <trkpt lat="47.2002" lon="3.20894">
        <ele>259.77548217773</ele>
        <time>2015-11-04T13:24:21.000Z</time>
      </trkpt>
      <trkpt lat="47.2002" lon="3.20891">
        <ele>259.73880004883</ele>
        <time>2015-11-04T13:24:23.000Z</time>
      </trkpt>
      <trkpt lat="47.2002" lon="3.20887">
        <ele>259.69583129883</ele>
        <time>2015-11-04T13:24:26.000Z</time>
      </trkpt>
      <trkpt lat="47.20022" lon="3.20883">
        <ele>259.66293334961</ele>
        <time>2015-11-04T13:24:28.000Z</time>
      </trkpt>
      <trkpt lat="47.20023" lon="3.2088">
        <ele>259.63983154297</ele>
        <time>2015-11-04T13:24:31.000Z</time>
      </trkpt>
      <trkpt lat="47.20023" lon="3.20876">
        <ele>259.61883544922</ele>
        <time>2015-11-04T13:24:34.000Z</time>
      </trkpt>
      <trkpt lat="47.20024" lon="3.2087">
        <ele>259.59246826172</ele>
        <time>2015-11-04T13:24:37.000Z</time>
      </trkpt>
      <trkpt lat="47.20026" lon="3.20866">
        <ele>259.56573486328</ele>
        <time>2015-11-04T13:24:40.000Z</time>
      </trkpt>
      <trkpt lat="47.20026" lon="3.20861">
        <ele>259.52236938477</ele>
        <time>2015-11-04T13:24:43.000Z</time>
      </trkpt>
      <trkpt lat="47.20027" lon="3.20859">
        <ele>259.4778137207</ele>
        <time>2015-11-04T13:24:46.000Z</time>
      </trkpt>
      <trkpt lat="47.20027" lon="3.20856">
        <ele>259.43475341797</ele>
        <time>2015-11-04T13:24:48.000Z</time>
      </trkpt>
      <trkpt lat="47.20029" lon="3.20852">
        <ele>259.39453125</ele>
        <time>2015-11-04T13:24:51.000Z</time>
      </trkpt>
      <trkpt lat="47.20029" lon="3.20849">
        <ele>259.35189819336</ele>
        <time>2015-11-04T13:24:56.000Z</time>
      </trkpt>
      <trkpt lat="47.20029" lon="3.20845">
        <ele>259.30709838867</ele>
        <time>2015-11-04T13:24:56.000Z</time>
      </trkpt>
      <trkpt lat="47.20029" lon="3.20841">
        <ele>259.25479125977</ele>
        <time>2015-11-04T13:24:58.000Z</time>
      </trkpt>
      <trkpt lat="47.20032" lon="3.20837">
        <ele>259.19638061523</ele>
        <time>2015-11-04T13:25:01.000Z</time>
      </trkpt>
      <trkpt lat="47.20032" lon="3.2083">
        <ele>259.12286376953</ele>
        <time>2015-11-04T13:25:04.000Z</time>
      </trkpt>
      <trkpt lat="47.20033" lon="3.20824">
        <ele>259.03515625</ele>
        <time>2015-11-04T13:25:07.000Z</time>
      </trkpt>
      <trkpt lat="47.20033" lon="3.20819">
        <ele>258.93865966797</ele>
        <time>2015-11-04T13:25:12.000Z</time>
      </trkpt>
      <trkpt lat="47.20036" lon="3.20814">
        <ele>258.82943725586</ele>
        <time>2015-11-04T13:25:13.000Z</time>
      </trkpt>
      <trkpt lat="47.20039" lon="3.20809">
        <ele>258.70932006836</ele>
        <time>2015-11-04T13:25:15.000Z</time>
      </trkpt>
      <trkpt lat="47.20041" lon="3.20806">
        <ele>258.59219360352</ele>
        <time>2015-11-04T13:25:18.000Z</time>
      </trkpt>
      <trkpt lat="47.20041" lon="3.20804">
        <ele>258.48773193359</ele>
        <time>2015-11-04T13:25:20.000Z</time>
      </trkpt>
      <trkpt lat="47.20043" lon="3.20802">
        <ele>258.39056396484</ele>
        <time>2015-11-04T13:25:22.000Z</time>
      </trkpt>
      <trkpt lat="47.20044" lon="3.20798">
        <ele>258.29495239258</ele>
        <time>2015-11-04T13:25:25.000Z</time>
      </trkpt>
      <trkpt lat="47.20044" lon="3.20795">
        <ele>258.205078125</ele>
        <time>2015-11-04T13:25:28.000Z</time>
      </trkpt>
      <trkpt lat="47.20045" lon="3.20791">
        <ele>258.11407470703</ele>
        <time>2015-11-04T13:25:31.000Z</time>
      </trkpt>
      <trkpt lat="47.20045" lon="3.20785">
        <ele>258.00296020508</ele>
        <time>2015-11-04T13:25:33.000Z</time>
      </trkpt>
      <trkpt lat="47.20046" lon="3.20781">
        <ele>257.87539672852</ele>
        <time>2015-11-04T13:25:36.000Z</time>
      </trkpt>
      <trkpt lat="47.20047" lon="3.20778">
        <ele>257.75018310547</ele>
        <time>2015-11-04T13:25:38.000Z</time>
      </trkpt>
      <trkpt lat="47.20046" lon="3.20773">
        <ele>257.623046875</ele>
        <time>2015-11-04T13:25:41.000Z</time>
      </trkpt>
      <trkpt lat="47.20046" lon="3.2077">
        <ele>257.50106811523</ele>
        <time>2015-11-04T13:25:44.000Z</time>
      </trkpt>
      <trkpt lat="47.20049" lon="3.20766">
        <ele>257.37353515625</ele>
        <time>2015-11-04T13:25:50.000Z</time>
      </trkpt>
      <trkpt lat="47.2005" lon="3.20762">
        <ele>257.24154663086</ele>
        <time>2015-11-04T13:25:50.000Z</time>
      </trkpt>
      <trkpt lat="47.20051" lon="3.20759">
        <ele>257.10333251953</ele>
        <time>2015-11-04T13:25:54.000Z</time>
      </trkpt>
      <trkpt lat="47.20052" lon="3.20756">
        <ele>256.962890625</ele>
        <time>2015-11-04T13:25:57.000Z</time>
      </trkpt>
      <trkpt lat="47.20052" lon="3.20755">
        <ele>256.82943725586</ele>
        <time>2015-11-04T13:25:59.000Z</time>
      </trkpt>
      <trkpt lat="47.20053" lon="3.20753">
        <ele>256.71646118164</ele>
        <time>2015-11-04T13:26:06.000Z</time>
      </trkpt>
      <trkpt lat="47.20054" lon="3.20747">
        <ele>256.62542724609</ele>
        <time>2015-11-04T13:26:08.000Z</time>
      </trkpt>
      <trkpt lat="47.20054" lon="3.20742">
        <ele>256.59030151367</ele>
        <time>2015-11-04T13:26:11.000Z</time>
      </trkpt>
      <trkpt lat="47.20055" lon="3.20741">
        <ele>256.5793762207</ele>
        <time>2015-11-04T13:26:13.000Z</time>
      </trkpt>
      <trkpt lat="47.20058" lon="3.20736">
        <ele>256.58041381836</ele>
        <time>2015-11-04T13:26:16.000Z</time>
      </trkpt>
      <trkpt lat="47.2006" lon="3.20732">
        <ele>256.60308837891</ele>
        <time>2015-11-04T13:26:19.000Z</time>
      </trkpt>
      <trkpt lat="47.20061" lon="3.20731">
        <ele>256.63555908203</ele>
        <time>2015-11-04T13:26:21.000Z</time>
      </trkpt>
      <trkpt lat="47.20065" lon="3.20724">
        <ele>256.64556884766</ele>
        <time>2015-11-04T13:26:24.000Z</time>
      </trkpt>
      <trkpt lat="47.20069" lon="3.20719">
        <ele>256.65621948242</ele>
        <time>2015-11-04T13:26:27.000Z</time>
      </trkpt>
      <trkpt lat="47.20071" lon="3.20713">
        <ele>256.69226074219</ele>
        <time>2015-11-04T13:26:30.000Z</time>
      </trkpt>
      <trkpt lat="47.20073" lon="3.20709">
        <ele>256.73211669922</ele>
        <time>2015-11-04T13:26:33.000Z</time>
      </trkpt>
      <trkpt lat="47.20074" lon="3.20706">
        <ele>256.78387451172</ele>
        <time>2015-11-04T13:26:35.000Z</time>
      </trkpt>
      <trkpt lat="47.20076" lon="3.20701">
        <ele>256.84683227539</ele>
        <time>2015-11-04T13:26:38.000Z</time>
      </trkpt>
      <trkpt lat="47.20078" lon="3.20697">
        <ele>256.92425537109</ele>
        <time>2015-11-04T13:26:41.000Z</time>
      </trkpt>
      <trkpt lat="47.20078" lon="3.20693">
        <ele>257.0094909668</ele>
        <time>2015-11-04T13:26:44.000Z</time>
      </trkpt>
      <trkpt lat="47.20077" lon="3.2069">
        <ele>257.10437011719</ele>
        <time>2015-11-04T13:26:47.000Z</time>
      </trkpt>
      <trkpt lat="47.20076" lon="3.20686">
        <ele>257.22515869141</ele>
        <time>2015-11-04T13:26:50.000Z</time>
      </trkpt>
      <trkpt lat="47.20077" lon="3.20682">
        <ele>257.35491943359</ele>
        <time>2015-11-04T13:26:53.000Z</time>
      </trkpt>
      <trkpt lat="47.20077" lon="3.2068">
        <ele>257.47967529297</ele>
        <time>2015-11-04T13:26:56.000Z</time>
      </trkpt>
      <trkpt lat="47.20078" lon="3.20677">
        <ele>257.58511352539</ele>
        <time>2015-11-04T13:26:58.000Z</time>
      </trkpt>
      <trkpt lat="47.20079" lon="3.20674">
        <ele>257.69046020508</ele>
        <time>2015-11-04T13:27:01.000Z</time>
      </trkpt>
      <trkpt lat="47.20081" lon="3.2067">
        <ele>257.77386474609</ele>
        <time>2015-11-04T13:27:03.000Z</time>
      </trkpt>
      <trkpt lat="47.20083" lon="3.20667">
        <ele>257.84783935547</ele>
        <time>2015-11-04T13:27:06.000Z</time>
      </trkpt>
      <trkpt lat="47.20084" lon="3.20661">
        <ele>257.95443725586</ele>
        <time>2015-11-04T13:27:09.000Z</time>
      </trkpt>
      <trkpt lat="47.20085" lon="3.20657">
        <ele>258.07968139648</ele>
        <time>2015-11-04T13:27:11.000Z</time>
      </trkpt>
      <trkpt lat="47.20086" lon="3.20655">
        <ele>258.20388793945</ele>
        <time>2015-11-04T13:27:13.000Z</time>
      </trkpt>
      <trkpt lat="47.20089" lon="3.20649">
        <ele>258.38970947266</ele>
        <time>2015-11-04T13:27:16.000Z</time>
      </trkpt>
      <trkpt lat="47.20091" lon="3.20647">
        <ele>258.5888671875</ele>
        <time>2015-11-04T13:27:18.000Z</time>
      </trkpt>
      <trkpt lat="47.20092" lon="3.20645">
        <ele>258.76263427734</ele>
        <time>2015-11-04T13:27:20.000Z</time>
      </trkpt>
      <trkpt lat="47.20094" lon="3.20642">
        <ele>258.93255615234</ele>
        <time>2015-11-04T13:27:23.000Z</time>
      </trkpt>
      <trkpt lat="47.20095" lon="3.20638">
        <ele>259.12774658203</ele>
        <time>2015-11-04T13:27:26.000Z</time>
      </trkpt>
      <trkpt lat="47.20097" lon="3.20636">
        <ele>259.27130126953</ele>
        <time>2015-11-04T13:27:28.000Z</time>
      </trkpt>
      <trkpt lat="47.201" lon="3.20634">
        <ele>259.42236328125</ele>
        <time>2015-11-04T13:27:31.000Z</time>
      </trkpt>
      <trkpt lat="47.20102" lon="3.20631">
        <ele>259.59393310547</ele>
        <time>2015-11-04T13:27:34.000Z</time>
      </trkpt>
      <trkpt lat="47.20102" lon="3.20629">
        <ele>259.75469970703</ele>
        <time>2015-11-04T13:27:36.000Z</time>
      </trkpt>
      <trkpt lat="47.20103" lon="3.20627">
        <ele>259.88653564453</ele>
        <time>2015-11-04T13:27:39.000Z</time>
      </trkpt>
      <trkpt lat="47.20104" lon="3.20625">
        <ele>260.02221679688</ele>
        <time>2015-11-04T13:27:42.000Z</time>
      </trkpt>
      <trkpt lat="47.20104" lon="3.20623">
        <ele>260.13610839844</ele>
        <time>2015-11-04T13:27:44.000Z</time>
      </trkpt>
      <trkpt lat="47.20105" lon="3.20622">
        <ele>260.22399902344</ele>
        <time>2015-11-04T13:27:47.000Z</time>
      </trkpt>
      <trkpt lat="47.20106" lon="3.2062">
        <ele>260.31591796875</ele>
        <time>2015-11-04T13:27:49.000Z</time>
      </trkpt>
      <trkpt lat="47.20108" lon="3.20615">
        <ele>260.4404296875</ele>
        <time>2015-11-04T13:27:52.000Z</time>
      </trkpt>
      <trkpt lat="47.20109" lon="3.20613">
        <ele>260.56292724609</ele>
        <time>2015-11-04T13:27:54.000Z</time>
      </trkpt>
      <trkpt lat="47.2011" lon="3.20609">
        <ele>260.71051025391</ele>
        <time>2015-11-04T13:27:57.000Z</time>
      </trkpt>
      <trkpt lat="47.20111" lon="3.20607">
        <ele>260.86669921875</ele>
        <time>2015-11-04T13:27:59.000Z</time>
      </trkpt>
      <trkpt lat="47.20114" lon="3.20604">
        <ele>261.04028320312</ele>
        <time>2015-11-04T13:28:02.000Z</time>
      </trkpt>
      <trkpt lat="47.20115" lon="3.20602">
        <ele>261.1845703125</ele>
        <time>2015-11-04T13:28:04.000Z</time>
      </trkpt>
      <trkpt lat="47.20115" lon="3.20598">
        <ele>261.33856201172</ele>
        <time>2015-11-04T13:28:07.000Z</time>
      </trkpt>
      <trkpt lat="47.20117" lon="3.20594">
        <ele>261.49200439453</ele>
        <time>2015-11-04T13:28:11.000Z</time>
      </trkpt>
      <trkpt lat="47.20118" lon="3.20591">
        <ele>261.65258789062</ele>
        <time>2015-11-04T13:28:13.000Z</time>
      </trkpt>
      <trkpt lat="47.2012" lon="3.20585">
        <ele>261.83169555664</ele>
        <time>2015-11-04T13:28:16.000Z</time>
      </trkpt>
      <trkpt lat="47.2012" lon="3.2058">
        <ele>262.01748657227</ele>
        <time>2015-11-04T13:28:18.000Z</time>
      </trkpt>
      <trkpt lat="47.2012" lon="3.20576">
        <ele>262.18969726562</ele>
        <time>2015-11-04T13:28:20.000Z</time>
      </trkpt>
      <trkpt lat="47.20121" lon="3.20574">
        <ele>262.34375</ele>
        <time>2015-11-04T13:28:23.000Z</time>
      </trkpt>
      <trkpt lat="47.20122" lon="3.20573">
        <ele>262.47891235352</ele>
        <time>2015-11-04T13:28:25.000Z</time>
      </trkpt>
      <trkpt lat="47.20122" lon="3.20571">
        <ele>262.56140136719</ele>
        <time>2015-11-04T13:28:28.000Z</time>
      </trkpt>
      <trkpt lat="47.20124" lon="3.20569">
        <ele>262.6435546875</ele>
        <time>2015-11-04T13:28:34.000Z</time>
      </trkpt>
      <trkpt lat="47.20125" lon="3.20566">
        <ele>262.73156738281</ele>
        <time>2015-11-04T13:28:36.000Z</time>
      </trkpt>
      <trkpt lat="47.2013" lon="3.20563">
        <ele>262.84387207031</ele>
        <time>2015-11-04T13:28:38.000Z</time>
      </trkpt>
      <trkpt lat="47.20132" lon="3.2056">
        <ele>262.97705078125</ele>
        <time>2015-11-04T13:28:40.000Z</time>
      </trkpt>
      <trkpt lat="47.20133" lon="3.20556">
        <ele>263.1279296875</ele>
        <time>2015-11-04T13:28:43.000Z</time>
      </trkpt>
      <trkpt lat="47.20134" lon="3.20553">
        <ele>263.27551269531</ele>
        <time>2015-11-04T13:28:45.000Z</time>
      </trkpt>
      <trkpt lat="47.20135" lon="3.20551">
        <ele>263.41455078125</ele>
        <time>2015-11-04T13:28:47.000Z</time>
      </trkpt>
      <trkpt lat="47.20136" lon="3.2055">
        <ele>263.52282714844</ele>
        <time>2015-11-04T13:28:50.000Z</time>
      </trkpt>
      <trkpt lat="47.20139" lon="3.20547">
        <ele>263.63549804688</ele>
        <time>2015-11-04T13:28:53.000Z</time>
      </trkpt>
      <trkpt lat="47.2014" lon="3.20546">
        <ele>263.73364257812</ele>
        <time>2015-11-04T13:28:57.000Z</time>
      </trkpt>
      <trkpt lat="47.20142" lon="3.20539">
        <ele>263.8623046875</ele>
        <time>2015-11-04T13:29:00.000Z</time>
      </trkpt>
      <trkpt lat="47.20143" lon="3.20538">
        <ele>263.98754882812</ele>
        <time>2015-11-04T13:29:02.000Z</time>
      </trkpt>
      <trkpt lat="47.20148" lon="3.20534">
        <ele>264.14855957031</ele>
        <time>2015-11-04T13:29:05.000Z</time>
      </trkpt>
      <trkpt lat="47.2015" lon="3.20533">
        <ele>264.296875</ele>
        <time>2015-11-04T13:29:07.000Z</time>
      </trkpt>
      <trkpt lat="47.20152" lon="3.20532">
        <ele>264.45129394531</ele>
        <time>2015-11-04T13:29:10.000Z</time>
      </trkpt>
      <trkpt lat="47.20155" lon="3.20529">
        <ele>264.59057617188</ele>
        <time>2015-11-04T13:29:13.000Z</time>
      </trkpt>
      <trkpt lat="47.20156" lon="3.20527">
        <ele>264.73754882812</ele>
        <time>2015-11-04T13:29:16.000Z</time>
      </trkpt>
      <trkpt lat="47.20158" lon="3.20526">
        <ele>264.84924316406</ele>
        <time>2015-11-04T13:29:19.000Z</time>
      </trkpt>
      <trkpt lat="47.20159" lon="3.20525">
        <ele>264.94946289062</ele>
        <time>2015-11-04T13:29:21.000Z</time>
      </trkpt>
      <trkpt lat="47.20163" lon="3.20525">
        <ele>265.06164550781</ele>
        <time>2015-11-04T13:29:23.000Z</time>
      </trkpt>
      <trkpt lat="47.20165" lon="3.20523">
        <ele>265.16540527344</ele>
        <time>2015-11-04T13:29:26.000Z</time>
      </trkpt>
      <trkpt lat="47.20168" lon="3.20521">
        <ele>265.28005981445</ele>
        <time>2015-11-04T13:29:29.000Z</time>
      </trkpt>
      <trkpt lat="47.20171" lon="3.20517">
        <ele>265.42388916016</ele>
        <time>2015-11-04T13:29:32.000Z</time>
      </trkpt>
      <trkpt lat="47.20174" lon="3.20512">
        <ele>265.61578369141</ele>
        <time>2015-11-04T13:29:35.000Z</time>
      </trkpt>
      <trkpt lat="47.20177" lon="3.2051">
        <ele>265.8132019043</ele>
        <time>2015-11-04T13:29:37.000Z</time>
      </trkpt>
      <trkpt lat="47.20179" lon="3.20508">
        <ele>266.00988769531</ele>
        <time>2015-11-04T13:29:39.000Z</time>
      </trkpt>
      <trkpt lat="47.20181" lon="3.20505">
        <ele>266.20690917969</ele>
        <time>2015-11-04T13:29:42.000Z</time>
      </trkpt>
      <trkpt lat="47.20182" lon="3.20503">
        <ele>266.38793945312</ele>
        <time>2015-11-04T13:29:45.000Z</time>
      </trkpt>
      <trkpt lat="47.20185" lon="3.20502">
        <ele>266.53979492188</ele>
        <time>2015-11-04T13:29:47.000Z</time>
      </trkpt>
      <trkpt lat="47.20189" lon="3.20502">
        <ele>266.697265625</ele>
        <time>2015-11-04T13:29:51.000Z</time>
      </trkpt>
      <trkpt lat="47.20192" lon="3.205">
        <ele>266.86605834961</ele>
        <time>2015-11-04T13:29:54.000Z</time>
      </trkpt>
      <trkpt lat="47.20193" lon="3.20498">
        <ele>267.03009033203</ele>
        <time>2015-11-04T13:29:56.000Z</time>
      </trkpt>
      <trkpt lat="47.20195" lon="3.20494">
        <ele>267.19610595703</ele>
        <time>2015-11-04T13:29:59.000Z</time>
      </trkpt>
      <trkpt lat="47.20199" lon="3.20489">
        <ele>267.39584350586</ele>
        <time>2015-11-04T13:30:03.000Z</time>
      </trkpt>
      <trkpt lat="47.20202" lon="3.20486">
        <ele>267.59820556641</ele>
        <time>2015-11-04T13:30:05.000Z</time>
      </trkpt>
      <trkpt lat="47.20205" lon="3.20484">
        <ele>267.79998779297</ele>
        <time>2015-11-04T13:30:08.000Z</time>
      </trkpt>
      <trkpt lat="47.20206" lon="3.20482">
        <ele>267.99713134766</ele>
        <time>2015-11-04T13:30:11.000Z</time>
      </trkpt>
      <trkpt lat="47.20211" lon="3.20479">
        <ele>268.22183227539</ele>
        <time>2015-11-04T13:30:14.000Z</time>
      </trkpt>
      <trkpt lat="47.20213" lon="3.20477">
        <ele>268.40237426758</ele>
        <time>2015-11-04T13:30:17.000Z</time>
      </trkpt>
      <trkpt lat="47.20215" lon="3.20474">
        <ele>268.57275390625</ele>
        <time>2015-11-04T13:30:19.000Z</time>
      </trkpt>
      <trkpt lat="47.20217" lon="3.2047">
        <ele>268.73666381836</ele>
        <time>2015-11-04T13:30:23.000Z</time>
      </trkpt>
      <trkpt lat="47.20218" lon="3.20467">
        <ele>268.89865112305</ele>
        <time>2015-11-04T13:30:26.000Z</time>
      </trkpt>
      <trkpt lat="47.20219" lon="3.20462">
        <ele>269.02645874023</ele>
        <time>2015-11-04T13:30:30.000Z</time>
      </trkpt>
      <trkpt lat="47.20219" lon="3.20457">
        <ele>269.16229248047</ele>
        <time>2015-11-04T13:30:33.000Z</time>
      </trkpt>
      <trkpt lat="47.2022" lon="3.20454">
        <ele>269.28729248047</ele>
        <time>2015-11-04T13:30:36.000Z</time>
      </trkpt>
      <trkpt lat="47.20222" lon="3.20448">
        <ele>269.4162902832</ele>
        <time>2015-11-04T13:30:38.000Z</time>
      </trkpt>
      <trkpt lat="47.20224" lon="3.20442">
        <ele>269.55926513672</ele>
        <time>2015-11-04T13:30:41.000Z</time>
      </trkpt>
      <trkpt lat="47.20226" lon="3.20439">
        <ele>269.70321655273</ele>
        <time>2015-11-04T13:30:44.000Z</time>
      </trkpt>
      <trkpt lat="47.2023" lon="3.20437">
        <ele>269.85345458984</ele>
        <time>2015-11-04T13:30:47.000Z</time>
      </trkpt>
      <trkpt lat="47.20232" lon="3.20436">
        <ele>269.99981689453</ele>
        <time>2015-11-04T13:30:49.000Z</time>
      </trkpt>
      <trkpt lat="47.20234" lon="3.20434">
        <ele>270.12542724609</ele>
        <time>2015-11-04T13:30:51.000Z</time>
      </trkpt>
      <trkpt lat="47.20238" lon="3.20432">
        <ele>270.24160766602</ele>
        <time>2015-11-04T13:30:54.000Z</time>
      </trkpt>
      <trkpt lat="47.20239" lon="3.20432">
        <ele>270.34210205078</ele>
        <time>2015-11-04T13:30:56.000Z</time>
      </trkpt>
      <trkpt lat="47.20242" lon="3.2043">
        <ele>270.43096923828</ele>
        <time>2015-11-04T13:30:59.000Z</time>
      </trkpt>
      <trkpt lat="47.20242" lon="3.20429">
        <ele>270.50985717773</ele>
        <time>2015-11-04T13:31:01.000Z</time>
      </trkpt>
      <trkpt lat="47.20244" lon="3.20427">
        <ele>270.58862304688</ele>
        <time>2015-11-04T13:31:04.000Z</time>
      </trkpt>
      <trkpt lat="47.20247" lon="3.20425">
        <ele>270.66015625</ele>
        <time>2015-11-04T13:31:07.000Z</time>
      </trkpt>
      <trkpt lat="47.20252" lon="3.20416">
        <ele>270.77154541016</ele>
        <time>2015-11-04T13:31:10.000Z</time>
      </trkpt>
      <trkpt lat="47.20255" lon="3.2041">
        <ele>270.92352294922</ele>
        <time>2015-11-04T13:31:13.000Z</time>
      </trkpt>
      <trkpt lat="47.20257" lon="3.20408">
        <ele>271.09558105469</ele>
        <time>2015-11-04T13:31:16.000Z</time>
      </trkpt>
      <trkpt lat="47.20259" lon="3.20409">
        <ele>271.24429321289</ele>
        <time>2015-11-04T13:31:19.000Z</time>
      </trkpt>
      <trkpt lat="47.20261" lon="3.20408">
        <ele>271.38104248047</ele>
        <time>2015-11-04T13:31:23.000Z</time>
      </trkpt>
      <trkpt lat="47.20264" lon="3.20403">
        <ele>271.52548217773</ele>
        <time>2015-11-04T13:31:26.000Z</time>
      </trkpt>
      <trkpt lat="47.20266" lon="3.20401">
        <ele>271.63354492188</ele>
        <time>2015-11-04T13:31:29.000Z</time>
      </trkpt>
      <trkpt lat="47.20269" lon="3.20399">
        <ele>271.73217773438</ele>
        <time>2015-11-04T13:31:32.000Z</time>
      </trkpt>
      <trkpt lat="47.20271" lon="3.20397">
        <ele>271.86663818359</ele>
        <time>2015-11-04T13:31:35.000Z</time>
      </trkpt>
      <trkpt lat="47.20273" lon="3.20389">
        <ele>272.08123779297</ele>
        <time>2015-11-04T13:31:38.000Z</time>
      </trkpt>
      <trkpt lat="47.20276" lon="3.20384">
        <ele>272.29095458984</ele>
        <time>2015-11-04T13:31:41.000Z</time>
      </trkpt>
      <trkpt lat="47.20278" lon="3.20381">
        <ele>272.51092529297</ele>
        <time>2015-11-04T13:31:43.000Z</time>
      </trkpt>
      <trkpt lat="47.20279" lon="3.20379">
        <ele>272.73043823242</ele>
        <time>2015-11-04T13:31:46.000Z</time>
      </trkpt>
      <trkpt lat="47.20281" lon="3.20375">
        <ele>272.96765136719</ele>
        <time>2015-11-04T13:31:49.000Z</time>
      </trkpt>
      <trkpt lat="47.20282" lon="3.20372">
        <ele>273.14727783203</ele>
        <time>2015-11-04T13:31:52.000Z</time>
      </trkpt>
      <trkpt lat="47.20286" lon="3.2037">
        <ele>273.29034423828</ele>
        <time>2015-11-04T13:31:55.000Z</time>
      </trkpt>
      <trkpt lat="47.20287" lon="3.2037">
        <ele>273.40124511719</ele>
        <time>2015-11-04T13:31:59.000Z</time>
      </trkpt>
      <trkpt lat="47.20288" lon="3.20369">
        <ele>273.50381469727</ele>
        <time>2015-11-04T13:32:02.000Z</time>
      </trkpt>
      <trkpt lat="47.20291" lon="3.20365">
        <ele>273.60162353516</ele>
        <time>2015-11-04T13:32:06.000Z</time>
      </trkpt>
      <trkpt lat="47.20293" lon="3.20363">
        <ele>273.69012451172</ele>
        <time>2015-11-04T13:32:08.000Z</time>
      </trkpt>
      <trkpt lat="47.203" lon="3.20354">
        <ele>273.84820556641</ele>
        <time>2015-11-04T13:32:10.000Z</time>
      </trkpt>
      <trkpt lat="47.20303" lon="3.20348">
        <ele>274.05166625977</ele>
        <time>2015-11-04T13:32:12.000Z</time>
      </trkpt>
      <trkpt lat="47.20304" lon="3.20346">
        <ele>274.27047729492</ele>
        <time>2015-11-04T13:32:14.000Z</time>
      </trkpt>
      <trkpt lat="47.20308" lon="3.20338">
        <ele>274.51995849609</ele>
        <time>2015-11-04T13:32:28.000Z</time>
      </trkpt>
      <trkpt lat="47.20309" lon="3.20336">
        <ele>274.76904296875</ele>
        <time>2015-11-04T13:32:33.000Z</time>
      </trkpt>
      <trkpt lat="47.20311" lon="3.20332">
        <ele>274.97387695312</ele>
        <time>2015-11-04T13:32:34.000Z</time>
      </trkpt>
      <trkpt lat="47.20313" lon="3.20327">
        <ele>275.17391967773</ele>
        <time>2015-11-04T13:32:35.000Z</time>
      </trkpt>
      <trkpt lat="47.20314" lon="3.20323">
        <ele>275.39297485352</ele>
        <time>2015-11-04T13:32:35.000Z</time>
      </trkpt>
      <trkpt lat="47.20314" lon="3.20321">
        <ele>275.56634521484</ele>
        <time>2015-11-04T13:32:35.000Z</time>
      </trkpt>
      <trkpt lat="47.20316" lon="3.20317">
        <ele>275.76675415039</ele>
        <time>2015-11-04T13:32:35.000Z</time>
      </trkpt>
      <trkpt lat="47.20317" lon="3.20312">
        <ele>275.98428344727</ele>
        <time>2015-11-04T13:32:37.000Z</time>
      </trkpt>
      <trkpt lat="47.20318" lon="3.20309">
        <ele>276.18685913086</ele>
        <time>2015-11-04T13:32:40.000Z</time>
      </trkpt>
      <trkpt lat="47.20319" lon="3.20306">
        <ele>276.37481689453</ele>
        <time>2015-11-04T13:32:43.000Z</time>
      </trkpt>
      <trkpt lat="47.20319" lon="3.20301">
        <ele>276.599609375</ele>
        <time>2015-11-04T13:32:45.000Z</time>
      </trkpt>
      <trkpt lat="47.2032" lon="3.20298">
        <ele>276.80645751953</ele>
        <time>2015-11-04T13:32:47.000Z</time>
      </trkpt>
      <trkpt lat="47.20323" lon="3.20293">
        <ele>277.01879882812</ele>
        <time>2015-11-04T13:32:49.000Z</time>
      </trkpt>
      <trkpt lat="47.20328" lon="3.20285">
        <ele>277.28057861328</ele>
        <time>2015-11-04T13:32:52.000Z</time>
      </trkpt>
      <trkpt lat="47.20331" lon="3.20282">
        <ele>277.54730224609</ele>
        <time>2015-11-04T13:32:55.000Z</time>
      </trkpt>
      <trkpt lat="47.20335" lon="3.20279">
        <ele>277.78396606445</ele>
        <time>2015-11-04T13:32:58.000Z</time>
      </trkpt>
      <trkpt lat="47.20335" lon="3.20277">
        <ele>278.01483154297</ele>
        <time>2015-11-04T13:33:00.000Z</time>
      </trkpt>
      <trkpt lat="47.20338" lon="3.20275">
        <ele>278.19802856445</ele>
        <time>2015-11-04T13:33:03.000Z</time>
      </trkpt>
      <trkpt lat="47.2034" lon="3.20274">
        <ele>278.30673217773</ele>
        <time>2015-11-04T13:33:06.000Z</time>
      </trkpt>
      <trkpt lat="47.20341" lon="3.20272">
        <ele>278.39974975586</ele>
        <time>2015-11-04T13:33:08.000Z</time>
      </trkpt>
      <trkpt lat="47.20343" lon="3.20271">
        <ele>278.46444702148</ele>
        <time>2015-11-04T13:33:11.000Z</time>
      </trkpt>
      <trkpt lat="47.20345" lon="3.20269">
        <ele>278.52935791016</ele>
        <time>2015-11-04T13:33:14.000Z</time>
      </trkpt>
      <trkpt lat="47.20346" lon="3.20266">
        <ele>278.60656738281</ele>
        <time>2015-11-04T13:33:16.000Z</time>
      </trkpt>
      <trkpt lat="47.20347" lon="3.20263">
        <ele>278.703125</ele>
        <time>2015-11-04T13:33:18.000Z</time>
      </trkpt>
      <trkpt lat="47.20349" lon="3.20261">
        <ele>278.80200195312</ele>
        <time>2015-11-04T13:33:20.000Z</time>
      </trkpt>
      <trkpt lat="47.2035" lon="3.20258">
        <ele>278.91958618164</ele>
        <time>2015-11-04T13:33:23.000Z</time>
      </trkpt>
      <trkpt lat="47.20351" lon="3.20257">
        <ele>279.02883911133</ele>
        <time>2015-11-04T13:33:26.000Z</time>
      </trkpt>
      <trkpt lat="47.20352" lon="3.20253">
        <ele>279.14544677734</ele>
        <time>2015-11-04T13:33:29.000Z</time>
      </trkpt>
      <trkpt lat="47.20354" lon="3.20248">
        <ele>279.26287841797</ele>
        <time>2015-11-04T13:33:31.000Z</time>
      </trkpt>
      <trkpt lat="47.20356" lon="3.20245">
        <ele>279.36093139648</ele>
        <time>2015-11-04T13:33:34.000Z</time>
      </trkpt>
      <trkpt lat="47.20358" lon="3.20244">
        <ele>279.4326171875</ele>
        <time>2015-11-04T13:33:36.000Z</time>
      </trkpt>
      <trkpt lat="47.20361" lon="3.20241">
        <ele>279.48486328125</ele>
        <time>2015-11-04T13:33:39.000Z</time>
      </trkpt>
      <trkpt lat="47.20363" lon="3.2024">
        <ele>279.4967956543</ele>
        <time>2015-11-04T13:33:41.000Z</time>
      </trkpt>
      <trkpt lat="47.20365" lon="3.20238">
        <ele>279.47918701172</ele>
        <time>2015-11-04T13:33:44.000Z</time>
      </trkpt>
      <trkpt lat="47.20367" lon="3.20238">
        <ele>279.45513916016</ele>
        <time>2015-11-04T13:33:46.000Z</time>
      </trkpt>
      <trkpt lat="47.20369" lon="3.20236">
        <ele>279.42926025391</ele>
        <time>2015-11-04T13:33:49.000Z</time>
      </trkpt>
      <trkpt lat="47.2037" lon="3.20234">
        <ele>279.41070556641</ele>
        <time>2015-11-04T13:33:52.000Z</time>
      </trkpt>
      <trkpt lat="47.20372" lon="3.20233">
        <ele>279.39508056641</ele>
        <time>2015-11-04T13:33:55.000Z</time>
      </trkpt>
      <trkpt lat="47.20373" lon="3.2023">
        <ele>279.38641357422</ele>
        <time>2015-11-04T13:33:58.000Z</time>
      </trkpt>
      <trkpt lat="47.20375" lon="3.20225">
        <ele>279.39385986328</ele>
        <time>2015-11-04T13:34:01.000Z</time>
      </trkpt>
      <trkpt lat="47.20378" lon="3.20222">
        <ele>279.40835571289</ele>
        <time>2015-11-04T13:34:04.000Z</time>
      </trkpt>
      <trkpt lat="47.20382" lon="3.2022">
        <ele>279.41250610352</ele>
        <time>2015-11-04T13:34:07.000Z</time>
      </trkpt>
      <trkpt lat="47.20384" lon="3.20219">
        <ele>279.41619873047</ele>
        <time>2015-11-04T13:34:10.000Z</time>
      </trkpt>
      <trkpt lat="47.20386" lon="3.20217">
        <ele>279.41632080078</ele>
        <time>2015-11-04T13:34:13.000Z</time>
      </trkpt>
      <trkpt lat="47.20388" lon="3.20216">
        <ele>279.40277099609</ele>
        <time>2015-11-04T13:34:16.000Z</time>
      </trkpt>
      <trkpt lat="47.20389" lon="3.20214">
        <ele>279.38909912109</ele>
        <time>2015-11-04T13:34:18.000Z</time>
      </trkpt>
      <trkpt lat="47.20391" lon="3.20212">
        <ele>279.38159179688</ele>
        <time>2015-11-04T13:34:20.000Z</time>
      </trkpt>
      <trkpt lat="47.20399" lon="3.20209">
        <ele>279.36614990234</ele>
        <time>2015-11-04T13:34:23.000Z</time>
      </trkpt>
      <trkpt lat="47.20401" lon="3.20208">
        <ele>279.34463500977</ele>
        <time>2015-11-04T13:34:25.000Z</time>
      </trkpt>
      <trkpt lat="47.20403" lon="3.20207">
        <ele>279.32348632812</ele>
        <time>2015-11-04T13:34:27.000Z</time>
      </trkpt>
      <trkpt lat="47.20406" lon="3.20206">
        <ele>279.29345703125</ele>
        <time>2015-11-04T13:34:30.000Z</time>
      </trkpt>
      <trkpt lat="47.20409" lon="3.20208">
        <ele>279.24713134766</ele>
        <time>2015-11-04T13:34:33.000Z</time>
      </trkpt>
      <trkpt lat="47.20412" lon="3.20206">
        <ele>279.20886230469</ele>
        <time>2015-11-04T13:34:35.000Z</time>
      </trkpt>
      <trkpt lat="47.20416" lon="3.20202">
        <ele>279.18475341797</ele>
        <time>2015-11-04T13:34:38.000Z</time>
      </trkpt>
      <trkpt lat="47.2042" lon="3.20193">
        <ele>279.18988037109</ele>
        <time>2015-11-04T13:34:41.000Z</time>
      </trkpt>
      <trkpt lat="47.20422" lon="3.20188">
        <ele>279.21841430664</ele>
        <time>2015-11-04T13:34:44.000Z</time>
      </trkpt>
      <trkpt lat="47.20423" lon="3.20185">
        <ele>279.27304077148</ele>
        <time>2015-11-04T13:34:46.000Z</time>
      </trkpt>
      <trkpt lat="47.20424" lon="3.20182">
        <ele>279.34164428711</ele>
        <time>2015-11-04T13:34:49.000Z</time>
      </trkpt>
      <trkpt lat="47.20425" lon="3.20178">
        <ele>279.41259765625</ele>
        <time>2015-11-04T13:34:51.000Z</time>
      </trkpt>
      <trkpt lat="47.20428" lon="3.20175">
        <ele>279.45788574219</ele>
        <time>2015-11-04T13:34:54.000Z</time>
      </trkpt>
      <trkpt lat="47.20429" lon="3.20173">
        <ele>279.49401855469</ele>
        <time>2015-11-04T13:34:57.000Z</time>
      </trkpt>
      <trkpt lat="47.2043" lon="3.20171">
        <ele>279.52368164062</ele>
        <time>2015-11-04T13:34:59.000Z</time>
      </trkpt>
      <trkpt lat="47.20432" lon="3.20167">
        <ele>279.5537109375</ele>
        <time>2015-11-04T13:35:02.000Z</time>
      </trkpt>
      <trkpt lat="47.20433" lon="3.20166">
        <ele>279.57095336914</ele>
        <time>2015-11-04T13:35:04.000Z</time>
      </trkpt>
      <trkpt lat="47.20437" lon="3.20162">
        <ele>279.5725402832</ele>
        <time>2015-11-04T13:35:06.000Z</time>
      </trkpt>
      <trkpt lat="47.20439" lon="3.20158">
        <ele>279.56762695312</ele>
        <time>2015-11-04T13:35:09.000Z</time>
      </trkpt>
      <trkpt lat="47.2044" lon="3.20156">
        <ele>279.55966186523</ele>
        <time>2015-11-04T13:35:11.000Z</time>
      </trkpt>
      <trkpt lat="47.20443" lon="3.20152">
        <ele>279.53277587891</ele>
        <time>2015-11-04T13:35:13.000Z</time>
      </trkpt>
      <trkpt lat="47.20443" lon="3.20151">
        <ele>279.50787353516</ele>
        <time>2015-11-04T13:35:16.000Z</time>
      </trkpt>
      <trkpt lat="47.20445" lon="3.20148">
        <ele>279.49740600586</ele>
        <time>2015-11-04T13:35:18.000Z</time>
      </trkpt>
      <trkpt lat="47.20449" lon="3.20145">
        <ele>279.4772644043</ele>
        <time>2015-11-04T13:35:30.000Z</time>
      </trkpt>
      <trkpt lat="47.20449" lon="3.20142">
        <ele>279.46322631836</ele>
        <time>2015-11-04T13:35:33.000Z</time>
      </trkpt>
      <trkpt lat="47.20451" lon="3.20137">
        <ele>279.46041870117</ele>
        <time>2015-11-04T13:35:33.000Z</time>
      </trkpt>
      <trkpt lat="47.20452" lon="3.20135">
        <ele>279.45941162109</ele>
        <time>2015-11-04T13:35:33.000Z</time>
      </trkpt>
      <trkpt lat="47.20454" lon="3.20129">
        <ele>279.46710205078</ele>
        <time>2015-11-04T13:35:34.000Z</time>
      </trkpt>
      <trkpt lat="47.20456" lon="3.20124">
        <ele>279.49053955078</ele>
        <time>2015-11-04T13:35:34.000Z</time>
      </trkpt>
      <trkpt lat="47.20458" lon="3.20119">
        <ele>279.51544189453</ele>
        <time>2015-11-04T13:35:36.000Z</time>
      </trkpt>
      <trkpt lat="47.20461" lon="3.20115">
        <ele>279.54150390625</ele>
        <time>2015-11-04T13:35:39.000Z</time>
      </trkpt>
      <trkpt lat="47.20464" lon="3.2011">
        <ele>279.57464599609</ele>
        <time>2015-11-04T13:35:41.000Z</time>
      </trkpt>
      <trkpt lat="47.20467" lon="3.20105">
        <ele>279.60980224609</ele>
        <time>2015-11-04T13:35:44.000Z</time>
      </trkpt>
      <trkpt lat="47.20469" lon="3.20103">
        <ele>279.64270019531</ele>
        <time>2015-11-04T13:35:46.000Z</time>
      </trkpt>
      <trkpt lat="47.2047" lon="3.20102">
        <ele>279.67111206055</ele>
        <time>2015-11-04T13:35:48.000Z</time>
      </trkpt>
      <trkpt lat="47.20474" lon="3.20101">
        <ele>279.69326782227</ele>
        <time>2015-11-04T13:35:51.000Z</time>
      </trkpt>
      <trkpt lat="47.20476" lon="3.20099">
        <ele>279.71298217773</ele>
        <time>2015-11-04T13:35:54.000Z</time>
      </trkpt>
      <trkpt lat="47.20478" lon="3.20096">
        <ele>279.73022460938</ele>
        <time>2015-11-04T13:35:56.000Z</time>
      </trkpt>
      <trkpt lat="47.2048" lon="3.20095">
        <ele>279.74649047852</ele>
        <time>2015-11-04T13:35:58.000Z</time>
      </trkpt>
      <trkpt lat="47.20483" lon="3.20094">
        <ele>279.763671875</ele>
        <time>2015-11-04T13:36:01.000Z</time>
      </trkpt>
      <trkpt lat="47.20485" lon="3.20092">
        <ele>279.78869628906</ele>
        <time>2015-11-04T13:36:04.000Z</time>
      </trkpt>
      <trkpt lat="47.20486" lon="3.20088">
        <ele>279.82406616211</ele>
        <time>2015-11-04T13:36:07.000Z</time>
      </trkpt>
      <trkpt lat="47.20488" lon="3.20086">
        <ele>279.85687255859</ele>
        <time>2015-11-04T13:36:10.000Z</time>
      </trkpt>
      <trkpt lat="47.2049" lon="3.20088">
        <ele>279.88110351562</ele>
        <time>2015-11-04T13:36:12.000Z</time>
      </trkpt>
      <trkpt lat="47.20492" lon="3.20086">
        <ele>279.90866088867</ele>
        <time>2015-11-04T13:36:16.000Z</time>
      </trkpt>
      <trkpt lat="47.20494" lon="3.20086">
        <ele>279.93151855469</ele>
        <time>2015-11-04T13:36:18.000Z</time>
      </trkpt>
      <trkpt lat="47.20497" lon="3.20086">
        <ele>279.93368530273</ele>
        <time>2015-11-04T13:36:21.000Z</time>
      </trkpt>
      <trkpt lat="47.20498" lon="3.20086">
        <ele>279.9352722168</ele>
        <time>2015-11-04T13:36:24.000Z</time>
      </trkpt>
      <trkpt lat="47.20502" lon="3.20079">
        <ele>279.96282958984</ele>
        <time>2015-11-04T13:36:28.000Z</time>
      </trkpt>
      <trkpt lat="47.20502" lon="3.20079">
        <ele>279.96282958984</ele>
        <time>2015-11-04T13:36:48.000Z</time>
      </trkpt>
      <trkpt lat="47.20502" lon="3.20076">
        <ele>279.99505615234</ele>
        <time>2015-11-04T13:36:53.000Z</time>
      </trkpt>
      <trkpt lat="47.20504" lon="3.20075">
        <ele>280.01580810547</ele>
        <time>2015-11-04T13:36:58.000Z</time>
      </trkpt>
      <trkpt lat="47.20506" lon="3.20074">
        <ele>280.03125</ele>
        <time>2015-11-04T13:37:04.000Z</time>
      </trkpt>
      <trkpt lat="47.20503" lon="3.20075">
        <ele>280.06085205078</ele>
        <time>2015-11-04T13:37:14.000Z</time>
      </trkpt>
      <trkpt lat="47.20502" lon="3.20073">
        <ele>280.08001708984</ele>
        <time>2015-11-04T13:37:18.000Z</time>
      </trkpt>
      <trkpt lat="47.20502" lon="3.20073">
        <ele>280.08001708984</ele>
        <time>2015-11-04T13:37:38.000Z</time>
      </trkpt>
      <trkpt lat="47.20502" lon="3.20074">
        <ele>280.08917236328</ele>
        <time>2015-11-04T13:37:40.000Z</time>
      </trkpt>
      <trkpt lat="47.20502" lon="3.20076">
        <ele>280.10125732422</ele>
        <time>2015-11-04T13:37:52.000Z</time>
      </trkpt>
      <trkpt lat="47.205" lon="3.20076">
        <ele>280.13327026367</ele>
        <time>2015-11-04T13:37:57.000Z</time>
      </trkpt>
      <trkpt lat="47.20501" lon="3.20071">
        <ele>280.16162109375</ele>
        <time>2015-11-04T13:37:59.000Z</time>
      </trkpt>
      <trkpt lat="47.20502" lon="3.2007">
        <ele>280.18075561523</ele>
        <time>2015-11-04T13:38:02.000Z</time>
      </trkpt>
      <trkpt lat="47.20502" lon="3.20068">
        <ele>280.20593261719</ele>
        <time>2015-11-04T13:38:04.000Z</time>
      </trkpt>
      <trkpt lat="47.20503" lon="3.20065">
        <ele>280.24307250977</ele>
        <time>2015-11-04T13:38:08.000Z</time>
      </trkpt>
      <trkpt lat="47.20507" lon="3.2007">
        <ele>280.22045898438</ele>
        <time>2015-11-04T13:38:12.000Z</time>
      </trkpt>
      <trkpt lat="47.20508" lon="3.20068">
        <ele>280.18176269531</ele>
        <time>2015-11-04T13:38:19.000Z</time>
      </trkpt>
      <trkpt lat="47.20505" lon="3.20063">
        <ele>280.19247436523</ele>
        <time>2015-11-04T13:38:23.000Z</time>
      </trkpt>
      <trkpt lat="47.20505" lon="3.20063">
        <ele>280.19247436523</ele>
        <time>2015-11-04T13:38:43.000Z</time>
      </trkpt>
      <trkpt lat="47.20502" lon="3.20062">
        <ele>280.2216796875</ele>
        <time>2015-11-04T13:38:44.000Z</time>
      </trkpt>
      <trkpt lat="47.20502" lon="3.20054">
        <ele>280.27954101562</ele>
        <time>2015-11-04T13:39:00.000Z</time>
      </trkpt>
      <trkpt lat="47.20502" lon="3.20049">
        <ele>280.41076660156</ele>
        <time>2015-11-04T13:39:12.000Z</time>
      </trkpt>
      <trkpt lat="47.20498" lon="3.20044">
        <ele>280.5871887207</ele>
        <time>2015-11-04T13:39:16.000Z</time>
      </trkpt>
      <trkpt lat="47.20496" lon="3.20033">
        <ele>280.75918579102</ele>
        <time>2015-11-04T13:39:20.000Z</time>
      </trkpt>
      <trkpt lat="47.20496" lon="3.20028">
        <ele>280.92874145508</ele>
        <time>2015-11-04T13:39:22.000Z</time>
      </trkpt>
      <trkpt lat="47.20491" lon="3.20014">
        <ele>281.10467529297</ele>
        <time>2015-11-04T13:39:25.000Z</time>
      </trkpt>
      <trkpt lat="47.20487" lon="3.20009">
        <ele>281.26141357422</ele>
        <time>2015-11-04T13:39:28.000Z</time>
      </trkpt>
      <trkpt lat="47.20486" lon="3.20008">
        <ele>281.37921142578</ele>
        <time>2015-11-04T13:39:30.000Z</time>
      </trkpt>
      <trkpt lat="47.20483" lon="3.20005">
        <ele>281.45071411133</ele>
        <time>2015-11-04T13:39:32.000Z</time>
      </trkpt>
      <trkpt lat="47.20482" lon="3.20002">
        <ele>281.50311279297</ele>
        <time>2015-11-04T13:39:35.000Z</time>
      </trkpt>
      <trkpt lat="47.20483" lon="3.20001">
        <ele>281.52206420898</ele>
        <time>2015-11-04T13:39:37.000Z</time>
      </trkpt>
      <trkpt lat="47.20483" lon="3.19998">
        <ele>281.53982543945</ele>
        <time>2015-11-04T13:39:39.000Z</time>
      </trkpt>
      <trkpt lat="47.20483" lon="3.19995">
        <ele>281.54620361328</ele>
        <time>2015-11-04T13:39:42.000Z</time>
      </trkpt>
      <trkpt lat="47.20482" lon="3.19993">
        <ele>281.54818725586</ele>
        <time>2015-11-04T13:39:44.000Z</time>
      </trkpt>
      <trkpt lat="47.20482" lon="3.1999">
        <ele>281.54144287109</ele>
        <time>2015-11-04T13:39:47.000Z</time>
      </trkpt>
      <trkpt lat="47.20481" lon="3.19988">
        <ele>281.52194213867</ele>
        <time>2015-11-04T13:39:49.000Z</time>
      </trkpt>
      <trkpt lat="47.20481" lon="3.19987">
        <ele>281.49560546875</ele>
        <time>2015-11-04T13:39:51.000Z</time>
      </trkpt>
      <trkpt lat="47.20479" lon="3.19983">
        <ele>281.46508789062</ele>
        <time>2015-11-04T13:39:53.000Z</time>
      </trkpt>
      <trkpt lat="47.20475" lon="3.19979">
        <ele>281.41976928711</ele>
        <time>2015-11-04T13:39:56.000Z</time>
      </trkpt>
      <trkpt lat="47.20473" lon="3.19974">
        <ele>281.36849975586</ele>
        <time>2015-11-04T13:39:59.000Z</time>
      </trkpt>
      <trkpt lat="47.20472" lon="3.19971">
        <ele>281.31661987305</ele>
        <time>2015-11-04T13:40:02.000Z</time>
      </trkpt>
      <trkpt lat="47.20469" lon="3.19967">
        <ele>281.25604248047</ele>
        <time>2015-11-04T13:40:05.000Z</time>
      </trkpt>
      <trkpt lat="47.20467" lon="3.19964">
        <ele>281.20233154297</ele>
        <time>2015-11-04T13:40:07.000Z</time>
      </trkpt>
      <trkpt lat="47.20465" lon="3.19962">
        <ele>281.16195678711</ele>
        <time>2015-11-04T13:40:10.000Z</time>
      </trkpt>
      <trkpt lat="47.20464" lon="3.19958">
        <ele>281.12841796875</ele>
        <time>2015-11-04T13:40:12.000Z</time>
      </trkpt>
      <trkpt lat="47.20464" lon="3.19957">
        <ele>281.09976196289</ele>
        <time>2015-11-04T13:40:15.000Z</time>
      </trkpt>
      <trkpt lat="47.20463" lon="3.19954">
        <ele>281.08084106445</ele>
        <time>2015-11-04T13:40:17.000Z</time>
      </trkpt>
      <trkpt lat="47.20463" lon="3.1995">
        <ele>281.06402587891</ele>
        <time>2015-11-04T13:40:20.000Z</time>
      </trkpt>
      <trkpt lat="47.20462" lon="3.19947">
        <ele>281.05218505859</ele>
        <time>2015-11-04T13:40:23.000Z</time>
      </trkpt>
      <trkpt lat="47.20462" lon="3.19945">
        <ele>281.04425048828</ele>
        <time>2015-11-04T13:40:25.000Z</time>
      </trkpt>
      <trkpt lat="47.20462" lon="3.19941">
        <ele>281.03643798828</ele>
        <time>2015-11-04T13:40:28.000Z</time>
      </trkpt>
      <trkpt lat="47.20461" lon="3.19939">
        <ele>281.03030395508</ele>
        <time>2015-11-04T13:40:31.000Z</time>
      </trkpt>
      <trkpt lat="47.20461" lon="3.19936">
        <ele>281.02459716797</ele>
        <time>2015-11-04T13:40:33.000Z</time>
      </trkpt>
      <trkpt lat="47.20459" lon="3.19931">
        <ele>281.01837158203</ele>
        <time>2015-11-04T13:40:36.000Z</time>
      </trkpt>
      <trkpt lat="47.20458" lon="3.19925">
        <ele>281.01165771484</ele>
        <time>2015-11-04T13:40:39.000Z</time>
      </trkpt>
      <trkpt lat="47.20456" lon="3.19923">
        <ele>281.00592041016</ele>
        <time>2015-11-04T13:40:42.000Z</time>
      </trkpt>
      <trkpt lat="47.20456" lon="3.19922">
        <ele>281.00128173828</ele>
        <time>2015-11-04T13:40:46.000Z</time>
      </trkpt>
      <trkpt lat="47.20454" lon="3.19915">
        <ele>281.00720214844</ele>
        <time>2015-11-04T13:40:47.000Z</time>
      </trkpt>
      <trkpt lat="47.20453" lon="3.19913">
        <ele>281.02740478516</ele>
        <time>2015-11-04T13:40:51.000Z</time>
      </trkpt>
      <trkpt lat="47.20449" lon="3.19906">
        <ele>281.08309936523</ele>
        <time>2015-11-04T13:40:52.000Z</time>
      </trkpt>
      <trkpt lat="47.20448" lon="3.19904">
        <ele>281.14978027344</ele>
        <time>2015-11-04T13:40:55.000Z</time>
      </trkpt>
      <trkpt lat="47.20446" lon="3.19902">
        <ele>281.2307434082</ele>
        <time>2015-11-04T13:40:56.000Z</time>
      </trkpt>
      <trkpt lat="47.20446" lon="3.19902">
        <ele>281.2307434082</ele>
        <time>2015-11-04T13:41:20.000Z</time>
      </trkpt>
      <trkpt lat="47.20445" lon="3.19898">
        <ele>281.32635498047</ele>
        <time>2015-11-04T13:41:21.000Z</time>
      </trkpt>
      <trkpt lat="47.20446" lon="3.19897">
        <ele>281.41604614258</ele>
        <time>2015-11-04T13:41:21.000Z</time>
      </trkpt>
      <trkpt lat="47.20445" lon="3.19896">
        <ele>281.47509765625</ele>
        <time>2015-11-04T13:41:22.000Z</time>
      </trkpt>
      <trkpt lat="47.20444" lon="3.19894">
        <ele>281.53353881836</ele>
        <time>2015-11-04T13:41:22.000Z</time>
      </trkpt>
      <trkpt lat="47.20443" lon="3.19891">
        <ele>281.59710693359</ele>
        <time>2015-11-04T13:41:23.000Z</time>
      </trkpt>
      <trkpt lat="47.20443" lon="3.19888">
        <ele>281.65447998047</ele>
        <time>2015-11-04T13:41:24.000Z</time>
      </trkpt>
      <trkpt lat="47.20443" lon="3.19882">
        <ele>281.74169921875</ele>
        <time>2015-11-04T13:41:24.000Z</time>
      </trkpt>
      <trkpt lat="47.20443" lon="3.1988">
        <ele>281.83480834961</ele>
        <time>2015-11-04T13:41:24.000Z</time>
      </trkpt>
      <trkpt lat="47.20443" lon="3.19878">
        <ele>281.93109130859</ele>
        <time>2015-11-04T13:41:24.000Z</time>
      </trkpt>
      <trkpt lat="47.20444" lon="3.19872">
        <ele>282.03887939453</ele>
        <time>2015-11-04T13:41:24.000Z</time>
      </trkpt>
      <trkpt lat="47.20447" lon="3.19868">
        <ele>282.14584350586</ele>
        <time>2015-11-04T13:41:26.000Z</time>
      </trkpt>
      <trkpt lat="47.20448" lon="3.19864">
        <ele>282.23284912109</ele>
        <time>2015-11-04T13:41:28.000Z</time>
      </trkpt>
      <trkpt lat="47.20448" lon="3.1986">
        <ele>282.33154296875</ele>
        <time>2015-11-04T13:41:31.000Z</time>
      </trkpt>
      <trkpt lat="47.20449" lon="3.19857">
        <ele>282.42962646484</ele>
        <time>2015-11-04T13:41:34.000Z</time>
      </trkpt>
      <trkpt lat="47.20451" lon="3.19849">
        <ele>282.52810668945</ele>
        <time>2015-11-04T13:41:37.000Z</time>
      </trkpt>
      <trkpt lat="47.20453" lon="3.19845">
        <ele>282.62826538086</ele>
        <time>2015-11-04T13:41:40.000Z</time>
      </trkpt>
      <trkpt lat="47.20453" lon="3.19842">
        <ele>282.72341918945</ele>
        <time>2015-11-04T13:41:42.000Z</time>
      </trkpt>
      <trkpt lat="47.20452" lon="3.19838">
        <ele>282.82281494141</ele>
        <time>2015-11-04T13:41:44.000Z</time>
      </trkpt>
      <trkpt lat="47.20451" lon="3.19836">
        <ele>282.9216003418</ele>
        <time>2015-11-04T13:41:47.000Z</time>
      </trkpt>
      <trkpt lat="47.20451" lon="3.19832">
        <ele>283.0087890625</ele>
        <time>2015-11-04T13:41:49.000Z</time>
      </trkpt>
      <trkpt lat="47.20449" lon="3.19823">
        <ele>283.07751464844</ele>
        <time>2015-11-04T13:41:52.000Z</time>
      </trkpt>
      <trkpt lat="47.20449" lon="3.19821">
        <ele>283.13876342773</ele>
        <time>2015-11-04T13:41:55.000Z</time>
      </trkpt>
      <trkpt lat="47.20448" lon="3.19815">
        <ele>283.17700195312</ele>
        <time>2015-11-04T13:41:58.000Z</time>
      </trkpt>
      <trkpt lat="47.20448" lon="3.19811">
        <ele>283.20513916016</ele>
        <time>2015-11-04T13:42:01.000Z</time>
      </trkpt>
      <trkpt lat="47.20447" lon="3.19808">
        <ele>283.21551513672</ele>
        <time>2015-11-04T13:42:03.000Z</time>
      </trkpt>
      <trkpt lat="47.20449" lon="3.19807">
        <ele>283.20831298828</ele>
        <time>2015-11-04T13:42:06.000Z</time>
      </trkpt>
      <trkpt lat="47.2045" lon="3.19806">
        <ele>283.19390869141</ele>
        <time>2015-11-04T13:42:08.000Z</time>
      </trkpt>
      <trkpt lat="47.20451" lon="3.19799">
        <ele>283.1701965332</ele>
        <time>2015-11-04T13:42:11.000Z</time>
      </trkpt>
      <trkpt lat="47.2045" lon="3.19793">
        <ele>283.14508056641</ele>
        <time>2015-11-04T13:42:13.000Z</time>
      </trkpt>
      <trkpt lat="47.2045" lon="3.1979">
        <ele>283.11660766602</ele>
        <time>2015-11-04T13:42:16.000Z</time>
      </trkpt>
      <trkpt lat="47.2045" lon="3.19786">
        <ele>283.10333251953</ele>
        <time>2015-11-04T13:42:19.000Z</time>
      </trkpt>
      <trkpt lat="47.2045" lon="3.19781">
        <ele>283.09121704102</ele>
        <time>2015-11-04T13:42:22.000Z</time>
      </trkpt>
      <trkpt lat="47.2045" lon="3.19777">
        <ele>283.08364868164</ele>
        <time>2015-11-04T13:42:24.000Z</time>
      </trkpt>
      <trkpt lat="47.2045" lon="3.19773">
        <ele>283.0739440918</ele>
        <time>2015-11-04T13:42:26.000Z</time>
      </trkpt>
      <trkpt lat="47.2045" lon="3.19771">
        <ele>283.06457519531</ele>
        <time>2015-11-04T13:42:34.000Z</time>
      </trkpt>
      <trkpt lat="47.20451" lon="3.19766">
        <ele>283.05090332031</ele>
        <time>2015-11-04T13:42:35.000Z</time>
      </trkpt>
      <trkpt lat="47.2045" lon="3.19762">
        <ele>283.04180908203</ele>
        <time>2015-11-04T13:42:35.000Z</time>
      </trkpt>
      <trkpt lat="47.2045" lon="3.19759">
        <ele>283.03332519531</ele>
        <time>2015-11-04T13:42:36.000Z</time>
      </trkpt>
      <trkpt lat="47.2045" lon="3.19758">
        <ele>283.02603149414</ele>
        <time>2015-11-04T13:42:38.000Z</time>
      </trkpt>
      <trkpt lat="47.2045" lon="3.19752">
        <ele>283.01699829102</ele>
        <time>2015-11-04T13:42:40.000Z</time>
      </trkpt>
      <trkpt lat="47.20451" lon="3.19746">
        <ele>282.99227905273</ele>
        <time>2015-11-04T13:42:43.000Z</time>
      </trkpt>
      <trkpt lat="47.20451" lon="3.19741">
        <ele>282.94808959961</ele>
        <time>2015-11-04T13:42:46.000Z</time>
      </trkpt>
      <trkpt lat="47.20449" lon="3.19736">
        <ele>282.89541625977</ele>
        <time>2015-11-04T13:42:49.000Z</time>
      </trkpt>
      <trkpt lat="47.20449" lon="3.19734">
        <ele>282.84252929688</ele>
        <time>2015-11-04T13:42:51.000Z</time>
      </trkpt>
      <trkpt lat="47.20449" lon="3.1973">
        <ele>282.77252197266</ele>
        <time>2015-11-04T13:42:56.000Z</time>
      </trkpt>
      <trkpt lat="47.20448" lon="3.19724">
        <ele>282.71258544922</ele>
        <time>2015-11-04T13:42:58.000Z</time>
      </trkpt>
      <trkpt lat="47.20446" lon="3.19719">
        <ele>282.67172241211</ele>
        <time>2015-11-04T13:43:01.000Z</time>
      </trkpt>
      <trkpt lat="47.20447" lon="3.19715">
        <ele>282.62103271484</ele>
        <time>2015-11-04T13:43:04.000Z</time>
      </trkpt>
      <trkpt lat="47.20447" lon="3.19713">
        <ele>282.55914306641</ele>
        <time>2015-11-04T13:43:06.000Z</time>
      </trkpt>
      <trkpt lat="47.20447" lon="3.1971">
        <ele>282.50549316406</ele>
        <time>2015-11-04T13:43:08.000Z</time>
      </trkpt>
      <trkpt lat="47.20447" lon="3.19708">
        <ele>282.4619140625</ele>
        <time>2015-11-04T13:43:10.000Z</time>
      </trkpt>
      <trkpt lat="47.20448" lon="3.19705">
        <ele>282.38677978516</ele>
        <time>2015-11-04T13:43:13.000Z</time>
      </trkpt>
      <trkpt lat="47.20449" lon="3.19702">
        <ele>282.31158447266</ele>
        <time>2015-11-04T13:43:18.000Z</time>
      </trkpt>
      <trkpt lat="47.20449" lon="3.19701">
        <ele>282.24176025391</ele>
        <time>2015-11-04T13:43:19.000Z</time>
      </trkpt>
      <trkpt lat="47.20451" lon="3.19697">
        <ele>282.15585327148</ele>
        <time>2015-11-04T13:43:21.000Z</time>
      </trkpt>
      <trkpt lat="47.20452" lon="3.19694">
        <ele>282.04974365234</ele>
        <time>2015-11-04T13:43:24.000Z</time>
      </trkpt>
      <trkpt lat="47.20453" lon="3.19687">
        <ele>281.93045043945</ele>
        <time>2015-11-04T13:43:30.000Z</time>
      </trkpt>
      <trkpt lat="47.20453" lon="3.19684">
        <ele>281.82049560547</ele>
        <time>2015-11-04T13:43:30.000Z</time>
      </trkpt>
      <trkpt lat="47.20452" lon="3.1968">
        <ele>281.71231079102</ele>
        <time>2015-11-04T13:43:36.000Z</time>
      </trkpt>
      <trkpt lat="47.20452" lon="3.19678">
        <ele>281.62969970703</ele>
        <time>2015-11-04T13:43:36.000Z</time>
      </trkpt>
      <trkpt lat="47.20452" lon="3.19674">
        <ele>281.54779052734</ele>
        <time>2015-11-04T13:43:39.000Z</time>
      </trkpt>
      <trkpt lat="47.20451" lon="3.19668">
        <ele>281.49417114258</ele>
        <time>2015-11-04T13:43:41.000Z</time>
      </trkpt>
      <trkpt lat="47.20451" lon="3.19665">
        <ele>281.43588256836</ele>
        <time>2015-11-04T13:43:43.000Z</time>
      </trkpt>
      <trkpt lat="47.20449" lon="3.19661">
        <ele>281.34503173828</ele>
        <time>2015-11-04T13:43:45.000Z</time>
      </trkpt>
      <trkpt lat="47.20448" lon="3.19655">
        <ele>281.19253540039</ele>
        <time>2015-11-04T13:43:48.000Z</time>
      </trkpt>
      <trkpt lat="47.20448" lon="3.19651">
        <ele>281.02578735352</ele>
        <time>2015-11-04T13:43:50.000Z</time>
      </trkpt>
      <trkpt lat="47.20448" lon="3.19648">
        <ele>280.83880615234</ele>
        <time>2015-11-04T13:43:52.000Z</time>
      </trkpt>
      <trkpt lat="47.20447" lon="3.19644">
        <ele>280.62127685547</ele>
        <time>2015-11-04T13:43:54.000Z</time>
      </trkpt>
      <trkpt lat="47.20446" lon="3.19642">
        <ele>280.42861938477</ele>
        <time>2015-11-04T13:43:57.000Z</time>
      </trkpt>
      <trkpt lat="47.20444" lon="3.19637">
        <ele>280.25717163086</ele>
        <time>2015-11-04T13:44:02.000Z</time>
      </trkpt>
      <trkpt lat="47.20444" lon="3.19632">
        <ele>280.05682373047</ele>
        <time>2015-11-04T13:44:04.000Z</time>
      </trkpt>
      <trkpt lat="47.20444" lon="3.19627">
        <ele>279.82476806641</ele>
        <time>2015-11-04T13:44:07.000Z</time>
      </trkpt>
      <trkpt lat="47.20443" lon="3.19625">
        <ele>279.62322998047</ele>
        <time>2015-11-04T13:44:09.000Z</time>
      </trkpt>
      <trkpt lat="47.20443" lon="3.19621">
        <ele>279.39205932617</ele>
        <time>2015-11-04T13:44:12.000Z</time>
      </trkpt>
      <trkpt lat="47.20441" lon="3.19615">
        <ele>279.13568115234</ele>
        <time>2015-11-04T13:44:15.000Z</time>
      </trkpt>
      <trkpt lat="47.20441" lon="3.1961">
        <ele>278.88751220703</ele>
        <time>2015-11-04T13:44:17.000Z</time>
      </trkpt>
      <trkpt lat="47.2044" lon="3.19606">
        <ele>278.6559753418</ele>
        <time>2015-11-04T13:44:19.000Z</time>
      </trkpt>
      <trkpt lat="47.2044" lon="3.19602">
        <ele>278.39743041992</ele>
        <time>2015-11-04T13:44:22.000Z</time>
      </trkpt>
      <trkpt lat="47.20439" lon="3.19599">
        <ele>278.14544677734</ele>
        <time>2015-11-04T13:44:24.000Z</time>
      </trkpt>
      <trkpt lat="47.20439" lon="3.19595">
        <ele>277.90731811523</ele>
        <time>2015-11-04T13:44:26.000Z</time>
      </trkpt>
      <trkpt lat="47.20439" lon="3.19592">
        <ele>277.69409179688</ele>
        <time>2015-11-04T13:44:29.000Z</time>
      </trkpt>
      <trkpt lat="47.20438" lon="3.1959">
        <ele>277.50869750977</ele>
        <time>2015-11-04T13:44:32.000Z</time>
      </trkpt>
      <trkpt lat="47.20436" lon="3.19583">
        <ele>277.28485107422</ele>
        <time>2015-11-04T13:44:34.000Z</time>
      </trkpt>
      <trkpt lat="47.20436" lon="3.19575">
        <ele>277.01712036133</ele>
        <time>2015-11-04T13:44:39.000Z</time>
      </trkpt>
      <trkpt lat="47.20434" lon="3.19568">
        <ele>276.74224853516</ele>
        <time>2015-11-04T13:44:44.000Z</time>
      </trkpt>
      <trkpt lat="47.20433" lon="3.19562">
        <ele>276.45352172852</ele>
        <time>2015-11-04T13:44:47.000Z</time>
      </trkpt>
      <trkpt lat="47.20432" lon="3.1956">
        <ele>276.16415405273</ele>
        <time>2015-11-04T13:44:49.000Z</time>
      </trkpt>
      <trkpt lat="47.2043" lon="3.19553">
        <ele>275.89801025391</ele>
        <time>2015-11-04T13:44:52.000Z</time>
      </trkpt>
      <trkpt lat="47.20429" lon="3.1955">
        <ele>275.68450927734</ele>
        <time>2015-11-04T13:44:57.000Z</time>
      </trkpt>
      <trkpt lat="47.20429" lon="3.19548">
        <ele>275.51361083984</ele>
        <time>2015-11-04T13:45:00.000Z</time>
      </trkpt>
      <trkpt lat="47.2043" lon="3.19545">
        <ele>275.35736083984</ele>
        <time>2015-11-04T13:45:02.000Z</time>
      </trkpt>
      <trkpt lat="47.2043" lon="3.19544">
        <ele>275.21319580078</ele>
        <time>2015-11-04T13:45:04.000Z</time>
      </trkpt>
      <trkpt lat="47.20432" lon="3.19539">
        <ele>275.08319091797</ele>
        <time>2015-11-04T13:45:07.000Z</time>
      </trkpt>
      <trkpt lat="47.20433" lon="3.19535">
        <ele>274.94329833984</ele>
        <time>2015-11-04T13:45:09.000Z</time>
      </trkpt>
      <trkpt lat="47.20432" lon="3.19532">
        <ele>274.79141235352</ele>
        <time>2015-11-04T13:45:13.000Z</time>
      </trkpt>
      <trkpt lat="47.20432" lon="3.19529">
        <ele>274.64321899414</ele>
        <time>2015-11-04T13:45:16.000Z</time>
      </trkpt>
      <trkpt lat="47.20432" lon="3.19527">
        <ele>274.49154663086</ele>
        <time>2015-11-04T13:45:18.000Z</time>
      </trkpt>
      <trkpt lat="47.20433" lon="3.19522">
        <ele>274.33480834961</ele>
        <time>2015-11-04T13:45:21.000Z</time>
      </trkpt>
      <trkpt lat="47.20432" lon="3.19515">
        <ele>274.14852905273</ele>
        <time>2015-11-04T13:45:24.000Z</time>
      </trkpt>
      <trkpt lat="47.20432" lon="3.19513">
        <ele>273.97125244141</ele>
        <time>2015-11-04T13:45:27.000Z</time>
      </trkpt>
      <trkpt lat="47.20432" lon="3.19509">
        <ele>273.78399658203</ele>
        <time>2015-11-04T13:45:30.000Z</time>
      </trkpt>
      <trkpt lat="47.2043" lon="3.19504">
        <ele>273.56658935547</ele>
        <time>2015-11-04T13:45:33.000Z</time>
      </trkpt>
      <trkpt lat="47.20428" lon="3.19499">
        <ele>273.3564453125</ele>
        <time>2015-11-04T13:45:36.000Z</time>
      </trkpt>
      <trkpt lat="47.20428" lon="3.19495">
        <ele>273.19122314453</ele>
        <time>2015-11-04T13:45:38.000Z</time>
      </trkpt>
      <trkpt lat="47.20427" lon="3.19491">
        <ele>273.02960205078</ele>
        <time>2015-11-04T13:45:41.000Z</time>
      </trkpt>
      <trkpt lat="47.20426" lon="3.19484">
        <ele>272.86636352539</ele>
        <time>2015-11-04T13:45:44.000Z</time>
      </trkpt>
      <trkpt lat="47.20425" lon="3.19478">
        <ele>272.71517944336</ele>
        <time>2015-11-04T13:45:54.000Z</time>
      </trkpt>
      <trkpt lat="47.20425" lon="3.19472">
        <ele>272.57183837891</ele>
        <time>2015-11-04T13:45:57.000Z</time>
      </trkpt>
      <trkpt lat="47.20425" lon="3.1947">
        <ele>272.44189453125</ele>
        <time>2015-11-04T13:45:58.000Z</time>
      </trkpt>
      <trkpt lat="47.20425" lon="3.19464">
        <ele>272.2998046875</ele>
        <time>2015-11-04T13:46:01.000Z</time>
      </trkpt>
      <trkpt lat="47.20424" lon="3.1946">
        <ele>272.17834472656</ele>
        <time>2015-11-04T13:46:03.000Z</time>
      </trkpt>
      <trkpt lat="47.20422" lon="3.19456">
        <ele>272.07202148438</ele>
        <time>2015-11-04T13:46:07.000Z</time>
      </trkpt>
      <trkpt lat="47.20422" lon="3.19451">
        <ele>271.96990966797</ele>
        <time>2015-11-04T13:46:10.000Z</time>
      </trkpt>
      <trkpt lat="47.20423" lon="3.19446">
        <ele>271.84783935547</ele>
        <time>2015-11-04T13:46:14.000Z</time>
      </trkpt>
      <trkpt lat="47.20423" lon="3.19444">
        <ele>271.74725341797</ele>
        <time>2015-11-04T13:46:16.000Z</time>
      </trkpt>
      <trkpt lat="47.20424" lon="3.19437">
        <ele>271.62680053711</ele>
        <time>2015-11-04T13:46:20.000Z</time>
      </trkpt>
      <trkpt lat="47.20425" lon="3.19434">
        <ele>271.50338745117</ele>
        <time>2015-11-04T13:46:23.000Z</time>
      </trkpt>
      <trkpt lat="47.20425" lon="3.1943">
        <ele>271.38616943359</ele>
        <time>2015-11-04T13:46:25.000Z</time>
      </trkpt>
      <trkpt lat="47.20424" lon="3.19427">
        <ele>271.28433227539</ele>
        <time>2015-11-04T13:46:28.000Z</time>
      </trkpt>
      <trkpt lat="47.2042" lon="3.19416">
        <ele>271.15579223633</ele>
        <time>2015-11-04T13:46:31.000Z</time>
      </trkpt>
      <trkpt lat="47.2042" lon="3.19414">
        <ele>271.06900024414</ele>
        <time>2015-11-04T13:46:33.000Z</time>
      </trkpt>
      <trkpt lat="47.20417" lon="3.19408">
        <ele>271.01211547852</ele>
        <time>2015-11-04T13:46:36.000Z</time>
      </trkpt>
      <trkpt lat="47.20418" lon="3.19407">
        <ele>270.97564697266</ele>
        <time>2015-11-04T13:46:39.000Z</time>
      </trkpt>
      <trkpt lat="47.20419" lon="3.19402">
        <ele>270.94750976562</ele>
        <time>2015-11-04T13:46:42.000Z</time>
      </trkpt>
      <trkpt lat="47.20419" lon="3.19399">
        <ele>270.95220947266</ele>
        <time>2015-11-04T13:46:45.000Z</time>
      </trkpt>
      <trkpt lat="47.20418" lon="3.19394">
        <ele>270.95727539062</ele>
        <time>2015-11-04T13:46:47.000Z</time>
      </trkpt>
      <trkpt lat="47.20418" lon="3.19393">
        <ele>270.95462036133</ele>
        <time>2015-11-04T13:46:49.000Z</time>
      </trkpt>
      <trkpt lat="47.2042" lon="3.19389">
        <ele>270.94488525391</ele>
        <time>2015-11-04T13:46:53.000Z</time>
      </trkpt>
      <trkpt lat="47.2042" lon="3.19384">
        <ele>270.93911743164</ele>
        <time>2015-11-04T13:46:56.000Z</time>
      </trkpt>
      <trkpt lat="47.20419" lon="3.19382">
        <ele>270.93792724609</ele>
        <time>2015-11-04T13:46:59.000Z</time>
      </trkpt>
      <trkpt lat="47.20417" lon="3.19373">
        <ele>270.94674682617</ele>
        <time>2015-11-04T13:47:02.000Z</time>
      </trkpt>
      <trkpt lat="47.20417" lon="3.19369">
        <ele>270.95095825195</ele>
        <time>2015-11-04T13:47:05.000Z</time>
      </trkpt>
      <trkpt lat="47.20417" lon="3.19366">
        <ele>270.96435546875</ele>
        <time>2015-11-04T13:47:08.000Z</time>
      </trkpt>
      <trkpt lat="47.20417" lon="3.19364">
        <ele>270.97817993164</ele>
        <time>2015-11-04T13:47:10.000Z</time>
      </trkpt>
      <trkpt lat="47.20417" lon="3.19361">
        <ele>270.98974609375</ele>
        <time>2015-11-04T13:47:12.000Z</time>
      </trkpt>
      <trkpt lat="47.20417" lon="3.19357">
        <ele>270.98974609375</ele>
        <time>2015-11-04T13:47:17.000Z</time>
      </trkpt>
      <trkpt lat="47.20416" lon="3.19353">
        <ele>270.99346923828</ele>
        <time>2015-11-04T13:47:20.000Z</time>
      </trkpt>
      <trkpt lat="47.20416" lon="3.19351">
        <ele>270.99722290039</ele>
        <time>2015-11-04T13:47:27.000Z</time>
      </trkpt>
      <trkpt lat="47.20416" lon="3.19344">
        <ele>271.001953125</ele>
        <time>2015-11-04T13:47:30.000Z</time>
      </trkpt>
      <trkpt lat="47.20415" lon="3.19339">
        <ele>271.00982666016</ele>
        <time>2015-11-04T13:47:33.000Z</time>
      </trkpt>
      <trkpt lat="47.20414" lon="3.19334">
        <ele>271.01763916016</ele>
        <time>2015-11-04T13:47:38.000Z</time>
      </trkpt>
      <trkpt lat="47.20414" lon="3.19324">
        <ele>270.98089599609</ele>
        <time>2015-11-04T13:47:41.000Z</time>
      </trkpt>
      <trkpt lat="47.20414" lon="3.19314">
        <ele>270.89361572266</ele>
        <time>2015-11-04T13:47:44.000Z</time>
      </trkpt>
      <trkpt lat="47.20415" lon="3.19307">
        <ele>270.76947021484</ele>
        <time>2015-11-04T13:47:47.000Z</time>
      </trkpt>
      <trkpt lat="47.20416" lon="3.19305">
        <ele>270.62933349609</ele>
        <time>2015-11-04T13:47:50.000Z</time>
      </trkpt>
      <trkpt lat="47.20416" lon="3.193">
        <ele>270.46029663086</ele>
        <time>2015-11-04T13:47:53.000Z</time>
      </trkpt>
      <trkpt lat="47.20416" lon="3.19298">
        <ele>270.32489013672</ele>
        <time>2015-11-04T13:47:55.000Z</time>
      </trkpt>
      <trkpt lat="47.20417" lon="3.19295">
        <ele>270.22708129883</ele>
        <time>2015-11-04T13:48:01.000Z</time>
      </trkpt>
      <trkpt lat="47.20417" lon="3.19293">
        <ele>270.15255737305</ele>
        <time>2015-11-04T13:48:04.000Z</time>
      </trkpt>
      <trkpt lat="47.20419" lon="3.19289">
        <ele>270.06625366211</ele>
        <time>2015-11-04T13:48:07.000Z</time>
      </trkpt>
      <trkpt lat="47.20422" lon="3.19282">
        <ele>269.96929931641</ele>
        <time>2015-11-04T13:48:11.000Z</time>
      </trkpt>
      <trkpt lat="47.20422" lon="3.1928">
        <ele>269.86871337891</ele>
        <time>2015-11-04T13:48:13.000Z</time>
      </trkpt>
      <trkpt lat="47.20422" lon="3.19274">
        <ele>269.75665283203</ele>
        <time>2015-11-04T13:48:16.000Z</time>
      </trkpt>
      <trkpt lat="47.20422" lon="3.1927">
        <ele>269.64135742188</ele>
        <time>2015-11-04T13:48:20.000Z</time>
      </trkpt>
      <trkpt lat="47.20422" lon="3.19263">
        <ele>269.51934814453</ele>
        <time>2015-11-04T13:48:22.000Z</time>
      </trkpt>
      <trkpt lat="47.20425" lon="3.19258">
        <ele>269.40957641602</ele>
        <time>2015-11-04T13:48:25.000Z</time>
      </trkpt>
      <trkpt lat="47.20425" lon="3.19256">
        <ele>269.30627441406</ele>
        <time>2015-11-04T13:48:27.000Z</time>
      </trkpt>
      <trkpt lat="47.20424" lon="3.19255">
        <ele>269.22311401367</ele>
        <time>2015-11-04T13:48:30.000Z</time>
      </trkpt>
      <trkpt lat="47.20424" lon="3.19249">
        <ele>269.13079833984</ele>
        <time>2015-11-04T13:48:32.000Z</time>
      </trkpt>
      <trkpt lat="47.20424" lon="3.19244">
        <ele>269.03482055664</ele>
        <time>2015-11-04T13:48:35.000Z</time>
      </trkpt>
      <trkpt lat="47.20424" lon="3.19241">
        <ele>268.94207763672</ele>
        <time>2015-11-04T13:48:37.000Z</time>
      </trkpt>
      <trkpt lat="47.20425" lon="3.19237">
        <ele>268.8251953125</ele>
        <time>2015-11-04T13:48:40.000Z</time>
      </trkpt>
      <trkpt lat="47.20427" lon="3.19231">
        <ele>268.67462158203</ele>
        <time>2015-11-04T13:48:43.000Z</time>
      </trkpt>
      <trkpt lat="47.20428" lon="3.19226">
        <ele>268.51455688477</ele>
        <time>2015-11-04T13:48:45.000Z</time>
      </trkpt>
      <trkpt lat="47.20429" lon="3.19224">
        <ele>268.37716674805</ele>
        <time>2015-11-04T13:48:48.000Z</time>
      </trkpt>
      <trkpt lat="47.2043" lon="3.19221">
        <ele>268.24224853516</ele>
        <time>2015-11-04T13:48:52.000Z</time>
      </trkpt>
      <trkpt lat="47.20429" lon="3.19217">
        <ele>268.11059570312</ele>
        <time>2015-11-04T13:48:54.000Z</time>
      </trkpt>
      <trkpt lat="47.2043" lon="3.19213">
        <ele>267.98504638672</ele>
        <time>2015-11-04T13:48:56.000Z</time>
      </trkpt>
      <trkpt lat="47.20431" lon="3.19209">
        <ele>267.8701171875</ele>
        <time>2015-11-04T13:48:59.000Z</time>
      </trkpt>
      <trkpt lat="47.20432" lon="3.19207">
        <ele>267.75885009766</ele>
        <time>2015-11-04T13:49:02.000Z</time>
      </trkpt>
      <trkpt lat="47.20433" lon="3.19202">
        <ele>267.62924194336</ele>
        <time>2015-11-04T13:49:04.000Z</time>
      </trkpt>
      <trkpt lat="47.20434" lon="3.19196">
        <ele>267.4914855957</ele>
        <time>2015-11-04T13:49:06.000Z</time>
      </trkpt>
      <trkpt lat="47.20434" lon="3.19192">
        <ele>267.35528564453</ele>
        <time>2015-11-04T13:49:09.000Z</time>
      </trkpt>
      <trkpt lat="47.20435" lon="3.19187">
        <ele>267.21182250977</ele>
        <time>2015-11-04T13:49:11.000Z</time>
      </trkpt>
      <trkpt lat="47.20435" lon="3.19181">
        <ele>267.03964233398</ele>
        <time>2015-11-04T13:49:14.000Z</time>
      </trkpt>
      <trkpt lat="47.20435" lon="3.19176">
        <ele>266.87274169922</ele>
        <time>2015-11-04T13:49:17.000Z</time>
      </trkpt>
      <trkpt lat="47.20436" lon="3.19174">
        <ele>266.72680664062</ele>
        <time>2015-11-04T13:49:19.000Z</time>
      </trkpt>
      <trkpt lat="47.20436" lon="3.19172">
        <ele>266.60052490234</ele>
        <time>2015-11-04T13:49:22.000Z</time>
      </trkpt>
      <trkpt lat="47.20438" lon="3.19166">
        <ele>266.4714050293</ele>
        <time>2015-11-04T13:49:25.000Z</time>
      </trkpt>
      <trkpt lat="47.20438" lon="3.19164">
        <ele>266.36264038086</ele>
        <time>2015-11-04T13:49:27.000Z</time>
      </trkpt>
      <trkpt lat="47.20439" lon="3.19156">
        <ele>266.23815917969</ele>
        <time>2015-11-04T13:49:30.000Z</time>
      </trkpt>
      <trkpt lat="47.20439" lon="3.19154">
        <ele>266.11563110352</ele>
        <time>2015-11-04T13:49:32.000Z</time>
      </trkpt>
      <trkpt lat="47.20438" lon="3.1915">
        <ele>265.97357177734</ele>
        <time>2015-11-04T13:49:34.000Z</time>
      </trkpt>
      <trkpt lat="47.20438" lon="3.19145">
        <ele>265.83279418945</ele>
        <time>2015-11-04T13:49:36.000Z</time>
      </trkpt>
      <trkpt lat="47.20438" lon="3.19139">
        <ele>265.66918945312</ele>
        <time>2015-11-04T13:49:44.000Z</time>
      </trkpt>
      <trkpt lat="47.20437" lon="3.19132">
        <ele>265.50924682617</ele>
        <time>2015-11-04T13:49:48.000Z</time>
      </trkpt>
      <trkpt lat="47.20439" lon="3.19127">
        <ele>265.32885742188</ele>
        <time>2015-11-04T13:49:51.000Z</time>
      </trkpt>
      <trkpt lat="47.20441" lon="3.19122">
        <ele>265.15618896484</ele>
        <time>2015-11-04T13:49:55.000Z</time>
      </trkpt>
      <trkpt lat="47.20442" lon="3.19118">
        <ele>264.99481201172</ele>
        <time>2015-11-04T13:49:58.000Z</time>
      </trkpt>
      <trkpt lat="47.20442" lon="3.19112">
        <ele>264.83221435547</ele>
        <time>2015-11-04T13:50:01.000Z</time>
      </trkpt>
      <trkpt lat="47.20443" lon="3.19107">
        <ele>264.68545532227</ele>
        <time>2015-11-04T13:50:04.000Z</time>
      </trkpt>
      <trkpt lat="47.20441" lon="3.19103">
        <ele>264.54290771484</ele>
        <time>2015-11-04T13:50:07.000Z</time>
      </trkpt>
      <trkpt lat="47.2044" lon="3.19097">
        <ele>264.37506103516</ele>
        <time>2015-11-04T13:50:10.000Z</time>
      </trkpt>
      <trkpt lat="47.2044" lon="3.19092">
        <ele>264.20108032227</ele>
        <time>2015-11-04T13:50:13.000Z</time>
      </trkpt>
      <trkpt lat="47.20441" lon="3.1909">
        <ele>264.05239868164</ele>
        <time>2015-11-04T13:50:15.000Z</time>
      </trkpt>
      <trkpt lat="47.20442" lon="3.19082">
        <ele>263.88549804688</ele>
        <time>2015-11-04T13:50:18.000Z</time>
      </trkpt>
      <trkpt lat="47.20443" lon="3.19078">
        <ele>263.70489501953</ele>
        <time>2015-11-04T13:50:20.000Z</time>
      </trkpt>
      <trkpt lat="47.20444" lon="3.19073">
        <ele>263.52108764648</ele>
        <time>2015-11-04T13:50:25.000Z</time>
      </trkpt>
      <trkpt lat="47.20444" lon="3.19072">
        <ele>263.35052490234</ele>
        <time>2015-11-04T13:50:27.000Z</time>
      </trkpt>
      <trkpt lat="47.20445" lon="3.19067">
        <ele>263.14825439453</ele>
        <time>2015-11-04T13:50:29.000Z</time>
      </trkpt>
      <trkpt lat="47.20444" lon="3.19062">
        <ele>262.93725585938</ele>
        <time>2015-11-04T13:50:34.000Z</time>
      </trkpt>
      <trkpt lat="47.20444" lon="3.1906">
        <ele>262.74017333984</ele>
        <time>2015-11-04T13:50:36.000Z</time>
      </trkpt>
      <trkpt lat="47.20443" lon="3.19058">
        <ele>262.56063842773</ele>
        <time>2015-11-04T13:50:38.000Z</time>
      </trkpt>
      <trkpt lat="47.20441" lon="3.19055">
        <ele>262.35858154297</ele>
        <time>2015-11-04T13:50:41.000Z</time>
      </trkpt>
      <trkpt lat="47.20441" lon="3.19054">
        <ele>262.19076538086</ele>
        <time>2015-11-04T13:50:44.000Z</time>
      </trkpt>
      <trkpt lat="47.20441" lon="3.19053">
        <ele>262.06173706055</ele>
        <time>2015-11-04T13:50:47.000Z</time>
      </trkpt>
      <trkpt lat="47.2044" lon="3.19052">
        <ele>261.94464111328</ele>
        <time>2015-11-04T13:50:56.000Z</time>
      </trkpt>
      <trkpt lat="47.20432" lon="3.19048">
        <ele>261.77026367188</ele>
        <time>2015-11-04T13:50:56.000Z</time>
      </trkpt>
      <trkpt lat="47.20431" lon="3.19048">
        <ele>261.62564086914</ele>
        <time>2015-11-04T13:50:59.000Z</time>
      </trkpt>
      <trkpt lat="47.20433" lon="3.19047">
        <ele>261.50079345703</ele>
        <time>2015-11-04T13:51:04.000Z</time>
      </trkpt>
      <trkpt lat="47.20435" lon="3.19047">
        <ele>261.39807128906</ele>
        <time>2015-11-04T13:51:04.000Z</time>
      </trkpt>
      <trkpt lat="47.2044" lon="3.19044">
        <ele>261.30572509766</ele>
        <time>2015-11-04T13:51:26.000Z</time>
      </trkpt>
      <trkpt lat="47.2044" lon="3.19044">
        <ele>261.30572509766</ele>
        <time>2015-11-04T13:51:47.000Z</time>
      </trkpt>
      <trkpt lat="47.2044" lon="3.19032">
        <ele>261.17901611328</ele>
        <time>2015-11-04T13:52:47.000Z</time>
      </trkpt>
      <trkpt lat="47.2044" lon="3.19032">
        <ele>261.17901611328</ele>
        <time>2015-11-04T13:53:07.000Z</time>
      </trkpt>
      <trkpt lat="47.20438" lon="3.1903">
        <ele>261.01422119141</ele>
        <time>2015-11-04T13:53:11.000Z</time>
      </trkpt>
      <trkpt lat="47.20438" lon="3.19028">
        <ele>260.81854248047</ele>
        <time>2015-11-04T13:53:20.000Z</time>
      </trkpt>
      <trkpt lat="47.20438" lon="3.19026">
        <ele>260.59545898438</ele>
        <time>2015-11-04T13:53:25.000Z</time>
      </trkpt>
      <trkpt lat="47.20439" lon="3.19024">
        <ele>260.37149047852</ele>
        <time>2015-11-04T13:53:28.000Z</time>
      </trkpt>
      <trkpt lat="47.2044" lon="3.19024">
        <ele>260.27789306641</ele>
        <time>2015-11-04T13:53:37.000Z</time>
      </trkpt>
      <trkpt lat="47.20442" lon="3.19023">
        <ele>260.22830200195</ele>
        <time>2015-11-04T13:53:38.000Z</time>
      </trkpt>
      <trkpt lat="47.20443" lon="3.19018">
        <ele>260.15515136719</ele>
        <time>2015-11-04T13:53:42.000Z</time>
      </trkpt>
      <trkpt lat="47.20443" lon="3.1901">
        <ele>260.01724243164</ele>
        <time>2015-11-04T13:53:43.000Z</time>
      </trkpt>
      <trkpt lat="47.20443" lon="3.19006">
        <ele>259.83880615234</ele>
        <time>2015-11-04T13:53:45.000Z</time>
      </trkpt>
      <trkpt lat="47.20444" lon="3.19004">
        <ele>259.64141845703</ele>
        <time>2015-11-04T13:53:49.000Z</time>
      </trkpt>
      <trkpt lat="47.20446" lon="3.19004">
        <ele>259.45175170898</ele>
        <time>2015-11-04T13:53:54.000Z</time>
      </trkpt>
      <trkpt lat="47.20446" lon="3.19002">
        <ele>259.29452514648</ele>
        <time>2015-11-04T13:53:58.000Z</time>
      </trkpt>
      <trkpt lat="47.20447" lon="3.19">
        <ele>259.20095825195</ele>
        <time>2015-11-04T13:54:01.000Z</time>
      </trkpt>
      <trkpt lat="47.20448" lon="3.18996">
        <ele>259.12454223633</ele>
        <time>2015-11-04T13:54:03.000Z</time>
      </trkpt>
      <trkpt lat="47.2045" lon="3.18992">
        <ele>259.04006958008</ele>
        <time>2015-11-04T13:54:06.000Z</time>
      </trkpt>
      <trkpt lat="47.20451" lon="3.18989">
        <ele>258.92681884766</ele>
        <time>2015-11-04T13:54:11.000Z</time>
      </trkpt>
      <trkpt lat="47.20452" lon="3.18986">
        <ele>258.80386352539</ele>
        <time>2015-11-04T13:54:11.000Z</time>
      </trkpt>
      <trkpt lat="47.20452" lon="3.18984">
        <ele>258.67864990234</ele>
        <time>2015-11-04T13:54:14.000Z</time>
      </trkpt>
      <trkpt lat="47.20452" lon="3.18981">
        <ele>258.5615234375</ele>
        <time>2015-11-04T13:54:15.000Z</time>
      </trkpt>
      <trkpt lat="47.20453" lon="3.18979">
        <ele>258.44805908203</ele>
        <time>2015-11-04T13:54:18.000Z</time>
      </trkpt>
      <trkpt lat="47.20454" lon="3.18976">
        <ele>258.33209228516</ele>
        <time>2015-11-04T13:54:20.000Z</time>
      </trkpt>
      <trkpt lat="47.20454" lon="3.18972">
        <ele>258.20324707031</ele>
        <time>2015-11-04T13:54:22.000Z</time>
      </trkpt>
      <trkpt lat="47.20456" lon="3.18968">
        <ele>258.06170654297</ele>
        <time>2015-11-04T13:54:25.000Z</time>
      </trkpt>
      <trkpt lat="47.20456" lon="3.18964">
        <ele>257.90106201172</ele>
        <time>2015-11-04T13:54:28.000Z</time>
      </trkpt>
      <trkpt lat="47.20456" lon="3.18959">
        <ele>257.70108032227</ele>
        <time>2015-11-04T13:54:31.000Z</time>
      </trkpt>
      <trkpt lat="47.20456" lon="3.18956">
        <ele>257.49621582031</ele>
        <time>2015-11-04T13:54:33.000Z</time>
      </trkpt>
      <trkpt lat="47.20457" lon="3.1895">
        <ele>257.26541137695</ele>
        <time>2015-11-04T13:54:35.000Z</time>
      </trkpt>
      <trkpt lat="47.20459" lon="3.18947">
        <ele>257.05072021484</ele>
        <time>2015-11-04T13:54:38.000Z</time>
      </trkpt>
      <trkpt lat="47.2046" lon="3.18944">
        <ele>256.84155273438</ele>
        <time>2015-11-04T13:54:40.000Z</time>
      </trkpt>
      <trkpt lat="47.20461" lon="3.18941">
        <ele>256.66738891602</ele>
        <time>2015-11-04T13:54:44.000Z</time>
      </trkpt>
      <trkpt lat="47.20464" lon="3.18937">
        <ele>256.48007202148</ele>
        <time>2015-11-04T13:54:46.000Z</time>
      </trkpt>
      <trkpt lat="47.20465" lon="3.18932">
        <ele>256.30697631836</ele>
        <time>2015-11-04T13:54:48.000Z</time>
      </trkpt>
      <trkpt lat="47.20466" lon="3.18931">
        <ele>256.13882446289</ele>
        <time>2015-11-04T13:54:50.000Z</time>
      </trkpt>
      <trkpt lat="47.20467" lon="3.18924">
        <ele>255.93367004395</ele>
        <time>2015-11-04T13:54:53.000Z</time>
      </trkpt>
      <trkpt lat="47.20469" lon="3.18919">
        <ele>255.69299316406</ele>
        <time>2015-11-04T13:54:56.000Z</time>
      </trkpt>
      <trkpt lat="47.20469" lon="3.18917">
        <ele>255.46398925781</ele>
        <time>2015-11-04T13:54:58.000Z</time>
      </trkpt>
      <trkpt lat="47.2047" lon="3.18914">
        <ele>255.2574005127</ele>
        <time>2015-11-04T13:55:00.000Z</time>
      </trkpt>
      <trkpt lat="47.2047" lon="3.18909">
        <ele>255.01960754395</ele>
        <time>2015-11-04T13:55:03.000Z</time>
      </trkpt>
      <trkpt lat="47.20472" lon="3.18902">
        <ele>254.78813171387</ele>
        <time>2015-11-04T13:55:05.000Z</time>
      </trkpt>
      <trkpt lat="47.20472" lon="3.18899">
        <ele>254.58264160156</ele>
        <time>2015-11-04T13:55:07.000Z</time>
      </trkpt>
      <trkpt lat="47.20475" lon="3.18894">
        <ele>254.36669921875</ele>
        <time>2015-11-04T13:55:11.000Z</time>
      </trkpt>
      <trkpt lat="47.20474" lon="3.1889">
        <ele>254.140625</ele>
        <time>2015-11-04T13:55:13.000Z</time>
      </trkpt>
      <trkpt lat="47.20473" lon="3.18889">
        <ele>253.951171875</ele>
        <time>2015-11-04T13:55:16.000Z</time>
      </trkpt>
      <trkpt lat="47.20471" lon="3.18888">
        <ele>253.82104492188</ele>
        <time>2015-11-04T13:55:18.000Z</time>
      </trkpt>
      <trkpt lat="47.20471" lon="3.18887">
        <ele>253.70678710938</ele>
        <time>2015-11-04T13:55:24.000Z</time>
      </trkpt>
      <trkpt lat="47.2047" lon="3.18884">
        <ele>253.60400390625</ele>
        <time>2015-11-04T13:55:26.000Z</time>
      </trkpt>
      <trkpt lat="47.20469" lon="3.1888">
        <ele>253.50341796875</ele>
        <time>2015-11-04T13:55:28.000Z</time>
      </trkpt>
      <trkpt lat="47.20467" lon="3.18875">
        <ele>253.37231445312</ele>
        <time>2015-11-04T13:55:30.000Z</time>
      </trkpt>
      <trkpt lat="47.20465" lon="3.18871">
        <ele>253.20361328125</ele>
        <time>2015-11-04T13:55:33.000Z</time>
      </trkpt>
      <trkpt lat="47.20463" lon="3.18866">
        <ele>253.0087890625</ele>
        <time>2015-11-04T13:55:36.000Z</time>
      </trkpt>
      <trkpt lat="47.20462" lon="3.18861">
        <ele>252.79663085938</ele>
        <time>2015-11-04T13:55:39.000Z</time>
      </trkpt>
      <trkpt lat="47.2046" lon="3.18856">
        <ele>252.56372070312</ele>
        <time>2015-11-04T13:55:42.000Z</time>
      </trkpt>
      <trkpt lat="47.20458" lon="3.18852">
        <ele>252.3349609375</ele>
        <time>2015-11-04T13:55:45.000Z</time>
      </trkpt>
      <trkpt lat="47.20456" lon="3.18845">
        <ele>252.091796875</ele>
        <time>2015-11-04T13:55:47.000Z</time>
      </trkpt>
      <trkpt lat="47.20455" lon="3.1884">
        <ele>251.83911132812</ele>
        <time>2015-11-04T13:55:50.000Z</time>
      </trkpt>
      <trkpt lat="47.20454" lon="3.18837">
        <ele>251.60131835938</ele>
        <time>2015-11-04T13:55:53.000Z</time>
      </trkpt>
      <trkpt lat="47.20452" lon="3.18833">
        <ele>251.38204956055</ele>
        <time>2015-11-04T13:55:56.000Z</time>
      </trkpt>
      <trkpt lat="47.20451" lon="3.18828">
        <ele>251.15615844727</ele>
        <time>2015-11-04T13:56:02.000Z</time>
      </trkpt>
      <trkpt lat="47.20451" lon="3.18825">
        <ele>250.96801757812</ele>
        <time>2015-11-04T13:56:02.000Z</time>
      </trkpt>
      <trkpt lat="47.2045" lon="3.18823">
        <ele>250.81196594238</ele>
        <time>2015-11-04T13:56:14.000Z</time>
      </trkpt>
      <trkpt lat="47.20447" lon="3.18819">
        <ele>250.6565246582</ele>
        <time>2015-11-04T13:56:14.000Z</time>
      </trkpt>
      <trkpt lat="47.20445" lon="3.18816">
        <ele>250.50634765625</ele>
        <time>2015-11-04T13:56:15.000Z</time>
      </trkpt>
      <trkpt lat="47.20443" lon="3.18811">
        <ele>250.35591125488</ele>
        <time>2015-11-04T13:56:15.000Z</time>
      </trkpt>
      <trkpt lat="47.2044" lon="3.18805">
        <ele>250.17582702637</ele>
        <time>2015-11-04T13:56:15.000Z</time>
      </trkpt>
      <trkpt lat="47.20438" lon="3.18799">
        <ele>249.962890625</ele>
        <time>2015-11-04T13:56:17.000Z</time>
      </trkpt>
      <trkpt lat="47.20436" lon="3.18798">
        <ele>249.7673034668</ele>
        <time>2015-11-04T13:56:20.000Z</time>
      </trkpt>
      <trkpt lat="47.20434" lon="3.18794">
        <ele>249.5632019043</ele>
        <time>2015-11-04T13:56:22.000Z</time>
      </trkpt>
      <trkpt lat="47.20431" lon="3.18789">
        <ele>249.35385131836</ele>
        <time>2015-11-04T13:56:25.000Z</time>
      </trkpt>
      <trkpt lat="47.20429" lon="3.18784">
        <ele>249.14688110352</ele>
        <time>2015-11-04T13:56:28.000Z</time>
      </trkpt>
      <trkpt lat="47.20427" lon="3.18779">
        <ele>248.94955444336</ele>
        <time>2015-11-04T13:56:31.000Z</time>
      </trkpt>
      <trkpt lat="47.20427" lon="3.18777">
        <ele>248.74369812012</ele>
        <time>2015-11-04T13:56:33.000Z</time>
      </trkpt>
      <trkpt lat="47.20426" lon="3.18774">
        <ele>248.55078125</ele>
        <time>2015-11-04T13:56:35.000Z</time>
      </trkpt>
      <trkpt lat="47.20425" lon="3.18771">
        <ele>248.37593078613</ele>
        <time>2015-11-04T13:56:38.000Z</time>
      </trkpt>
      <trkpt lat="47.20424" lon="3.18767">
        <ele>248.21415710449</ele>
        <time>2015-11-04T13:56:42.000Z</time>
      </trkpt>
      <trkpt lat="47.20423" lon="3.18761">
        <ele>248.03475952148</ele>
        <time>2015-11-04T13:56:45.000Z</time>
      </trkpt>
      <trkpt lat="47.20422" lon="3.18755">
        <ele>247.82015991211</ele>
        <time>2015-11-04T13:56:48.000Z</time>
      </trkpt>
      <trkpt lat="47.20422" lon="3.18751">
        <ele>247.59550476074</ele>
        <time>2015-11-04T13:56:50.000Z</time>
      </trkpt>
      <trkpt lat="47.20422" lon="3.18746">
        <ele>247.37480163574</ele>
        <time>2015-11-04T13:56:52.000Z</time>
      </trkpt>
      <trkpt lat="47.20421" lon="3.18741">
        <ele>247.16084289551</ele>
        <time>2015-11-04T13:56:55.000Z</time>
      </trkpt>
      <trkpt lat="47.2042" lon="3.18737">
        <ele>246.98661804199</ele>
        <time>2015-11-04T13:56:58.000Z</time>
      </trkpt>
      <trkpt lat="47.20419" lon="3.1873">
        <ele>246.83833312988</ele>
        <time>2015-11-04T13:57:01.000Z</time>
      </trkpt>
      <trkpt lat="47.2042" lon="3.18727">
        <ele>246.71166992188</ele>
        <time>2015-11-04T13:57:03.000Z</time>
      </trkpt>
      <trkpt lat="47.20419" lon="3.1872">
        <ele>246.57946777344</ele>
        <time>2015-11-04T13:57:06.000Z</time>
      </trkpt>
      <trkpt lat="47.20417" lon="3.18716">
        <ele>246.45043945312</ele>
        <time>2015-11-04T13:57:08.000Z</time>
      </trkpt>
      <trkpt lat="47.20414" lon="3.18709">
        <ele>246.29272460938</ele>
        <time>2015-11-04T13:57:11.000Z</time>
      </trkpt>
      <trkpt lat="47.20414" lon="3.18703">
        <ele>246.13256835938</ele>
        <time>2015-11-04T13:57:14.000Z</time>
      </trkpt>
      <trkpt lat="47.20412" lon="3.18698">
        <ele>245.95092773438</ele>
        <time>2015-11-04T13:57:17.000Z</time>
      </trkpt>
      <trkpt lat="47.20411" lon="3.18693">
        <ele>245.77258300781</ele>
        <time>2015-11-04T13:57:20.000Z</time>
      </trkpt>
      <trkpt lat="47.2041" lon="3.1869">
        <ele>245.60180664062</ele>
        <time>2015-11-04T13:57:22.000Z</time>
      </trkpt>
      <trkpt lat="47.2041" lon="3.18686">
        <ele>245.45874023438</ele>
        <time>2015-11-04T13:57:24.000Z</time>
      </trkpt>
      <trkpt lat="47.2041" lon="3.18683">
        <ele>245.34020996094</ele>
        <time>2015-11-04T13:57:26.000Z</time>
      </trkpt>
      <trkpt lat="47.2041" lon="3.18679">
        <ele>245.23681640625</ele>
        <time>2015-11-04T13:57:29.000Z</time>
      </trkpt>
      <trkpt lat="47.20411" lon="3.18675">
        <ele>245.15283203125</ele>
        <time>2015-11-04T13:57:31.000Z</time>
      </trkpt>
      <trkpt lat="47.20411" lon="3.1867">
        <ele>245.06274414062</ele>
        <time>2015-11-04T13:57:34.000Z</time>
      </trkpt>
      <trkpt lat="47.20411" lon="3.18667">
        <ele>244.9765625</ele>
        <time>2015-11-04T13:57:36.000Z</time>
      </trkpt>
      <trkpt lat="47.20411" lon="3.18662">
        <ele>244.86296081543</ele>
        <time>2015-11-04T13:57:39.000Z</time>
      </trkpt>
      <trkpt lat="47.20411" lon="3.18658">
        <ele>244.74868774414</ele>
        <time>2015-11-04T13:57:41.000Z</time>
      </trkpt>
      <trkpt lat="47.20411" lon="3.18653">
        <ele>244.60922241211</ele>
        <time>2015-11-04T13:57:44.000Z</time>
      </trkpt>
      <trkpt lat="47.2041" lon="3.18649">
        <ele>244.45783996582</ele>
        <time>2015-11-04T13:57:47.000Z</time>
      </trkpt>
      <trkpt lat="47.2041" lon="3.18642">
        <ele>244.27803039551</ele>
        <time>2015-11-04T13:57:50.000Z</time>
      </trkpt>
      <trkpt lat="47.20409" lon="3.18637">
        <ele>244.09526062012</ele>
        <time>2015-11-04T13:57:53.000Z</time>
      </trkpt>
      <trkpt lat="47.20408" lon="3.18632">
        <ele>243.88139343262</ele>
        <time>2015-11-04T13:57:56.000Z</time>
      </trkpt>
      <trkpt lat="47.20407" lon="3.18629">
        <ele>243.67997741699</ele>
        <time>2015-11-04T13:57:58.000Z</time>
      </trkpt>
      <trkpt lat="47.20408" lon="3.18624">
        <ele>243.48315429688</ele>
        <time>2015-11-04T13:58:01.000Z</time>
      </trkpt>
      <trkpt lat="47.20408" lon="3.18618">
        <ele>243.29292297363</ele>
        <time>2015-11-04T13:58:06.000Z</time>
      </trkpt>
      <trkpt lat="47.20407" lon="3.18613">
        <ele>243.10209655762</ele>
        <time>2015-11-04T13:58:07.000Z</time>
      </trkpt>
      <trkpt lat="47.20406" lon="3.18607">
        <ele>242.91972351074</ele>
        <time>2015-11-04T13:58:10.000Z</time>
      </trkpt>
      <trkpt lat="47.20405" lon="3.18603">
        <ele>242.72326660156</ele>
        <time>2015-11-04T13:58:13.000Z</time>
      </trkpt>
      <trkpt lat="47.20405" lon="3.186">
        <ele>242.53137207031</ele>
        <time>2015-11-04T13:58:15.000Z</time>
      </trkpt>
      <trkpt lat="47.20405" lon="3.18597">
        <ele>242.35469055176</ele>
        <time>2015-11-04T13:58:17.000Z</time>
      </trkpt>
      <trkpt lat="47.20405" lon="3.18594">
        <ele>242.19941711426</ele>
        <time>2015-11-04T13:58:19.000Z</time>
      </trkpt>
      <trkpt lat="47.20404" lon="3.1859">
        <ele>242.06172180176</ele>
        <time>2015-11-04T13:58:21.000Z</time>
      </trkpt>
      <trkpt lat="47.20404" lon="3.18584">
        <ele>241.91760253906</ele>
        <time>2015-11-04T13:58:24.000Z</time>
      </trkpt>
      <trkpt lat="47.20406" lon="3.1858">
        <ele>241.76289367676</ele>
        <time>2015-11-04T13:58:26.000Z</time>
      </trkpt>
      <trkpt lat="47.20406" lon="3.18577">
        <ele>241.60623168945</ele>
        <time>2015-11-04T13:58:28.000Z</time>
      </trkpt>
      <trkpt lat="47.20407" lon="3.18574">
        <ele>241.43258666992</ele>
        <time>2015-11-04T13:58:30.000Z</time>
      </trkpt>
      <trkpt lat="47.20409" lon="3.1857">
        <ele>241.25021362305</ele>
        <time>2015-11-04T13:58:36.000Z</time>
      </trkpt>
      <trkpt lat="47.20409" lon="3.18564">
        <ele>241.05537414551</ele>
        <time>2015-11-04T13:58:36.000Z</time>
      </trkpt>
      <trkpt lat="47.2041" lon="3.1856">
        <ele>240.84687805176</ele>
        <time>2015-11-04T13:58:38.000Z</time>
      </trkpt>
      <trkpt lat="47.2041" lon="3.18556">
        <ele>240.61645507812</ele>
        <time>2015-11-04T13:58:40.000Z</time>
      </trkpt>
      <trkpt lat="47.2041" lon="3.18551">
        <ele>240.3720703125</ele>
        <time>2015-11-04T13:58:43.000Z</time>
      </trkpt>
      <trkpt lat="47.20409" lon="3.18548">
        <ele>240.11665344238</ele>
        <time>2015-11-04T13:58:45.000Z</time>
      </trkpt>
      <trkpt lat="47.20409" lon="3.18542">
        <ele>239.85762023926</ele>
        <time>2015-11-04T13:58:48.000Z</time>
      </trkpt>
      <trkpt lat="47.2041" lon="3.18541">
        <ele>239.63436889648</ele>
        <time>2015-11-04T13:58:50.000Z</time>
      </trkpt>
      <trkpt lat="47.20411" lon="3.18533">
        <ele>239.37704467773</ele>
        <time>2015-11-04T13:58:53.000Z</time>
      </trkpt>
      <trkpt lat="47.20411" lon="3.18528">
        <ele>239.10729980469</ele>
        <time>2015-11-04T13:58:56.000Z</time>
      </trkpt>
      <trkpt lat="47.2041" lon="3.18523">
        <ele>238.82675170898</ele>
        <time>2015-11-04T13:58:59.000Z</time>
      </trkpt>
      <trkpt lat="47.2041" lon="3.18518">
        <ele>238.54531860352</ele>
        <time>2015-11-04T13:59:02.000Z</time>
      </trkpt>
      <trkpt lat="47.20409" lon="3.18512">
        <ele>238.19985961914</ele>
        <time>2015-11-04T13:59:05.000Z</time>
      </trkpt>
      <trkpt lat="47.20409" lon="3.18509">
        <ele>237.90596008301</ele>
        <time>2015-11-04T13:59:07.000Z</time>
      </trkpt>
      <trkpt lat="47.20409" lon="3.18505">
        <ele>237.62284851074</ele>
        <time>2015-11-04T13:59:10.000Z</time>
      </trkpt>
      <trkpt lat="47.20408" lon="3.185">
        <ele>237.33432006836</ele>
        <time>2015-11-04T13:59:13.000Z</time>
      </trkpt>
      <trkpt lat="47.20408" lon="3.18497">
        <ele>237.0669708252</ele>
        <time>2015-11-04T13:59:15.000Z</time>
      </trkpt>
      <trkpt lat="47.20407" lon="3.1849">
        <ele>236.79545593262</ele>
        <time>2015-11-04T13:59:18.000Z</time>
      </trkpt>
      <trkpt lat="47.20407" lon="3.18484">
        <ele>236.48979187012</ele>
        <time>2015-11-04T13:59:21.000Z</time>
      </trkpt>
      <trkpt lat="47.20406" lon="3.18479">
        <ele>236.17724609375</ele>
        <time>2015-11-04T13:59:24.000Z</time>
      </trkpt>
      <trkpt lat="47.20406" lon="3.18473">
        <ele>235.85639953613</ele>
        <time>2015-11-04T13:59:27.000Z</time>
      </trkpt>
      <trkpt lat="47.20406" lon="3.18468">
        <ele>235.51443481445</ele>
        <time>2015-11-04T13:59:30.000Z</time>
      </trkpt>
      <trkpt lat="47.20407" lon="3.18463">
        <ele>235.2006072998</ele>
        <time>2015-11-04T13:59:33.000Z</time>
      </trkpt>
      <trkpt lat="47.20407" lon="3.18458">
        <ele>234.88948059082</ele>
        <time>2015-11-04T13:59:36.000Z</time>
      </trkpt>
      <trkpt lat="47.20406" lon="3.18454">
        <ele>234.59175109863</ele>
        <time>2015-11-04T13:59:39.000Z</time>
      </trkpt>
      <trkpt lat="47.20405" lon="3.18453">
        <ele>234.35575866699</ele>
        <time>2015-11-04T13:59:54.000Z</time>
      </trkpt>
      <trkpt lat="47.20403" lon="3.18454">
        <ele>234.18701171875</ele>
        <time>2015-11-04T13:59:58.000Z</time>
      </trkpt>
      <trkpt lat="47.20403" lon="3.18454">
        <ele>234.18701171875</ele>
        <time>2015-11-04T14:00:18.000Z</time>
      </trkpt>
      <trkpt lat="47.20403" lon="3.18453">
        <ele>234.05859375</ele>
        <time>2015-11-04T14:00:28.000Z</time>
      </trkpt>
      <trkpt lat="47.20402" lon="3.18451">
        <ele>233.96694946289</ele>
        <time>2015-11-04T14:00:30.000Z</time>
      </trkpt>
      <trkpt lat="47.20402" lon="3.18447">
        <ele>233.87646484375</ele>
        <time>2015-11-04T14:00:33.000Z</time>
      </trkpt>
      <trkpt lat="47.20402" lon="3.18445">
        <ele>233.7720489502</ele>
        <time>2015-11-04T14:00:35.000Z</time>
      </trkpt>
      <trkpt lat="47.20401" lon="3.18443">
        <ele>233.6344909668</ele>
        <time>2015-11-04T14:00:37.000Z</time>
      </trkpt>
      <trkpt lat="47.20401" lon="3.18438">
        <ele>233.45010375977</ele>
        <time>2015-11-04T14:00:45.000Z</time>
      </trkpt>
      <trkpt lat="47.20401" lon="3.18435">
        <ele>233.26132202148</ele>
        <time>2015-11-04T14:00:45.000Z</time>
      </trkpt>
      <trkpt lat="47.20402" lon="3.18432">
        <ele>233.08512878418</ele>
        <time>2015-11-04T14:00:45.000Z</time>
      </trkpt>
      <trkpt lat="47.20403" lon="3.1843">
        <ele>232.90591430664</ele>
        <time>2015-11-04T14:00:50.000Z</time>
      </trkpt>
      <trkpt lat="47.20403" lon="3.18428">
        <ele>232.73075866699</ele>
        <time>2015-11-04T14:00:50.000Z</time>
      </trkpt>
      <trkpt lat="47.20403" lon="3.18424">
        <ele>232.57597351074</ele>
        <time>2015-11-04T14:00:52.000Z</time>
      </trkpt>
      <trkpt lat="47.20405" lon="3.18419">
        <ele>232.39553833008</ele>
        <time>2015-11-04T14:00:55.000Z</time>
      </trkpt>
      <trkpt lat="47.20406" lon="3.18414">
        <ele>232.19943237305</ele>
        <time>2015-11-04T14:00:58.000Z</time>
      </trkpt>
      <trkpt lat="47.20407" lon="3.18407">
        <ele>231.9790802002</ele>
        <time>2015-11-04T14:01:01.000Z</time>
      </trkpt>
      <trkpt lat="47.20408" lon="3.18402">
        <ele>231.73648071289</ele>
        <time>2015-11-04T14:01:04.000Z</time>
      </trkpt>
      <trkpt lat="47.20407" lon="3.18399">
        <ele>231.5071105957</ele>
        <time>2015-11-04T14:01:06.000Z</time>
      </trkpt>
      <trkpt lat="47.20409" lon="3.18395">
        <ele>231.30249023438</ele>
        <time>2015-11-04T14:01:10.000Z</time>
      </trkpt>
      <trkpt lat="47.2041" lon="3.18391">
        <ele>231.10903930664</ele>
        <time>2015-11-04T14:01:11.000Z</time>
      </trkpt>
      <trkpt lat="47.20411" lon="3.18385">
        <ele>230.9143371582</ele>
        <time>2015-11-04T14:01:14.000Z</time>
      </trkpt>
      <trkpt lat="47.20412" lon="3.18381">
        <ele>230.72354125977</ele>
        <time>2015-11-04T14:01:18.000Z</time>
      </trkpt>
      <trkpt lat="47.20414" lon="3.18376">
        <ele>230.51643371582</ele>
        <time>2015-11-04T14:01:19.000Z</time>
      </trkpt>
      <trkpt lat="47.20414" lon="3.18373">
        <ele>230.31079101562</ele>
        <time>2015-11-04T14:01:21.000Z</time>
      </trkpt>
      <trkpt lat="47.20414" lon="3.18367">
        <ele>230.08657836914</ele>
        <time>2015-11-04T14:01:24.000Z</time>
      </trkpt>
      <trkpt lat="47.20415" lon="3.18362">
        <ele>229.86528015137</ele>
        <time>2015-11-04T14:01:27.000Z</time>
      </trkpt>
      <trkpt lat="47.20415" lon="3.18356">
        <ele>229.63288879395</ele>
        <time>2015-11-04T14:01:30.000Z</time>
      </trkpt>
      <trkpt lat="47.20414" lon="3.18353">
        <ele>229.41445922852</ele>
        <time>2015-11-04T14:01:32.000Z</time>
      </trkpt>
      <trkpt lat="47.20415" lon="3.18349">
        <ele>229.18388366699</ele>
        <time>2015-11-04T14:01:35.000Z</time>
      </trkpt>
      <trkpt lat="47.20415" lon="3.18344">
        <ele>228.96157836914</ele>
        <time>2015-11-04T14:01:37.000Z</time>
      </trkpt>
      <trkpt lat="47.20416" lon="3.18342">
        <ele>228.76440429688</ele>
        <time>2015-11-04T14:01:39.000Z</time>
      </trkpt>
      <trkpt lat="47.20417" lon="3.18335">
        <ele>228.55712890625</ele>
        <time>2015-11-04T14:01:42.000Z</time>
      </trkpt>
      <trkpt lat="47.20416" lon="3.18329">
        <ele>228.35246276855</ele>
        <time>2015-11-04T14:01:47.000Z</time>
      </trkpt>
      <trkpt lat="47.20415" lon="3.18323">
        <ele>228.1796875</ele>
        <time>2015-11-04T14:01:48.000Z</time>
      </trkpt>
      <trkpt lat="47.20415" lon="3.18317">
        <ele>228.03996276855</ele>
        <time>2015-11-04T14:01:51.000Z</time>
      </trkpt>
      <trkpt lat="47.20415" lon="3.18313">
        <ele>227.91581726074</ele>
        <time>2015-11-04T14:01:54.000Z</time>
      </trkpt>
      <trkpt lat="47.20415" lon="3.18309">
        <ele>227.8452911377</ele>
        <time>2015-11-04T14:01:56.000Z</time>
      </trkpt>
      <trkpt lat="47.20415" lon="3.18305">
        <ele>227.79174804688</ele>
        <time>2015-11-04T14:01:58.000Z</time>
      </trkpt>
      <trkpt lat="47.20417" lon="3.183">
        <ele>227.73181152344</ele>
        <time>2015-11-04T14:02:02.000Z</time>
      </trkpt>
      <trkpt lat="47.20417" lon="3.18296">
        <ele>227.6767578125</ele>
        <time>2015-11-04T14:02:04.000Z</time>
      </trkpt>
      <trkpt lat="47.20418" lon="3.18292">
        <ele>227.62370300293</ele>
        <time>2015-11-04T14:02:06.000Z</time>
      </trkpt>
      <trkpt lat="47.20419" lon="3.18287">
        <ele>227.5712890625</ele>
        <time>2015-11-04T14:02:09.000Z</time>
      </trkpt>
      <trkpt lat="47.20419" lon="3.18285">
        <ele>227.52470397949</ele>
        <time>2015-11-04T14:02:11.000Z</time>
      </trkpt>
      <trkpt lat="47.20419" lon="3.1828">
        <ele>227.48176574707</ele>
        <time>2015-11-04T14:02:14.000Z</time>
      </trkpt>
      <trkpt lat="47.20419" lon="3.18276">
        <ele>227.43823242188</ele>
        <time>2015-11-04T14:02:16.000Z</time>
      </trkpt>
      <trkpt lat="47.20418" lon="3.18271">
        <ele>227.38571166992</ele>
        <time>2015-11-04T14:02:19.000Z</time>
      </trkpt>
      <trkpt lat="47.20417" lon="3.18266">
        <ele>227.3275604248</ele>
        <time>2015-11-04T14:02:22.000Z</time>
      </trkpt>
      <trkpt lat="47.20417" lon="3.1826">
        <ele>227.26162719727</ele>
        <time>2015-11-04T14:02:25.000Z</time>
      </trkpt>
      <trkpt lat="47.20418" lon="3.18256">
        <ele>227.19807434082</ele>
        <time>2015-11-04T14:02:27.000Z</time>
      </trkpt>
      <trkpt lat="47.20419" lon="3.18249">
        <ele>227.12467956543</ele>
        <time>2015-11-04T14:02:30.000Z</time>
      </trkpt>
      <trkpt lat="47.20419" lon="3.18246">
        <ele>227.05390930176</ele>
        <time>2015-11-04T14:02:32.000Z</time>
      </trkpt>
      <trkpt lat="47.2042" lon="3.18241">
        <ele>226.96867370605</ele>
        <time>2015-11-04T14:02:35.000Z</time>
      </trkpt>
      <trkpt lat="47.20419" lon="3.18238">
        <ele>226.8854675293</ele>
        <time>2015-11-04T14:02:37.000Z</time>
      </trkpt>
      <trkpt lat="47.20418" lon="3.18235">
        <ele>226.79904174805</ele>
        <time>2015-11-04T14:02:40.000Z</time>
      </trkpt>
      <trkpt lat="47.20415" lon="3.18232">
        <ele>226.72177124023</ele>
        <time>2015-11-04T14:02:42.000Z</time>
      </trkpt>
      <trkpt lat="47.20412" lon="3.18228">
        <ele>226.646484375</ele>
        <time>2015-11-04T14:02:45.000Z</time>
      </trkpt>
      <trkpt lat="47.20412" lon="3.18226">
        <ele>226.59078979492</ele>
        <time>2015-11-04T14:02:47.000Z</time>
      </trkpt>
      <trkpt lat="47.20411" lon="3.18222">
        <ele>226.52885437012</ele>
        <time>2015-11-04T14:02:50.000Z</time>
      </trkpt>
      <trkpt lat="47.2041" lon="3.18218">
        <ele>226.46350097656</ele>
        <time>2015-11-04T14:02:53.000Z</time>
      </trkpt>
      <trkpt lat="47.20408" lon="3.18214">
        <ele>226.39318847656</ele>
        <time>2015-11-04T14:02:56.000Z</time>
      </trkpt>
      <trkpt lat="47.20406" lon="3.18212">
        <ele>226.33056640625</ele>
        <time>2015-11-04T14:02:58.000Z</time>
      </trkpt>
      <trkpt lat="47.20401" lon="3.18209">
        <ele>226.27575683594</ele>
        <time>2015-11-04T14:03:01.000Z</time>
      </trkpt>
      <trkpt lat="47.20396" lon="3.18209">
        <ele>226.24963378906</ele>
        <time>2015-11-04T14:03:04.000Z</time>
      </trkpt>
      <trkpt lat="47.20392" lon="3.18208">
        <ele>226.24255371094</ele>
        <time>2015-11-04T14:03:07.000Z</time>
      </trkpt>
      <trkpt lat="47.20391" lon="3.1821">
        <ele>226.26477050781</ele>
        <time>2015-11-04T14:03:09.000Z</time>
      </trkpt>
      <trkpt lat="47.20388" lon="3.18215">
        <ele>226.32238769531</ele>
        <time>2015-11-04T14:03:16.000Z</time>
      </trkpt>
      <trkpt lat="47.20385" lon="3.18219">
        <ele>226.40734863281</ele>
        <time>2015-11-04T14:03:17.000Z</time>
      </trkpt>
      <trkpt lat="47.20383" lon="3.18222">
        <ele>226.50024414062</ele>
        <time>2015-11-04T14:03:17.000Z</time>
      </trkpt>
      <trkpt lat="47.20382" lon="3.18225">
        <ele>226.60656738281</ele>
        <time>2015-11-04T14:03:19.000Z</time>
      </trkpt>
      <trkpt lat="47.2038" lon="3.18229">
        <ele>226.72436523438</ele>
        <time>2015-11-04T14:03:22.000Z</time>
      </trkpt>
      <trkpt lat="47.20378" lon="3.18233">
        <ele>226.83544921875</ele>
        <time>2015-11-04T14:03:25.000Z</time>
      </trkpt>
      <trkpt lat="47.20377" lon="3.18236">
        <ele>226.93493652344</ele>
        <time>2015-11-04T14:03:27.000Z</time>
      </trkpt>
      <trkpt lat="47.20375" lon="3.18241">
        <ele>227.04211425781</ele>
        <time>2015-11-04T14:03:30.000Z</time>
      </trkpt>
      <trkpt lat="47.20374" lon="3.18245">
        <ele>227.16052246094</ele>
        <time>2015-11-04T14:03:33.000Z</time>
      </trkpt>
      <trkpt lat="47.20373" lon="3.1825">
        <ele>227.27871704102</ele>
        <time>2015-11-04T14:03:36.000Z</time>
      </trkpt>
      <trkpt lat="47.20372" lon="3.18254">
        <ele>227.38977050781</ele>
        <time>2015-11-04T14:03:38.000Z</time>
      </trkpt>
      <trkpt lat="47.20371" lon="3.18258">
        <ele>227.50350952148</ele>
        <time>2015-11-04T14:03:41.000Z</time>
      </trkpt>
      <trkpt lat="47.2037" lon="3.18263">
        <ele>227.60925292969</ele>
        <time>2015-11-04T14:03:44.000Z</time>
      </trkpt>
      <trkpt lat="47.20369" lon="3.18267">
        <ele>227.70942687988</ele>
        <time>2015-11-04T14:03:47.000Z</time>
      </trkpt>
      <trkpt lat="47.20367" lon="3.18273">
        <ele>227.81069946289</ele>
        <time>2015-11-04T14:03:50.000Z</time>
      </trkpt>
      <trkpt lat="47.20367" lon="3.18278">
        <ele>227.91409301758</ele>
        <time>2015-11-04T14:03:53.000Z</time>
      </trkpt>
      <trkpt lat="47.20366" lon="3.18281">
        <ele>228.01399230957</ele>
        <time>2015-11-04T14:03:55.000Z</time>
      </trkpt>
      <trkpt lat="47.20366" lon="3.18285">
        <ele>228.1099395752</ele>
        <time>2015-11-04T14:03:57.000Z</time>
      </trkpt>
      <trkpt lat="47.20366" lon="3.18291">
        <ele>228.21154785156</ele>
        <time>2015-11-04T14:04:00.000Z</time>
      </trkpt>
      <trkpt lat="47.20366" lon="3.18295">
        <ele>228.30122375488</ele>
        <time>2015-11-04T14:04:02.000Z</time>
      </trkpt>
      <trkpt lat="47.20366" lon="3.183">
        <ele>228.38854980469</ele>
        <time>2015-11-04T14:04:05.000Z</time>
      </trkpt>
      <trkpt lat="47.20366" lon="3.18303">
        <ele>228.47392272949</ele>
        <time>2015-11-04T14:04:07.000Z</time>
      </trkpt>
      <trkpt lat="47.20366" lon="3.18307">
        <ele>228.55801391602</ele>
        <time>2015-11-04T14:04:09.000Z</time>
      </trkpt>
      <trkpt lat="47.20365" lon="3.18313">
        <ele>228.64468383789</ele>
        <time>2015-11-04T14:04:12.000Z</time>
      </trkpt>
      <trkpt lat="47.20364" lon="3.18319">
        <ele>228.74438476562</ele>
        <time>2015-11-04T14:04:15.000Z</time>
      </trkpt>
      <trkpt lat="47.20364" lon="3.18323">
        <ele>228.84577941895</ele>
        <time>2015-11-04T14:04:17.000Z</time>
      </trkpt>
      <trkpt lat="47.20362" lon="3.18328">
        <ele>228.96029663086</ele>
        <time>2015-11-04T14:04:20.000Z</time>
      </trkpt>
      <trkpt lat="47.20361" lon="3.18333">
        <ele>229.08569335938</ele>
        <time>2015-11-04T14:04:23.000Z</time>
      </trkpt>
      <trkpt lat="47.20361" lon="3.18337">
        <ele>229.20193481445</ele>
        <time>2015-11-04T14:04:25.000Z</time>
      </trkpt>
      <trkpt lat="47.2036" lon="3.18341">
        <ele>229.31527709961</ele>
        <time>2015-11-04T14:04:28.000Z</time>
      </trkpt>
      <trkpt lat="47.20359" lon="3.18346">
        <ele>229.4331817627</ele>
        <time>2015-11-04T14:04:31.000Z</time>
      </trkpt>
      <trkpt lat="47.2036" lon="3.1835">
        <ele>229.54238891602</ele>
        <time>2015-11-04T14:04:34.000Z</time>
      </trkpt>
      <trkpt lat="47.2036" lon="3.18352">
        <ele>229.63928222656</ele>
        <time>2015-11-04T14:04:36.000Z</time>
      </trkpt>
      <trkpt lat="47.2036" lon="3.18357">
        <ele>229.73921203613</ele>
        <time>2015-11-04T14:04:39.000Z</time>
      </trkpt>
      <trkpt lat="47.20359" lon="3.18361">
        <ele>229.83267211914</ele>
        <time>2015-11-04T14:04:42.000Z</time>
      </trkpt>
      <trkpt lat="47.20358" lon="3.18367">
        <ele>229.93486022949</ele>
        <time>2015-11-04T14:04:45.000Z</time>
      </trkpt>
      <trkpt lat="47.20356" lon="3.18372">
        <ele>230.04428100586</ele>
        <time>2015-11-04T14:04:47.000Z</time>
      </trkpt>
      <trkpt lat="47.20355" lon="3.18376">
        <ele>230.16313171387</ele>
        <time>2015-11-04T14:04:50.000Z</time>
      </trkpt>
      <trkpt lat="47.20354" lon="3.18377">
        <ele>230.26052856445</ele>
        <time>2015-11-04T14:04:53.000Z</time>
      </trkpt>
      <trkpt lat="47.20353" lon="3.18377">
        <ele>230.34342956543</ele>
        <time>2015-11-04T14:05:03.000Z</time>
      </trkpt>
      <trkpt lat="47.20349" lon="3.18378">
        <ele>230.40019226074</ele>
        <time>2015-11-04T14:05:06.000Z</time>
      </trkpt>
      <trkpt lat="47.20348" lon="3.18377">
        <ele>230.43246459961</ele>
        <time>2015-11-04T14:05:08.000Z</time>
      </trkpt>
      <trkpt lat="47.20345" lon="3.18376">
        <ele>230.44271850586</ele>
        <time>2015-11-04T14:05:11.000Z</time>
      </trkpt>
      <trkpt lat="47.20341" lon="3.18374">
        <ele>230.44909667969</ele>
        <time>2015-11-04T14:05:14.000Z</time>
      </trkpt>
      <trkpt lat="47.20339" lon="3.18372">
        <ele>230.44755554199</ele>
        <time>2015-11-04T14:05:16.000Z</time>
      </trkpt>
      <trkpt lat="47.20336" lon="3.18369">
        <ele>230.43774414062</ele>
        <time>2015-11-04T14:05:19.000Z</time>
      </trkpt>
      <trkpt lat="47.20334" lon="3.18368">
        <ele>230.42831420898</ele>
        <time>2015-11-04T14:05:21.000Z</time>
      </trkpt>
      <trkpt lat="47.20332" lon="3.18366">
        <ele>230.41470336914</ele>
        <time>2015-11-04T14:05:24.000Z</time>
      </trkpt>
      <trkpt lat="47.2033" lon="3.18364">
        <ele>230.39875793457</ele>
        <time>2015-11-04T14:05:26.000Z</time>
      </trkpt>
      <trkpt lat="47.20327" lon="3.18363">
        <ele>230.38020324707</ele>
        <time>2015-11-04T14:05:29.000Z</time>
      </trkpt>
      <trkpt lat="47.20325" lon="3.18362">
        <ele>230.36015319824</ele>
        <time>2015-11-04T14:05:32.000Z</time>
      </trkpt>
      <trkpt lat="47.20321" lon="3.18362">
        <ele>230.33862304688</ele>
        <time>2015-11-04T14:05:35.000Z</time>
      </trkpt>
      <trkpt lat="47.20319" lon="3.18363">
        <ele>230.32217407227</ele>
        <time>2015-11-04T14:05:37.000Z</time>
      </trkpt>
      <trkpt lat="47.20317" lon="3.18363">
        <ele>230.3090057373</ele>
        <time>2015-11-04T14:05:39.000Z</time>
      </trkpt>
      <trkpt lat="47.20313" lon="3.18362">
        <ele>230.29556274414</ele>
        <time>2015-11-04T14:05:42.000Z</time>
      </trkpt>
      <trkpt lat="47.2031" lon="3.18361">
        <ele>230.28254699707</ele>
        <time>2015-11-04T14:05:45.000Z</time>
      </trkpt>
      <trkpt lat="47.20307" lon="3.18361">
        <ele>230.26867675781</ele>
        <time>2015-11-04T14:05:47.000Z</time>
      </trkpt>
      <trkpt lat="47.20302" lon="3.18361">
        <ele>230.24914550781</ele>
        <time>2015-11-04T14:05:50.000Z</time>
      </trkpt>
      <trkpt lat="47.20298" lon="3.18362">
        <ele>230.23030090332</ele>
        <time>2015-11-04T14:05:53.000Z</time>
      </trkpt>
      <trkpt lat="47.20296" lon="3.18361">
        <ele>230.21455383301</ele>
        <time>2015-11-04T14:05:55.000Z</time>
      </trkpt>
      <trkpt lat="47.20292" lon="3.1836">
        <ele>230.19421386719</ele>
        <time>2015-11-04T14:05:58.000Z</time>
      </trkpt>
      <trkpt lat="47.20287" lon="3.18359">
        <ele>230.16775512695</ele>
        <time>2015-11-04T14:06:01.000Z</time>
      </trkpt>
      <trkpt lat="47.20283" lon="3.18358">
        <ele>230.13754272461</ele>
        <time>2015-11-04T14:06:04.000Z</time>
      </trkpt>
      <trkpt lat="47.20281" lon="3.18357">
        <ele>230.10038757324</ele>
        <time>2015-11-04T14:06:06.000Z</time>
      </trkpt>
      <trkpt lat="47.20279" lon="3.18357">
        <ele>230.06307983398</ele>
        <time>2015-11-04T14:06:08.000Z</time>
      </trkpt>
      <trkpt lat="47.20275" lon="3.18357">
        <ele>230.03164672852</ele>
        <time>2015-11-04T14:06:11.000Z</time>
      </trkpt>
      <trkpt lat="47.20272" lon="3.18357">
        <ele>230.00202941895</ele>
        <time>2015-11-04T14:06:14.000Z</time>
      </trkpt>
      <trkpt lat="47.2027" lon="3.18356">
        <ele>229.97384643555</ele>
        <time>2015-11-04T14:06:16.000Z</time>
      </trkpt>
      <trkpt lat="47.20266" lon="3.18355">
        <ele>229.94290161133</ele>
        <time>2015-11-04T14:06:19.000Z</time>
      </trkpt>
      <trkpt lat="47.20264" lon="3.18354">
        <ele>229.91030883789</ele>
        <time>2015-11-04T14:06:21.000Z</time>
      </trkpt>
      <trkpt lat="47.2026" lon="3.18353">
        <ele>229.86921691895</ele>
        <time>2015-11-04T14:06:23.000Z</time>
      </trkpt>
      <trkpt lat="47.20258" lon="3.18353">
        <ele>229.82661437988</ele>
        <time>2015-11-04T14:06:25.000Z</time>
      </trkpt>
      <trkpt lat="47.20255" lon="3.18351">
        <ele>229.78019714355</ele>
        <time>2015-11-04T14:06:28.000Z</time>
      </trkpt>
      <trkpt lat="47.2025" lon="3.18351">
        <ele>229.73371887207</ele>
        <time>2015-11-04T14:06:31.000Z</time>
      </trkpt>
      <trkpt lat="47.20247" lon="3.18351">
        <ele>229.68798828125</ele>
        <time>2015-11-04T14:06:33.000Z</time>
      </trkpt>
      <trkpt lat="47.20243" lon="3.18351">
        <ele>229.64501953125</ele>
        <time>2015-11-04T14:06:36.000Z</time>
      </trkpt>
      <trkpt lat="47.20241" lon="3.18352">
        <ele>229.61117553711</ele>
        <time>2015-11-04T14:06:39.000Z</time>
      </trkpt>
      <trkpt lat="47.20237" lon="3.18352">
        <ele>229.58842468262</ele>
        <time>2015-11-04T14:06:42.000Z</time>
      </trkpt>
      <trkpt lat="47.20234" lon="3.18354">
        <ele>229.58251953125</ele>
        <time>2015-11-04T14:06:44.000Z</time>
      </trkpt>
      <trkpt lat="47.2023" lon="3.18356">
        <ele>229.587890625</ele>
        <time>2015-11-04T14:06:47.000Z</time>
      </trkpt>
      <trkpt lat="47.20228" lon="3.18357">
        <ele>229.60690307617</ele>
        <time>2015-11-04T14:06:49.000Z</time>
      </trkpt>
      <trkpt lat="47.20226" lon="3.18358">
        <ele>229.62675476074</ele>
        <time>2015-11-04T14:06:51.000Z</time>
      </trkpt>
      <trkpt lat="47.20222" lon="3.1836">
        <ele>229.65925598145</ele>
        <time>2015-11-04T14:06:54.000Z</time>
      </trkpt>
      <trkpt lat="47.20219" lon="3.18361">
        <ele>229.6900177002</ele>
        <time>2015-11-04T14:06:57.000Z</time>
      </trkpt>
      <trkpt lat="47.20214" lon="3.18362">
        <ele>229.70964050293</ele>
        <time>2015-11-04T14:07:00.000Z</time>
      </trkpt>
      <trkpt lat="47.20211" lon="3.18362">
        <ele>229.72358703613</ele>
        <time>2015-11-04T14:07:02.000Z</time>
      </trkpt>
      <trkpt lat="47.20206" lon="3.18363">
        <ele>229.73564147949</ele>
        <time>2015-11-04T14:07:05.000Z</time>
      </trkpt>
      <trkpt lat="47.20204" lon="3.18364">
        <ele>229.7421875</ele>
        <time>2015-11-04T14:07:11.000Z</time>
      </trkpt>
      <trkpt lat="47.20203" lon="3.18364">
        <ele>229.74382019043</ele>
        <time>2015-11-04T14:07:11.000Z</time>
      </trkpt>
      <trkpt lat="47.20198" lon="3.18365">
        <ele>229.74697875977</ele>
        <time>2015-11-04T14:07:12.000Z</time>
      </trkpt>
      <trkpt lat="47.20196" lon="3.18365">
        <ele>229.74780273438</ele>
        <time>2015-11-04T14:07:14.000Z</time>
      </trkpt>
      <trkpt lat="47.20193" lon="3.18366">
        <ele>229.75471496582</ele>
        <time>2015-11-04T14:07:17.000Z</time>
      </trkpt>
      <trkpt lat="47.2019" lon="3.18366">
        <ele>229.74824523926</ele>
        <time>2015-11-04T14:07:19.000Z</time>
      </trkpt>
      <trkpt lat="47.20187" lon="3.18367">
        <ele>229.7431640625</ele>
        <time>2015-11-04T14:07:22.000Z</time>
      </trkpt>
      <trkpt lat="47.20184" lon="3.18367">
        <ele>229.74172973633</ele>
        <time>2015-11-04T14:07:24.000Z</time>
      </trkpt>
      <trkpt lat="47.20181" lon="3.18368">
        <ele>229.74435424805</ele>
        <time>2015-11-04T14:07:26.000Z</time>
      </trkpt>
      <trkpt lat="47.20179" lon="3.18368">
        <ele>229.74081420898</ele>
        <time>2015-11-04T14:07:28.000Z</time>
      </trkpt>
      <trkpt lat="47.20175" lon="3.18369">
        <ele>229.74465942383</ele>
        <time>2015-11-04T14:07:31.000Z</time>
      </trkpt>
      <trkpt lat="47.20172" lon="3.18369">
        <ele>229.74821472168</ele>
        <time>2015-11-04T14:07:33.000Z</time>
      </trkpt>
      <trkpt lat="47.20169" lon="3.18371">
        <ele>229.76132202148</ele>
        <time>2015-11-04T14:07:36.000Z</time>
      </trkpt>
      <trkpt lat="47.20165" lon="3.18371">
        <ele>229.77377319336</ele>
        <time>2015-11-04T14:07:40.000Z</time>
      </trkpt>
      <trkpt lat="47.20162" lon="3.18372">
        <ele>229.78788757324</ele>
        <time>2015-11-04T14:07:42.000Z</time>
      </trkpt>
      <trkpt lat="47.20158" lon="3.18374">
        <ele>229.80895996094</ele>
        <time>2015-11-04T14:07:45.000Z</time>
      </trkpt>
      <trkpt lat="47.20153" lon="3.18375">
        <ele>229.8278503418</ele>
        <time>2015-11-04T14:07:48.000Z</time>
      </trkpt>
      <trkpt lat="47.2015" lon="3.18377">
        <ele>229.84403991699</ele>
        <time>2015-11-04T14:07:51.000Z</time>
      </trkpt>
      <trkpt lat="47.20147" lon="3.18378">
        <ele>229.86225891113</ele>
        <time>2015-11-04T14:07:54.000Z</time>
      </trkpt>
      <trkpt lat="47.20142" lon="3.1838">
        <ele>229.88493347168</ele>
        <time>2015-11-04T14:07:57.000Z</time>
      </trkpt>
      <trkpt lat="47.2014" lon="3.18382">
        <ele>229.90612792969</ele>
        <time>2015-11-04T14:08:00.000Z</time>
      </trkpt>
      <trkpt lat="47.20137" lon="3.18383">
        <ele>229.93037414551</ele>
        <time>2015-11-04T14:08:02.000Z</time>
      </trkpt>
      <trkpt lat="47.20134" lon="3.18385">
        <ele>229.95364379883</ele>
        <time>2015-11-04T14:08:05.000Z</time>
      </trkpt>
      <trkpt lat="47.2013" lon="3.18387">
        <ele>229.9779510498</ele>
        <time>2015-11-04T14:08:08.000Z</time>
      </trkpt>
      <trkpt lat="47.20127" lon="3.18389">
        <ele>229.99905395508</ele>
        <time>2015-11-04T14:08:10.000Z</time>
      </trkpt>
      <trkpt lat="47.20124" lon="3.18391">
        <ele>230.02314758301</ele>
        <time>2015-11-04T14:08:13.000Z</time>
      </trkpt>
      <trkpt lat="47.2012" lon="3.18394">
        <ele>230.05264282227</ele>
        <time>2015-11-04T14:08:16.000Z</time>
      </trkpt>
      <trkpt lat="47.20118" lon="3.18395">
        <ele>230.07437133789</ele>
        <time>2015-11-04T14:08:18.000Z</time>
      </trkpt>
      <trkpt lat="47.20115" lon="3.18398">
        <ele>230.09944152832</ele>
        <time>2015-11-04T14:08:21.000Z</time>
      </trkpt>
      <trkpt lat="47.20112" lon="3.18402">
        <ele>230.13320922852</ele>
        <time>2015-11-04T14:08:24.000Z</time>
      </trkpt>
      <trkpt lat="47.2011" lon="3.18404">
        <ele>230.16618347168</ele>
        <time>2015-11-04T14:08:27.000Z</time>
      </trkpt>
      <trkpt lat="47.20108" lon="3.18407">
        <ele>230.20175170898</ele>
        <time>2015-11-04T14:08:30.000Z</time>
      </trkpt>
      <trkpt lat="47.20106" lon="3.18408">
        <ele>230.2366027832</ele>
        <time>2015-11-04T14:08:32.000Z</time>
      </trkpt>
      <trkpt lat="47.20103" lon="3.1841">
        <ele>230.26358032227</ele>
        <time>2015-11-04T14:08:35.000Z</time>
      </trkpt>
      <trkpt lat="47.201" lon="3.18413">
        <ele>230.28109741211</ele>
        <time>2015-11-04T14:08:38.000Z</time>
      </trkpt>
      <trkpt lat="47.20099" lon="3.18414">
        <ele>230.29191589355</ele>
        <time>2015-11-04T14:08:40.000Z</time>
      </trkpt>
      <trkpt lat="47.20096" lon="3.18417">
        <ele>230.29313659668</ele>
        <time>2015-11-04T14:08:43.000Z</time>
      </trkpt>
      <trkpt lat="47.20093" lon="3.1842">
        <ele>230.31025695801</ele>
        <time>2015-11-04T14:08:46.000Z</time>
      </trkpt>
      <trkpt lat="47.2009" lon="3.18422">
        <ele>230.33515930176</ele>
        <time>2015-11-04T14:08:48.000Z</time>
      </trkpt>
      <trkpt lat="47.20088" lon="3.18425">
        <ele>230.37455749512</ele>
        <time>2015-11-04T14:08:51.000Z</time>
      </trkpt>
      <trkpt lat="47.20086" lon="3.18427">
        <ele>230.42756652832</ele>
        <time>2015-11-04T14:08:53.000Z</time>
      </trkpt>
      <trkpt lat="47.20083" lon="3.18432">
        <ele>230.51261901855</ele>
        <time>2015-11-04T14:08:56.000Z</time>
      </trkpt>
      <trkpt lat="47.20081" lon="3.18434">
        <ele>230.60766601562</ele>
        <time>2015-11-04T14:08:58.000Z</time>
      </trkpt>
      <trkpt lat="47.20079" lon="3.18439">
        <ele>230.74612426758</ele>
        <time>2015-11-04T14:09:01.000Z</time>
      </trkpt>
      <trkpt lat="47.20076" lon="3.18444">
        <ele>230.92102050781</ele>
        <time>2015-11-04T14:09:04.000Z</time>
      </trkpt>
      <trkpt lat="47.20074" lon="3.18449">
        <ele>231.13163757324</ele>
        <time>2015-11-04T14:09:07.000Z</time>
      </trkpt>
      <trkpt lat="47.20072" lon="3.18453">
        <ele>231.35400390625</ele>
        <time>2015-11-04T14:09:10.000Z</time>
      </trkpt>
      <trkpt lat="47.2007" lon="3.18456">
        <ele>231.57719421387</ele>
        <time>2015-11-04T14:09:12.000Z</time>
      </trkpt>
      <trkpt lat="47.20068" lon="3.18459">
        <ele>231.78080749512</ele>
        <time>2015-11-04T14:09:15.000Z</time>
      </trkpt>
      <trkpt lat="47.20067" lon="3.1846">
        <ele>231.9408416748</ele>
        <time>2015-11-04T14:09:17.000Z</time>
      </trkpt>
      <trkpt lat="47.20064" lon="3.18464">
        <ele>232.09269714355</ele>
        <time>2015-11-04T14:09:19.000Z</time>
      </trkpt>
      <trkpt lat="47.20061" lon="3.18468">
        <ele>232.2416229248</ele>
        <time>2015-11-04T14:09:22.000Z</time>
      </trkpt>
      <trkpt lat="47.2006" lon="3.18472">
        <ele>232.40017700195</ele>
        <time>2015-11-04T14:09:24.000Z</time>
      </trkpt>
      <trkpt lat="47.20057" lon="3.18477">
        <ele>232.5732421875</ele>
        <time>2015-11-04T14:09:27.000Z</time>
      </trkpt>
      <trkpt lat="47.20054" lon="3.1848">
        <ele>232.7682800293</ele>
        <time>2015-11-04T14:09:30.000Z</time>
      </trkpt>
      <trkpt lat="47.20052" lon="3.18484">
        <ele>232.95101928711</ele>
        <time>2015-11-04T14:09:33.000Z</time>
      </trkpt>
      <trkpt lat="47.20049" lon="3.18488">
        <ele>233.12673950195</ele>
        <time>2015-11-04T14:09:36.000Z</time>
      </trkpt>
      <trkpt lat="47.20047" lon="3.18491">
        <ele>233.3017578125</ele>
        <time>2015-11-04T14:09:39.000Z</time>
      </trkpt>
      <trkpt lat="47.20046" lon="3.18494">
        <ele>233.45556640625</ele>
        <time>2015-11-04T14:09:41.000Z</time>
      </trkpt>
      <trkpt lat="47.20042" lon="3.18496">
        <ele>233.59590148926</ele>
        <time>2015-11-04T14:09:44.000Z</time>
      </trkpt>
      <trkpt lat="47.20038" lon="3.18498">
        <ele>233.72506713867</ele>
        <time>2015-11-04T14:09:47.000Z</time>
      </trkpt>
      <trkpt lat="47.20037" lon="3.18501">
        <ele>233.83573913574</ele>
        <time>2015-11-04T14:09:49.000Z</time>
      </trkpt>
      <trkpt lat="47.20035" lon="3.18504">
        <ele>233.92837524414</ele>
        <time>2015-11-04T14:09:52.000Z</time>
      </trkpt>
      <trkpt lat="47.20033" lon="3.18509">
        <ele>234.01620483398</ele>
        <time>2015-11-04T14:09:55.000Z</time>
      </trkpt>
      <trkpt lat="47.20031" lon="3.18513">
        <ele>234.10173034668</ele>
        <time>2015-11-04T14:09:57.000Z</time>
      </trkpt>
      <trkpt lat="47.20029" lon="3.18518">
        <ele>234.18659973145</ele>
        <time>2015-11-04T14:10:00.000Z</time>
      </trkpt>
      <trkpt lat="47.20028" lon="3.18521">
        <ele>234.26676940918</ele>
        <time>2015-11-04T14:10:02.000Z</time>
      </trkpt>
      <trkpt lat="47.20027" lon="3.18523">
        <ele>234.34017944336</ele>
        <time>2015-11-04T14:10:04.000Z</time>
      </trkpt>
      <trkpt lat="47.20026" lon="3.18529">
        <ele>234.41488647461</ele>
        <time>2015-11-04T14:10:07.000Z</time>
      </trkpt>
      <trkpt lat="47.20025" lon="3.18535">
        <ele>234.49443054199</ele>
        <time>2015-11-04T14:10:10.000Z</time>
      </trkpt>
      <trkpt lat="47.20025" lon="3.1854">
        <ele>234.57344055176</ele>
        <time>2015-11-04T14:10:13.000Z</time>
      </trkpt>
      <trkpt lat="47.20024" lon="3.18544">
        <ele>234.65795898438</ele>
        <time>2015-11-04T14:10:16.000Z</time>
      </trkpt>
      <trkpt lat="47.20023" lon="3.18549">
        <ele>234.75024414062</ele>
        <time>2015-11-04T14:10:19.000Z</time>
      </trkpt>
      <trkpt lat="47.20023" lon="3.18554">
        <ele>234.83866882324</ele>
        <time>2015-11-04T14:10:22.000Z</time>
      </trkpt>
      <trkpt lat="47.20022" lon="3.1856">
        <ele>234.92597961426</ele>
        <time>2015-11-04T14:10:25.000Z</time>
      </trkpt>
      <trkpt lat="47.2002" lon="3.18565">
        <ele>235.0072479248</ele>
        <time>2015-11-04T14:10:28.000Z</time>
      </trkpt>
      <trkpt lat="47.20019" lon="3.18569">
        <ele>235.08134460449</ele>
        <time>2015-11-04T14:10:31.000Z</time>
      </trkpt>
      <trkpt lat="47.20018" lon="3.18572">
        <ele>235.14526367188</ele>
        <time>2015-11-04T14:10:33.000Z</time>
      </trkpt>
      <trkpt lat="47.20018" lon="3.18577">
        <ele>235.20568847656</ele>
        <time>2015-11-04T14:10:36.000Z</time>
      </trkpt>
      <trkpt lat="47.20016" lon="3.1858">
        <ele>235.25180053711</ele>
        <time>2015-11-04T14:10:38.000Z</time>
      </trkpt>
      <trkpt lat="47.20015" lon="3.18583">
        <ele>235.29238891602</ele>
        <time>2015-11-04T14:10:41.000Z</time>
      </trkpt>
      <trkpt lat="47.20015" lon="3.18586">
        <ele>235.35073852539</ele>
        <time>2015-11-04T14:10:44.000Z</time>
      </trkpt>
      <trkpt lat="47.20014" lon="3.1859">
        <ele>235.42851257324</ele>
        <time>2015-11-04T14:10:47.000Z</time>
      </trkpt>
      <trkpt lat="47.20013" lon="3.18593">
        <ele>235.52307128906</ele>
        <time>2015-11-04T14:10:49.000Z</time>
      </trkpt>
      <trkpt lat="47.20013" lon="3.18596">
        <ele>235.63920593262</ele>
        <time>2015-11-04T14:10:51.000Z</time>
      </trkpt>
      <trkpt lat="47.20012" lon="3.186">
        <ele>235.78393554688</ele>
        <time>2015-11-04T14:10:54.000Z</time>
      </trkpt>
      <trkpt lat="47.20011" lon="3.18606">
        <ele>235.95385742188</ele>
        <time>2015-11-04T14:10:57.000Z</time>
      </trkpt>
      <trkpt lat="47.2001" lon="3.18609">
        <ele>236.11743164062</ele>
        <time>2015-11-04T14:10:59.000Z</time>
      </trkpt>
      <trkpt lat="47.20008" lon="3.18612">
        <ele>236.2705078125</ele>
        <time>2015-11-04T14:11:01.000Z</time>
      </trkpt>
      <trkpt lat="47.20006" lon="3.18616">
        <ele>236.42504882812</ele>
        <time>2015-11-04T14:11:04.000Z</time>
      </trkpt>
      <trkpt lat="47.20004" lon="3.18621">
        <ele>236.58935546875</ele>
        <time>2015-11-04T14:11:07.000Z</time>
      </trkpt>
      <trkpt lat="47.20002" lon="3.18626">
        <ele>236.73754882812</ele>
        <time>2015-11-04T14:11:10.000Z</time>
      </trkpt>
      <trkpt lat="47.20002" lon="3.18631">
        <ele>236.91088867188</ele>
        <time>2015-11-04T14:11:12.000Z</time>
      </trkpt>
      <trkpt lat="47.2" lon="3.18635">
        <ele>237.0986328125</ele>
        <time>2015-11-04T14:11:15.000Z</time>
      </trkpt>
      <trkpt lat="47.19999" lon="3.18638">
        <ele>237.29804992676</ele>
        <time>2015-11-04T14:11:17.000Z</time>
      </trkpt>
      <trkpt lat="47.19996" lon="3.18643">
        <ele>237.53747558594</ele>
        <time>2015-11-04T14:11:20.000Z</time>
      </trkpt>
      <trkpt lat="47.19995" lon="3.18644">
        <ele>237.76358032227</ele>
        <time>2015-11-04T14:11:22.000Z</time>
      </trkpt>
      <trkpt lat="47.19992" lon="3.18649">
        <ele>238.03593444824</ele>
        <time>2015-11-04T14:11:25.000Z</time>
      </trkpt>
      <trkpt lat="47.19991" lon="3.1865">
        <ele>238.31381225586</ele>
        <time>2015-11-04T14:11:27.000Z</time>
      </trkpt>
      <trkpt lat="47.19989" lon="3.18653">
        <ele>238.60336303711</ele>
        <time>2015-11-04T14:11:29.000Z</time>
      </trkpt>
      <trkpt lat="47.19986" lon="3.18655">
        <ele>238.86569213867</ele>
        <time>2015-11-04T14:11:32.000Z</time>
      </trkpt>
      <trkpt lat="47.19984" lon="3.18656">
        <ele>239.14038085938</ele>
        <time>2015-11-04T14:11:35.000Z</time>
      </trkpt>
      <trkpt lat="47.19983" lon="3.18657">
        <ele>239.36360168457</ele>
        <time>2015-11-04T14:11:38.000Z</time>
      </trkpt>
      <trkpt lat="47.1998" lon="3.18658">
        <ele>239.58296203613</ele>
        <time>2015-11-04T14:11:40.000Z</time>
      </trkpt>
      <trkpt lat="47.19977" lon="3.18658">
        <ele>239.79452514648</ele>
        <time>2015-11-04T14:11:43.000Z</time>
      </trkpt>
      <trkpt lat="47.19975" lon="3.18659">
        <ele>239.98397827148</ele>
        <time>2015-11-04T14:11:46.000Z</time>
      </trkpt>
      <trkpt lat="47.19974" lon="3.18658">
        <ele>240.15368652344</ele>
        <time>2015-11-04T14:11:48.000Z</time>
      </trkpt>
      <trkpt lat="47.19972" lon="3.18658">
        <ele>240.31091308594</ele>
        <time>2015-11-04T14:11:50.000Z</time>
      </trkpt>
      <trkpt lat="47.19968" lon="3.18658">
        <ele>240.48684692383</ele>
        <time>2015-11-04T14:11:53.000Z</time>
      </trkpt>
      <trkpt lat="47.19967" lon="3.18659">
        <ele>240.64535522461</ele>
        <time>2015-11-04T14:11:55.000Z</time>
      </trkpt>
      <trkpt lat="47.19965" lon="3.18659">
        <ele>240.79756164551</ele>
        <time>2015-11-04T14:11:57.000Z</time>
      </trkpt>
      <trkpt lat="47.19963" lon="3.1866">
        <ele>240.97978210449</ele>
        <time>2015-11-04T14:12:00.000Z</time>
      </trkpt>
      <trkpt lat="47.19961" lon="3.18662">
        <ele>241.17350769043</ele>
        <time>2015-11-04T14:12:03.000Z</time>
      </trkpt>
      <trkpt lat="47.19957" lon="3.18662">
        <ele>241.36352539062</ele>
        <time>2015-11-04T14:12:06.000Z</time>
      </trkpt>
      <trkpt lat="47.19956" lon="3.18661">
        <ele>241.53530883789</ele>
        <time>2015-11-04T14:12:09.000Z</time>
      </trkpt>
      <trkpt lat="47.19954" lon="3.1866">
        <ele>241.70581054688</ele>
        <time>2015-11-04T14:12:12.000Z</time>
      </trkpt>
      <trkpt lat="47.19949" lon="3.18659">
        <ele>241.87605285645</ele>
        <time>2015-11-04T14:12:14.000Z</time>
      </trkpt>
      <trkpt lat="47.19944" lon="3.18657">
        <ele>242.0640411377</ele>
        <time>2015-11-04T14:12:17.000Z</time>
      </trkpt>
      <trkpt lat="47.19942" lon="3.18657">
        <ele>242.23078918457</ele>
        <time>2015-11-04T14:12:19.000Z</time>
      </trkpt>
      <trkpt lat="47.1994" lon="3.18656">
        <ele>242.40849304199</ele>
        <time>2015-11-04T14:12:22.000Z</time>
      </trkpt>
      <trkpt lat="47.19938" lon="3.18656">
        <ele>242.5810546875</ele>
        <time>2015-11-04T14:12:24.000Z</time>
      </trkpt>
      <trkpt lat="47.19936" lon="3.18657">
        <ele>242.75273132324</ele>
        <time>2015-11-04T14:12:27.000Z</time>
      </trkpt>
      <trkpt lat="47.19932" lon="3.18658">
        <ele>242.92817687988</ele>
        <time>2015-11-04T14:12:30.000Z</time>
      </trkpt>
      <trkpt lat="47.1993" lon="3.18658">
        <ele>243.11117553711</ele>
        <time>2015-11-04T14:12:36.000Z</time>
      </trkpt>
      <trkpt lat="47.19926" lon="3.18657">
        <ele>243.32104492188</ele>
        <time>2015-11-04T14:12:36.000Z</time>
      </trkpt>
      <trkpt lat="47.19925" lon="3.18657">
        <ele>243.52156066895</ele>
        <time>2015-11-04T14:12:37.000Z</time>
      </trkpt>
      <trkpt lat="47.19923" lon="3.18657">
        <ele>243.7001953125</ele>
        <time>2015-11-04T14:12:45.000Z</time>
      </trkpt>
      <trkpt lat="47.1992" lon="3.18657">
        <ele>243.87728881836</ele>
        <time>2015-11-04T14:12:45.000Z</time>
      </trkpt>
      <trkpt lat="47.19916" lon="3.18657">
        <ele>244.06045532227</ele>
        <time>2015-11-04T14:12:46.000Z</time>
      </trkpt>
      <trkpt lat="47.19914" lon="3.18657">
        <ele>244.21769714355</ele>
        <time>2015-11-04T14:12:48.000Z</time>
      </trkpt>
      <trkpt lat="47.19912" lon="3.18656">
        <ele>244.37503051758</ele>
        <time>2015-11-04T14:12:52.000Z</time>
      </trkpt>
      <trkpt lat="47.1991" lon="3.18656">
        <ele>244.53366088867</ele>
        <time>2015-11-04T14:12:54.000Z</time>
      </trkpt>
      <trkpt lat="47.19908" lon="3.18656">
        <ele>244.65364074707</ele>
        <time>2015-11-04T14:12:57.000Z</time>
      </trkpt>
      <trkpt lat="47.19907" lon="3.18657">
        <ele>244.75407409668</ele>
        <time>2015-11-04T14:12:59.000Z</time>
      </trkpt>
      <trkpt lat="47.19904" lon="3.18657">
        <ele>244.85604858398</ele>
        <time>2015-11-04T14:13:01.000Z</time>
      </trkpt>
      <trkpt lat="47.19901" lon="3.18656">
        <ele>244.97915649414</ele>
        <time>2015-11-04T14:13:03.000Z</time>
      </trkpt>
      <trkpt lat="47.19897" lon="3.18653">
        <ele>245.09042358398</ele>
        <time>2015-11-04T14:13:28.000Z</time>
      </trkpt>
      <trkpt lat="47.19894" lon="3.18652">
        <ele>245.20706176758</ele>
        <time>2015-11-04T14:13:31.000Z</time>
      </trkpt>
      <trkpt lat="47.19893" lon="3.1865">
        <ele>245.30102539062</ele>
        <time>2015-11-04T14:13:32.000Z</time>
      </trkpt>
      <trkpt lat="47.19891" lon="3.18649">
        <ele>245.38110351562</ele>
        <time>2015-11-04T14:13:32.000Z</time>
      </trkpt>
      <trkpt lat="47.19888" lon="3.18647">
        <ele>245.44509887695</ele>
        <time>2015-11-04T14:13:32.000Z</time>
      </trkpt>
      <trkpt lat="47.19886" lon="3.18646">
        <ele>245.52355957031</ele>
        <time>2015-11-04T14:13:32.000Z</time>
      </trkpt>
      <trkpt lat="47.19882" lon="3.18646">
        <ele>245.62716674805</ele>
        <time>2015-11-04T14:13:33.000Z</time>
      </trkpt>
      <trkpt lat="47.1988" lon="3.18647">
        <ele>245.75126647949</ele>
        <time>2015-11-04T14:13:33.000Z</time>
      </trkpt>
      <trkpt lat="47.19875" lon="3.1865">
        <ele>245.96267700195</ele>
        <time>2015-11-04T14:13:33.000Z</time>
      </trkpt>
      <trkpt lat="47.19872" lon="3.18652">
        <ele>246.20329284668</ele>
        <time>2015-11-04T14:13:34.000Z</time>
      </trkpt>
      <trkpt lat="47.19868" lon="3.18654">
        <ele>246.46640014648</ele>
        <time>2015-11-04T14:13:34.000Z</time>
      </trkpt>
      <trkpt lat="47.19866" lon="3.18656">
        <ele>246.70993041992</ele>
        <time>2015-11-04T14:13:36.000Z</time>
      </trkpt>
      <trkpt lat="47.19865" lon="3.18657">
        <ele>246.95210266113</ele>
        <time>2015-11-04T14:13:39.000Z</time>
      </trkpt>
      <trkpt lat="47.19864" lon="3.18659">
        <ele>247.12020874023</ele>
        <time>2015-11-04T14:13:41.000Z</time>
      </trkpt>
      <trkpt lat="47.1986" lon="3.18661">
        <ele>247.28352355957</ele>
        <time>2015-11-04T14:13:44.000Z</time>
      </trkpt>
      <trkpt lat="47.19859" lon="3.18662">
        <ele>247.421875</ele>
        <time>2015-11-04T14:13:46.000Z</time>
      </trkpt>
      <trkpt lat="47.19854" lon="3.18662">
        <ele>247.57096862793</ele>
        <time>2015-11-04T14:13:49.000Z</time>
      </trkpt>
      <trkpt lat="47.19853" lon="3.18662">
        <ele>247.71887207031</ele>
        <time>2015-11-04T14:13:51.000Z</time>
      </trkpt>
      <trkpt lat="47.19849" lon="3.18662">
        <ele>247.87854003906</ele>
        <time>2015-11-04T14:13:54.000Z</time>
      </trkpt>
      <trkpt lat="47.19847" lon="3.18663">
        <ele>248.01742553711</ele>
        <time>2015-11-04T14:13:56.000Z</time>
      </trkpt>
      <trkpt lat="47.19844" lon="3.18662">
        <ele>248.16943359375</ele>
        <time>2015-11-04T14:13:59.000Z</time>
      </trkpt>
      <trkpt lat="47.19843" lon="3.18663">
        <ele>248.29244995117</ele>
        <time>2015-11-04T14:14:01.000Z</time>
      </trkpt>
      <trkpt lat="47.19841" lon="3.18665">
        <ele>248.41567993164</ele>
        <time>2015-11-04T14:14:04.000Z</time>
      </trkpt>
      <trkpt lat="47.1984" lon="3.18665">
        <ele>248.51907348633</ele>
        <time>2015-11-04T14:14:06.000Z</time>
      </trkpt>
      <trkpt lat="47.19839" lon="3.18668">
        <ele>248.6057434082</ele>
        <time>2015-11-04T14:14:09.000Z</time>
      </trkpt>
      <trkpt lat="47.19837" lon="3.18669">
        <ele>248.67260742188</ele>
        <time>2015-11-04T14:14:11.000Z</time>
      </trkpt>
      <trkpt lat="47.19834" lon="3.1867">
        <ele>248.75268554688</ele>
        <time>2015-11-04T14:14:14.000Z</time>
      </trkpt>
      <trkpt lat="47.19832" lon="3.18672">
        <ele>248.82690429688</ele>
        <time>2015-11-04T14:14:17.000Z</time>
      </trkpt>
      <trkpt lat="47.1983" lon="3.18673">
        <ele>248.91743469238</ele>
        <time>2015-11-04T14:14:20.000Z</time>
      </trkpt>
      <trkpt lat="47.19828" lon="3.18672">
        <ele>249.03372192383</ele>
        <time>2015-11-04T14:14:22.000Z</time>
      </trkpt>
      <trkpt lat="47.19825" lon="3.18673">
        <ele>249.16316223145</ele>
        <time>2015-11-04T14:14:25.000Z</time>
      </trkpt>
      <trkpt lat="47.19823" lon="3.18674">
        <ele>249.29557800293</ele>
        <time>2015-11-04T14:14:28.000Z</time>
      </trkpt>
      <trkpt lat="47.1982" lon="3.18674">
        <ele>249.45010375977</ele>
        <time>2015-11-04T14:14:32.000Z</time>
      </trkpt>
      <trkpt lat="47.19817" lon="3.18675">
        <ele>249.60600280762</ele>
        <time>2015-11-04T14:14:34.000Z</time>
      </trkpt>
      <trkpt lat="47.19815" lon="3.18675">
        <ele>249.75671386719</ele>
        <time>2015-11-04T14:14:37.000Z</time>
      </trkpt>
      <trkpt lat="47.19812" lon="3.18673">
        <ele>249.91909790039</ele>
        <time>2015-11-04T14:14:40.000Z</time>
      </trkpt>
      <trkpt lat="47.1981" lon="3.18673">
        <ele>250.078125</ele>
        <time>2015-11-04T14:14:42.000Z</time>
      </trkpt>
      <trkpt lat="47.19809" lon="3.18673">
        <ele>250.21760559082</ele>
        <time>2015-11-04T14:14:45.000Z</time>
      </trkpt>
      <trkpt lat="47.19807" lon="3.18672">
        <ele>250.34696960449</ele>
        <time>2015-11-04T14:14:47.000Z</time>
      </trkpt>
      <trkpt lat="47.19806" lon="3.18671">
        <ele>250.46073913574</ele>
        <time>2015-11-04T14:14:55.000Z</time>
      </trkpt>
      <trkpt lat="47.19805" lon="3.18672">
        <ele>250.552734375</ele>
        <time>2015-11-04T14:14:58.000Z</time>
      </trkpt>
      <trkpt lat="47.19802" lon="3.18672">
        <ele>250.64949035645</ele>
        <time>2015-11-04T14:14:58.000Z</time>
      </trkpt>
      <trkpt lat="47.19799" lon="3.18672">
        <ele>250.77119445801</ele>
        <time>2015-11-04T14:14:58.000Z</time>
      </trkpt>
      <trkpt lat="47.19796" lon="3.18673">
        <ele>250.90347290039</ele>
        <time>2015-11-04T14:14:59.000Z</time>
      </trkpt>
      <trkpt lat="47.19795" lon="3.18674">
        <ele>251.04765319824</ele>
        <time>2015-11-04T14:15:03.000Z</time>
      </trkpt>
      <trkpt lat="47.19792" lon="3.18674">
        <ele>251.20776367188</ele>
        <time>2015-11-04T14:15:05.000Z</time>
      </trkpt>
      <trkpt lat="47.1979" lon="3.18675">
        <ele>251.3588104248</ele>
        <time>2015-11-04T14:15:07.000Z</time>
      </trkpt>
      <trkpt lat="47.19788" lon="3.18676">
        <ele>251.49612426758</ele>
        <time>2015-11-04T14:15:10.000Z</time>
      </trkpt>
      <trkpt lat="47.19785" lon="3.18676">
        <ele>251.64477539062</ele>
        <time>2015-11-04T14:15:13.000Z</time>
      </trkpt>
      <trkpt lat="47.19782" lon="3.18677">
        <ele>251.80981445312</ele>
        <time>2015-11-04T14:15:16.000Z</time>
      </trkpt>
      <trkpt lat="47.1978" lon="3.18678">
        <ele>251.97660827637</ele>
        <time>2015-11-04T14:15:19.000Z</time>
      </trkpt>
      <trkpt lat="47.19778" lon="3.18678">
        <ele>252.13887023926</ele>
        <time>2015-11-04T14:15:21.000Z</time>
      </trkpt>
      <trkpt lat="47.19776" lon="3.18679">
        <ele>252.30256652832</ele>
        <time>2015-11-04T14:15:23.000Z</time>
      </trkpt>
      <trkpt lat="47.19775" lon="3.18679">
        <ele>252.43977355957</ele>
        <time>2015-11-04T14:15:25.000Z</time>
      </trkpt>
      <trkpt lat="47.19772" lon="3.18678">
        <ele>252.57426452637</ele>
        <time>2015-11-04T14:15:28.000Z</time>
      </trkpt>
      <trkpt lat="47.19771" lon="3.18678">
        <ele>252.68591308594</ele>
        <time>2015-11-04T14:15:30.000Z</time>
      </trkpt>
      <trkpt lat="47.19768" lon="3.18678">
        <ele>252.82312011719</ele>
        <time>2015-11-04T14:15:33.000Z</time>
      </trkpt>
      <trkpt lat="47.19766" lon="3.18678">
        <ele>252.94775390625</ele>
        <time>2015-11-04T14:15:35.000Z</time>
      </trkpt>
      <trkpt lat="47.19764" lon="3.18679">
        <ele>253.09297180176</ele>
        <time>2015-11-04T14:15:38.000Z</time>
      </trkpt>
      <trkpt lat="47.19762" lon="3.18679">
        <ele>253.22994995117</ele>
        <time>2015-11-04T14:15:40.000Z</time>
      </trkpt>
      <trkpt lat="47.19759" lon="3.18681">
        <ele>253.38980102539</ele>
        <time>2015-11-04T14:15:43.000Z</time>
      </trkpt>
      <trkpt lat="47.19756" lon="3.18682">
        <ele>253.56155395508</ele>
        <time>2015-11-04T14:15:46.000Z</time>
      </trkpt>
      <trkpt lat="47.19752" lon="3.18684">
        <ele>253.77285766602</ele>
        <time>2015-11-04T14:15:49.000Z</time>
      </trkpt>
      <trkpt lat="47.1975" lon="3.18685">
        <ele>253.98979187012</ele>
        <time>2015-11-04T14:15:52.000Z</time>
      </trkpt>
      <trkpt lat="47.19746" lon="3.18687">
        <ele>254.25727844238</ele>
        <time>2015-11-04T14:15:55.000Z</time>
      </trkpt>
      <trkpt lat="47.19744" lon="3.18688">
        <ele>254.53324890137</ele>
        <time>2015-11-04T14:15:57.000Z</time>
      </trkpt>
      <trkpt lat="47.19741" lon="3.18687">
        <ele>254.81391906738</ele>
        <time>2015-11-04T14:16:00.000Z</time>
      </trkpt>
      <trkpt lat="47.19738" lon="3.18688">
        <ele>255.09481811523</ele>
        <time>2015-11-04T14:16:02.000Z</time>
      </trkpt>
      <trkpt lat="47.19736" lon="3.18689">
        <ele>255.39102172852</ele>
        <time>2015-11-04T14:16:04.000Z</time>
      </trkpt>
      <trkpt lat="47.19735" lon="3.1869">
        <ele>255.64010620117</ele>
        <time>2015-11-04T14:16:06.000Z</time>
      </trkpt>
      <trkpt lat="47.19732" lon="3.1869">
        <ele>255.91084289551</ele>
        <time>2015-11-04T14:16:09.000Z</time>
      </trkpt>
      <trkpt lat="47.19728" lon="3.18691">
        <ele>256.19940185547</ele>
        <time>2015-11-04T14:16:12.000Z</time>
      </trkpt>
      <trkpt lat="47.19725" lon="3.18692">
        <ele>256.50231933594</ele>
        <time>2015-11-04T14:16:15.000Z</time>
      </trkpt>
      <trkpt lat="47.19723" lon="3.18693">
        <ele>256.78698730469</ele>
        <time>2015-11-04T14:16:17.000Z</time>
      </trkpt>
      <trkpt lat="47.1972" lon="3.18693">
        <ele>257.10711669922</ele>
        <time>2015-11-04T14:16:20.000Z</time>
      </trkpt>
      <trkpt lat="47.19718" lon="3.18693">
        <ele>257.40994262695</ele>
        <time>2015-11-04T14:16:23.000Z</time>
      </trkpt>
      <trkpt lat="47.19715" lon="3.18693">
        <ele>257.68536376953</ele>
        <time>2015-11-04T14:16:26.000Z</time>
      </trkpt>
      <trkpt lat="47.19713" lon="3.18693">
        <ele>257.94122314453</ele>
        <time>2015-11-04T14:16:28.000Z</time>
      </trkpt>
      <trkpt lat="47.1971" lon="3.18693">
        <ele>258.21417236328</ele>
        <time>2015-11-04T14:16:31.000Z</time>
      </trkpt>
      <trkpt lat="47.19709" lon="3.18694">
        <ele>258.46353149414</ele>
        <time>2015-11-04T14:16:33.000Z</time>
      </trkpt>
      <trkpt lat="47.19706" lon="3.18697">
        <ele>258.75424194336</ele>
        <time>2015-11-04T14:16:36.000Z</time>
      </trkpt>
      <trkpt lat="47.19703" lon="3.18699">
        <ele>259.06829833984</ele>
        <time>2015-11-04T14:16:39.000Z</time>
      </trkpt>
      <trkpt lat="47.19701" lon="3.187">
        <ele>259.41119384766</ele>
        <time>2015-11-04T14:16:42.000Z</time>
      </trkpt>
      <trkpt lat="47.19696" lon="3.18702">
        <ele>259.80142211914</ele>
        <time>2015-11-04T14:16:45.000Z</time>
      </trkpt>
      <trkpt lat="47.19692" lon="3.18705">
        <ele>260.27825927734</ele>
        <time>2015-11-04T14:16:56.000Z</time>
      </trkpt>
      <trkpt lat="47.1969" lon="3.18707">
        <ele>260.75335693359</ele>
        <time>2015-11-04T14:17:00.000Z</time>
      </trkpt>
      <trkpt lat="47.19688" lon="3.18707">
        <ele>261.19549560547</ele>
        <time>2015-11-04T14:17:01.000Z</time>
      </trkpt>
      <trkpt lat="47.19685" lon="3.18707">
        <ele>261.61279296875</ele>
        <time>2015-11-04T14:17:02.000Z</time>
      </trkpt>
      <trkpt lat="47.19682" lon="3.18706">
        <ele>261.98165893555</ele>
        <time>2015-11-04T14:17:03.000Z</time>
      </trkpt>
      <trkpt lat="47.19678" lon="3.18706">
        <ele>262.32305908203</ele>
        <time>2015-11-04T14:17:03.000Z</time>
      </trkpt>
      <trkpt lat="47.19675" lon="3.18707">
        <ele>262.6657409668</ele>
        <time>2015-11-04T14:17:05.000Z</time>
      </trkpt>
      <trkpt lat="47.19672" lon="3.18707">
        <ele>263.02008056641</ele>
        <time>2015-11-04T14:17:08.000Z</time>
      </trkpt>
      <trkpt lat="47.19668" lon="3.18707">
        <ele>263.41094970703</ele>
        <time>2015-11-04T14:17:11.000Z</time>
      </trkpt>
      <trkpt lat="47.19666" lon="3.18709">
        <ele>263.82183837891</ele>
        <time>2015-11-04T14:17:13.000Z</time>
      </trkpt>
      <trkpt lat="47.19663" lon="3.18709">
        <ele>264.17611694336</ele>
        <time>2015-11-04T14:17:16.000Z</time>
      </trkpt>
      <trkpt lat="47.1966" lon="3.18709">
        <ele>264.45587158203</ele>
        <time>2015-11-04T14:17:19.000Z</time>
      </trkpt>
      <trkpt lat="47.19656" lon="3.18709">
        <ele>264.73419189453</ele>
        <time>2015-11-04T14:17:22.000Z</time>
      </trkpt>
      <trkpt lat="47.19654" lon="3.18709">
        <ele>264.95269775391</ele>
        <time>2015-11-04T14:17:24.000Z</time>
      </trkpt>
      <trkpt lat="47.19652" lon="3.18708">
        <ele>265.11196899414</ele>
        <time>2015-11-04T14:17:27.000Z</time>
      </trkpt>
      <trkpt lat="47.19649" lon="3.18708">
        <ele>265.24786376953</ele>
        <time>2015-11-04T14:17:30.000Z</time>
      </trkpt>
      <trkpt lat="47.19646" lon="3.18711">
        <ele>265.44512939453</ele>
        <time>2015-11-04T14:17:33.000Z</time>
      </trkpt>
      <trkpt lat="47.19644" lon="3.18711">
        <ele>265.62005615234</ele>
        <time>2015-11-04T14:17:36.000Z</time>
      </trkpt>
      <trkpt lat="47.19642" lon="3.18712">
        <ele>265.80673217773</ele>
        <time>2015-11-04T14:17:39.000Z</time>
      </trkpt>
      <trkpt lat="47.1964" lon="3.18713">
        <ele>266.01892089844</ele>
        <time>2015-11-04T14:17:41.000Z</time>
      </trkpt>
      <trkpt lat="47.19637" lon="3.18714">
        <ele>266.26141357422</ele>
        <time>2015-11-04T14:17:44.000Z</time>
      </trkpt>
      <trkpt lat="47.19635" lon="3.18715">
        <ele>266.46353149414</ele>
        <time>2015-11-04T14:17:47.000Z</time>
      </trkpt>
      <trkpt lat="47.19633" lon="3.18714">
        <ele>266.65292358398</ele>
        <time>2015-11-04T14:17:50.000Z</time>
      </trkpt>
      <trkpt lat="47.19627" lon="3.18715">
        <ele>266.88671875</ele>
        <time>2015-11-04T14:17:54.000Z</time>
      </trkpt>
      <trkpt lat="47.19624" lon="3.18716">
        <ele>267.11727905273</ele>
        <time>2015-11-04T14:17:56.000Z</time>
      </trkpt>
      <trkpt lat="47.19621" lon="3.18718">
        <ele>267.35766601562</ele>
        <time>2015-11-04T14:17:59.000Z</time>
      </trkpt>
      <trkpt lat="47.19619" lon="3.1872">
        <ele>267.61233520508</ele>
        <time>2015-11-04T14:18:02.000Z</time>
      </trkpt>
      <trkpt lat="47.19616" lon="3.18722">
        <ele>267.91638183594</ele>
        <time>2015-11-04T14:18:05.000Z</time>
      </trkpt>
      <trkpt lat="47.19614" lon="3.18723">
        <ele>268.17123413086</ele>
        <time>2015-11-04T14:18:08.000Z</time>
      </trkpt>
      <trkpt lat="47.19612" lon="3.18724">
        <ele>268.42691040039</ele>
        <time>2015-11-04T14:18:10.000Z</time>
      </trkpt>
      <trkpt lat="47.19609" lon="3.18726">
        <ele>268.67465209961</ele>
        <time>2015-11-04T14:18:13.000Z</time>
      </trkpt>
      <trkpt lat="47.19608" lon="3.18727">
        <ele>268.90155029297</ele>
        <time>2015-11-04T14:18:15.000Z</time>
      </trkpt>
      <trkpt lat="47.19606" lon="3.1873">
        <ele>269.11868286133</ele>
        <time>2015-11-04T14:18:18.000Z</time>
      </trkpt>
      <trkpt lat="47.19604" lon="3.18731">
        <ele>269.32827758789</ele>
        <time>2015-11-04T14:18:20.000Z</time>
      </trkpt>
      <trkpt lat="47.19601" lon="3.18731">
        <ele>269.53631591797</ele>
        <time>2015-11-04T14:18:23.000Z</time>
      </trkpt>
      <trkpt lat="47.196" lon="3.18731">
        <ele>269.7021484375</ele>
        <time>2015-11-04T14:18:25.000Z</time>
      </trkpt>
      <trkpt lat="47.19598" lon="3.18732">
        <ele>269.86245727539</ele>
        <time>2015-11-04T14:18:28.000Z</time>
      </trkpt>
      <trkpt lat="47.19596" lon="3.18733">
        <ele>270.00616455078</ele>
        <time>2015-11-04T14:18:31.000Z</time>
      </trkpt>
      <trkpt lat="47.19593" lon="3.18733">
        <ele>270.15191650391</ele>
        <time>2015-11-04T14:18:34.000Z</time>
      </trkpt>
      <trkpt lat="47.19591" lon="3.18733">
        <ele>270.28656005859</ele>
        <time>2015-11-04T14:18:37.000Z</time>
      </trkpt>
      <trkpt lat="47.19587" lon="3.18735">
        <ele>270.47305297852</ele>
        <time>2015-11-04T14:18:40.000Z</time>
      </trkpt>
      <trkpt lat="47.19584" lon="3.18736">
        <ele>270.67279052734</ele>
        <time>2015-11-04T14:18:43.000Z</time>
      </trkpt>
      <trkpt lat="47.19582" lon="3.18737">
        <ele>270.85528564453</ele>
        <time>2015-11-04T14:18:45.000Z</time>
      </trkpt>
      <trkpt lat="47.19579" lon="3.18739">
        <ele>271.017578125</ele>
        <time>2015-11-04T14:18:48.000Z</time>
      </trkpt>
      <trkpt lat="47.19575" lon="3.18738">
        <ele>271.14642333984</ele>
        <time>2015-11-04T14:18:50.000Z</time>
      </trkpt>
      <trkpt lat="47.19574" lon="3.18739">
        <ele>271.2109375</ele>
        <time>2015-11-04T14:18:52.000Z</time>
      </trkpt>
      <trkpt lat="47.19571" lon="3.18741">
        <ele>271.26196289062</ele>
        <time>2015-11-04T14:18:55.000Z</time>
      </trkpt>
      <trkpt lat="47.19568" lon="3.18743">
        <ele>271.30288696289</ele>
        <time>2015-11-04T14:18:57.000Z</time>
      </trkpt>
      <trkpt lat="47.19565" lon="3.18744">
        <ele>271.33963012695</ele>
        <time>2015-11-04T14:19:00.000Z</time>
      </trkpt>
      <trkpt lat="47.19564" lon="3.18744">
        <ele>271.38046264648</ele>
        <time>2015-11-04T14:19:02.000Z</time>
      </trkpt>
      <trkpt lat="47.19562" lon="3.18744">
        <ele>271.42144775391</ele>
        <time>2015-11-04T14:19:04.000Z</time>
      </trkpt>
      <trkpt lat="47.1956" lon="3.18745">
        <ele>271.44061279297</ele>
        <time>2015-11-04T14:19:06.000Z</time>
      </trkpt>
      <trkpt lat="47.19558" lon="3.18746">
        <ele>271.45217895508</ele>
        <time>2015-11-04T14:19:08.000Z</time>
      </trkpt>
      <trkpt lat="47.19555" lon="3.18745">
        <ele>271.44052124023</ele>
        <time>2015-11-04T14:19:11.000Z</time>
      </trkpt>
      <trkpt lat="47.19553" lon="3.18742">
        <ele>271.39764404297</ele>
        <time>2015-11-04T14:19:14.000Z</time>
      </trkpt>
      <trkpt lat="47.1955" lon="3.18742">
        <ele>271.35186767578</ele>
        <time>2015-11-04T14:19:17.000Z</time>
      </trkpt>
      <trkpt lat="47.19548" lon="3.18742">
        <ele>271.29467773438</ele>
        <time>2015-11-04T14:19:20.000Z</time>
      </trkpt>
      <trkpt lat="47.19546" lon="3.18743">
        <ele>271.24584960938</ele>
        <time>2015-11-04T14:19:23.000Z</time>
      </trkpt>
      <trkpt lat="47.19543" lon="3.18746">
        <ele>271.23211669922</ele>
        <time>2015-11-04T14:19:26.000Z</time>
      </trkpt>
      <trkpt lat="47.19541" lon="3.18748">
        <ele>271.26251220703</ele>
        <time>2015-11-04T14:19:28.000Z</time>
      </trkpt>
      <trkpt lat="47.1954" lon="3.18748">
        <ele>271.2998046875</ele>
        <time>2015-11-04T14:19:30.000Z</time>
      </trkpt>
      <trkpt lat="47.19538" lon="3.18749">
        <ele>271.34643554688</ele>
        <time>2015-11-04T14:19:33.000Z</time>
      </trkpt>
      <trkpt lat="47.19536" lon="3.1875">
        <ele>271.38763427734</ele>
        <time>2015-11-04T14:19:35.000Z</time>
      </trkpt>
      <trkpt lat="47.19534" lon="3.1875">
        <ele>271.40087890625</ele>
        <time>2015-11-04T14:19:38.000Z</time>
      </trkpt>
      <trkpt lat="47.19532" lon="3.18751">
        <ele>271.40673828125</ele>
        <time>2015-11-04T14:19:40.000Z</time>
      </trkpt>
      <trkpt lat="47.19529" lon="3.18751">
        <ele>271.40518188477</ele>
        <time>2015-11-04T14:19:43.000Z</time>
      </trkpt>
      <trkpt lat="47.19525" lon="3.18754">
        <ele>271.40548706055</ele>
        <time>2015-11-04T14:19:46.000Z</time>
      </trkpt>
      <trkpt lat="47.19522" lon="3.18757">
        <ele>271.41415405273</ele>
        <time>2015-11-04T14:19:49.000Z</time>
      </trkpt>
      <trkpt lat="47.19519" lon="3.18759">
        <ele>271.43673706055</ele>
        <time>2015-11-04T14:19:52.000Z</time>
      </trkpt>
      <trkpt lat="47.19517" lon="3.18761">
        <ele>271.46676635742</ele>
        <time>2015-11-04T14:19:54.000Z</time>
      </trkpt>
      <trkpt lat="47.19513" lon="3.18765">
        <ele>271.51910400391</ele>
        <time>2015-11-04T14:19:57.000Z</time>
      </trkpt>
      <trkpt lat="47.1951" lon="3.18769">
        <ele>271.58746337891</ele>
        <time>2015-11-04T14:20:00.000Z</time>
      </trkpt>
      <trkpt lat="47.19506" lon="3.18771">
        <ele>271.64999389648</ele>
        <time>2015-11-04T14:20:02.000Z</time>
      </trkpt>
      <trkpt lat="47.19502" lon="3.18773">
        <ele>271.71969604492</ele>
        <time>2015-11-04T14:20:05.000Z</time>
      </trkpt>
      <trkpt lat="47.195" lon="3.18776">
        <ele>271.79406738281</ele>
        <time>2015-11-04T14:20:07.000Z</time>
      </trkpt>
      <trkpt lat="47.19498" lon="3.18778">
        <ele>271.84710693359</ele>
        <time>2015-11-04T14:20:09.000Z</time>
      </trkpt>
      <trkpt lat="47.19495" lon="3.1878">
        <ele>271.85852050781</ele>
        <time>2015-11-04T14:20:12.000Z</time>
      </trkpt>
      <trkpt lat="47.19493" lon="3.18781">
        <ele>271.84567260742</ele>
        <time>2015-11-04T14:20:14.000Z</time>
      </trkpt>
      <trkpt lat="47.19489" lon="3.18783">
        <ele>271.79550170898</ele>
        <time>2015-11-04T14:20:17.000Z</time>
      </trkpt>
      <trkpt lat="47.19488" lon="3.18782">
        <ele>271.70809936523</ele>
        <time>2015-11-04T14:20:19.000Z</time>
      </trkpt>
      <trkpt lat="47.19485" lon="3.18784">
        <ele>271.60855102539</ele>
        <time>2015-11-04T14:20:22.000Z</time>
      </trkpt>
      <trkpt lat="47.19484" lon="3.18784">
        <ele>271.50918579102</ele>
        <time>2015-11-04T14:20:24.000Z</time>
      </trkpt>
      <trkpt lat="47.19482" lon="3.18785">
        <ele>271.41616821289</ele>
        <time>2015-11-04T14:20:28.000Z</time>
      </trkpt>
      <trkpt lat="47.19479" lon="3.18787">
        <ele>271.32192993164</ele>
        <time>2015-11-04T14:20:30.000Z</time>
      </trkpt>
      <trkpt lat="47.19475" lon="3.18789">
        <ele>271.21307373047</ele>
        <time>2015-11-04T14:20:33.000Z</time>
      </trkpt>
      <trkpt lat="47.19474" lon="3.18789">
        <ele>271.10610961914</ele>
        <time>2015-11-04T14:20:36.000Z</time>
      </trkpt>
      <trkpt lat="47.19471" lon="3.18791">
        <ele>270.99487304688</ele>
        <time>2015-11-04T14:20:39.000Z</time>
      </trkpt>
      <trkpt lat="47.19468" lon="3.18792">
        <ele>270.85577392578</ele>
        <time>2015-11-04T14:20:42.000Z</time>
      </trkpt>
      <trkpt lat="47.19466" lon="3.18793">
        <ele>270.72064208984</ele>
        <time>2015-11-04T14:20:45.000Z</time>
      </trkpt>
      <trkpt lat="47.19462" lon="3.18794">
        <ele>270.58184814453</ele>
        <time>2015-11-04T14:20:47.000Z</time>
      </trkpt>
      <trkpt lat="47.19457" lon="3.18797">
        <ele>270.39828491211</ele>
        <time>2015-11-04T14:20:50.000Z</time>
      </trkpt>
      <trkpt lat="47.19453" lon="3.18799">
        <ele>270.19891357422</ele>
        <time>2015-11-04T14:20:53.000Z</time>
      </trkpt>
      <trkpt lat="47.19448" lon="3.18801">
        <ele>269.97613525391</ele>
        <time>2015-11-04T14:20:56.000Z</time>
      </trkpt>
      <trkpt lat="47.19445" lon="3.18804">
        <ele>269.74029541016</ele>
        <time>2015-11-04T14:20:59.000Z</time>
      </trkpt>
      <trkpt lat="47.19442" lon="3.18808">
        <ele>269.49859619141</ele>
        <time>2015-11-04T14:21:02.000Z</time>
      </trkpt>
      <trkpt lat="47.19439" lon="3.1881">
        <ele>269.275390625</ele>
        <time>2015-11-04T14:21:05.000Z</time>
      </trkpt>
      <trkpt lat="47.19437" lon="3.18812">
        <ele>269.0651550293</ele>
        <time>2015-11-04T14:21:07.000Z</time>
      </trkpt>
      <trkpt lat="47.19432" lon="3.18815">
        <ele>268.84365844727</ele>
        <time>2015-11-04T14:21:10.000Z</time>
      </trkpt>
      <trkpt lat="47.19429" lon="3.18818">
        <ele>268.61782836914</ele>
        <time>2015-11-04T14:21:13.000Z</time>
      </trkpt>
      <trkpt lat="47.19427" lon="3.1882">
        <ele>268.40628051758</ele>
        <time>2015-11-04T14:21:15.000Z</time>
      </trkpt>
      <trkpt lat="47.19426" lon="3.18821">
        <ele>268.21432495117</ele>
        <time>2015-11-04T14:21:17.000Z</time>
      </trkpt>
      <trkpt lat="47.19423" lon="3.18823">
        <ele>267.99786376953</ele>
        <time>2015-11-04T14:21:20.000Z</time>
      </trkpt>
      <trkpt lat="47.19421" lon="3.18825">
        <ele>267.82464599609</ele>
        <time>2015-11-04T14:21:22.000Z</time>
      </trkpt>
      <trkpt lat="47.19418" lon="3.18826">
        <ele>267.63461303711</ele>
        <time>2015-11-04T14:21:25.000Z</time>
      </trkpt>
      <trkpt lat="47.19417" lon="3.18827">
        <ele>267.45596313477</ele>
        <time>2015-11-04T14:21:28.000Z</time>
      </trkpt>
      <trkpt lat="47.19415" lon="3.18828">
        <ele>267.28887939453</ele>
        <time>2015-11-04T14:21:29.000Z</time>
      </trkpt>
      <trkpt lat="47.19413" lon="3.18829">
        <ele>267.16564941406</ele>
        <time>2015-11-04T14:21:31.000Z</time>
      </trkpt>
      <trkpt lat="47.1941" lon="3.18831">
        <ele>267.06195068359</ele>
        <time>2015-11-04T14:21:35.000Z</time>
      </trkpt>
      <trkpt lat="47.19409" lon="3.18831">
        <ele>267.0087890625</ele>
        <time>2015-11-04T14:21:36.000Z</time>
      </trkpt>
      <trkpt lat="47.19406" lon="3.18832">
        <ele>266.96832275391</ele>
        <time>2015-11-04T14:21:42.000Z</time>
      </trkpt>
      <trkpt lat="47.19404" lon="3.18832">
        <ele>266.92944335938</ele>
        <time>2015-11-04T14:21:44.000Z</time>
      </trkpt>
      <trkpt lat="47.19402" lon="3.18833">
        <ele>266.89471435547</ele>
        <time>2015-11-04T14:21:52.000Z</time>
      </trkpt>
      <trkpt lat="47.194" lon="3.18833">
        <ele>266.86169433594</ele>
        <time>2015-11-04T14:21:52.000Z</time>
      </trkpt>
      <trkpt lat="47.19397" lon="3.18834">
        <ele>266.82125854492</ele>
        <time>2015-11-04T14:21:53.000Z</time>
      </trkpt>
      <trkpt lat="47.19395" lon="3.18835">
        <ele>266.78045654297</ele>
        <time>2015-11-04T14:21:53.000Z</time>
      </trkpt>
      <trkpt lat="47.19391" lon="3.18837">
        <ele>266.72885131836</ele>
        <time>2015-11-04T14:21:54.000Z</time>
      </trkpt>
      <trkpt lat="47.19389" lon="3.18838">
        <ele>266.67028808594</ele>
        <time>2015-11-04T14:22:00.000Z</time>
      </trkpt>
      <trkpt lat="47.19386" lon="3.18839">
        <ele>266.61083984375</ele>
        <time>2015-11-04T14:22:05.000Z</time>
      </trkpt>
      <trkpt lat="47.19384" lon="3.18842">
        <ele>266.54504394531</ele>
        <time>2015-11-04T14:22:07.000Z</time>
      </trkpt>
      <trkpt lat="47.19382" lon="3.18844">
        <ele>266.47399902344</ele>
        <time>2015-11-04T14:22:08.000Z</time>
      </trkpt>
      <trkpt lat="47.1938" lon="3.18845">
        <ele>266.41015625</ele>
        <time>2015-11-04T14:22:12.000Z</time>
      </trkpt>
      <trkpt lat="47.19376" lon="3.18846">
        <ele>266.34484863281</ele>
        <time>2015-11-04T14:22:13.000Z</time>
      </trkpt>
      <trkpt lat="47.19374" lon="3.18846">
        <ele>266.28247070312</ele>
        <time>2015-11-04T14:22:14.000Z</time>
      </trkpt>
      <trkpt lat="47.1937" lon="3.18847">
        <ele>266.22497558594</ele>
        <time>2015-11-04T14:22:16.000Z</time>
      </trkpt>
      <trkpt lat="47.19368" lon="3.18847">
        <ele>266.17565917969</ele>
        <time>2015-11-04T14:22:18.000Z</time>
      </trkpt>
      <trkpt lat="47.19364" lon="3.18847">
        <ele>266.12768554688</ele>
        <time>2015-11-04T14:22:21.000Z</time>
      </trkpt>
      <trkpt lat="47.19363" lon="3.18848">
        <ele>266.08483886719</ele>
        <time>2015-11-04T14:22:23.000Z</time>
      </trkpt>
      <trkpt lat="47.1936" lon="3.18849">
        <ele>266.0361328125</ele>
        <time>2015-11-04T14:22:26.000Z</time>
      </trkpt>
      <trkpt lat="47.19358" lon="3.1885">
        <ele>265.99060058594</ele>
        <time>2015-11-04T14:22:29.000Z</time>
      </trkpt>
      <trkpt lat="47.19355" lon="3.18851">
        <ele>265.94067382812</ele>
        <time>2015-11-04T14:22:32.000Z</time>
      </trkpt>
      <trkpt lat="47.19353" lon="3.18851">
        <ele>265.89147949219</ele>
        <time>2015-11-04T14:22:34.000Z</time>
      </trkpt>
      <trkpt lat="47.1935" lon="3.18852">
        <ele>265.83972167969</ele>
        <time>2015-11-04T14:22:37.000Z</time>
      </trkpt>
      <trkpt lat="47.19347" lon="3.18854">
        <ele>265.78466796875</ele>
        <time>2015-11-04T14:22:40.000Z</time>
      </trkpt>
      <trkpt lat="47.19344" lon="3.18855">
        <ele>265.72741699219</ele>
        <time>2015-11-04T14:22:43.000Z</time>
      </trkpt>
      <trkpt lat="47.19342" lon="3.18857">
        <ele>265.66821289062</ele>
        <time>2015-11-04T14:22:46.000Z</time>
      </trkpt>
      <trkpt lat="47.19341" lon="3.18858">
        <ele>265.60571289062</ele>
        <time>2015-11-04T14:22:48.000Z</time>
      </trkpt>
      <trkpt lat="47.19339" lon="3.1886">
        <ele>265.54089355469</ele>
        <time>2015-11-04T14:22:51.000Z</time>
      </trkpt>
      <trkpt lat="47.19336" lon="3.18861">
        <ele>265.4794921875</ele>
        <time>2015-11-04T14:22:54.000Z</time>
      </trkpt>
      <trkpt lat="47.19334" lon="3.18862">
        <ele>265.4248046875</ele>
        <time>2015-11-04T14:22:56.000Z</time>
      </trkpt>
      <trkpt lat="47.19332" lon="3.18864">
        <ele>265.37908935547</ele>
        <time>2015-11-04T14:22:59.000Z</time>
      </trkpt>
      <trkpt lat="47.1933" lon="3.18864">
        <ele>265.34994506836</ele>
        <time>2015-11-04T14:23:01.000Z</time>
      </trkpt>
      <trkpt lat="47.19327" lon="3.18865">
        <ele>265.34378051758</ele>
        <time>2015-11-04T14:23:04.000Z</time>
      </trkpt>
      <trkpt lat="47.19324" lon="3.18866">
        <ele>265.35931396484</ele>
        <time>2015-11-04T14:23:06.000Z</time>
      </trkpt>
      <trkpt lat="47.19322" lon="3.18868">
        <ele>265.38342285156</ele>
        <time>2015-11-04T14:23:09.000Z</time>
      </trkpt>
      <trkpt lat="47.19321" lon="3.18869">
        <ele>265.4140625</ele>
        <time>2015-11-04T14:23:11.000Z</time>
      </trkpt>
      <trkpt lat="47.19319" lon="3.18869">
        <ele>265.44323730469</ele>
        <time>2015-11-04T14:23:13.000Z</time>
      </trkpt>
      <trkpt lat="47.19318" lon="3.18869">
        <ele>265.46801757812</ele>
        <time>2015-11-04T14:23:15.000Z</time>
      </trkpt>
      <trkpt lat="47.19316" lon="3.18869">
        <ele>265.4912109375</ele>
        <time>2015-11-04T14:23:17.000Z</time>
      </trkpt>
      <trkpt lat="47.19314" lon="3.18869">
        <ele>265.52087402344</ele>
        <time>2015-11-04T14:23:20.000Z</time>
      </trkpt>
      <trkpt lat="47.19314" lon="3.18869">
        <ele>265.52087402344</ele>
        <time>2015-11-04T14:23:40.000Z</time>
      </trkpt>
      <trkpt lat="47.19314" lon="3.18871">
        <ele>265.53942871094</ele>
        <time>2015-11-04T14:23:56.000Z</time>
      </trkpt>
      <trkpt lat="47.19314" lon="3.18871">
        <ele>265.53942871094</ele>
        <time>2015-11-04T14:24:16.000Z</time>
      </trkpt>
      <trkpt lat="47.19314" lon="3.18873">
        <ele>265.544921875</ele>
        <time>2015-11-04T14:25:42.000Z</time>
      </trkpt>
      <trkpt lat="47.19313" lon="3.18876">
        <ele>265.53564453125</ele>
        <time>2015-11-04T14:25:56.000Z</time>
      </trkpt>
      <trkpt lat="47.19313" lon="3.18877">
        <ele>265.51306152344</ele>
        <time>2015-11-04T14:25:59.000Z</time>
      </trkpt>
      <trkpt lat="47.19312" lon="3.18878">
        <ele>265.48022460938</ele>
        <time>2015-11-04T14:26:16.000Z</time>
      </trkpt>
      <trkpt lat="47.1931" lon="3.18879">
        <ele>265.46105957031</ele>
        <time>2015-11-04T14:26:19.000Z</time>
      </trkpt>
      <trkpt lat="47.1931" lon="3.18879">
        <ele>265.45239257812</ele>
        <time>2015-11-04T14:26:23.000Z</time>
      </trkpt>
      <trkpt lat="47.19309" lon="3.18877">
        <ele>265.46899414062</ele>
        <time>2015-11-04T14:26:26.000Z</time>
      </trkpt>
      <trkpt lat="47.19308" lon="3.18876">
        <ele>265.49865722656</ele>
        <time>2015-11-04T14:26:29.000Z</time>
      </trkpt>
      <trkpt lat="47.19307" lon="3.18874">
        <ele>265.53979492188</ele>
        <time>2015-11-04T14:26:33.000Z</time>
      </trkpt>
      <trkpt lat="47.19307" lon="3.18874">
        <ele>265.53979492188</ele>
        <time>2015-11-04T14:26:53.000Z</time>
      </trkpt>
      <trkpt lat="47.19307" lon="3.18873">
        <ele>265.58264160156</ele>
        <time>2015-11-04T14:27:17.000Z</time>
      </trkpt>
      <trkpt lat="47.19306" lon="3.1887">
        <ele>265.64526367188</ele>
        <time>2015-11-04T14:27:24.000Z</time>
      </trkpt>
      <trkpt lat="47.19305" lon="3.18866">
        <ele>265.71704101562</ele>
        <time>2015-11-04T14:27:25.000Z</time>
      </trkpt>
      <trkpt lat="47.19304" lon="3.18863">
        <ele>265.79907226562</ele>
        <time>2015-11-04T14:27:26.000Z</time>
      </trkpt>
      <trkpt lat="47.19303" lon="3.18865">
        <ele>265.86694335938</ele>
        <time>2015-11-04T14:27:28.000Z</time>
      </trkpt>
      <trkpt lat="47.19302" lon="3.18864">
        <ele>265.93615722656</ele>
        <time>2015-11-04T14:27:28.000Z</time>
      </trkpt>
      <trkpt lat="47.19302" lon="3.18862">
        <ele>265.99230957031</ele>
        <time>2015-11-04T14:27:28.000Z</time>
      </trkpt>
      <trkpt lat="47.19302" lon="3.18866">
        <ele>266.005859375</ele>
        <time>2015-11-04T14:27:36.000Z</time>
      </trkpt>
      <trkpt lat="47.19302" lon="3.18867">
        <ele>265.99060058594</ele>
        <time>2015-11-04T14:27:36.000Z</time>
      </trkpt>
      <trkpt lat="47.19303" lon="3.18871">
        <ele>265.95751953125</ele>
        <time>2015-11-04T14:27:36.000Z</time>
      </trkpt>
      <trkpt lat="47.19304" lon="3.18874">
        <ele>265.89782714844</ele>
        <time>2015-11-04T14:27:38.000Z</time>
      </trkpt>
      <trkpt lat="47.19305" lon="3.18875">
        <ele>265.82385253906</ele>
        <time>2015-11-04T14:27:47.000Z</time>
      </trkpt>
      <trkpt lat="47.19306" lon="3.18874">
        <ele>265.76379394531</ele>
        <time>2015-11-04T14:27:53.000Z</time>
      </trkpt>
      <trkpt lat="47.19305" lon="3.18874">
        <ele>265.71789550781</ele>
        <time>2015-11-04T14:27:59.000Z</time>
      </trkpt>
      <trkpt lat="47.19304" lon="3.18874">
        <ele>265.69946289062</ele>
        <time>2015-11-04T14:28:01.000Z</time>
      </trkpt>
      <trkpt lat="47.19304" lon="3.18876">
        <ele>265.69116210938</ele>
        <time>2015-11-04T14:28:06.000Z</time>
      </trkpt>
      <trkpt lat="47.19303" lon="3.18879">
        <ele>265.68139648438</ele>
        <time>2015-11-04T14:28:08.000Z</time>
      </trkpt>
      <trkpt lat="47.19302" lon="3.18881">
        <ele>265.66918945312</ele>
        <time>2015-11-04T14:28:11.000Z</time>
      </trkpt>
      <trkpt lat="47.193" lon="3.18882">
        <ele>265.65808105469</ele>
        <time>2015-11-04T14:28:14.000Z</time>
      </trkpt>
      <trkpt lat="47.19299" lon="3.18883">
        <ele>265.63720703125</ele>
        <time>2015-11-04T14:28:16.000Z</time>
      </trkpt>
      <trkpt lat="47.19298" lon="3.18884">
        <ele>265.62609863281</ele>
        <time>2015-11-04T14:28:18.000Z</time>
      </trkpt>
      <trkpt lat="47.19296" lon="3.18885">
        <ele>265.6279296875</ele>
        <time>2015-11-04T14:28:20.000Z</time>
      </trkpt>
      <trkpt lat="47.19293" lon="3.18886">
        <ele>265.64440917969</ele>
        <time>2015-11-04T14:28:23.000Z</time>
      </trkpt>
      <trkpt lat="47.19291" lon="3.18887">
        <ele>265.66662597656</ele>
        <time>2015-11-04T14:28:26.000Z</time>
      </trkpt>
      <trkpt lat="47.19288" lon="3.18888">
        <ele>265.70031738281</ele>
        <time>2015-11-04T14:28:29.000Z</time>
      </trkpt>
      <trkpt lat="47.19284" lon="3.18889">
        <ele>265.74169921875</ele>
        <time>2015-11-04T14:28:32.000Z</time>
      </trkpt>
      <trkpt lat="47.19283" lon="3.1889">
        <ele>265.78100585938</ele>
        <time>2015-11-04T14:28:35.000Z</time>
      </trkpt>
      <trkpt lat="47.1928" lon="3.18892">
        <ele>265.81958007812</ele>
        <time>2015-11-04T14:28:38.000Z</time>
      </trkpt>
      <trkpt lat="47.19279" lon="3.18893">
        <ele>265.8486328125</ele>
        <time>2015-11-04T14:28:40.000Z</time>
      </trkpt>
      <trkpt lat="47.19277" lon="3.18895">
        <ele>265.86669921875</ele>
        <time>2015-11-04T14:28:43.000Z</time>
      </trkpt>
      <trkpt lat="47.19274" lon="3.18896">
        <ele>265.88256835938</ele>
        <time>2015-11-04T14:28:45.000Z</time>
      </trkpt>
      <trkpt lat="47.19271" lon="3.18899">
        <ele>265.89978027344</ele>
        <time>2015-11-04T14:28:48.000Z</time>
      </trkpt>
      <trkpt lat="47.19268" lon="3.189">
        <ele>265.916015625</ele>
        <time>2015-11-04T14:28:51.000Z</time>
      </trkpt>
      <trkpt lat="47.19266" lon="3.18902">
        <ele>265.93200683594</ele>
        <time>2015-11-04T14:28:53.000Z</time>
      </trkpt>
      <trkpt lat="47.19263" lon="3.18905">
        <ele>265.95007324219</ele>
        <time>2015-11-04T14:29:07.000Z</time>
      </trkpt>
      <trkpt lat="47.19259" lon="3.18907">
        <ele>265.96887207031</ele>
        <time>2015-11-04T14:29:07.000Z</time>
      </trkpt>
      <trkpt lat="47.19257" lon="3.18909">
        <ele>265.98547363281</ele>
        <time>2015-11-04T14:29:08.000Z</time>
      </trkpt>
      <trkpt lat="47.19253" lon="3.1891">
        <ele>266.01110839844</ele>
        <time>2015-11-04T14:29:08.000Z</time>
      </trkpt>
      <trkpt lat="47.19249" lon="3.1891">
        <ele>266.04888916016</ele>
        <time>2015-11-04T14:29:08.000Z</time>
      </trkpt>
      <trkpt lat="47.19244" lon="3.18911">
        <ele>266.08538818359</ele>
        <time>2015-11-04T14:29:12.000Z</time>
      </trkpt>
      <trkpt lat="47.19241" lon="3.18914">
        <ele>266.10025024414</ele>
        <time>2015-11-04T14:29:13.000Z</time>
      </trkpt>
      <trkpt lat="47.19239" lon="3.18915">
        <ele>266.10610961914</ele>
        <time>2015-11-04T14:29:15.000Z</time>
      </trkpt>
      <trkpt lat="47.19236" lon="3.18917">
        <ele>266.0856628418</ele>
        <time>2015-11-04T14:29:18.000Z</time>
      </trkpt>
      <trkpt lat="47.19231" lon="3.18921">
        <ele>266.04693603516</ele>
        <time>2015-11-04T14:29:21.000Z</time>
      </trkpt>
      <trkpt lat="47.19228" lon="3.18923">
        <ele>266.01141357422</ele>
        <time>2015-11-04T14:29:24.000Z</time>
      </trkpt>
      <trkpt lat="47.19225" lon="3.18926">
        <ele>265.99200439453</ele>
        <time>2015-11-04T14:29:27.000Z</time>
      </trkpt>
      <trkpt lat="47.19222" lon="3.18928">
        <ele>265.98233032227</ele>
        <time>2015-11-04T14:29:29.000Z</time>
      </trkpt>
      <trkpt lat="47.19219" lon="3.18929">
        <ele>265.99066162109</ele>
        <time>2015-11-04T14:29:32.000Z</time>
      </trkpt>
      <trkpt lat="47.19217" lon="3.1893">
        <ele>266.0085144043</ele>
        <time>2015-11-04T14:29:34.000Z</time>
      </trkpt>
      <trkpt lat="47.19214" lon="3.1893">
        <ele>266.03421020508</ele>
        <time>2015-11-04T14:29:37.000Z</time>
      </trkpt>
      <trkpt lat="47.19209" lon="3.18933">
        <ele>266.07464599609</ele>
        <time>2015-11-04T14:29:40.000Z</time>
      </trkpt>
      <trkpt lat="47.19206" lon="3.18938">
        <ele>266.13314819336</ele>
        <time>2015-11-04T14:29:43.000Z</time>
      </trkpt>
      <trkpt lat="47.19204" lon="3.18939">
        <ele>266.19787597656</ele>
        <time>2015-11-04T14:29:45.000Z</time>
      </trkpt>
      <trkpt lat="47.19201" lon="3.18941">
        <ele>266.27328491211</ele>
        <time>2015-11-04T14:29:48.000Z</time>
      </trkpt>
      <trkpt lat="47.19199" lon="3.18942">
        <ele>266.35443115234</ele>
        <time>2015-11-04T14:29:50.000Z</time>
      </trkpt>
      <trkpt lat="47.19196" lon="3.18944">
        <ele>266.43994140625</ele>
        <time>2015-11-04T14:29:53.000Z</time>
      </trkpt>
      <trkpt lat="47.19196" lon="3.18944">
        <ele>266.50888061523</ele>
        <time>2015-11-04T14:29:55.000Z</time>
      </trkpt>
      <trkpt lat="47.19193" lon="3.18945">
        <ele>266.58041381836</ele>
        <time>2015-11-04T14:29:58.000Z</time>
      </trkpt>
      <trkpt lat="47.19191" lon="3.18946">
        <ele>266.65496826172</ele>
        <time>2015-11-04T14:30:01.000Z</time>
      </trkpt>
      <trkpt lat="47.19187" lon="3.18948">
        <ele>266.74716186523</ele>
        <time>2015-11-04T14:30:04.000Z</time>
      </trkpt>
      <trkpt lat="47.19185" lon="3.18949">
        <ele>266.83489990234</ele>
        <time>2015-11-04T14:30:06.000Z</time>
      </trkpt>
      <trkpt lat="47.19182" lon="3.1895">
        <ele>266.94296264648</ele>
        <time>2015-11-04T14:30:08.000Z</time>
      </trkpt>
      <trkpt lat="47.1918" lon="3.18951">
        <ele>267.04962158203</ele>
        <time>2015-11-04T14:30:10.000Z</time>
      </trkpt>
      <trkpt lat="47.19177" lon="3.18952">
        <ele>267.16644287109</ele>
        <time>2015-11-04T14:30:12.000Z</time>
      </trkpt>
      <trkpt lat="47.19175" lon="3.18954">
        <ele>267.27572631836</ele>
        <time>2015-11-04T14:30:14.000Z</time>
      </trkpt>
      <trkpt lat="47.19171" lon="3.18955">
        <ele>267.40747070312</ele>
        <time>2015-11-04T14:30:17.000Z</time>
      </trkpt>
      <trkpt lat="47.19168" lon="3.18956">
        <ele>267.54351806641</ele>
        <time>2015-11-04T14:30:19.000Z</time>
      </trkpt>
      <trkpt lat="47.19166" lon="3.1896">
        <ele>267.72103881836</ele>
        <time>2015-11-04T14:30:22.000Z</time>
      </trkpt>
      <trkpt lat="47.19164" lon="3.18962">
        <ele>267.9289855957</ele>
        <time>2015-11-04T14:30:24.000Z</time>
      </trkpt>
      <trkpt lat="47.1916" lon="3.18965">
        <ele>268.17578125</ele>
        <time>2015-11-04T14:30:27.000Z</time>
      </trkpt>
      <trkpt lat="47.19159" lon="3.18966">
        <ele>268.42523193359</ele>
        <time>2015-11-04T14:30:29.000Z</time>
      </trkpt>
      <trkpt lat="47.19155" lon="3.18969">
        <ele>268.71911621094</ele>
        <time>2015-11-04T14:30:32.000Z</time>
      </trkpt>
      <trkpt lat="47.19153" lon="3.18969">
        <ele>268.986328125</ele>
        <time>2015-11-04T14:30:35.000Z</time>
      </trkpt>
      <trkpt lat="47.19151" lon="3.18969">
        <ele>269.23361206055</ele>
        <time>2015-11-04T14:30:38.000Z</time>
      </trkpt>
      <trkpt lat="47.19148" lon="3.18971">
        <ele>269.45959472656</ele>
        <time>2015-11-04T14:30:41.000Z</time>
      </trkpt>
      <trkpt lat="47.19145" lon="3.18972">
        <ele>269.69927978516</ele>
        <time>2015-11-04T14:30:44.000Z</time>
      </trkpt>
      <trkpt lat="47.19143" lon="3.18973">
        <ele>269.88787841797</ele>
        <time>2015-11-04T14:30:46.000Z</time>
      </trkpt>
      <trkpt lat="47.19141" lon="3.18975">
        <ele>270.08929443359</ele>
        <time>2015-11-04T14:30:49.000Z</time>
      </trkpt>
      <trkpt lat="47.19139" lon="3.18978">
        <ele>270.30133056641</ele>
        <time>2015-11-04T14:30:52.000Z</time>
      </trkpt>
      <trkpt lat="47.19136" lon="3.18979">
        <ele>270.51446533203</ele>
        <time>2015-11-04T14:30:55.000Z</time>
      </trkpt>
      <trkpt lat="47.19133" lon="3.1898">
        <ele>270.71435546875</ele>
        <time>2015-11-04T14:30:58.000Z</time>
      </trkpt>
      <trkpt lat="47.19132" lon="3.18982">
        <ele>270.91668701172</ele>
        <time>2015-11-04T14:31:00.000Z</time>
      </trkpt>
      <trkpt lat="47.1913" lon="3.18988">
        <ele>271.11520385742</ele>
        <time>2015-11-04T14:31:03.000Z</time>
      </trkpt>
      <trkpt lat="47.19128" lon="3.1899">
        <ele>271.29843139648</ele>
        <time>2015-11-04T14:31:05.000Z</time>
      </trkpt>
      <trkpt lat="47.19125" lon="3.18991">
        <ele>271.47576904297</ele>
        <time>2015-11-04T14:31:08.000Z</time>
      </trkpt>
      <trkpt lat="47.19122" lon="3.18992">
        <ele>271.6435546875</ele>
        <time>2015-11-04T14:31:10.000Z</time>
      </trkpt>
      <trkpt lat="47.19118" lon="3.18994">
        <ele>271.83679199219</ele>
        <time>2015-11-04T14:31:13.000Z</time>
      </trkpt>
      <trkpt lat="47.19116" lon="3.18995">
        <ele>272.01922607422</ele>
        <time>2015-11-04T14:31:15.000Z</time>
      </trkpt>
      <trkpt lat="47.19111" lon="3.18999">
        <ele>272.22027587891</ele>
        <time>2015-11-04T14:31:18.000Z</time>
      </trkpt>
      <trkpt lat="47.19109" lon="3.19001">
        <ele>272.40536499023</ele>
        <time>2015-11-04T14:31:20.000Z</time>
      </trkpt>
      <trkpt lat="47.19107" lon="3.19003">
        <ele>272.57965087891</ele>
        <time>2015-11-04T14:31:22.000Z</time>
      </trkpt>
      <trkpt lat="47.19104" lon="3.19006">
        <ele>272.72839355469</ele>
        <time>2015-11-04T14:31:25.000Z</time>
      </trkpt>
      <trkpt lat="47.19102" lon="3.19007">
        <ele>272.86700439453</ele>
        <time>2015-11-04T14:31:27.000Z</time>
      </trkpt>
      <trkpt lat="47.19099" lon="3.19009">
        <ele>272.97573852539</ele>
        <time>2015-11-04T14:31:30.000Z</time>
      </trkpt>
      <trkpt lat="47.19098" lon="3.1901">
        <ele>273.07748413086</ele>
        <time>2015-11-04T14:31:32.000Z</time>
      </trkpt>
      <trkpt lat="47.19095" lon="3.19011">
        <ele>273.17645263672</ele>
        <time>2015-11-04T14:31:35.000Z</time>
      </trkpt>
      <trkpt lat="47.19094" lon="3.19012">
        <ele>273.26007080078</ele>
        <time>2015-11-04T14:31:37.000Z</time>
      </trkpt>
      <trkpt lat="47.19091" lon="3.19012">
        <ele>273.34649658203</ele>
        <time>2015-11-04T14:31:40.000Z</time>
      </trkpt>
      <trkpt lat="47.19088" lon="3.19014">
        <ele>273.43099975586</ele>
        <time>2015-11-04T14:31:42.000Z</time>
      </trkpt>
      <trkpt lat="47.19086" lon="3.19014">
        <ele>273.51824951172</ele>
        <time>2015-11-04T14:31:44.000Z</time>
      </trkpt>
      <trkpt lat="47.19083" lon="3.19013">
        <ele>273.61676025391</ele>
        <time>2015-11-04T14:31:47.000Z</time>
      </trkpt>
      <trkpt lat="47.19081" lon="3.19013">
        <ele>273.71829223633</ele>
        <time>2015-11-04T14:31:50.000Z</time>
      </trkpt>
      <trkpt lat="47.19077" lon="3.19012">
        <ele>273.82379150391</ele>
        <time>2015-11-04T14:31:54.000Z</time>
      </trkpt>
      <trkpt lat="47.19074" lon="3.19013">
        <ele>273.92446899414</ele>
        <time>2015-11-04T14:31:57.000Z</time>
      </trkpt>
      <trkpt lat="47.19071" lon="3.19013">
        <ele>274.02200317383</ele>
        <time>2015-11-04T14:31:59.000Z</time>
      </trkpt>
      <trkpt lat="47.19066" lon="3.19015">
        <ele>274.11370849609</ele>
        <time>2015-11-04T14:32:02.000Z</time>
      </trkpt>
      <trkpt lat="47.19063" lon="3.19016">
        <ele>274.20147705078</ele>
        <time>2015-11-04T14:32:04.000Z</time>
      </trkpt>
      <trkpt lat="47.1906" lon="3.19017">
        <ele>274.27764892578</ele>
        <time>2015-11-04T14:32:07.000Z</time>
      </trkpt>
      <trkpt lat="47.19057" lon="3.19017">
        <ele>274.35034179688</ele>
        <time>2015-11-04T14:32:10.000Z</time>
      </trkpt>
      <trkpt lat="47.19056" lon="3.19016">
        <ele>274.42105102539</ele>
        <time>2015-11-04T14:32:12.000Z</time>
      </trkpt>
      <trkpt lat="47.19053" lon="3.19019">
        <ele>274.47094726562</ele>
        <time>2015-11-04T14:32:14.000Z</time>
      </trkpt>
      <trkpt lat="47.19049" lon="3.1902">
        <ele>274.5166015625</ele>
        <time>2015-11-04T14:32:17.000Z</time>
      </trkpt>
      <trkpt lat="47.19047" lon="3.1902">
        <ele>274.56317138672</ele>
        <time>2015-11-04T14:32:20.000Z</time>
      </trkpt>
      <trkpt lat="47.19046" lon="3.19021">
        <ele>274.59521484375</ele>
        <time>2015-11-04T14:32:22.000Z</time>
      </trkpt>
      <trkpt lat="47.19044" lon="3.19023">
        <ele>274.61077880859</ele>
        <time>2015-11-04T14:32:25.000Z</time>
      </trkpt>
      <trkpt lat="47.19042" lon="3.19025">
        <ele>274.61859130859</ele>
        <time>2015-11-04T14:32:28.000Z</time>
      </trkpt>
      <trkpt lat="47.1904" lon="3.19028">
        <ele>274.60635375977</ele>
        <time>2015-11-04T14:32:30.000Z</time>
      </trkpt>
      <trkpt lat="47.19038" lon="3.19031">
        <ele>274.56610107422</ele>
        <time>2015-11-04T14:32:33.000Z</time>
      </trkpt>
      <trkpt lat="47.19038" lon="3.19032">
        <ele>274.52362060547</ele>
        <time>2015-11-04T14:32:35.000Z</time>
      </trkpt>
      <trkpt lat="47.19035" lon="3.19036">
        <ele>274.46136474609</ele>
        <time>2015-11-04T14:32:37.000Z</time>
      </trkpt>
      <trkpt lat="47.19033" lon="3.19038">
        <ele>274.39038085938</ele>
        <time>2015-11-04T14:32:40.000Z</time>
      </trkpt>
      <trkpt lat="47.19031" lon="3.19041">
        <ele>274.31353759766</ele>
        <time>2015-11-04T14:32:43.000Z</time>
      </trkpt>
      <trkpt lat="47.1903" lon="3.19043">
        <ele>274.23773193359</ele>
        <time>2015-11-04T14:32:46.000Z</time>
      </trkpt>
      <trkpt lat="47.19027" lon="3.19049">
        <ele>274.11834716797</ele>
        <time>2015-11-04T14:32:49.000Z</time>
      </trkpt>
      <trkpt lat="47.19025" lon="3.19051">
        <ele>274.00717163086</ele>
        <time>2015-11-04T14:32:51.000Z</time>
      </trkpt>
      <trkpt lat="47.19024" lon="3.19053">
        <ele>273.89184570312</ele>
        <time>2015-11-04T14:32:53.000Z</time>
      </trkpt>
      <trkpt lat="47.19021" lon="3.19057">
        <ele>273.76934814453</ele>
        <time>2015-11-04T14:32:56.000Z</time>
      </trkpt>
      <trkpt lat="47.19018" lon="3.19059">
        <ele>273.63568115234</ele>
        <time>2015-11-04T14:32:59.000Z</time>
      </trkpt>
      <trkpt lat="47.19013" lon="3.19063">
        <ele>273.51147460938</ele>
        <time>2015-11-04T14:33:02.000Z</time>
      </trkpt>
      <trkpt lat="47.19011" lon="3.19067">
        <ele>273.36297607422</ele>
        <time>2015-11-04T14:33:04.000Z</time>
      </trkpt>
      <trkpt lat="47.19009" lon="3.19071">
        <ele>273.18853759766</ele>
        <time>2015-11-04T14:33:07.000Z</time>
      </trkpt>
      <trkpt lat="47.19006" lon="3.19075">
        <ele>272.99047851562</ele>
        <time>2015-11-04T14:33:09.000Z</time>
      </trkpt>
      <trkpt lat="47.19004" lon="3.1908">
        <ele>272.76425170898</ele>
        <time>2015-11-04T14:33:12.000Z</time>
      </trkpt>
      <trkpt lat="47.19002" lon="3.19082">
        <ele>272.54183959961</ele>
        <time>2015-11-04T14:33:14.000Z</time>
      </trkpt>
      <trkpt lat="47.19" lon="3.19085">
        <ele>272.33465576172</ele>
        <time>2015-11-04T14:33:16.000Z</time>
      </trkpt>
      <trkpt lat="47.18999" lon="3.19086">
        <ele>272.16619873047</ele>
        <time>2015-11-04T14:33:18.000Z</time>
      </trkpt>
      <trkpt lat="47.18995" lon="3.19091">
        <ele>272.03692626953</ele>
        <time>2015-11-04T14:33:21.000Z</time>
      </trkpt>
      <trkpt lat="47.18995" lon="3.19093">
        <ele>271.95050048828</ele>
        <time>2015-11-04T14:33:24.000Z</time>
      </trkpt>
      <trkpt lat="47.18993" lon="3.19094">
        <ele>271.89501953125</ele>
        <time>2015-11-04T14:33:27.000Z</time>
      </trkpt>
      <trkpt lat="47.1899" lon="3.19097">
        <ele>271.86010742188</ele>
        <time>2015-11-04T14:33:29.000Z</time>
      </trkpt>
      <trkpt lat="47.18988" lon="3.19099">
        <ele>271.82421875</ele>
        <time>2015-11-04T14:33:31.000Z</time>
      </trkpt>
      <trkpt lat="47.18985" lon="3.19102">
        <ele>271.7939453125</ele>
        <time>2015-11-04T14:33:34.000Z</time>
      </trkpt>
      <trkpt lat="47.18981" lon="3.19107">
        <ele>271.75866699219</ele>
        <time>2015-11-04T14:33:36.000Z</time>
      </trkpt>
      <trkpt lat="47.18978" lon="3.19109">
        <ele>271.72351074219</ele>
        <time>2015-11-04T14:33:39.000Z</time>
      </trkpt>
      <trkpt lat="47.18977" lon="3.19111">
        <ele>271.6884765625</ele>
        <time>2015-11-04T14:33:41.000Z</time>
      </trkpt>
      <trkpt lat="47.18974" lon="3.19112">
        <ele>271.65576171875</ele>
        <time>2015-11-04T14:33:43.000Z</time>
      </trkpt>
      <trkpt lat="47.1897" lon="3.19116">
        <ele>271.62438964844</ele>
        <time>2015-11-04T14:33:46.000Z</time>
      </trkpt>
      <trkpt lat="47.18966" lon="3.19121">
        <ele>271.591796875</ele>
        <time>2015-11-04T14:33:49.000Z</time>
      </trkpt>
      <trkpt lat="47.18964" lon="3.19124">
        <ele>271.55334472656</ele>
        <time>2015-11-04T14:33:52.000Z</time>
      </trkpt>
      <trkpt lat="47.18962" lon="3.19127">
        <ele>271.51110839844</ele>
        <time>2015-11-04T14:33:55.000Z</time>
      </trkpt>
      <trkpt lat="47.18961" lon="3.19127">
        <ele>271.47143554688</ele>
        <time>2015-11-04T14:33:57.000Z</time>
      </trkpt>
      <trkpt lat="47.18959" lon="3.19128">
        <ele>271.43774414062</ele>
        <time>2015-11-04T14:33:59.000Z</time>
      </trkpt>
      <trkpt lat="47.18956" lon="3.19129">
        <ele>271.421875</ele>
        <time>2015-11-04T14:34:02.000Z</time>
      </trkpt>
      <trkpt lat="47.18955" lon="3.1913">
        <ele>271.41479492188</ele>
        <time>2015-11-04T14:34:05.000Z</time>
      </trkpt>
      <trkpt lat="47.18954" lon="3.1913">
        <ele>271.41857910156</ele>
        <time>2015-11-04T14:34:07.000Z</time>
      </trkpt>
      <trkpt lat="47.1895" lon="3.19132">
        <ele>271.42370605469</ele>
        <time>2015-11-04T14:34:10.000Z</time>
      </trkpt>
      <trkpt lat="47.18948" lon="3.19134">
        <ele>271.42456054688</ele>
        <time>2015-11-04T14:34:13.000Z</time>
      </trkpt>
      <trkpt lat="47.18946" lon="3.19135">
        <ele>271.42309570312</ele>
        <time>2015-11-04T14:34:16.000Z</time>
      </trkpt>
      <trkpt lat="47.18943" lon="3.19136">
        <ele>271.4228515625</ele>
        <time>2015-11-04T14:34:19.000Z</time>
      </trkpt>
      <trkpt lat="47.18939" lon="3.19136">
        <ele>271.4287109375</ele>
        <time>2015-11-04T14:34:21.000Z</time>
      </trkpt>
      <trkpt lat="47.18937" lon="3.19137">
        <ele>271.43518066406</ele>
        <time>2015-11-04T14:34:23.000Z</time>
      </trkpt>
      <trkpt lat="47.18934" lon="3.1914">
        <ele>271.439453125</ele>
        <time>2015-11-04T14:34:26.000Z</time>
      </trkpt>
      <trkpt lat="47.18932" lon="3.19139">
        <ele>271.45068359375</ele>
        <time>2015-11-04T14:34:28.000Z</time>
      </trkpt>
      <trkpt lat="47.18928" lon="3.19138">
        <ele>271.47802734375</ele>
        <time>2015-11-04T14:34:31.000Z</time>
      </trkpt>
      <trkpt lat="47.18924" lon="3.19138">
        <ele>271.50366210938</ele>
        <time>2015-11-04T14:34:34.000Z</time>
      </trkpt>
      <trkpt lat="47.1892" lon="3.1914">
        <ele>271.53076171875</ele>
        <time>2015-11-04T14:34:37.000Z</time>
      </trkpt>
      <trkpt lat="47.18917" lon="3.19143">
        <ele>271.55688476562</ele>
        <time>2015-11-04T14:34:40.000Z</time>
      </trkpt>
      <trkpt lat="47.18915" lon="3.19144">
        <ele>271.57723999023</ele>
        <time>2015-11-04T14:34:42.000Z</time>
      </trkpt>
      <trkpt lat="47.18913" lon="3.19147">
        <ele>271.57781982422</ele>
        <time>2015-11-04T14:34:44.000Z</time>
      </trkpt>
      <trkpt lat="47.18911" lon="3.1915">
        <ele>271.56903076172</ele>
        <time>2015-11-04T14:34:47.000Z</time>
      </trkpt>
      <trkpt lat="47.18908" lon="3.19153">
        <ele>271.55569458008</ele>
        <time>2015-11-04T14:34:50.000Z</time>
      </trkpt>
      <trkpt lat="47.18907" lon="3.19154">
        <ele>271.5517578125</ele>
        <time>2015-11-04T14:34:53.000Z</time>
      </trkpt>
      <trkpt lat="47.18904" lon="3.19154">
        <ele>271.55603027344</ele>
        <time>2015-11-04T14:34:55.000Z</time>
      </trkpt>
      <trkpt lat="47.18904" lon="3.19155">
        <ele>271.56372070312</ele>
        <time>2015-11-04T14:34:57.000Z</time>
      </trkpt>
      <trkpt lat="47.18902" lon="3.19157">
        <ele>271.57385253906</ele>
        <time>2015-11-04T14:35:00.000Z</time>
      </trkpt>
      <trkpt lat="47.189" lon="3.19158">
        <ele>271.58837890625</ele>
        <time>2015-11-04T14:35:02.000Z</time>
      </trkpt>
      <trkpt lat="47.18896" lon="3.19161">
        <ele>271.60461425781</ele>
        <time>2015-11-04T14:35:05.000Z</time>
      </trkpt>
      <trkpt lat="47.18894" lon="3.19164">
        <ele>271.60595703125</ele>
        <time>2015-11-04T14:35:10.000Z</time>
      </trkpt>
      <trkpt lat="47.18891" lon="3.19166">
        <ele>271.61474609375</ele>
        <time>2015-11-04T14:35:13.000Z</time>
      </trkpt>
      <trkpt lat="47.18889" lon="3.19167">
        <ele>271.62734985352</ele>
        <time>2015-11-04T14:35:17.000Z</time>
      </trkpt>
      <trkpt lat="47.18886" lon="3.19169">
        <ele>271.64266967773</ele>
        <time>2015-11-04T14:35:19.000Z</time>
      </trkpt>
      <trkpt lat="47.18884" lon="3.1917">
        <ele>271.65951538086</ele>
        <time>2015-11-04T14:35:21.000Z</time>
      </trkpt>
      <trkpt lat="47.18882" lon="3.19172">
        <ele>271.68768310547</ele>
        <time>2015-11-04T14:35:24.000Z</time>
      </trkpt>
      <trkpt lat="47.18877" lon="3.19173">
        <ele>271.72052001953</ele>
        <time>2015-11-04T14:35:28.000Z</time>
      </trkpt>
      <trkpt lat="47.18872" lon="3.19175">
        <ele>271.76406860352</ele>
        <time>2015-11-04T14:35:31.000Z</time>
      </trkpt>
      <trkpt lat="47.18869" lon="3.19176">
        <ele>271.80865478516</ele>
        <time>2015-11-04T14:35:33.000Z</time>
      </trkpt>
      <trkpt lat="47.18866" lon="3.19176">
        <ele>271.85717773438</ele>
        <time>2015-11-04T14:35:36.000Z</time>
      </trkpt>
      <trkpt lat="47.18862" lon="3.19175">
        <ele>271.92440795898</ele>
        <time>2015-11-04T14:35:39.000Z</time>
      </trkpt>
      <trkpt lat="47.18856" lon="3.1918">
        <ele>271.97265625</ele>
        <time>2015-11-04T14:35:42.000Z</time>
      </trkpt>
      <trkpt lat="47.18853" lon="3.19183">
        <ele>272.00170898438</ele>
        <time>2015-11-04T14:35:45.000Z</time>
      </trkpt>
      <trkpt lat="47.18851" lon="3.19187">
        <ele>272.00616455078</ele>
        <time>2015-11-04T14:35:48.000Z</time>
      </trkpt>
      <trkpt lat="47.18849" lon="3.19191">
        <ele>271.98699951172</ele>
        <time>2015-11-04T14:35:51.000Z</time>
      </trkpt>
      <trkpt lat="47.18847" lon="3.19193">
        <ele>271.9365234375</ele>
        <time>2015-11-04T14:35:53.000Z</time>
      </trkpt>
      <trkpt lat="47.18845" lon="3.19196">
        <ele>271.88430786133</ele>
        <time>2015-11-04T14:35:56.000Z</time>
      </trkpt>
      <trkpt lat="47.18843" lon="3.19198">
        <ele>271.8271484375</ele>
        <time>2015-11-04T14:35:59.000Z</time>
      </trkpt>
      <trkpt lat="47.18838" lon="3.19201">
        <ele>271.77850341797</ele>
        <time>2015-11-04T14:36:02.000Z</time>
      </trkpt>
      <trkpt lat="47.18835" lon="3.19203">
        <ele>271.74353027344</ele>
        <time>2015-11-04T14:36:05.000Z</time>
      </trkpt>
      <trkpt lat="47.18832" lon="3.19205">
        <ele>271.70492553711</ele>
        <time>2015-11-04T14:36:07.000Z</time>
      </trkpt>
      <trkpt lat="47.1883" lon="3.19207">
        <ele>271.65777587891</ele>
        <time>2015-11-04T14:36:10.000Z</time>
      </trkpt>
      <trkpt lat="47.18826" lon="3.1921">
        <ele>271.59600830078</ele>
        <time>2015-11-04T14:36:12.000Z</time>
      </trkpt>
      <trkpt lat="47.18824" lon="3.19213">
        <ele>271.52337646484</ele>
        <time>2015-11-04T14:36:15.000Z</time>
      </trkpt>
      <trkpt lat="47.18823" lon="3.19214">
        <ele>271.44451904297</ele>
        <time>2015-11-04T14:36:17.000Z</time>
      </trkpt>
      <trkpt lat="47.18822" lon="3.19215">
        <ele>271.37072753906</ele>
        <time>2015-11-04T14:36:20.000Z</time>
      </trkpt>
      <trkpt lat="47.18819" lon="3.19217">
        <ele>271.30111694336</ele>
        <time>2015-11-04T14:36:23.000Z</time>
      </trkpt>
      <trkpt lat="47.18817" lon="3.19218">
        <ele>271.24658203125</ele>
        <time>2015-11-04T14:36:26.000Z</time>
      </trkpt>
      <trkpt lat="47.18814" lon="3.19219">
        <ele>271.20281982422</ele>
        <time>2015-11-04T14:36:29.000Z</time>
      </trkpt>
      <trkpt lat="47.18813" lon="3.19221">
        <ele>271.15390014648</ele>
        <time>2015-11-04T14:36:32.000Z</time>
      </trkpt>
      <trkpt lat="47.18812" lon="3.19225">
        <ele>271.08288574219</ele>
        <time>2015-11-04T14:36:34.000Z</time>
      </trkpt>
      <trkpt lat="47.18811" lon="3.19227">
        <ele>271.0078125</ele>
        <time>2015-11-04T14:36:37.000Z</time>
      </trkpt>
      <trkpt lat="47.1881" lon="3.19229">
        <ele>270.92889404297</ele>
        <time>2015-11-04T14:36:39.000Z</time>
      </trkpt>
      <trkpt lat="47.18808" lon="3.19232">
        <ele>270.83404541016</ele>
        <time>2015-11-04T14:36:42.000Z</time>
      </trkpt>
      <trkpt lat="47.18807" lon="3.19235">
        <ele>270.73553466797</ele>
        <time>2015-11-04T14:36:44.000Z</time>
      </trkpt>
      <trkpt lat="47.18802" lon="3.19244">
        <ele>270.59930419922</ele>
        <time>2015-11-04T14:36:47.000Z</time>
      </trkpt>
      <trkpt lat="47.18799" lon="3.19248">
        <ele>270.44714355469</ele>
        <time>2015-11-04T14:36:50.000Z</time>
      </trkpt>
      <trkpt lat="47.18797" lon="3.19252">
        <ele>270.28375244141</ele>
        <time>2015-11-04T14:36:53.000Z</time>
      </trkpt>
      <trkpt lat="47.18795" lon="3.19255">
        <ele>270.11837768555</ele>
        <time>2015-11-04T14:36:55.000Z</time>
      </trkpt>
      <trkpt lat="47.18792" lon="3.1926">
        <ele>269.93350219727</ele>
        <time>2015-11-04T14:36:57.000Z</time>
      </trkpt>
      <trkpt lat="47.1879" lon="3.19263">
        <ele>269.79730224609</ele>
        <time>2015-11-04T14:37:00.000Z</time>
      </trkpt>
      <trkpt lat="47.18789" lon="3.19264">
        <ele>269.6848449707</ele>
        <time>2015-11-04T14:37:03.000Z</time>
      </trkpt>
      <trkpt lat="47.18788" lon="3.19265">
        <ele>269.58853149414</ele>
        <time>2015-11-04T14:37:06.000Z</time>
      </trkpt>
      <trkpt lat="47.18787" lon="3.19268">
        <ele>269.50006103516</ele>
        <time>2015-11-04T14:37:09.000Z</time>
      </trkpt>
      <trkpt lat="47.18784" lon="3.19273">
        <ele>269.41912841797</ele>
        <time>2015-11-04T14:37:11.000Z</time>
      </trkpt>
      <trkpt lat="47.18782" lon="3.19276">
        <ele>269.33932495117</ele>
        <time>2015-11-04T14:37:14.000Z</time>
      </trkpt>
      <trkpt lat="47.1878" lon="3.19278">
        <ele>269.25335693359</ele>
        <time>2015-11-04T14:37:17.000Z</time>
      </trkpt>
      <trkpt lat="47.18776" lon="3.19281">
        <ele>269.1672668457</ele>
        <time>2015-11-04T14:37:19.000Z</time>
      </trkpt>
      <trkpt lat="47.18773" lon="3.19284">
        <ele>269.08807373047</ele>
        <time>2015-11-04T14:37:22.000Z</time>
      </trkpt>
      <trkpt lat="47.18769" lon="3.19287">
        <ele>269.02508544922</ele>
        <time>2015-11-04T14:37:25.000Z</time>
      </trkpt>
      <trkpt lat="47.18767" lon="3.19291">
        <ele>268.96267700195</ele>
        <time>2015-11-04T14:37:28.000Z</time>
      </trkpt>
      <trkpt lat="47.18765" lon="3.19293">
        <ele>268.904296875</ele>
        <time>2015-11-04T14:37:31.000Z</time>
      </trkpt>
      <trkpt lat="47.18763" lon="3.19296">
        <ele>268.84588623047</ele>
        <time>2015-11-04T14:37:34.000Z</time>
      </trkpt>
      <trkpt lat="47.18761" lon="3.19298">
        <ele>268.7917175293</ele>
        <time>2015-11-04T14:37:36.000Z</time>
      </trkpt>
      <trkpt lat="47.1876" lon="3.193">
        <ele>268.74203491211</ele>
        <time>2015-11-04T14:37:39.000Z</time>
      </trkpt>
      <trkpt lat="47.18757" lon="3.19302">
        <ele>268.70330810547</ele>
        <time>2015-11-04T14:37:41.000Z</time>
      </trkpt>
      <trkpt lat="47.18755" lon="3.19304">
        <ele>268.67041015625</ele>
        <time>2015-11-04T14:37:44.000Z</time>
      </trkpt>
      <trkpt lat="47.18754" lon="3.19306">
        <ele>268.64465332031</ele>
        <time>2015-11-04T14:37:47.000Z</time>
      </trkpt>
      <trkpt lat="47.18752" lon="3.19308">
        <ele>268.61956787109</ele>
        <time>2015-11-04T14:37:49.000Z</time>
      </trkpt>
      <trkpt lat="47.18748" lon="3.19312">
        <ele>268.59017944336</ele>
        <time>2015-11-04T14:37:52.000Z</time>
      </trkpt>
      <trkpt lat="47.18745" lon="3.19316">
        <ele>268.54840087891</ele>
        <time>2015-11-04T14:37:55.000Z</time>
      </trkpt>
      <trkpt lat="47.18744" lon="3.19318">
        <ele>268.50180053711</ele>
        <time>2015-11-04T14:37:58.000Z</time>
      </trkpt>
      <trkpt lat="47.18742" lon="3.1932">
        <ele>268.4465637207</ele>
        <time>2015-11-04T14:38:00.000Z</time>
      </trkpt>
      <trkpt lat="47.1874" lon="3.19322">
        <ele>268.38980102539</ele>
        <time>2015-11-04T14:38:02.000Z</time>
      </trkpt>
      <trkpt lat="47.18737" lon="3.19325">
        <ele>268.33151245117</ele>
        <time>2015-11-04T14:38:05.000Z</time>
      </trkpt>
      <trkpt lat="47.18736" lon="3.19327">
        <ele>268.28009033203</ele>
        <time>2015-11-04T14:38:08.000Z</time>
      </trkpt>
      <trkpt lat="47.18734" lon="3.19329">
        <ele>268.2282409668</ele>
        <time>2015-11-04T14:38:11.000Z</time>
      </trkpt>
      <trkpt lat="47.18733" lon="3.1933">
        <ele>268.18170166016</ele>
        <time>2015-11-04T14:38:13.000Z</time>
      </trkpt>
      <trkpt lat="47.18732" lon="3.19331">
        <ele>268.13424682617</ele>
        <time>2015-11-04T14:38:16.000Z</time>
      </trkpt>
      <trkpt lat="47.18728" lon="3.19337">
        <ele>268.07019042969</ele>
        <time>2015-11-04T14:38:19.000Z</time>
      </trkpt>
      <trkpt lat="47.18727" lon="3.1934">
        <ele>268.00152587891</ele>
        <time>2015-11-04T14:38:22.000Z</time>
      </trkpt>
      <trkpt lat="47.18727" lon="3.19344">
        <ele>267.92669677734</ele>
        <time>2015-11-04T14:38:25.000Z</time>
      </trkpt>
      <trkpt lat="47.18724" lon="3.19348">
        <ele>267.83746337891</ele>
        <time>2015-11-04T14:38:28.000Z</time>
      </trkpt>
      <trkpt lat="47.18721" lon="3.19352">
        <ele>267.73889160156</ele>
        <time>2015-11-04T14:38:31.000Z</time>
      </trkpt>
      <trkpt lat="47.18716" lon="3.19356">
        <ele>267.65161132812</ele>
        <time>2015-11-04T14:38:34.000Z</time>
      </trkpt>
      <trkpt lat="47.18715" lon="3.19356">
        <ele>267.57702636719</ele>
        <time>2015-11-04T14:38:36.000Z</time>
      </trkpt>
      <trkpt lat="47.18713" lon="3.19356">
        <ele>267.51672363281</ele>
        <time>2015-11-04T14:38:38.000Z</time>
      </trkpt>
      <trkpt lat="47.18712" lon="3.19357">
        <ele>267.47375488281</ele>
        <time>2015-11-04T14:38:40.000Z</time>
      </trkpt>
      <trkpt lat="47.1871" lon="3.19356">
        <ele>267.45483398438</ele>
        <time>2015-11-04T14:38:43.000Z</time>
      </trkpt>
      <trkpt lat="47.18708" lon="3.19356">
        <ele>267.45300292969</ele>
        <time>2015-11-04T14:38:48.000Z</time>
      </trkpt>
      <trkpt lat="47.18704" lon="3.19357">
        <ele>267.44677734375</ele>
        <time>2015-11-04T14:38:50.000Z</time>
      </trkpt>
      <trkpt lat="47.18702" lon="3.19359">
        <ele>267.43310546875</ele>
        <time>2015-11-04T14:38:53.000Z</time>
      </trkpt>
      <trkpt lat="47.187" lon="3.1936">
        <ele>267.41906738281</ele>
        <time>2015-11-04T14:38:57.000Z</time>
      </trkpt>
      <trkpt lat="47.18697" lon="3.19363">
        <ele>267.38159179688</ele>
        <time>2015-11-04T14:38:59.000Z</time>
      </trkpt>
      <trkpt lat="47.18695" lon="3.19365">
        <ele>267.33801269531</ele>
        <time>2015-11-04T14:39:02.000Z</time>
      </trkpt>
      <trkpt lat="47.18692" lon="3.19366">
        <ele>267.29443359375</ele>
        <time>2015-11-04T14:39:04.000Z</time>
      </trkpt>
      <trkpt lat="47.18691" lon="3.19368">
        <ele>267.25012207031</ele>
        <time>2015-11-04T14:39:06.000Z</time>
      </trkpt>
      <trkpt lat="47.18689" lon="3.19371">
        <ele>267.193359375</ele>
        <time>2015-11-04T14:39:09.000Z</time>
      </trkpt>
      <trkpt lat="47.18686" lon="3.19375">
        <ele>267.14025878906</ele>
        <time>2015-11-04T14:39:12.000Z</time>
      </trkpt>
      <trkpt lat="47.18683" lon="3.19376">
        <ele>267.08752441406</ele>
        <time>2015-11-04T14:39:15.000Z</time>
      </trkpt>
      <trkpt lat="47.18682" lon="3.19377">
        <ele>267.03479003906</ele>
        <time>2015-11-04T14:39:17.000Z</time>
      </trkpt>
      <trkpt lat="47.18679" lon="3.19378">
        <ele>266.98657226562</ele>
        <time>2015-11-04T14:39:20.000Z</time>
      </trkpt>
      <trkpt lat="47.18675" lon="3.19383">
        <ele>266.93371582031</ele>
        <time>2015-11-04T14:39:23.000Z</time>
      </trkpt>
      <trkpt lat="47.18671" lon="3.19388">
        <ele>266.86755371094</ele>
        <time>2015-11-04T14:39:26.000Z</time>
      </trkpt>
      <trkpt lat="47.18668" lon="3.19391">
        <ele>266.79553222656</ele>
        <time>2015-11-04T14:39:28.000Z</time>
      </trkpt>
      <trkpt lat="47.18665" lon="3.19395">
        <ele>266.70465087891</ele>
        <time>2015-11-04T14:39:31.000Z</time>
      </trkpt>
      <trkpt lat="47.18663" lon="3.19398">
        <ele>266.59790039062</ele>
        <time>2015-11-04T14:39:34.000Z</time>
      </trkpt>
      <trkpt lat="47.18662" lon="3.19399">
        <ele>266.49526977539</ele>
        <time>2015-11-04T14:39:37.000Z</time>
      </trkpt>
      <trkpt lat="47.1866" lon="3.194">
        <ele>266.41162109375</ele>
        <time>2015-11-04T14:39:40.000Z</time>
      </trkpt>
      <trkpt lat="47.18659" lon="3.19401">
        <ele>266.32968139648</ele>
        <time>2015-11-04T14:39:43.000Z</time>
      </trkpt>
      <trkpt lat="47.18656" lon="3.19402">
        <ele>266.25378417969</ele>
        <time>2015-11-04T14:39:46.000Z</time>
      </trkpt>
      <trkpt lat="47.18651" lon="3.19404">
        <ele>266.16662597656</ele>
        <time>2015-11-04T14:39:49.000Z</time>
      </trkpt>
      <trkpt lat="47.18648" lon="3.19408">
        <ele>266.05966186523</ele>
        <time>2015-11-04T14:39:52.000Z</time>
      </trkpt>
      <trkpt lat="47.18645" lon="3.1941">
        <ele>265.93902587891</ele>
        <time>2015-11-04T14:39:55.000Z</time>
      </trkpt>
      <trkpt lat="47.18643" lon="3.19413">
        <ele>265.80615234375</ele>
        <time>2015-11-04T14:39:58.000Z</time>
      </trkpt>
      <trkpt lat="47.18641" lon="3.19415">
        <ele>265.66967773438</ele>
        <time>2015-11-04T14:40:01.000Z</time>
      </trkpt>
      <trkpt lat="47.18638" lon="3.19415">
        <ele>265.55029296875</ele>
        <time>2015-11-04T14:40:03.000Z</time>
      </trkpt>
      <trkpt lat="47.18635" lon="3.19417">
        <ele>265.44534301758</ele>
        <time>2015-11-04T14:40:06.000Z</time>
      </trkpt>
      <trkpt lat="47.18632" lon="3.19418">
        <ele>265.3310546875</ele>
        <time>2015-11-04T14:40:08.000Z</time>
      </trkpt>
      <trkpt lat="47.18627" lon="3.1942">
        <ele>265.20169067383</ele>
        <time>2015-11-04T14:40:11.000Z</time>
      </trkpt>
      <trkpt lat="47.18624" lon="3.19421">
        <ele>265.07275390625</ele>
        <time>2015-11-04T14:40:14.000Z</time>
      </trkpt>
      <trkpt lat="47.18622" lon="3.19421">
        <ele>264.95196533203</ele>
        <time>2015-11-04T14:40:17.000Z</time>
      </trkpt>
      <trkpt lat="47.1862" lon="3.1942">
        <ele>264.85235595703</ele>
        <time>2015-11-04T14:40:19.000Z</time>
      </trkpt>
      <trkpt lat="47.18618" lon="3.1942">
        <ele>264.78085327148</ele>
        <time>2015-11-04T14:40:22.000Z</time>
      </trkpt>
      <trkpt lat="47.18616" lon="3.19417">
        <ele>264.75137329102</ele>
        <time>2015-11-04T14:40:26.000Z</time>
      </trkpt>
      <trkpt lat="47.18615" lon="3.19416">
        <ele>264.74554443359</ele>
        <time>2015-11-04T14:40:29.000Z</time>
      </trkpt>
      <trkpt lat="47.18612" lon="3.19415">
        <ele>264.74554443359</ele>
        <time>2015-11-04T14:40:32.000Z</time>
      </trkpt>
      <trkpt lat="47.18611" lon="3.19416">
        <ele>264.73501586914</ele>
        <time>2015-11-04T14:40:36.000Z</time>
      </trkpt>
      <trkpt lat="47.18606" lon="3.19417">
        <ele>264.69277954102</ele>
        <time>2015-11-04T14:40:39.000Z</time>
      </trkpt>
      <trkpt lat="47.18601" lon="3.19419">
        <ele>264.61480712891</ele>
        <time>2015-11-04T14:40:42.000Z</time>
      </trkpt>
      <trkpt lat="47.18596" lon="3.19423">
        <ele>264.48736572266</ele>
        <time>2015-11-04T14:40:45.000Z</time>
      </trkpt>
      <trkpt lat="47.18594" lon="3.19425">
        <ele>264.3447265625</ele>
        <time>2015-11-04T14:40:48.000Z</time>
      </trkpt>
      <trkpt lat="47.18592" lon="3.19426">
        <ele>264.19613647461</ele>
        <time>2015-11-04T14:40:50.000Z</time>
      </trkpt>
      <trkpt lat="47.18589" lon="3.1943">
        <ele>264.04669189453</ele>
        <time>2015-11-04T14:40:53.000Z</time>
      </trkpt>
      <trkpt lat="47.18588" lon="3.19431">
        <ele>263.92205810547</ele>
        <time>2015-11-04T14:40:56.000Z</time>
      </trkpt>
      <trkpt lat="47.18583" lon="3.19435">
        <ele>263.80899047852</ele>
        <time>2015-11-04T14:40:59.000Z</time>
      </trkpt>
      <trkpt lat="47.1858" lon="3.19439">
        <ele>263.68957519531</ele>
        <time>2015-11-04T14:41:02.000Z</time>
      </trkpt>
      <trkpt lat="47.18574" lon="3.19447">
        <ele>263.53546142578</ele>
        <time>2015-11-04T14:41:05.000Z</time>
      </trkpt>
      <trkpt lat="47.18572" lon="3.1945">
        <ele>263.40054321289</ele>
        <time>2015-11-04T14:41:08.000Z</time>
      </trkpt>
      <trkpt lat="47.18567" lon="3.19455">
        <ele>263.23153686523</ele>
        <time>2015-11-04T14:41:11.000Z</time>
      </trkpt>
      <trkpt lat="47.18567" lon="3.19457">
        <ele>263.08843994141</ele>
        <time>2015-11-04T14:41:13.000Z</time>
      </trkpt>
      <trkpt lat="47.18561" lon="3.19467">
        <ele>262.89645385742</ele>
        <time>2015-11-04T14:41:16.000Z</time>
      </trkpt>
      <trkpt lat="47.18559" lon="3.19472">
        <ele>262.71307373047</ele>
        <time>2015-11-04T14:41:18.000Z</time>
      </trkpt>
      <trkpt lat="47.18558" lon="3.19476">
        <ele>262.52352905273</ele>
        <time>2015-11-04T14:41:20.000Z</time>
      </trkpt>
      <trkpt lat="47.18557" lon="3.19478">
        <ele>262.36056518555</ele>
        <time>2015-11-04T14:41:23.000Z</time>
      </trkpt>
      <trkpt lat="47.18555" lon="3.19479">
        <ele>262.19125366211</ele>
        <time>2015-11-04T14:41:25.000Z</time>
      </trkpt>
      <trkpt lat="47.18555" lon="3.19481">
        <ele>262.08285522461</ele>
        <time>2015-11-04T14:41:28.000Z</time>
      </trkpt>
      <trkpt lat="47.18552" lon="3.19485">
        <ele>261.98217773438</ele>
        <time>2015-11-04T14:41:32.000Z</time>
      </trkpt>
      <trkpt lat="47.1855" lon="3.19488">
        <ele>261.87213134766</ele>
        <time>2015-11-04T14:41:35.000Z</time>
      </trkpt>
      <trkpt lat="47.18549" lon="3.19492">
        <ele>261.74432373047</ele>
        <time>2015-11-04T14:41:38.000Z</time>
      </trkpt>
      <trkpt lat="47.18547" lon="3.19497">
        <ele>261.58984375</ele>
        <time>2015-11-04T14:41:41.000Z</time>
      </trkpt>
      <trkpt lat="47.18545" lon="3.19501">
        <ele>261.41439819336</ele>
        <time>2015-11-04T14:41:44.000Z</time>
      </trkpt>
      <trkpt lat="47.18543" lon="3.19503">
        <ele>261.23895263672</ele>
        <time>2015-11-04T14:41:47.000Z</time>
      </trkpt>
      <trkpt lat="47.18541" lon="3.19506">
        <ele>261.06207275391</ele>
        <time>2015-11-04T14:41:49.000Z</time>
      </trkpt>
      <trkpt lat="47.18538" lon="3.19512">
        <ele>260.86358642578</ele>
        <time>2015-11-04T14:41:52.000Z</time>
      </trkpt>
      <trkpt lat="47.18536" lon="3.19515">
        <ele>260.67471313477</ele>
        <time>2015-11-04T14:41:55.000Z</time>
      </trkpt>
      <trkpt lat="47.18535" lon="3.19518">
        <ele>260.48992919922</ele>
        <time>2015-11-04T14:41:58.000Z</time>
      </trkpt>
      <trkpt lat="47.18534" lon="3.19521">
        <ele>260.31585693359</ele>
        <time>2015-11-04T14:42:01.000Z</time>
      </trkpt>
      <trkpt lat="47.18531" lon="3.19523">
        <ele>260.15267944336</ele>
        <time>2015-11-04T14:42:04.000Z</time>
      </trkpt>
      <trkpt lat="47.18527" lon="3.19527">
        <ele>260.00210571289</ele>
        <time>2015-11-04T14:42:07.000Z</time>
      </trkpt>
      <trkpt lat="47.18525" lon="3.19529">
        <ele>259.86480712891</ele>
        <time>2015-11-04T14:42:10.000Z</time>
      </trkpt>
      <trkpt lat="47.18524" lon="3.1953">
        <ele>259.74468994141</ele>
        <time>2015-11-04T14:42:12.000Z</time>
      </trkpt>
      <trkpt lat="47.18521" lon="3.19531">
        <ele>259.63827514648</ele>
        <time>2015-11-04T14:42:15.000Z</time>
      </trkpt>
      <trkpt lat="47.1852" lon="3.19532">
        <ele>259.5478515625</ele>
        <time>2015-11-04T14:42:17.000Z</time>
      </trkpt>
      <trkpt lat="47.18518" lon="3.19534">
        <ele>259.47955322266</ele>
        <time>2015-11-04T14:42:20.000Z</time>
      </trkpt>
      <trkpt lat="47.18517" lon="3.19535">
        <ele>259.42141723633</ele>
        <time>2015-11-04T14:42:22.000Z</time>
      </trkpt>
      <trkpt lat="47.18515" lon="3.19536">
        <ele>259.36737060547</ele>
        <time>2015-11-04T14:42:26.000Z</time>
      </trkpt>
      <trkpt lat="47.18513" lon="3.19537">
        <ele>259.31204223633</ele>
        <time>2015-11-04T14:42:27.000Z</time>
      </trkpt>
      <trkpt lat="47.18508" lon="3.19541">
        <ele>259.23425292969</ele>
        <time>2015-11-04T14:42:30.000Z</time>
      </trkpt>
      <trkpt lat="47.18506" lon="3.19543">
        <ele>259.16613769531</ele>
        <time>2015-11-04T14:42:32.000Z</time>
      </trkpt>
      <trkpt lat="47.18502" lon="3.19544">
        <ele>259.09674072266</ele>
        <time>2015-11-04T14:42:35.000Z</time>
      </trkpt>
      <trkpt lat="47.18499" lon="3.19547">
        <ele>259.02651977539</ele>
        <time>2015-11-04T14:42:38.000Z</time>
      </trkpt>
      <trkpt lat="47.18497" lon="3.1955">
        <ele>258.97555541992</ele>
        <time>2015-11-04T14:42:41.000Z</time>
      </trkpt>
      <trkpt lat="47.18495" lon="3.19552">
        <ele>258.96466064453</ele>
        <time>2015-11-04T14:42:43.000Z</time>
      </trkpt>
      <trkpt lat="47.18493" lon="3.19554">
        <ele>258.97222900391</ele>
        <time>2015-11-04T14:42:45.000Z</time>
      </trkpt>
      <trkpt lat="47.18488" lon="3.19558">
        <ele>259.01843261719</ele>
        <time>2015-11-04T14:42:48.000Z</time>
      </trkpt>
      <trkpt lat="47.18486" lon="3.19561">
        <ele>259.08276367188</ele>
        <time>2015-11-04T14:42:50.000Z</time>
      </trkpt>
      <trkpt lat="47.18484" lon="3.19563">
        <ele>259.14123535156</ele>
        <time>2015-11-04T14:42:53.000Z</time>
      </trkpt>
      <trkpt lat="47.18483" lon="3.19565">
        <ele>259.193359375</ele>
        <time>2015-11-04T14:42:55.000Z</time>
      </trkpt>
      <trkpt lat="47.1848" lon="3.19569">
        <ele>259.24731445312</ele>
        <time>2015-11-04T14:42:58.000Z</time>
      </trkpt>
      <trkpt lat="47.18478" lon="3.19572">
        <ele>259.27954101562</ele>
        <time>2015-11-04T14:43:01.000Z</time>
      </trkpt>
      <trkpt lat="47.18473" lon="3.19576">
        <ele>259.32434082031</ele>
        <time>2015-11-04T14:43:04.000Z</time>
      </trkpt>
      <trkpt lat="47.18471" lon="3.19579">
        <ele>259.37451171875</ele>
        <time>2015-11-04T14:43:07.000Z</time>
      </trkpt>
      <trkpt lat="47.18468" lon="3.19583">
        <ele>259.4306640625</ele>
        <time>2015-11-04T14:43:10.000Z</time>
      </trkpt>
      <trkpt lat="47.18466" lon="3.19586">
        <ele>259.47119140625</ele>
        <time>2015-11-04T14:43:12.000Z</time>
      </trkpt>
      <trkpt lat="47.18464" lon="3.19588">
        <ele>259.50152587891</ele>
        <time>2015-11-04T14:43:14.000Z</time>
      </trkpt>
      <trkpt lat="47.18463" lon="3.19591">
        <ele>259.49349975586</ele>
        <time>2015-11-04T14:43:17.000Z</time>
      </trkpt>
      <trkpt lat="47.18462" lon="3.19594">
        <ele>259.46563720703</ele>
        <time>2015-11-04T14:43:19.000Z</time>
      </trkpt>
      <trkpt lat="47.1846" lon="3.19596">
        <ele>259.41583251953</ele>
        <time>2015-11-04T14:43:22.000Z</time>
      </trkpt>
      <trkpt lat="47.18459" lon="3.19597">
        <ele>259.37347412109</ele>
        <time>2015-11-04T14:43:24.000Z</time>
      </trkpt>
      <trkpt lat="47.18456" lon="3.196">
        <ele>259.33517456055</ele>
        <time>2015-11-04T14:43:27.000Z</time>
      </trkpt>
      <trkpt lat="47.18454" lon="3.19605">
        <ele>259.28231811523</ele>
        <time>2015-11-04T14:43:29.000Z</time>
      </trkpt>
      <trkpt lat="47.18452" lon="3.19609">
        <ele>259.20855712891</ele>
        <time>2015-11-04T14:43:32.000Z</time>
      </trkpt>
      <trkpt lat="47.18451" lon="3.19614">
        <ele>259.11242675781</ele>
        <time>2015-11-04T14:43:35.000Z</time>
      </trkpt>
      <trkpt lat="47.18451" lon="3.19616">
        <ele>258.99911499023</ele>
        <time>2015-11-04T14:43:37.000Z</time>
      </trkpt>
      <trkpt lat="47.18449" lon="3.1962">
        <ele>258.86532592773</ele>
        <time>2015-11-04T14:43:40.000Z</time>
      </trkpt>
      <trkpt lat="47.18447" lon="3.19624">
        <ele>258.72485351562</ele>
        <time>2015-11-04T14:43:42.000Z</time>
      </trkpt>
      <trkpt lat="47.18445" lon="3.19629">
        <ele>258.58197021484</ele>
        <time>2015-11-04T14:43:45.000Z</time>
      </trkpt>
      <trkpt lat="47.18443" lon="3.19634">
        <ele>258.43695068359</ele>
        <time>2015-11-04T14:43:48.000Z</time>
      </trkpt>
      <trkpt lat="47.1844" lon="3.19638">
        <ele>258.28042602539</ele>
        <time>2015-11-04T14:43:51.000Z</time>
      </trkpt>
      <trkpt lat="47.18439" lon="3.19641">
        <ele>258.11627197266</ele>
        <time>2015-11-04T14:43:54.000Z</time>
      </trkpt>
      <trkpt lat="47.18436" lon="3.19646">
        <ele>257.95877075195</ele>
        <time>2015-11-04T14:43:57.000Z</time>
      </trkpt>
      <trkpt lat="47.18436" lon="3.1965">
        <ele>257.79244995117</ele>
        <time>2015-11-04T14:44:00.000Z</time>
      </trkpt>
      <trkpt lat="47.18434" lon="3.19653">
        <ele>257.64196777344</ele>
        <time>2015-11-04T14:44:03.000Z</time>
      </trkpt>
      <trkpt lat="47.18433" lon="3.19655">
        <ele>257.50317382812</ele>
        <time>2015-11-04T14:44:05.000Z</time>
      </trkpt>
      <trkpt lat="47.18432" lon="3.19657">
        <ele>257.37466430664</ele>
        <time>2015-11-04T14:44:08.000Z</time>
      </trkpt>
      <trkpt lat="47.18429" lon="3.19661">
        <ele>257.25024414062</ele>
        <time>2015-11-04T14:44:11.000Z</time>
      </trkpt>
      <trkpt lat="47.18427" lon="3.19665">
        <ele>257.13491821289</ele>
        <time>2015-11-04T14:44:14.000Z</time>
      </trkpt>
      <trkpt lat="47.18427" lon="3.19668">
        <ele>257.01721191406</ele>
        <time>2015-11-04T14:44:17.000Z</time>
      </trkpt>
      <trkpt lat="47.18426" lon="3.1967">
        <ele>256.91259765625</ele>
        <time>2015-11-04T14:44:20.000Z</time>
      </trkpt>
      <trkpt lat="47.18426" lon="3.19671">
        <ele>256.82531738281</ele>
        <time>2015-11-04T14:44:24.000Z</time>
      </trkpt>
      <trkpt lat="47.18425" lon="3.19673">
        <ele>256.76239013672</ele>
        <time>2015-11-04T14:44:28.000Z</time>
      </trkpt>
      <trkpt lat="47.18424" lon="3.19678">
        <ele>256.72982788086</ele>
        <time>2015-11-04T14:44:31.000Z</time>
      </trkpt>
      <trkpt lat="47.18423" lon="3.19682">
        <ele>256.71252441406</ele>
        <time>2015-11-04T14:44:33.000Z</time>
      </trkpt>
      <trkpt lat="47.18423" lon="3.19687">
        <ele>256.68609619141</ele>
        <time>2015-11-04T14:44:36.000Z</time>
      </trkpt>
      <trkpt lat="47.18424" lon="3.19692">
        <ele>256.64953613281</ele>
        <time>2015-11-04T14:44:39.000Z</time>
      </trkpt>
      <trkpt lat="47.18423" lon="3.19694">
        <ele>256.61096191406</ele>
        <time>2015-11-04T14:44:41.000Z</time>
      </trkpt>
      <trkpt lat="47.18423" lon="3.19696">
        <ele>256.57653808594</ele>
        <time>2015-11-04T14:44:44.000Z</time>
      </trkpt>
      <trkpt lat="47.18422" lon="3.19698">
        <ele>256.54959106445</ele>
        <time>2015-11-04T14:44:48.000Z</time>
      </trkpt>
      <trkpt lat="47.18421" lon="3.197">
        <ele>256.53033447266</ele>
        <time>2015-11-04T14:44:56.000Z</time>
      </trkpt>
      <trkpt lat="47.18421" lon="3.19702">
        <ele>256.51754760742</ele>
        <time>2015-11-04T14:45:01.000Z</time>
      </trkpt>
      <trkpt lat="47.1842" lon="3.19704">
        <ele>256.50799560547</ele>
        <time>2015-11-04T14:45:03.000Z</time>
      </trkpt>
      <trkpt lat="47.1842" lon="3.19705">
        <ele>256.49957275391</ele>
        <time>2015-11-04T14:45:07.000Z</time>
      </trkpt>
      <trkpt lat="47.1842" lon="3.19708">
        <ele>256.48162841797</ele>
        <time>2015-11-04T14:45:27.000Z</time>
      </trkpt>
      <trkpt lat="47.18421" lon="3.19709">
        <ele>256.46166992188</ele>
        <time>2015-11-04T14:45:30.000Z</time>
      </trkpt>
      <trkpt lat="47.18421" lon="3.19709">
        <ele>256.46166992188</ele>
        <time>2015-11-04T14:45:50.000Z</time>
      </trkpt>
      <trkpt lat="47.18425" lon="3.19712">
        <ele>256.42590332031</ele>
        <time>2015-11-04T14:46:04.000Z</time>
      </trkpt>
      <trkpt lat="47.18428" lon="3.19714">
        <ele>256.37808227539</ele>
        <time>2015-11-04T14:46:08.000Z</time>
      </trkpt>
      <trkpt lat="47.18428" lon="3.19714">
        <ele>256.37808227539</ele>
        <time>2015-11-04T14:46:29.000Z</time>
      </trkpt>
      <trkpt lat="47.18425" lon="3.19718">
        <ele>256.3307800293</ele>
        <time>2015-11-04T14:46:42.000Z</time>
      </trkpt>
      <trkpt lat="47.18423" lon="3.19719">
        <ele>256.29522705078</ele>
        <time>2015-11-04T14:46:44.000Z</time>
      </trkpt>
      <trkpt lat="47.18423" lon="3.19719">
        <ele>256.29522705078</ele>
        <time>2015-11-04T14:47:04.000Z</time>
      </trkpt>
      <trkpt lat="47.18423" lon="3.19723">
        <ele>256.25439453125</ele>
        <time>2015-11-04T14:47:08.000Z</time>
      </trkpt>
      <trkpt lat="47.18424" lon="3.19726">
        <ele>256.22979736328</ele>
        <time>2015-11-04T14:47:11.000Z</time>
      </trkpt>
      <trkpt lat="47.18423" lon="3.19727">
        <ele>256.21795654297</ele>
        <time>2015-11-04T14:47:16.000Z</time>
      </trkpt>
      <trkpt lat="47.18422" lon="3.19725">
        <ele>256.21057128906</ele>
        <time>2015-11-04T14:47:19.000Z</time>
      </trkpt>
      <trkpt lat="47.18421" lon="3.19724">
        <ele>256.20657348633</ele>
        <time>2015-11-04T14:47:21.000Z</time>
      </trkpt>
      <trkpt lat="47.18421" lon="3.19723">
        <ele>256.21615600586</ele>
        <time>2015-11-04T14:47:29.000Z</time>
      </trkpt>
      <trkpt lat="47.18421" lon="3.19723">
        <ele>256.21615600586</ele>
        <time>2015-11-04T14:47:49.000Z</time>
      </trkpt>
      <trkpt lat="47.18417" lon="3.19712">
        <ele>256.27139282227</ele>
        <time>2015-11-04T14:48:10.000Z</time>
      </trkpt>
      <trkpt lat="47.18414" lon="3.19712">
        <ele>256.34048461914</ele>
        <time>2015-11-04T14:48:23.000Z</time>
      </trkpt>
      <trkpt lat="47.1841" lon="3.1971">
        <ele>256.42758178711</ele>
        <time>2015-11-04T14:48:30.000Z</time>
      </trkpt>
      <trkpt lat="47.18409" lon="3.19705">
        <ele>256.52349853516</ele>
        <time>2015-11-04T14:48:46.000Z</time>
      </trkpt>
      <trkpt lat="47.1841" lon="3.19707">
        <ele>256.60528564453</ele>
        <time>2015-11-04T14:48:50.000Z</time>
      </trkpt>
      <trkpt lat="47.18413" lon="3.19709">
        <ele>256.63073730469</ele>
        <time>2015-11-04T14:48:51.000Z</time>
      </trkpt>
      <trkpt lat="47.18416" lon="3.19712">
        <ele>256.61776733398</ele>
        <time>2015-11-04T14:48:54.000Z</time>
      </trkpt>
      <trkpt lat="47.18418" lon="3.19715">
        <ele>256.5673828125</ele>
        <time>2015-11-04T14:48:57.000Z</time>
      </trkpt>
      <trkpt lat="47.1842" lon="3.19717">
        <ele>256.48968505859</ele>
        <time>2015-11-04T14:49:00.000Z</time>
      </trkpt>
      <trkpt lat="47.18422" lon="3.19716">
        <ele>256.42147827148</ele>
        <time>2015-11-04T14:49:03.000Z</time>
      </trkpt>
      <trkpt lat="47.18425" lon="3.19715">
        <ele>256.36181640625</ele>
        <time>2015-11-04T14:49:09.000Z</time>
      </trkpt>
      <trkpt lat="47.18426" lon="3.19715">
        <ele>256.3203125</ele>
        <time>2015-11-04T14:49:23.000Z</time>
      </trkpt>
      <trkpt lat="47.18431" lon="3.19715">
        <ele>256.27597045898</ele>
        <time>2015-11-04T14:49:23.000Z</time>
      </trkpt>
      <trkpt lat="47.18433" lon="3.19716">
        <ele>256.23583984375</ele>
        <time>2015-11-04T14:49:23.000Z</time>
      </trkpt>
      <trkpt lat="47.18435" lon="3.19717">
        <ele>256.18914794922</ele>
        <time>2015-11-04T14:49:25.000Z</time>
      </trkpt>
      <trkpt lat="47.18435" lon="3.19719">
        <ele>256.14437866211</ele>
        <time>2015-11-04T14:49:27.000Z</time>
      </trkpt>
      <trkpt lat="47.18436" lon="3.19719">
        <ele>256.10195922852</ele>
        <time>2015-11-04T14:49:29.000Z</time>
      </trkpt>
      <trkpt lat="47.18439" lon="3.19726">
        <ele>256.05520629883</ele>
        <time>2015-11-04T14:49:34.000Z</time>
      </trkpt>
      <trkpt lat="47.1844" lon="3.1973">
        <ele>256.00698852539</ele>
        <time>2015-11-04T14:49:37.000Z</time>
      </trkpt>
      <trkpt lat="47.18441" lon="3.19733">
        <ele>255.95825195312</ele>
        <time>2015-11-04T14:49:39.000Z</time>
      </trkpt>
      <trkpt lat="47.18443" lon="3.19735">
        <ele>255.90576171875</ele>
        <time>2015-11-04T14:49:42.000Z</time>
      </trkpt>
      <trkpt lat="47.18444" lon="3.19736">
        <ele>255.85269165039</ele>
        <time>2015-11-04T14:49:44.000Z</time>
      </trkpt>
      <trkpt lat="47.18448" lon="3.19738">
        <ele>255.80725097656</ele>
        <time>2015-11-04T14:49:47.000Z</time>
      </trkpt>
      <trkpt lat="47.18451" lon="3.19739">
        <ele>255.76127624512</ele>
        <time>2015-11-04T14:49:50.000Z</time>
      </trkpt>
      <trkpt lat="47.18454" lon="3.19741">
        <ele>255.71516418457</ele>
        <time>2015-11-04T14:49:53.000Z</time>
      </trkpt>
      <trkpt lat="47.18455" lon="3.19743">
        <ele>255.67227172852</ele>
        <time>2015-11-04T14:49:55.000Z</time>
      </trkpt>
      <trkpt lat="47.18457" lon="3.19744">
        <ele>255.62683105469</ele>
        <time>2015-11-04T14:49:57.000Z</time>
      </trkpt>
      <trkpt lat="47.18462" lon="3.19746">
        <ele>255.58041381836</ele>
        <time>2015-11-04T14:50:00.000Z</time>
      </trkpt>
      <trkpt lat="47.18464" lon="3.19747">
        <ele>255.53793334961</ele>
        <time>2015-11-04T14:50:02.000Z</time>
      </trkpt>
      <trkpt lat="47.18466" lon="3.19747">
        <ele>255.49919128418</ele>
        <time>2015-11-04T14:50:04.000Z</time>
      </trkpt>
      <trkpt lat="47.18468" lon="3.19749">
        <ele>255.46044921875</ele>
        <time>2015-11-04T14:50:06.000Z</time>
      </trkpt>
      <trkpt lat="47.18469" lon="3.19749">
        <ele>255.42379760742</ele>
        <time>2015-11-04T14:50:08.000Z</time>
      </trkpt>
      <trkpt lat="47.1847" lon="3.19751">
        <ele>255.39477539062</ele>
        <time>2015-11-04T14:50:11.000Z</time>
      </trkpt>
      <trkpt lat="47.18471" lon="3.19754">
        <ele>255.36437988281</ele>
        <time>2015-11-04T14:50:14.000Z</time>
      </trkpt>
      <trkpt lat="47.18471" lon="3.19756">
        <ele>255.33647155762</ele>
        <time>2015-11-04T14:50:16.000Z</time>
      </trkpt>
      <trkpt lat="47.1847" lon="3.19757">
        <ele>255.31225585938</ele>
        <time>2015-11-04T14:50:19.000Z</time>
      </trkpt>
      <trkpt lat="47.18469" lon="3.19758">
        <ele>255.29219055176</ele>
        <time>2015-11-04T14:50:22.000Z</time>
      </trkpt>
      <trkpt lat="47.18468" lon="3.1976">
        <ele>255.27856445312</ele>
        <time>2015-11-04T14:50:25.000Z</time>
      </trkpt>
      <trkpt lat="47.18466" lon="3.19761">
        <ele>255.27502441406</ele>
        <time>2015-11-04T14:50:28.000Z</time>
      </trkpt>
      <trkpt lat="47.18464" lon="3.19763">
        <ele>255.27319335938</ele>
        <time>2015-11-04T14:50:32.000Z</time>
      </trkpt>
      <trkpt lat="47.18462" lon="3.19766">
        <ele>255.27128601074</ele>
        <time>2015-11-04T14:50:34.000Z</time>
      </trkpt>
      <trkpt lat="47.18459" lon="3.19769">
        <ele>255.2685546875</ele>
        <time>2015-11-04T14:50:36.000Z</time>
      </trkpt>
      <trkpt lat="47.18457" lon="3.19773">
        <ele>255.26342773438</ele>
        <time>2015-11-04T14:50:39.000Z</time>
      </trkpt>
      <trkpt lat="47.18456" lon="3.19775">
        <ele>255.25183105469</ele>
        <time>2015-11-04T14:50:41.000Z</time>
      </trkpt>
      <trkpt lat="47.18455" lon="3.1978">
        <ele>255.23213195801</ele>
        <time>2015-11-04T14:50:44.000Z</time>
      </trkpt>
      <trkpt lat="47.18454" lon="3.19784">
        <ele>255.208984375</ele>
        <time>2015-11-04T14:50:46.000Z</time>
      </trkpt>
      <trkpt lat="47.18451" lon="3.19789">
        <ele>255.18176269531</ele>
        <time>2015-11-04T14:50:48.000Z</time>
      </trkpt>
      <trkpt lat="47.1845" lon="3.19792">
        <ele>255.15107727051</ele>
        <time>2015-11-04T14:50:51.000Z</time>
      </trkpt>
      <trkpt lat="47.18449" lon="3.19795">
        <ele>255.12055969238</ele>
        <time>2015-11-04T14:50:53.000Z</time>
      </trkpt>
      <trkpt lat="47.18448" lon="3.19799">
        <ele>255.09326171875</ele>
        <time>2015-11-04T14:50:56.000Z</time>
      </trkpt>
      <trkpt lat="47.18447" lon="3.19802">
        <ele>255.06628417969</ele>
        <time>2015-11-04T14:50:59.000Z</time>
      </trkpt>
      <trkpt lat="47.18446" lon="3.1981">
        <ele>255.0283203125</ele>
        <time>2015-11-04T14:51:02.000Z</time>
      </trkpt>
      <trkpt lat="47.18444" lon="3.19812">
        <ele>254.994140625</ele>
        <time>2015-11-04T14:51:04.000Z</time>
      </trkpt>
      <trkpt lat="47.18443" lon="3.19817">
        <ele>254.95593261719</ele>
        <time>2015-11-04T14:51:07.000Z</time>
      </trkpt>
      <trkpt lat="47.18443" lon="3.19819">
        <ele>254.92053222656</ele>
        <time>2015-11-04T14:51:09.000Z</time>
      </trkpt>
      <trkpt lat="47.18442" lon="3.19822">
        <ele>254.88623046875</ele>
        <time>2015-11-04T14:51:12.000Z</time>
      </trkpt>
      <trkpt lat="47.18441" lon="3.19823">
        <ele>254.86596679688</ele>
        <time>2015-11-04T14:51:14.000Z</time>
      </trkpt>
      <trkpt lat="47.1844" lon="3.19825">
        <ele>254.84590148926</ele>
        <time>2015-11-04T14:51:16.000Z</time>
      </trkpt>
      <trkpt lat="47.18439" lon="3.19828">
        <ele>254.82934570312</ele>
        <time>2015-11-04T14:51:19.000Z</time>
      </trkpt>
      <trkpt lat="47.18439" lon="3.19829">
        <ele>254.81205749512</ele>
        <time>2015-11-04T14:51:21.000Z</time>
      </trkpt>
      <trkpt lat="47.18438" lon="3.19832">
        <ele>254.79423522949</ele>
        <time>2015-11-04T14:51:24.000Z</time>
      </trkpt>
      <trkpt lat="47.18437" lon="3.19836">
        <ele>254.77275085449</ele>
        <time>2015-11-04T14:51:27.000Z</time>
      </trkpt>
      <trkpt lat="47.18436" lon="3.19839">
        <ele>254.74685668945</ele>
        <time>2015-11-04T14:51:30.000Z</time>
      </trkpt>
      <trkpt lat="47.18431" lon="3.19851">
        <ele>254.70516967773</ele>
        <time>2015-11-04T14:51:33.000Z</time>
      </trkpt>
      <trkpt lat="47.18428" lon="3.19855">
        <ele>254.66361999512</ele>
        <time>2015-11-04T14:51:36.000Z</time>
      </trkpt>
      <trkpt lat="47.18424" lon="3.1986">
        <ele>254.62490844727</ele>
        <time>2015-11-04T14:51:39.000Z</time>
      </trkpt>
      <trkpt lat="47.18421" lon="3.19863">
        <ele>254.59443664551</ele>
        <time>2015-11-04T14:51:42.000Z</time>
      </trkpt>
      <trkpt lat="47.1842" lon="3.19864">
        <ele>254.57153320312</ele>
        <time>2015-11-04T14:51:44.000Z</time>
      </trkpt>
      <trkpt lat="47.18418" lon="3.19867">
        <ele>254.57015991211</ele>
        <time>2015-11-04T14:51:47.000Z</time>
      </trkpt>
      <trkpt lat="47.18417" lon="3.19869">
        <ele>254.56950378418</ele>
        <time>2015-11-04T14:51:49.000Z</time>
      </trkpt>
      <trkpt lat="47.18415" lon="3.19872">
        <ele>254.5673828125</ele>
        <time>2015-11-04T14:51:51.000Z</time>
      </trkpt>
      <trkpt lat="47.18413" lon="3.19876">
        <ele>254.56015014648</ele>
        <time>2015-11-04T14:51:54.000Z</time>
      </trkpt>
      <trkpt lat="47.18411" lon="3.19877">
        <ele>254.55337524414</ele>
        <time>2015-11-04T14:51:57.000Z</time>
      </trkpt>
      <trkpt lat="47.1841" lon="3.19879">
        <ele>254.54458618164</ele>
        <time>2015-11-04T14:51:59.000Z</time>
      </trkpt>
      <trkpt lat="47.18409" lon="3.19883">
        <ele>254.53063964844</ele>
        <time>2015-11-04T14:52:02.000Z</time>
      </trkpt>
      <trkpt lat="47.18408" lon="3.19887">
        <ele>254.51264953613</ele>
        <time>2015-11-04T14:52:05.000Z</time>
      </trkpt>
      <trkpt lat="47.18407" lon="3.19889">
        <ele>254.49548339844</ele>
        <time>2015-11-04T14:52:07.000Z</time>
      </trkpt>
      <trkpt lat="47.18406" lon="3.19891">
        <ele>254.47334289551</ele>
        <time>2015-11-04T14:52:10.000Z</time>
      </trkpt>
      <trkpt lat="47.18406" lon="3.19894">
        <ele>254.44804382324</ele>
        <time>2015-11-04T14:52:12.000Z</time>
      </trkpt>
      <trkpt lat="47.18405" lon="3.19897">
        <ele>254.42468261719</ele>
        <time>2015-11-04T14:52:14.000Z</time>
      </trkpt>
      <trkpt lat="47.18404" lon="3.19899">
        <ele>254.40478515625</ele>
        <time>2015-11-04T14:52:16.000Z</time>
      </trkpt>
      <trkpt lat="47.18403" lon="3.19903">
        <ele>254.38139343262</ele>
        <time>2015-11-04T14:52:19.000Z</time>
      </trkpt>
      <trkpt lat="47.18401" lon="3.19905">
        <ele>254.36152648926</ele>
        <time>2015-11-04T14:52:22.000Z</time>
      </trkpt>
      <trkpt lat="47.18399" lon="3.19907">
        <ele>254.34379577637</ele>
        <time>2015-11-04T14:52:25.000Z</time>
      </trkpt>
      <trkpt lat="47.18398" lon="3.1991">
        <ele>254.32922363281</ele>
        <time>2015-11-04T14:52:27.000Z</time>
      </trkpt>
      <trkpt lat="47.18395" lon="3.19914">
        <ele>254.31591796875</ele>
        <time>2015-11-04T14:52:30.000Z</time>
      </trkpt>
      <trkpt lat="47.18394" lon="3.19918">
        <ele>254.29516601562</ele>
        <time>2015-11-04T14:52:32.000Z</time>
      </trkpt>
      <trkpt lat="47.18393" lon="3.19922">
        <ele>254.23880004883</ele>
        <time>2015-11-04T14:52:34.000Z</time>
      </trkpt>
      <trkpt lat="47.18391" lon="3.19926">
        <ele>254.15469360352</ele>
        <time>2015-11-04T14:52:36.000Z</time>
      </trkpt>
      <trkpt lat="47.1839" lon="3.19929">
        <ele>254.05151367188</ele>
        <time>2015-11-04T14:52:39.000Z</time>
      </trkpt>
      <trkpt lat="47.18388" lon="3.19932">
        <ele>253.92546081543</ele>
        <time>2015-11-04T14:52:42.000Z</time>
      </trkpt>
      <trkpt lat="47.18386" lon="3.19935">
        <ele>253.79605102539</ele>
        <time>2015-11-04T14:52:44.000Z</time>
      </trkpt>
      <trkpt lat="47.18383" lon="3.19943">
        <ele>253.63838195801</ele>
        <time>2015-11-04T14:52:47.000Z</time>
      </trkpt>
      <trkpt lat="47.1838" lon="3.19952">
        <ele>253.44047546387</ele>
        <time>2015-11-04T14:52:50.000Z</time>
      </trkpt>
      <trkpt lat="47.18378" lon="3.19958">
        <ele>253.2258605957</ele>
        <time>2015-11-04T14:52:53.000Z</time>
      </trkpt>
      <trkpt lat="47.18377" lon="3.1996">
        <ele>253.02621459961</ele>
        <time>2015-11-04T14:52:55.000Z</time>
      </trkpt>
      <trkpt lat="47.18377" lon="3.19962">
        <ele>252.82563781738</ele>
        <time>2015-11-04T14:52:57.000Z</time>
      </trkpt>
      <trkpt lat="47.18377" lon="3.19967">
        <ele>252.64595031738</ele>
        <time>2015-11-04T14:53:00.000Z</time>
      </trkpt>
      <trkpt lat="47.18376" lon="3.1997">
        <ele>252.51762390137</ele>
        <time>2015-11-04T14:53:02.000Z</time>
      </trkpt>
      <trkpt lat="47.18374" lon="3.19974">
        <ele>252.39413452148</ele>
        <time>2015-11-04T14:53:05.000Z</time>
      </trkpt>
      <trkpt lat="47.18373" lon="3.19977">
        <ele>252.26142883301</ele>
        <time>2015-11-04T14:53:07.000Z</time>
      </trkpt>
      <trkpt lat="47.18371" lon="3.1998">
        <ele>252.13046264648</ele>
        <time>2015-11-04T14:53:10.000Z</time>
      </trkpt>
      <trkpt lat="47.18371" lon="3.19982">
        <ele>252.02963256836</ele>
        <time>2015-11-04T14:53:12.000Z</time>
      </trkpt>
      <trkpt lat="47.18368" lon="3.19986">
        <ele>251.9189453125</ele>
        <time>2015-11-04T14:53:15.000Z</time>
      </trkpt>
      <trkpt lat="47.18367" lon="3.19988">
        <ele>251.83659362793</ele>
        <time>2015-11-04T14:53:17.000Z</time>
      </trkpt>
      <trkpt lat="47.18364" lon="3.19996">
        <ele>251.72232055664</ele>
        <time>2015-11-04T14:53:20.000Z</time>
      </trkpt>
      <trkpt lat="47.18361" lon="3.20001">
        <ele>251.60208129883</ele>
        <time>2015-11-04T14:53:23.000Z</time>
      </trkpt>
      <trkpt lat="47.18361" lon="3.20003">
        <ele>251.49711608887</ele>
        <time>2015-11-04T14:53:26.000Z</time>
      </trkpt>
      <trkpt lat="47.18361" lon="3.20006">
        <ele>251.41903686523</ele>
        <time>2015-11-04T14:53:29.000Z</time>
      </trkpt>
      <trkpt lat="47.1836" lon="3.20009">
        <ele>251.34811401367</ele>
        <time>2015-11-04T14:53:32.000Z</time>
      </trkpt>
      <trkpt lat="47.18359" lon="3.20011">
        <ele>251.33114624023</ele>
        <time>2015-11-04T14:53:34.000Z</time>
      </trkpt>
      <trkpt lat="47.18357" lon="3.20015">
        <ele>251.34323120117</ele>
        <time>2015-11-04T14:53:37.000Z</time>
      </trkpt>
      <trkpt lat="47.18356" lon="3.20017">
        <ele>251.35818481445</ele>
        <time>2015-11-04T14:53:40.000Z</time>
      </trkpt>
      <trkpt lat="47.18354" lon="3.20025">
        <ele>251.38130187988</ele>
        <time>2015-11-04T14:53:43.000Z</time>
      </trkpt>
      <trkpt lat="47.18351" lon="3.2003">
        <ele>251.41316223145</ele>
        <time>2015-11-04T14:53:46.000Z</time>
      </trkpt>
      <trkpt lat="47.1835" lon="3.20035">
        <ele>251.44522094727</ele>
        <time>2015-11-04T14:53:49.000Z</time>
      </trkpt>
      <trkpt lat="47.18349" lon="3.20038">
        <ele>251.47492980957</ele>
        <time>2015-11-04T14:53:51.000Z</time>
      </trkpt>
      <trkpt lat="47.18348" lon="3.20041">
        <ele>251.50570678711</ele>
        <time>2015-11-04T14:53:53.000Z</time>
      </trkpt>
      <trkpt lat="47.18346" lon="3.20046">
        <ele>251.53813171387</ele>
        <time>2015-11-04T14:53:56.000Z</time>
      </trkpt>
      <trkpt lat="47.18346" lon="3.20048">
        <ele>251.56185913086</ele>
        <time>2015-11-04T14:53:59.000Z</time>
      </trkpt>
      <trkpt lat="47.18345" lon="3.2005">
        <ele>251.58715820312</ele>
        <time>2015-11-04T14:54:03.000Z</time>
      </trkpt>
      <trkpt lat="47.18343" lon="3.20056">
        <ele>251.62089538574</ele>
        <time>2015-11-04T14:54:06.000Z</time>
      </trkpt>
      <trkpt lat="47.1834" lon="3.2006">
        <ele>251.66874694824</ele>
        <time>2015-11-04T14:54:09.000Z</time>
      </trkpt>
      <trkpt lat="47.18339" lon="3.20062">
        <ele>251.7109375</ele>
        <time>2015-11-04T14:54:13.000Z</time>
      </trkpt>
      <trkpt lat="47.18337" lon="3.20066">
        <ele>251.76159667969</ele>
        <time>2015-11-04T14:54:15.000Z</time>
      </trkpt>
      <trkpt lat="47.18336" lon="3.20068">
        <ele>251.81884765625</ele>
        <time>2015-11-04T14:54:17.000Z</time>
      </trkpt>
      <trkpt lat="47.18333" lon="3.20075">
        <ele>251.87704467773</ele>
        <time>2015-11-04T14:54:20.000Z</time>
      </trkpt>
      <trkpt lat="47.1833" lon="3.20081">
        <ele>251.90837097168</ele>
        <time>2015-11-04T14:54:23.000Z</time>
      </trkpt>
      <trkpt lat="47.18327" lon="3.20089">
        <ele>251.89514160156</ele>
        <time>2015-11-04T14:54:26.000Z</time>
      </trkpt>
      <trkpt lat="47.18326" lon="3.20092">
        <ele>251.84530639648</ele>
        <time>2015-11-04T14:54:28.000Z</time>
      </trkpt>
      <trkpt lat="47.18325" lon="3.20095">
        <ele>251.76229858398</ele>
        <time>2015-11-04T14:54:30.000Z</time>
      </trkpt>
      <trkpt lat="47.18323" lon="3.20097">
        <ele>251.64863586426</ele>
        <time>2015-11-04T14:54:32.000Z</time>
      </trkpt>
      <trkpt lat="47.18321" lon="3.20099">
        <ele>251.52778625488</ele>
        <time>2015-11-04T14:54:34.000Z</time>
      </trkpt>
      <trkpt lat="47.1832" lon="3.20101">
        <ele>251.43469238281</ele>
        <time>2015-11-04T14:54:37.000Z</time>
      </trkpt>
      <trkpt lat="47.1832" lon="3.20105">
        <ele>251.33735656738</ele>
        <time>2015-11-04T14:54:40.000Z</time>
      </trkpt>
      <trkpt lat="47.1832" lon="3.20113">
        <ele>251.2154083252</ele>
        <time>2015-11-04T14:54:43.000Z</time>
      </trkpt>
      <trkpt lat="47.18319" lon="3.20117">
        <ele>251.08329772949</ele>
        <time>2015-11-04T14:54:46.000Z</time>
      </trkpt>
      <trkpt lat="47.18317" lon="3.20121">
        <ele>250.94091796875</ele>
        <time>2015-11-04T14:54:49.000Z</time>
      </trkpt>
      <trkpt lat="47.18316" lon="3.20124">
        <ele>250.78915405273</ele>
        <time>2015-11-04T14:54:52.000Z</time>
      </trkpt>
      <trkpt lat="47.18314" lon="3.20129">
        <ele>250.64157104492</ele>
        <time>2015-11-04T14:54:55.000Z</time>
      </trkpt>
      <trkpt lat="47.18313" lon="3.20134">
        <ele>250.51127624512</ele>
        <time>2015-11-04T14:54:57.000Z</time>
      </trkpt>
      <trkpt lat="47.18311" lon="3.20137">
        <ele>250.38981628418</ele>
        <time>2015-11-04T14:55:00.000Z</time>
      </trkpt>
      <trkpt lat="47.18309" lon="3.2014">
        <ele>250.27534484863</ele>
        <time>2015-11-04T14:55:03.000Z</time>
      </trkpt>
      <trkpt lat="47.18309" lon="3.20144">
        <ele>250.16206359863</ele>
        <time>2015-11-04T14:55:06.000Z</time>
      </trkpt>
      <trkpt lat="47.18307" lon="3.20148">
        <ele>250.05549621582</ele>
        <time>2015-11-04T14:55:09.000Z</time>
      </trkpt>
      <trkpt lat="47.18305" lon="3.2015">
        <ele>249.97045898438</ele>
        <time>2015-11-04T14:55:12.000Z</time>
      </trkpt>
      <trkpt lat="47.18303" lon="3.20152">
        <ele>249.89205932617</ele>
        <time>2015-11-04T14:55:14.000Z</time>
      </trkpt>
      <trkpt lat="47.18299" lon="3.20156">
        <ele>249.81604003906</ele>
        <time>2015-11-04T14:55:17.000Z</time>
      </trkpt>
      <trkpt lat="47.18299" lon="3.2016">
        <ele>249.74360656738</ele>
        <time>2015-11-04T14:55:20.000Z</time>
      </trkpt>
      <trkpt lat="47.18299" lon="3.20163">
        <ele>249.67390441895</ele>
        <time>2015-11-04T14:55:23.000Z</time>
      </trkpt>
      <trkpt lat="47.18298" lon="3.20168">
        <ele>249.59201049805</ele>
        <time>2015-11-04T14:55:26.000Z</time>
      </trkpt>
      <trkpt lat="47.18296" lon="3.20172">
        <ele>249.50427246094</ele>
        <time>2015-11-04T14:55:28.000Z</time>
      </trkpt>
      <trkpt lat="47.18293" lon="3.20179">
        <ele>249.40390014648</ele>
        <time>2015-11-04T14:55:31.000Z</time>
      </trkpt>
      <trkpt lat="47.18291" lon="3.20186">
        <ele>249.29370117188</ele>
        <time>2015-11-04T14:55:34.000Z</time>
      </trkpt>
      <trkpt lat="47.1829" lon="3.20189">
        <ele>249.19091796875</ele>
        <time>2015-11-04T14:55:36.000Z</time>
      </trkpt>
      <trkpt lat="47.18286" lon="3.20196">
        <ele>249.08386230469</ele>
        <time>2015-11-04T14:55:39.000Z</time>
      </trkpt>
      <trkpt lat="47.18284" lon="3.20201">
        <ele>248.97180175781</ele>
        <time>2015-11-04T14:55:42.000Z</time>
      </trkpt>
      <trkpt lat="47.18283" lon="3.20206">
        <ele>248.86853027344</ele>
        <time>2015-11-04T14:55:45.000Z</time>
      </trkpt>
      <trkpt lat="47.18283" lon="3.2021">
        <ele>248.77478027344</ele>
        <time>2015-11-04T14:55:48.000Z</time>
      </trkpt>
      <trkpt lat="47.18282" lon="3.20212">
        <ele>248.68359375</ele>
        <time>2015-11-04T14:55:50.000Z</time>
      </trkpt>
      <trkpt lat="47.18281" lon="3.20217">
        <ele>248.59301757812</ele>
        <time>2015-11-04T14:55:53.000Z</time>
      </trkpt>
      <trkpt lat="47.18279" lon="3.20221">
        <ele>248.50866699219</ele>
        <time>2015-11-04T14:55:57.000Z</time>
      </trkpt>
      <trkpt lat="47.18279" lon="3.20223">
        <ele>248.43505859375</ele>
        <time>2015-11-04T14:55:58.000Z</time>
      </trkpt>
      <trkpt lat="47.18278" lon="3.20229">
        <ele>248.35473632812</ele>
        <time>2015-11-04T14:56:01.000Z</time>
      </trkpt>
      <trkpt lat="47.18276" lon="3.20234">
        <ele>248.26098632812</ele>
        <time>2015-11-04T14:56:04.000Z</time>
      </trkpt>
      <trkpt lat="47.18275" lon="3.20238">
        <ele>248.17712402344</ele>
        <time>2015-11-04T14:56:06.000Z</time>
      </trkpt>
      <trkpt lat="47.18274" lon="3.2024">
        <ele>248.09716796875</ele>
        <time>2015-11-04T14:56:08.000Z</time>
      </trkpt>
      <trkpt lat="47.1827" lon="3.20247">
        <ele>248.00183105469</ele>
        <time>2015-11-04T14:56:12.000Z</time>
      </trkpt>
      <trkpt lat="47.18266" lon="3.20254">
        <ele>247.91018676758</ele>
        <time>2015-11-04T14:56:14.000Z</time>
      </trkpt>
      <trkpt lat="47.18266" lon="3.20258">
        <ele>247.8244934082</ele>
        <time>2015-11-04T14:56:17.000Z</time>
      </trkpt>
      <trkpt lat="47.18264" lon="3.20263">
        <ele>247.73132324219</ele>
        <time>2015-11-04T14:56:21.000Z</time>
      </trkpt>
      <trkpt lat="47.18264" lon="3.20268">
        <ele>247.62821960449</ele>
        <time>2015-11-04T14:56:22.000Z</time>
      </trkpt>
      <trkpt lat="47.18261" lon="3.20277">
        <ele>247.51522827148</ele>
        <time>2015-11-04T14:56:25.000Z</time>
      </trkpt>
      <trkpt lat="47.18259" lon="3.20281">
        <ele>247.40975952148</ele>
        <time>2015-11-04T14:56:27.000Z</time>
      </trkpt>
      <trkpt lat="47.18258" lon="3.20284">
        <ele>247.30624389648</ele>
        <time>2015-11-04T14:56:29.000Z</time>
      </trkpt>
      <trkpt lat="47.18257" lon="3.20289">
        <ele>247.20504760742</ele>
        <time>2015-11-04T14:56:32.000Z</time>
      </trkpt>
      <trkpt lat="47.18256" lon="3.20293">
        <ele>247.1083984375</ele>
        <time>2015-11-04T14:56:34.000Z</time>
      </trkpt>
      <trkpt lat="47.18254" lon="3.20297">
        <ele>247.02470397949</ele>
        <time>2015-11-04T14:56:37.000Z</time>
      </trkpt>
      <trkpt lat="47.18255" lon="3.20302">
        <ele>246.93481445312</ele>
        <time>2015-11-04T14:56:45.000Z</time>
      </trkpt>
      <trkpt lat="47.18254" lon="3.20303">
        <ele>246.84989929199</ele>
        <time>2015-11-04T14:56:47.000Z</time>
      </trkpt>
      <trkpt lat="47.18253" lon="3.20308">
        <ele>246.76440429688</ele>
        <time>2015-11-04T14:56:48.000Z</time>
      </trkpt>
      <trkpt lat="47.18253" lon="3.20314">
        <ele>246.66772460938</ele>
        <time>2015-11-04T14:56:51.000Z</time>
      </trkpt>
      <trkpt lat="47.18252" lon="3.20318">
        <ele>246.57405090332</ele>
        <time>2015-11-04T14:56:53.000Z</time>
      </trkpt>
      <trkpt lat="47.18252" lon="3.20321">
        <ele>246.48303222656</ele>
        <time>2015-11-04T14:56:57.000Z</time>
      </trkpt>
      <trkpt lat="47.1825" lon="3.20327">
        <ele>246.37553405762</ele>
        <time>2015-11-04T14:56:58.000Z</time>
      </trkpt>
      <trkpt lat="47.1825" lon="3.20333">
        <ele>246.25630187988</ele>
        <time>2015-11-04T14:57:01.000Z</time>
      </trkpt>
      <trkpt lat="47.1825" lon="3.20336">
        <ele>246.15170288086</ele>
        <time>2015-11-04T14:57:03.000Z</time>
      </trkpt>
      <trkpt lat="47.1825" lon="3.20337">
        <ele>246.05830383301</ele>
        <time>2015-11-04T14:57:05.000Z</time>
      </trkpt>
      <trkpt lat="47.18248" lon="3.20342">
        <ele>245.9634552002</ele>
        <time>2015-11-04T14:57:08.000Z</time>
      </trkpt>
      <trkpt lat="47.18247" lon="3.20345">
        <ele>245.87783813477</ele>
        <time>2015-11-04T14:57:11.000Z</time>
      </trkpt>
      <trkpt lat="47.18246" lon="3.20348">
        <ele>245.81088256836</ele>
        <time>2015-11-04T14:57:13.000Z</time>
      </trkpt>
      <trkpt lat="47.18245" lon="3.20351">
        <ele>245.74504089355</ele>
        <time>2015-11-04T14:57:15.000Z</time>
      </trkpt>
      <trkpt lat="47.18245" lon="3.20353">
        <ele>245.67568969727</ele>
        <time>2015-11-04T14:57:18.000Z</time>
      </trkpt>
      <trkpt lat="47.18244" lon="3.20357">
        <ele>245.60737609863</ele>
        <time>2015-11-04T14:57:21.000Z</time>
      </trkpt>
      <trkpt lat="47.18243" lon="3.20359">
        <ele>245.54760742188</ele>
        <time>2015-11-04T14:57:24.000Z</time>
      </trkpt>
      <trkpt lat="47.18242" lon="3.20363">
        <ele>245.4841003418</ele>
        <time>2015-11-04T14:57:27.000Z</time>
      </trkpt>
      <trkpt lat="47.18238" lon="3.20371">
        <ele>245.40902709961</ele>
        <time>2015-11-04T14:57:30.000Z</time>
      </trkpt>
      <trkpt lat="47.18237" lon="3.20374">
        <ele>245.33297729492</ele>
        <time>2015-11-04T14:57:32.000Z</time>
      </trkpt>
      <trkpt lat="47.18234" lon="3.20381">
        <ele>245.25578308105</ele>
        <time>2015-11-04T14:57:35.000Z</time>
      </trkpt>
      <trkpt lat="47.18233" lon="3.20384">
        <ele>245.1748046875</ele>
        <time>2015-11-04T14:57:37.000Z</time>
      </trkpt>
      <trkpt lat="47.18232" lon="3.20388">
        <ele>245.10078430176</ele>
        <time>2015-11-04T14:57:39.000Z</time>
      </trkpt>
      <trkpt lat="47.18231" lon="3.20392">
        <ele>245.03610229492</ele>
        <time>2015-11-04T14:57:42.000Z</time>
      </trkpt>
      <trkpt lat="47.18231" lon="3.20396">
        <ele>244.96865844727</ele>
        <time>2015-11-04T14:57:45.000Z</time>
      </trkpt>
      <trkpt lat="47.18231" lon="3.204">
        <ele>244.90438842773</ele>
        <time>2015-11-04T14:57:47.000Z</time>
      </trkpt>
      <trkpt lat="47.18233" lon="3.20403">
        <ele>244.83358764648</ele>
        <time>2015-11-04T14:57:49.000Z</time>
      </trkpt>
      <trkpt lat="47.18233" lon="3.20408">
        <ele>244.7492980957</ele>
        <time>2015-11-04T14:57:52.000Z</time>
      </trkpt>
      <trkpt lat="47.18233" lon="3.20411">
        <ele>244.66804504395</ele>
        <time>2015-11-04T14:57:54.000Z</time>
      </trkpt>
      <trkpt lat="47.18233" lon="3.20415">
        <ele>244.58804321289</ele>
        <time>2015-11-04T14:57:57.000Z</time>
      </trkpt>
      <trkpt lat="47.18233" lon="3.20421">
        <ele>244.52445983887</ele>
        <time>2015-11-04T14:58:00.000Z</time>
      </trkpt>
      <trkpt lat="47.18233" lon="3.20427">
        <ele>244.48457336426</ele>
        <time>2015-11-04T14:58:02.000Z</time>
      </trkpt>
      <trkpt lat="47.18233" lon="3.20431">
        <ele>244.47604370117</ele>
        <time>2015-11-04T14:58:05.000Z</time>
      </trkpt>
      <trkpt lat="47.18232" lon="3.20435">
        <ele>244.48840332031</ele>
        <time>2015-11-04T14:58:08.000Z</time>
      </trkpt>
      <trkpt lat="47.1823" lon="3.20439">
        <ele>244.52510070801</ele>
        <time>2015-11-04T14:58:11.000Z</time>
      </trkpt>
      <trkpt lat="47.18229" lon="3.20443">
        <ele>244.57113647461</ele>
        <time>2015-11-04T14:58:14.000Z</time>
      </trkpt>
      <trkpt lat="47.18227" lon="3.20444">
        <ele>244.61679077148</ele>
        <time>2015-11-04T14:58:16.000Z</time>
      </trkpt>
      <trkpt lat="47.18227" lon="3.20448">
        <ele>244.65835571289</ele>
        <time>2015-11-04T14:58:19.000Z</time>
      </trkpt>
      <trkpt lat="47.18225" lon="3.2045">
        <ele>244.69723510742</ele>
        <time>2015-11-04T14:58:21.000Z</time>
      </trkpt>
      <trkpt lat="47.18224" lon="3.20454">
        <ele>244.73197937012</ele>
        <time>2015-11-04T14:58:30.000Z</time>
      </trkpt>
      <trkpt lat="47.18222" lon="3.20458">
        <ele>244.76541137695</ele>
        <time>2015-11-04T14:58:31.000Z</time>
      </trkpt>
      <trkpt lat="47.18222" lon="3.2046">
        <ele>244.79341125488</ele>
        <time>2015-11-04T14:58:31.000Z</time>
      </trkpt>
      <trkpt lat="47.18221" lon="3.20465">
        <ele>244.82255554199</ele>
        <time>2015-11-04T14:58:32.000Z</time>
      </trkpt>
      <trkpt lat="47.1822" lon="3.20467">
        <ele>244.84794616699</ele>
        <time>2015-11-04T14:58:34.000Z</time>
      </trkpt>
      <trkpt lat="47.18219" lon="3.2047">
        <ele>244.87051391602</ele>
        <time>2015-11-04T14:58:37.000Z</time>
      </trkpt>
      <trkpt lat="47.18217" lon="3.20474">
        <ele>244.89033508301</ele>
        <time>2015-11-04T14:58:39.000Z</time>
      </trkpt>
      <trkpt lat="47.18215" lon="3.20476">
        <ele>244.91235351562</ele>
        <time>2015-11-04T14:58:41.000Z</time>
      </trkpt>
      <trkpt lat="47.18212" lon="3.20481">
        <ele>244.93412780762</ele>
        <time>2015-11-04T14:58:47.000Z</time>
      </trkpt>
      <trkpt lat="47.1821" lon="3.20484">
        <ele>244.95565795898</ele>
        <time>2015-11-04T14:58:47.000Z</time>
      </trkpt>
      <trkpt lat="47.18208" lon="3.20488">
        <ele>244.97367858887</ele>
        <time>2015-11-04T14:58:49.000Z</time>
      </trkpt>
      <trkpt lat="47.18205" lon="3.20495">
        <ele>244.98715209961</ele>
        <time>2015-11-04T14:58:52.000Z</time>
      </trkpt>
      <trkpt lat="47.18204" lon="3.20498">
        <ele>244.99661254883</ele>
        <time>2015-11-04T14:58:54.000Z</time>
      </trkpt>
      <trkpt lat="47.18202" lon="3.20502">
        <ele>244.99520874023</ele>
        <time>2015-11-04T14:59:07.000Z</time>
      </trkpt>
      <trkpt lat="47.182" lon="3.20505">
        <ele>244.978515625</ele>
        <time>2015-11-04T14:59:07.000Z</time>
      </trkpt>
      <trkpt lat="47.18199" lon="3.2051">
        <ele>244.9455871582</ele>
        <time>2015-11-04T14:59:07.000Z</time>
      </trkpt>
      <trkpt lat="47.18196" lon="3.20514">
        <ele>244.89965820312</ele>
        <time>2015-11-04T14:59:08.000Z</time>
      </trkpt>
      <trkpt lat="47.18194" lon="3.20518">
        <ele>244.84106445312</ele>
        <time>2015-11-04T14:59:08.000Z</time>
      </trkpt>
      <trkpt lat="47.18194" lon="3.20522">
        <ele>244.77676391602</ele>
        <time>2015-11-04T14:59:09.000Z</time>
      </trkpt>
      <trkpt lat="47.18193" lon="3.20528">
        <ele>244.70780944824</ele>
        <time>2015-11-04T14:59:12.000Z</time>
      </trkpt>
      <trkpt lat="47.18192" lon="3.20532">
        <ele>244.64106750488</ele>
        <time>2015-11-04T14:59:14.000Z</time>
      </trkpt>
      <trkpt lat="47.1819" lon="3.20536">
        <ele>244.57556152344</ele>
        <time>2015-11-04T14:59:17.000Z</time>
      </trkpt>
      <trkpt lat="47.18189" lon="3.20538">
        <ele>244.51834106445</ele>
        <time>2015-11-04T14:59:20.000Z</time>
      </trkpt>
      <trkpt lat="47.18188" lon="3.20539">
        <ele>244.46948242188</ele>
        <time>2015-11-04T14:59:22.000Z</time>
      </trkpt>
      <trkpt lat="47.18187" lon="3.20541">
        <ele>244.43461608887</ele>
        <time>2015-11-04T14:59:25.000Z</time>
      </trkpt>
      <trkpt lat="47.18185" lon="3.20544">
        <ele>244.40579223633</ele>
        <time>2015-11-04T14:59:27.000Z</time>
      </trkpt>
      <trkpt lat="47.18182" lon="3.20546">
        <ele>244.38374328613</ele>
        <time>2015-11-04T14:59:30.000Z</time>
      </trkpt>
      <trkpt lat="47.1818" lon="3.20548">
        <ele>244.3662109375</ele>
        <time>2015-11-04T14:59:33.000Z</time>
      </trkpt>
      <trkpt lat="47.18177" lon="3.20549">
        <ele>244.35336303711</ele>
        <time>2015-11-04T14:59:36.000Z</time>
      </trkpt>
      <trkpt lat="47.18176" lon="3.2055">
        <ele>244.34199523926</ele>
        <time>2015-11-04T14:59:38.000Z</time>
      </trkpt>
      <trkpt lat="47.18173" lon="3.20551">
        <ele>244.33938598633</ele>
        <time>2015-11-04T14:59:41.000Z</time>
      </trkpt>
      <trkpt lat="47.1817" lon="3.20552">
        <ele>244.34367370605</ele>
        <time>2015-11-04T14:59:44.000Z</time>
      </trkpt>
      <trkpt lat="47.18167" lon="3.20553">
        <ele>244.34809875488</ele>
        <time>2015-11-04T14:59:47.000Z</time>
      </trkpt>
      <trkpt lat="47.18164" lon="3.20557">
        <ele>244.29936218262</ele>
        <time>2015-11-04T14:59:49.000Z</time>
      </trkpt>
      <trkpt lat="47.1816" lon="3.20561">
        <ele>244.18452453613</ele>
        <time>2015-11-04T14:59:52.000Z</time>
      </trkpt>
      <trkpt lat="47.18158" lon="3.20564">
        <ele>244.0150604248</ele>
        <time>2015-11-04T14:59:55.000Z</time>
      </trkpt>
      <trkpt lat="47.18153" lon="3.2057">
        <ele>243.76982116699</ele>
        <time>2015-11-04T14:59:58.000Z</time>
      </trkpt>
      <trkpt lat="47.1815" lon="3.20577">
        <ele>243.46166992188</ele>
        <time>2015-11-04T15:00:01.000Z</time>
      </trkpt>
      <trkpt lat="47.18148" lon="3.20582">
        <ele>243.17684936523</ele>
        <time>2015-11-04T15:00:04.000Z</time>
      </trkpt>
      <trkpt lat="47.18147" lon="3.20585">
        <ele>242.91426086426</ele>
        <time>2015-11-04T15:00:07.000Z</time>
      </trkpt>
      <trkpt lat="47.18144" lon="3.20589">
        <ele>242.62666320801</ele>
        <time>2015-11-04T15:00:10.000Z</time>
      </trkpt>
      <trkpt lat="47.18143" lon="3.20592">
        <ele>242.3677520752</ele>
        <time>2015-11-04T15:00:13.000Z</time>
      </trkpt>
      <trkpt lat="47.18142" lon="3.20594">
        <ele>242.13171386719</ele>
        <time>2015-11-04T15:00:15.000Z</time>
      </trkpt>
      <trkpt lat="47.18142" lon="3.20597">
        <ele>241.8794708252</ele>
        <time>2015-11-04T15:00:17.000Z</time>
      </trkpt>
      <trkpt lat="47.18138" lon="3.20603">
        <ele>241.55453491211</ele>
        <time>2015-11-04T15:00:20.000Z</time>
      </trkpt>
      <trkpt lat="47.18136" lon="3.20609">
        <ele>241.21728515625</ele>
        <time>2015-11-04T15:00:23.000Z</time>
      </trkpt>
      <trkpt lat="47.18134" lon="3.20611">
        <ele>240.87023925781</ele>
        <time>2015-11-04T15:00:26.000Z</time>
      </trkpt>
      <trkpt lat="47.18132" lon="3.20613">
        <ele>240.51895141602</ele>
        <time>2015-11-04T15:00:28.000Z</time>
      </trkpt>
      <trkpt lat="47.1813" lon="3.20617">
        <ele>240.14404296875</ele>
        <time>2015-11-04T15:00:31.000Z</time>
      </trkpt>
      <trkpt lat="47.18129" lon="3.20621">
        <ele>239.82620239258</ele>
        <time>2015-11-04T15:00:33.000Z</time>
      </trkpt>
      <trkpt lat="47.18128" lon="3.20626">
        <ele>239.53381347656</ele>
        <time>2015-11-04T15:00:38.000Z</time>
      </trkpt>
      <trkpt lat="47.18129" lon="3.20633">
        <ele>239.23393249512</ele>
        <time>2015-11-04T15:00:39.000Z</time>
      </trkpt>
      <trkpt lat="47.18129" lon="3.20636">
        <ele>238.94387817383</ele>
        <time>2015-11-04T15:00:41.000Z</time>
      </trkpt>
      <trkpt lat="47.18129" lon="3.20642">
        <ele>238.65422058105</ele>
        <time>2015-11-04T15:00:44.000Z</time>
      </trkpt>
      <trkpt lat="47.18127" lon="3.20646">
        <ele>238.35830688477</ele>
        <time>2015-11-04T15:00:47.000Z</time>
      </trkpt>
      <trkpt lat="47.18126" lon="3.20651">
        <ele>238.05366516113</ele>
        <time>2015-11-04T15:00:50.000Z</time>
      </trkpt>
      <trkpt lat="47.18125" lon="3.20655">
        <ele>237.75796508789</ele>
        <time>2015-11-04T15:00:53.000Z</time>
      </trkpt>
      <trkpt lat="47.18123" lon="3.20655">
        <ele>237.47917175293</ele>
        <time>2015-11-04T15:01:04.000Z</time>
      </trkpt>
      <trkpt lat="47.18123" lon="3.20661">
        <ele>237.20429992676</ele>
        <time>2015-11-04T15:01:07.000Z</time>
      </trkpt>
      <trkpt lat="47.18123" lon="3.20664">
        <ele>236.96328735352</ele>
        <time>2015-11-04T15:01:09.000Z</time>
      </trkpt>
      <trkpt lat="47.18122" lon="3.20669">
        <ele>236.7240447998</ele>
        <time>2015-11-04T15:01:12.000Z</time>
      </trkpt>
      <trkpt lat="47.18121" lon="3.20671">
        <ele>236.50003051758</ele>
        <time>2015-11-04T15:01:14.000Z</time>
      </trkpt>
      <trkpt lat="47.1812" lon="3.20673">
        <ele>236.26962280273</ele>
        <time>2015-11-04T15:01:16.000Z</time>
      </trkpt>
      <trkpt lat="47.18119" lon="3.20675">
        <ele>236.07711791992</ele>
        <time>2015-11-04T15:01:19.000Z</time>
      </trkpt>
      <trkpt lat="47.1812" lon="3.20677">
        <ele>235.91284179688</ele>
        <time>2015-11-04T15:01:22.000Z</time>
      </trkpt>
      <trkpt lat="47.18119" lon="3.20679">
        <ele>235.78466796875</ele>
        <time>2015-11-04T15:01:24.000Z</time>
      </trkpt>
      <trkpt lat="47.18119" lon="3.20683">
        <ele>235.6513671875</ele>
        <time>2015-11-04T15:01:27.000Z</time>
      </trkpt>
      <trkpt lat="47.18116" lon="3.20687">
        <ele>235.4716796875</ele>
        <time>2015-11-04T15:01:30.000Z</time>
      </trkpt>
      <trkpt lat="47.18114" lon="3.20689">
        <ele>235.27001953125</ele>
        <time>2015-11-04T15:01:32.000Z</time>
      </trkpt>
      <trkpt lat="47.18111" lon="3.20694">
        <ele>234.99877929688</ele>
        <time>2015-11-04T15:01:35.000Z</time>
      </trkpt>
      <trkpt lat="47.18109" lon="3.20697">
        <ele>234.70361328125</ele>
        <time>2015-11-04T15:01:37.000Z</time>
      </trkpt>
      <trkpt lat="47.18106" lon="3.20702">
        <ele>234.37475585938</ele>
        <time>2015-11-04T15:01:40.000Z</time>
      </trkpt>
      <trkpt lat="47.18103" lon="3.20706">
        <ele>234.03759765625</ele>
        <time>2015-11-04T15:01:43.000Z</time>
      </trkpt>
      <trkpt lat="47.18101" lon="3.20708">
        <ele>233.70092773438</ele>
        <time>2015-11-04T15:01:46.000Z</time>
      </trkpt>
      <trkpt lat="47.18099" lon="3.2071">
        <ele>233.40234375</ele>
        <time>2015-11-04T15:01:48.000Z</time>
      </trkpt>
      <trkpt lat="47.18096" lon="3.20712">
        <ele>233.10375976562</ele>
        <time>2015-11-04T15:01:51.000Z</time>
      </trkpt>
      <trkpt lat="47.18094" lon="3.20715">
        <ele>232.8291015625</ele>
        <time>2015-11-04T15:01:53.000Z</time>
      </trkpt>
      <trkpt lat="47.1809" lon="3.20718">
        <ele>232.5556640625</ele>
        <time>2015-11-04T15:01:56.000Z</time>
      </trkpt>
      <trkpt lat="47.18088" lon="3.20719">
        <ele>232.29052734375</ele>
        <time>2015-11-04T15:01:58.000Z</time>
      </trkpt>
      <trkpt lat="47.18085" lon="3.20722">
        <ele>232.00317382812</ele>
        <time>2015-11-04T15:02:01.000Z</time>
      </trkpt>
      <trkpt lat="47.18082" lon="3.20722">
        <ele>231.74641418457</ele>
        <time>2015-11-04T15:02:04.000Z</time>
      </trkpt>
      <trkpt lat="47.1808" lon="3.20722">
        <ele>231.53158569336</ele>
        <time>2015-11-04T15:02:06.000Z</time>
      </trkpt>
      <trkpt lat="47.18076" lon="3.20726">
        <ele>231.33239746094</ele>
        <time>2015-11-04T15:02:09.000Z</time>
      </trkpt>
      <trkpt lat="47.18073" lon="3.20727">
        <ele>231.15344238281</ele>
        <time>2015-11-04T15:02:11.000Z</time>
      </trkpt>
      <trkpt lat="47.1807" lon="3.20731">
        <ele>230.98678588867</ele>
        <time>2015-11-04T15:02:14.000Z</time>
      </trkpt>
      <trkpt lat="47.18068" lon="3.20732">
        <ele>230.83169555664</ele>
        <time>2015-11-04T15:02:16.000Z</time>
      </trkpt>
      <trkpt lat="47.18066" lon="3.20733">
        <ele>230.66801452637</ele>
        <time>2015-11-04T15:02:18.000Z</time>
      </trkpt>
      <trkpt lat="47.1806" lon="3.20734">
        <ele>230.53446960449</ele>
        <time>2015-11-04T15:02:21.000Z</time>
      </trkpt>
      <trkpt lat="47.18057" lon="3.20736">
        <ele>230.39672851562</ele>
        <time>2015-11-04T15:02:23.000Z</time>
      </trkpt>
      <trkpt lat="47.18053" lon="3.20738">
        <ele>230.2790222168</ele>
        <time>2015-11-04T15:02:26.000Z</time>
      </trkpt>
      <trkpt lat="47.1805" lon="3.2074">
        <ele>230.1526184082</ele>
        <time>2015-11-04T15:02:29.000Z</time>
      </trkpt>
      <trkpt lat="47.18049" lon="3.20743">
        <ele>230.02607727051</ele>
        <time>2015-11-04T15:02:31.000Z</time>
      </trkpt>
      <trkpt lat="47.18046" lon="3.20748">
        <ele>229.89376831055</ele>
        <time>2015-11-04T15:02:34.000Z</time>
      </trkpt>
      <trkpt lat="47.18044" lon="3.20753">
        <ele>229.77111816406</ele>
        <time>2015-11-04T15:02:37.000Z</time>
      </trkpt>
      <trkpt lat="47.18043" lon="3.20755">
        <ele>229.6760559082</ele>
        <time>2015-11-04T15:02:39.000Z</time>
      </trkpt>
      <trkpt lat="47.1804" lon="3.2076">
        <ele>229.60598754883</ele>
        <time>2015-11-04T15:02:42.000Z</time>
      </trkpt>
      <trkpt lat="47.18037" lon="3.20766">
        <ele>229.55683898926</ele>
        <time>2015-11-04T15:02:45.000Z</time>
      </trkpt>
      <trkpt lat="47.18034" lon="3.20769">
        <ele>229.54328918457</ele>
        <time>2015-11-04T15:02:48.000Z</time>
      </trkpt>
      <trkpt lat="47.18031" lon="3.20771">
        <ele>229.54069519043</ele>
        <time>2015-11-04T15:02:51.000Z</time>
      </trkpt>
      <trkpt lat="47.18029" lon="3.20773">
        <ele>229.53677368164</ele>
        <time>2015-11-04T15:02:54.000Z</time>
      </trkpt>
      <trkpt lat="47.18026" lon="3.20775">
        <ele>229.53201293945</ele>
        <time>2015-11-04T15:02:56.000Z</time>
      </trkpt>
      <trkpt lat="47.18025" lon="3.20776">
        <ele>229.525390625</ele>
        <time>2015-11-04T15:02:58.000Z</time>
      </trkpt>
      <trkpt lat="47.18022" lon="3.20777">
        <ele>229.5179901123</ele>
        <time>2015-11-04T15:03:01.000Z</time>
      </trkpt>
      <trkpt lat="47.18019" lon="3.20778">
        <ele>229.51138305664</ele>
        <time>2015-11-04T15:03:03.000Z</time>
      </trkpt>
      <trkpt lat="47.18017" lon="3.20779">
        <ele>229.50207519531</ele>
        <time>2015-11-04T15:03:06.000Z</time>
      </trkpt>
      <trkpt lat="47.18015" lon="3.20779">
        <ele>229.49182128906</ele>
        <time>2015-11-04T15:03:09.000Z</time>
      </trkpt>
      <trkpt lat="47.18011" lon="3.2078">
        <ele>229.47729492188</ele>
        <time>2015-11-04T15:03:12.000Z</time>
      </trkpt>
      <trkpt lat="47.1801" lon="3.2078">
        <ele>229.46318054199</ele>
        <time>2015-11-04T15:03:14.000Z</time>
      </trkpt>
      <trkpt lat="47.18008" lon="3.20782">
        <ele>229.45222473145</ele>
        <time>2015-11-04T15:03:17.000Z</time>
      </trkpt>
      <trkpt lat="47.18005" lon="3.20783">
        <ele>229.44287109375</ele>
        <time>2015-11-04T15:03:19.000Z</time>
      </trkpt>
      <trkpt lat="47.18002" lon="3.20783">
        <ele>229.43193054199</ele>
        <time>2015-11-04T15:03:21.000Z</time>
      </trkpt>
      <trkpt lat="47.17999" lon="3.20785">
        <ele>229.42395019531</ele>
        <time>2015-11-04T15:03:24.000Z</time>
      </trkpt>
      <trkpt lat="47.17997" lon="3.20787">
        <ele>229.41743469238</ele>
        <time>2015-11-04T15:03:26.000Z</time>
      </trkpt>
      <trkpt lat="47.17992" lon="3.20789">
        <ele>229.40446472168</ele>
        <time>2015-11-04T15:03:29.000Z</time>
      </trkpt>
      <trkpt lat="47.1799" lon="3.20791">
        <ele>229.39248657227</ele>
        <time>2015-11-04T15:03:31.000Z</time>
      </trkpt>
      <trkpt lat="47.17988" lon="3.20795">
        <ele>229.39218139648</ele>
        <time>2015-11-04T15:03:34.000Z</time>
      </trkpt>
      <trkpt lat="47.17985" lon="3.20801">
        <ele>229.40576171875</ele>
        <time>2015-11-04T15:03:36.000Z</time>
      </trkpt>
      <trkpt lat="47.17981" lon="3.20807">
        <ele>229.43399047852</ele>
        <time>2015-11-04T15:03:38.000Z</time>
      </trkpt>
      <trkpt lat="47.17979" lon="3.20814">
        <ele>229.48886108398</ele>
        <time>2015-11-04T15:03:41.000Z</time>
      </trkpt>
      <trkpt lat="47.17977" lon="3.20819">
        <ele>229.5609588623</ele>
        <time>2015-11-04T15:03:44.000Z</time>
      </trkpt>
      <trkpt lat="47.17975" lon="3.20822">
        <ele>229.63394165039</ele>
        <time>2015-11-04T15:03:47.000Z</time>
      </trkpt>
      <trkpt lat="47.17974" lon="3.20825">
        <ele>229.70536804199</ele>
        <time>2015-11-04T15:03:49.000Z</time>
      </trkpt>
      <trkpt lat="47.17973" lon="3.20829">
        <ele>229.77807617188</ele>
        <time>2015-11-04T15:03:52.000Z</time>
      </trkpt>
      <trkpt lat="47.17972" lon="3.20832">
        <ele>229.84245300293</ele>
        <time>2015-11-04T15:03:54.000Z</time>
      </trkpt>
      <trkpt lat="47.1797" lon="3.20837">
        <ele>229.92985534668</ele>
        <time>2015-11-04T15:03:57.000Z</time>
      </trkpt>
      <trkpt lat="47.17968" lon="3.20842">
        <ele>230.06391906738</ele>
        <time>2015-11-04T15:04:00.000Z</time>
      </trkpt>
      <trkpt lat="47.17965" lon="3.20848">
        <ele>230.24557495117</ele>
        <time>2015-11-04T15:04:02.000Z</time>
      </trkpt>
      <trkpt lat="47.17964" lon="3.20852">
        <ele>230.45478820801</ele>
        <time>2015-11-04T15:04:04.000Z</time>
      </trkpt>
      <trkpt lat="47.17962" lon="3.20857">
        <ele>230.70349121094</ele>
        <time>2015-11-04T15:04:07.000Z</time>
      </trkpt>
      <trkpt lat="47.1796" lon="3.20862">
        <ele>230.97744750977</ele>
        <time>2015-11-04T15:04:10.000Z</time>
      </trkpt>
      <trkpt lat="47.17958" lon="3.20868">
        <ele>231.259765625</ele>
        <time>2015-11-04T15:04:13.000Z</time>
      </trkpt>
      <trkpt lat="47.17956" lon="3.20873">
        <ele>231.54928588867</ele>
        <time>2015-11-04T15:04:16.000Z</time>
      </trkpt>
      <trkpt lat="47.17955" lon="3.20878">
        <ele>231.85763549805</ele>
        <time>2015-11-04T15:04:19.000Z</time>
      </trkpt>
      <trkpt lat="47.17954" lon="3.20884">
        <ele>232.18412780762</ele>
        <time>2015-11-04T15:04:22.000Z</time>
      </trkpt>
      <trkpt lat="47.17953" lon="3.20888">
        <ele>232.48979187012</ele>
        <time>2015-11-04T15:04:24.000Z</time>
      </trkpt>
      <trkpt lat="47.17953" lon="3.20892">
        <ele>232.78080749512</ele>
        <time>2015-11-04T15:04:27.000Z</time>
      </trkpt>
      <trkpt lat="47.17952" lon="3.20896">
        <ele>233.0475769043</ele>
        <time>2015-11-04T15:04:30.000Z</time>
      </trkpt>
      <trkpt lat="47.17952" lon="3.20897">
        <ele>233.27621459961</ele>
        <time>2015-11-04T15:04:32.000Z</time>
      </trkpt>
      <trkpt lat="47.17951" lon="3.20904">
        <ele>233.51083374023</ele>
        <time>2015-11-04T15:04:35.000Z</time>
      </trkpt>
      <trkpt lat="47.1795" lon="3.20908">
        <ele>233.75288391113</ele>
        <time>2015-11-04T15:04:37.000Z</time>
      </trkpt>
      <trkpt lat="47.17949" lon="3.2091">
        <ele>233.98796081543</ele>
        <time>2015-11-04T15:04:39.000Z</time>
      </trkpt>
      <trkpt lat="47.17947" lon="3.20914">
        <ele>234.23107910156</ele>
        <time>2015-11-04T15:04:42.000Z</time>
      </trkpt>
      <trkpt lat="47.17947" lon="3.20916">
        <ele>234.48007202148</ele>
        <time>2015-11-04T15:04:44.000Z</time>
      </trkpt>
      <trkpt lat="47.17946" lon="3.2092">
        <ele>234.74238586426</ele>
        <time>2015-11-04T15:04:46.000Z</time>
      </trkpt>
      <trkpt lat="47.17946" lon="3.20924">
        <ele>235.03202819824</ele>
        <time>2015-11-04T15:04:48.000Z</time>
      </trkpt>
      <trkpt lat="47.17944" lon="3.2093">
        <ele>235.42045593262</ele>
        <time>2015-11-04T15:04:51.000Z</time>
      </trkpt>
      <trkpt lat="47.17942" lon="3.20934">
        <ele>235.85668945312</ele>
        <time>2015-11-04T15:04:54.000Z</time>
      </trkpt>
      <trkpt lat="47.1794" lon="3.20938">
        <ele>236.36181640625</ele>
        <time>2015-11-04T15:04:57.000Z</time>
      </trkpt>
      <trkpt lat="47.17937" lon="3.20941">
        <ele>236.87983703613</ele>
        <time>2015-11-04T15:05:00.000Z</time>
      </trkpt>
      <trkpt lat="47.17937" lon="3.20943">
        <ele>237.35810852051</ele>
        <time>2015-11-04T15:05:02.000Z</time>
      </trkpt>
      <trkpt lat="47.17934" lon="3.20947">
        <ele>237.79479980469</ele>
        <time>2015-11-04T15:05:05.000Z</time>
      </trkpt>
      <trkpt lat="47.17931" lon="3.20951">
        <ele>238.25769042969</ele>
        <time>2015-11-04T15:05:08.000Z</time>
      </trkpt>
      <trkpt lat="47.17929" lon="3.20955">
        <ele>238.72294616699</ele>
        <time>2015-11-04T15:05:11.000Z</time>
      </trkpt>
      <trkpt lat="47.17927" lon="3.20959">
        <ele>239.17485046387</ele>
        <time>2015-11-04T15:05:14.000Z</time>
      </trkpt>
      <trkpt lat="47.17924" lon="3.20961">
        <ele>239.64782714844</ele>
        <time>2015-11-04T15:05:16.000Z</time>
      </trkpt>
      <trkpt lat="47.17922" lon="3.20963">
        <ele>240.07666015625</ele>
        <time>2015-11-04T15:05:18.000Z</time>
      </trkpt>
      <trkpt lat="47.17918" lon="3.20966">
        <ele>240.47802734375</ele>
        <time>2015-11-04T15:05:24.000Z</time>
      </trkpt>
      <trkpt lat="47.17915" lon="3.20967">
        <ele>240.81929016113</ele>
        <time>2015-11-04T15:05:24.000Z</time>
      </trkpt>
      <trkpt lat="47.17912" lon="3.20968">
        <ele>241.08447265625</ele>
        <time>2015-11-04T15:05:26.000Z</time>
      </trkpt>
      <trkpt lat="47.1791" lon="3.20969">
        <ele>241.30952453613</ele>
        <time>2015-11-04T15:05:28.000Z</time>
      </trkpt>
      <trkpt lat="47.17907" lon="3.20969">
        <ele>241.48806762695</ele>
        <time>2015-11-04T15:05:32.000Z</time>
      </trkpt>
      <trkpt lat="47.17905" lon="3.20971">
        <ele>241.60273742676</ele>
        <time>2015-11-04T15:05:33.000Z</time>
      </trkpt>
      <trkpt lat="47.17903" lon="3.20973">
        <ele>241.72367858887</ele>
        <time>2015-11-04T15:05:35.000Z</time>
      </trkpt>
      <trkpt lat="47.17901" lon="3.20976">
        <ele>241.8844909668</ele>
        <time>2015-11-04T15:05:37.000Z</time>
      </trkpt>
      <trkpt lat="47.17898" lon="3.20976">
        <ele>242.04019165039</ele>
        <time>2015-11-04T15:05:40.000Z</time>
      </trkpt>
      <trkpt lat="47.17895" lon="3.20976">
        <ele>242.18124389648</ele>
        <time>2015-11-04T15:05:42.000Z</time>
      </trkpt>
      <trkpt lat="47.17892" lon="3.20978">
        <ele>242.32022094727</ele>
        <time>2015-11-04T15:05:45.000Z</time>
      </trkpt>
      <trkpt lat="47.17889" lon="3.20978">
        <ele>242.4248046875</ele>
        <time>2015-11-04T15:05:49.000Z</time>
      </trkpt>
      <trkpt lat="47.17887" lon="3.20978">
        <ele>242.46878051758</ele>
        <time>2015-11-04T15:05:51.000Z</time>
      </trkpt>
      <trkpt lat="47.17884" lon="3.20978">
        <ele>242.49490356445</ele>
        <time>2015-11-04T15:05:53.000Z</time>
      </trkpt>
      <trkpt lat="47.1788" lon="3.20978">
        <ele>242.53471374512</ele>
        <time>2015-11-04T15:05:56.000Z</time>
      </trkpt>
      <trkpt lat="47.17878" lon="3.20979">
        <ele>242.55754089355</ele>
        <time>2015-11-04T15:05:58.000Z</time>
      </trkpt>
      <trkpt lat="47.17875" lon="3.2098">
        <ele>242.58889770508</ele>
        <time>2015-11-04T15:06:01.000Z</time>
      </trkpt>
      <trkpt lat="47.17873" lon="3.20981">
        <ele>242.64526367188</ele>
        <time>2015-11-04T15:06:04.000Z</time>
      </trkpt>
      <trkpt lat="47.17871" lon="3.20981">
        <ele>242.70109558105</ele>
        <time>2015-11-04T15:06:07.000Z</time>
      </trkpt>
      <trkpt lat="47.17871" lon="3.20981">
        <ele>242.70109558105</ele>
        <time>2015-11-04T15:06:28.000Z</time>
      </trkpt>
      <trkpt lat="47.17872" lon="3.20983">
        <ele>242.78974914551</ele>
        <time>2015-11-04T15:06:55.000Z</time>
      </trkpt>
      <trkpt lat="47.17872" lon="3.20983">
        <ele>242.78974914551</ele>
        <time>2015-11-04T15:07:16.000Z</time>
      </trkpt>
      <trkpt lat="47.17871" lon="3.20983">
        <ele>242.86807250977</ele>
        <time>2015-11-04T15:08:57.000Z</time>
      </trkpt>
      <trkpt lat="47.17871" lon="3.20981">
        <ele>242.89347839355</ele>
        <time>2015-11-04T15:09:03.000Z</time>
      </trkpt>
      <trkpt lat="47.17871" lon="3.20981">
        <ele>242.89347839355</ele>
        <time>2015-11-04T15:09:24.000Z</time>
      </trkpt>
      <trkpt lat="47.17872" lon="3.20982">
        <ele>242.92504882812</ele>
        <time>2015-11-04T15:09:53.000Z</time>
      </trkpt>
      <trkpt lat="47.17872" lon="3.20982">
        <ele>242.92504882812</ele>
        <time>2015-11-04T15:10:13.000Z</time>
      </trkpt>
      <trkpt lat="47.1787" lon="3.20981">
        <ele>242.93334960938</ele>
        <time>2015-11-04T15:10:19.000Z</time>
      </trkpt>
      <trkpt lat="47.17869" lon="3.2098">
        <ele>242.86764526367</ele>
        <time>2015-11-04T15:10:28.000Z</time>
      </trkpt>
      <trkpt lat="47.17868" lon="3.20979">
        <ele>242.78002929688</ele>
        <time>2015-11-04T15:10:30.000Z</time>
      </trkpt>
      <trkpt lat="47.17865" lon="3.20979">
        <ele>242.72561645508</ele>
        <time>2015-11-04T15:10:33.000Z</time>
      </trkpt>
      <trkpt lat="47.17862" lon="3.20979">
        <ele>242.65226745605</ele>
        <time>2015-11-04T15:10:35.000Z</time>
      </trkpt>
      <trkpt lat="47.1786" lon="3.20979">
        <ele>242.59594726562</ele>
        <time>2015-11-04T15:10:38.000Z</time>
      </trkpt>
      <trkpt lat="47.17858" lon="3.20979">
        <ele>242.56677246094</ele>
        <time>2015-11-04T15:10:40.000Z</time>
      </trkpt>
      <trkpt lat="47.17854" lon="3.20979">
        <ele>242.56338500977</ele>
        <time>2015-11-04T15:10:43.000Z</time>
      </trkpt>
      <trkpt lat="47.17851" lon="3.20979">
        <ele>242.5570526123</ele>
        <time>2015-11-04T15:10:46.000Z</time>
      </trkpt>
      <trkpt lat="47.17848" lon="3.2098">
        <ele>242.56079101562</ele>
        <time>2015-11-04T15:10:48.000Z</time>
      </trkpt>
      <trkpt lat="47.17845" lon="3.20981">
        <ele>242.59896850586</ele>
        <time>2015-11-04T15:10:51.000Z</time>
      </trkpt>
      <trkpt lat="47.17844" lon="3.20981">
        <ele>242.65115356445</ele>
        <time>2015-11-04T15:10:53.000Z</time>
      </trkpt>
      <trkpt lat="47.17841" lon="3.20983">
        <ele>242.72534179688</ele>
        <time>2015-11-04T15:10:56.000Z</time>
      </trkpt>
      <trkpt lat="47.17839" lon="3.20983">
        <ele>242.81840515137</ele>
        <time>2015-11-04T15:10:58.000Z</time>
      </trkpt>
      <trkpt lat="47.17834" lon="3.20983">
        <ele>242.89511108398</ele>
        <time>2015-11-04T15:11:01.000Z</time>
      </trkpt>
      <trkpt lat="47.1783" lon="3.20985">
        <ele>242.96072387695</ele>
        <time>2015-11-04T15:11:04.000Z</time>
      </trkpt>
      <trkpt lat="47.17827" lon="3.20985">
        <ele>243.00923156738</ele>
        <time>2015-11-04T15:11:07.000Z</time>
      </trkpt>
      <trkpt lat="47.17824" lon="3.20985">
        <ele>243.01431274414</ele>
        <time>2015-11-04T15:11:09.000Z</time>
      </trkpt>
      <trkpt lat="47.17822" lon="3.20985">
        <ele>242.98750305176</ele>
        <time>2015-11-04T15:11:11.000Z</time>
      </trkpt>
      <trkpt lat="47.17817" lon="3.20986">
        <ele>242.94609069824</ele>
        <time>2015-11-04T15:11:14.000Z</time>
      </trkpt>
      <trkpt lat="47.17815" lon="3.20986">
        <ele>242.87252807617</ele>
        <time>2015-11-04T15:11:16.000Z</time>
      </trkpt>
      <trkpt lat="47.17812" lon="3.20986">
        <ele>242.78642272949</ele>
        <time>2015-11-04T15:11:19.000Z</time>
      </trkpt>
      <trkpt lat="47.1781" lon="3.20985">
        <ele>242.68545532227</ele>
        <time>2015-11-04T15:11:21.000Z</time>
      </trkpt>
      <trkpt lat="47.17807" lon="3.20985">
        <ele>242.58024597168</ele>
        <time>2015-11-04T15:11:24.000Z</time>
      </trkpt>
      <trkpt lat="47.17803" lon="3.20986">
        <ele>242.48306274414</ele>
        <time>2015-11-04T15:11:27.000Z</time>
      </trkpt>
      <trkpt lat="47.17801" lon="3.20986">
        <ele>242.40298461914</ele>
        <time>2015-11-04T15:11:29.000Z</time>
      </trkpt>
      <trkpt lat="47.17799" lon="3.20986">
        <ele>242.32002258301</ele>
        <time>2015-11-04T15:11:32.000Z</time>
      </trkpt>
      <trkpt lat="47.17795" lon="3.20986">
        <ele>242.24328613281</ele>
        <time>2015-11-04T15:11:35.000Z</time>
      </trkpt>
      <trkpt lat="47.17791" lon="3.20986">
        <ele>242.16020202637</ele>
        <time>2015-11-04T15:11:38.000Z</time>
      </trkpt>
      <trkpt lat="47.1779" lon="3.20986">
        <ele>242.07955932617</ele>
        <time>2015-11-04T15:11:40.000Z</time>
      </trkpt>
      <trkpt lat="47.17787" lon="3.20986">
        <ele>241.99325561523</ele>
        <time>2015-11-04T15:11:43.000Z</time>
      </trkpt>
      <trkpt lat="47.17785" lon="3.20986">
        <ele>241.91374206543</ele>
        <time>2015-11-04T15:11:45.000Z</time>
      </trkpt>
      <trkpt lat="47.17783" lon="3.20986">
        <ele>241.83171081543</ele>
        <time>2015-11-04T15:11:47.000Z</time>
      </trkpt>
      <trkpt lat="47.17781" lon="3.20985">
        <ele>241.76049804688</ele>
        <time>2015-11-04T15:11:49.000Z</time>
      </trkpt>
      <trkpt lat="47.17778" lon="3.20986">
        <ele>241.68827819824</ele>
        <time>2015-11-04T15:11:52.000Z</time>
      </trkpt>
      <trkpt lat="47.17775" lon="3.20985">
        <ele>241.58108520508</ele>
        <time>2015-11-04T15:11:55.000Z</time>
      </trkpt>
      <trkpt lat="47.17772" lon="3.20986">
        <ele>241.49365234375</ele>
        <time>2015-11-04T15:11:58.000Z</time>
      </trkpt>
      <trkpt lat="47.17768" lon="3.20987">
        <ele>241.43074035645</ele>
        <time>2015-11-04T15:12:01.000Z</time>
      </trkpt>
      <trkpt lat="47.17766" lon="3.20988">
        <ele>241.38821411133</ele>
        <time>2015-11-04T15:12:03.000Z</time>
      </trkpt>
      <trkpt lat="47.17764" lon="3.2099">
        <ele>241.37832641602</ele>
        <time>2015-11-04T15:12:05.000Z</time>
      </trkpt>
      <trkpt lat="47.17761" lon="3.20992">
        <ele>241.42910766602</ele>
        <time>2015-11-04T15:12:08.000Z</time>
      </trkpt>
      <trkpt lat="47.17758" lon="3.20995">
        <ele>241.51867675781</ele>
        <time>2015-11-04T15:12:11.000Z</time>
      </trkpt>
      <trkpt lat="47.17755" lon="3.20996">
        <ele>241.61112976074</ele>
        <time>2015-11-04T15:12:13.000Z</time>
      </trkpt>
      <trkpt lat="47.17753" lon="3.20998">
        <ele>241.72319030762</ele>
        <time>2015-11-04T15:12:15.000Z</time>
      </trkpt>
      <trkpt lat="47.1775" lon="3.21001">
        <ele>241.8464050293</ele>
        <time>2015-11-04T15:12:18.000Z</time>
      </trkpt>
      <trkpt lat="47.17746" lon="3.21006">
        <ele>242.00143432617</ele>
        <time>2015-11-04T15:12:21.000Z</time>
      </trkpt>
      <trkpt lat="47.17744" lon="3.21009">
        <ele>242.15190124512</ele>
        <time>2015-11-04T15:12:23.000Z</time>
      </trkpt>
      <trkpt lat="47.17743" lon="3.2101">
        <ele>242.30671691895</ele>
        <time>2015-11-04T15:12:25.000Z</time>
      </trkpt>
      <trkpt lat="47.17739" lon="3.21012">
        <ele>242.44389343262</ele>
        <time>2015-11-04T15:12:28.000Z</time>
      </trkpt>
      <trkpt lat="47.17737" lon="3.21014">
        <ele>242.54431152344</ele>
        <time>2015-11-04T15:12:30.000Z</time>
      </trkpt>
      <trkpt lat="47.17735" lon="3.21016">
        <ele>242.61767578125</ele>
        <time>2015-11-04T15:12:32.000Z</time>
      </trkpt>
      <trkpt lat="47.17733" lon="3.21018">
        <ele>242.65190124512</ele>
        <time>2015-11-04T15:12:34.000Z</time>
      </trkpt>
      <trkpt lat="47.1773" lon="3.2102">
        <ele>242.6950378418</ele>
        <time>2015-11-04T15:12:37.000Z</time>
      </trkpt>
      <trkpt lat="47.17727" lon="3.21023">
        <ele>242.75312805176</ele>
        <time>2015-11-04T15:12:40.000Z</time>
      </trkpt>
      <trkpt lat="47.17725" lon="3.21025">
        <ele>242.8137512207</ele>
        <time>2015-11-04T15:12:42.000Z</time>
      </trkpt>
      <trkpt lat="47.1772" lon="3.21029">
        <ele>242.86674499512</ele>
        <time>2015-11-04T15:12:45.000Z</time>
      </trkpt>
      <trkpt lat="47.17717" lon="3.21031">
        <ele>242.91967773438</ele>
        <time>2015-11-04T15:12:47.000Z</time>
      </trkpt>
      <trkpt lat="47.17715" lon="3.21032">
        <ele>242.95910644531</ele>
        <time>2015-11-04T15:12:49.000Z</time>
      </trkpt>
      <trkpt lat="47.17712" lon="3.21035">
        <ele>242.96810913086</ele>
        <time>2015-11-04T15:12:52.000Z</time>
      </trkpt>
      <trkpt lat="47.17709" lon="3.21037">
        <ele>242.98030090332</ele>
        <time>2015-11-04T15:12:55.000Z</time>
      </trkpt>
      <trkpt lat="47.17706" lon="3.21039">
        <ele>242.97763061523</ele>
        <time>2015-11-04T15:12:57.000Z</time>
      </trkpt>
      <trkpt lat="47.17704" lon="3.21041">
        <ele>242.97714233398</ele>
        <time>2015-11-04T15:12:59.000Z</time>
      </trkpt>
      <trkpt lat="47.17701" lon="3.21044">
        <ele>242.98104858398</ele>
        <time>2015-11-04T15:13:02.000Z</time>
      </trkpt>
      <trkpt lat="47.17699" lon="3.21046">
        <ele>243.00173950195</ele>
        <time>2015-11-04T15:13:04.000Z</time>
      </trkpt>
      <trkpt lat="47.17696" lon="3.21049">
        <ele>243.02323913574</ele>
        <time>2015-11-04T15:13:07.000Z</time>
      </trkpt>
      <trkpt lat="47.17693" lon="3.21053">
        <ele>243.04447937012</ele>
        <time>2015-11-04T15:13:10.000Z</time>
      </trkpt>
      <trkpt lat="47.1769" lon="3.21057">
        <ele>243.08804321289</ele>
        <time>2015-11-04T15:13:13.000Z</time>
      </trkpt>
      <trkpt lat="47.17689" lon="3.21059">
        <ele>243.13017272949</ele>
        <time>2015-11-04T15:13:15.000Z</time>
      </trkpt>
      <trkpt lat="47.17686" lon="3.21062">
        <ele>243.15914916992</ele>
        <time>2015-11-04T15:13:18.000Z</time>
      </trkpt>
      <trkpt lat="47.17683" lon="3.21066">
        <ele>243.1958770752</ele>
        <time>2015-11-04T15:13:30.000Z</time>
      </trkpt>
      <trkpt lat="47.17682" lon="3.21069">
        <ele>243.23286437988</ele>
        <time>2015-11-04T15:13:30.000Z</time>
      </trkpt>
      <trkpt lat="47.17678" lon="3.21072">
        <ele>243.24948120117</ele>
        <time>2015-11-04T15:13:31.000Z</time>
      </trkpt>
      <trkpt lat="47.17677" lon="3.21075">
        <ele>243.26957702637</ele>
        <time>2015-11-04T15:13:31.000Z</time>
      </trkpt>
      <trkpt lat="47.17676" lon="3.21077">
        <ele>243.29409790039</ele>
        <time>2015-11-04T15:13:31.000Z</time>
      </trkpt>
      <trkpt lat="47.17673" lon="3.2108">
        <ele>243.29377746582</ele>
        <time>2015-11-04T15:13:33.000Z</time>
      </trkpt>
      <trkpt lat="47.17671" lon="3.21083">
        <ele>243.29788208008</ele>
        <time>2015-11-04T15:13:36.000Z</time>
      </trkpt>
      <trkpt lat="47.17669" lon="3.21086">
        <ele>243.29000854492</ele>
        <time>2015-11-04T15:13:38.000Z</time>
      </trkpt>
      <trkpt lat="47.17668" lon="3.21088">
        <ele>243.26303100586</ele>
        <time>2015-11-04T15:13:40.000Z</time>
      </trkpt>
      <trkpt lat="47.17665" lon="3.21092">
        <ele>243.23379516602</ele>
        <time>2015-11-04T15:13:43.000Z</time>
      </trkpt>
      <trkpt lat="47.17663" lon="3.21095">
        <ele>243.21699523926</ele>
        <time>2015-11-04T15:13:45.000Z</time>
      </trkpt>
      <trkpt lat="47.17661" lon="3.21097">
        <ele>243.19755554199</ele>
        <time>2015-11-04T15:13:47.000Z</time>
      </trkpt>
      <trkpt lat="47.17659" lon="3.211">
        <ele>243.19270324707</ele>
        <time>2015-11-04T15:13:49.000Z</time>
      </trkpt>
      <trkpt lat="47.17657" lon="3.21103">
        <ele>243.20288085938</ele>
        <time>2015-11-04T15:13:51.000Z</time>
      </trkpt>
      <trkpt lat="47.17654" lon="3.21107">
        <ele>243.22216796875</ele>
        <time>2015-11-04T15:13:54.000Z</time>
      </trkpt>
      <trkpt lat="47.17653" lon="3.2111">
        <ele>243.24877929688</ele>
        <time>2015-11-04T15:13:57.000Z</time>
      </trkpt>
      <trkpt lat="47.17651" lon="3.21114">
        <ele>243.28088378906</ele>
        <time>2015-11-04T15:13:59.000Z</time>
      </trkpt>
      <trkpt lat="47.17649" lon="3.21117">
        <ele>243.31311035156</ele>
        <time>2015-11-04T15:14:02.000Z</time>
      </trkpt>
      <trkpt lat="47.17647" lon="3.2112">
        <ele>243.34973144531</ele>
        <time>2015-11-04T15:14:04.000Z</time>
      </trkpt>
      <trkpt lat="47.17645" lon="3.21123">
        <ele>243.38439941406</ele>
        <time>2015-11-04T15:14:07.000Z</time>
      </trkpt>
      <trkpt lat="47.17643" lon="3.21126">
        <ele>243.41247558594</ele>
        <time>2015-11-04T15:14:10.000Z</time>
      </trkpt>
      <trkpt lat="47.17641" lon="3.21128">
        <ele>243.43566894531</ele>
        <time>2015-11-04T15:14:12.000Z</time>
      </trkpt>
      <trkpt lat="47.1764" lon="3.21131">
        <ele>243.45666503906</ele>
        <time>2015-11-04T15:14:16.000Z</time>
      </trkpt>
      <trkpt lat="47.17637" lon="3.21135">
        <ele>243.47802734375</ele>
        <time>2015-11-04T15:14:17.000Z</time>
      </trkpt>
      <trkpt lat="47.17635" lon="3.2114">
        <ele>243.51025390625</ele>
        <time>2015-11-04T15:14:24.000Z</time>
      </trkpt>
      <trkpt lat="47.17633" lon="3.21147">
        <ele>243.56396484375</ele>
        <time>2015-11-04T15:14:25.000Z</time>
      </trkpt>
      <trkpt lat="47.17631" lon="3.21153">
        <ele>243.63122558594</ele>
        <time>2015-11-04T15:14:27.000Z</time>
      </trkpt>
      <trkpt lat="47.17629" lon="3.21158">
        <ele>243.71398925781</ele>
        <time>2015-11-04T15:14:28.000Z</time>
      </trkpt>
      <trkpt lat="47.17628" lon="3.21164">
        <ele>243.80798339844</ele>
        <time>2015-11-04T15:14:31.000Z</time>
      </trkpt>
      <trkpt lat="47.17627" lon="3.21169">
        <ele>243.90014648438</ele>
        <time>2015-11-04T15:14:34.000Z</time>
      </trkpt>
      <trkpt lat="47.17625" lon="3.21174">
        <ele>243.96455383301</ele>
        <time>2015-11-04T15:14:36.000Z</time>
      </trkpt>
      <trkpt lat="47.17624" lon="3.21177">
        <ele>244.00956726074</ele>
        <time>2015-11-04T15:14:42.000Z</time>
      </trkpt>
      <trkpt lat="47.17622" lon="3.21183">
        <ele>244.03329467773</ele>
        <time>2015-11-04T15:14:42.000Z</time>
      </trkpt>
      <trkpt lat="47.17622" lon="3.21187">
        <ele>244.03677368164</ele>
        <time>2015-11-04T15:14:43.000Z</time>
      </trkpt>
      <trkpt lat="47.17621" lon="3.21191">
        <ele>244.02383422852</ele>
        <time>2015-11-04T15:14:46.000Z</time>
      </trkpt>
      <trkpt lat="47.1762" lon="3.21194">
        <ele>244.01379394531</ele>
        <time>2015-11-04T15:14:47.000Z</time>
      </trkpt>
      <trkpt lat="47.1762" lon="3.212">
        <ele>244.00517272949</ele>
        <time>2015-11-04T15:14:50.000Z</time>
      </trkpt>
      <trkpt lat="47.17619" lon="3.21207">
        <ele>243.99890136719</ele>
        <time>2015-11-04T15:14:53.000Z</time>
      </trkpt>
      <trkpt lat="47.17619" lon="3.21213">
        <ele>243.99397277832</ele>
        <time>2015-11-04T15:14:56.000Z</time>
      </trkpt>
      <trkpt lat="47.17619" lon="3.21217">
        <ele>243.99369812012</ele>
        <time>2015-11-04T15:14:58.000Z</time>
      </trkpt>
      <trkpt lat="47.17618" lon="3.21223">
        <ele>243.9934387207</ele>
        <time>2015-11-04T15:15:01.000Z</time>
      </trkpt>
      <trkpt lat="47.17619" lon="3.21227">
        <ele>244.00057983398</ele>
        <time>2015-11-04T15:15:03.000Z</time>
      </trkpt>
      <trkpt lat="47.17618" lon="3.21232">
        <ele>244.00866699219</ele>
        <time>2015-11-04T15:15:06.000Z</time>
      </trkpt>
      <trkpt lat="47.17617" lon="3.21235">
        <ele>244.01411437988</ele>
        <time>2015-11-04T15:15:08.000Z</time>
      </trkpt>
      <trkpt lat="47.17617" lon="3.2124">
        <ele>244.01518249512</ele>
        <time>2015-11-04T15:15:11.000Z</time>
      </trkpt>
      <trkpt lat="47.17616" lon="3.21245">
        <ele>244.00967407227</ele>
        <time>2015-11-04T15:15:14.000Z</time>
      </trkpt>
      <trkpt lat="47.17615" lon="3.21249">
        <ele>243.98481750488</ele>
        <time>2015-11-04T15:15:16.000Z</time>
      </trkpt>
      <trkpt lat="47.17614" lon="3.21255">
        <ele>243.9221496582</ele>
        <time>2015-11-04T15:15:19.000Z</time>
      </trkpt>
      <trkpt lat="47.17614" lon="3.21259">
        <ele>243.83700561523</ele>
        <time>2015-11-04T15:15:21.000Z</time>
      </trkpt>
      <trkpt lat="47.17614" lon="3.21264">
        <ele>243.72590637207</ele>
        <time>2015-11-04T15:15:24.000Z</time>
      </trkpt>
      <trkpt lat="47.17614" lon="3.21268">
        <ele>243.59790039062</ele>
        <time>2015-11-04T15:15:26.000Z</time>
      </trkpt>
      <trkpt lat="47.17613" lon="3.21273">
        <ele>243.44100952148</ele>
        <time>2015-11-04T15:15:29.000Z</time>
      </trkpt>
      <trkpt lat="47.17613" lon="3.21278">
        <ele>243.29560852051</ele>
        <time>2015-11-04T15:15:32.000Z</time>
      </trkpt>
      <trkpt lat="47.17612" lon="3.21283">
        <ele>243.14273071289</ele>
        <time>2015-11-04T15:15:35.000Z</time>
      </trkpt>
      <trkpt lat="47.17612" lon="3.21287">
        <ele>242.98979187012</ele>
        <time>2015-11-04T15:15:37.000Z</time>
      </trkpt>
      <trkpt lat="47.17612" lon="3.2129">
        <ele>242.84004211426</ele>
        <time>2015-11-04T15:15:39.000Z</time>
      </trkpt>
      <trkpt lat="47.17612" lon="3.21295">
        <ele>242.70260620117</ele>
        <time>2015-11-04T15:15:42.000Z</time>
      </trkpt>
      <trkpt lat="47.17612" lon="3.213">
        <ele>242.56848144531</ele>
        <time>2015-11-04T15:15:45.000Z</time>
      </trkpt>
      <trkpt lat="47.17612" lon="3.21305">
        <ele>242.44035339355</ele>
        <time>2015-11-04T15:15:48.000Z</time>
      </trkpt>
      <trkpt lat="47.17612" lon="3.21307">
        <ele>242.32266235352</ele>
        <time>2015-11-04T15:15:50.000Z</time>
      </trkpt>
      <trkpt lat="47.17611" lon="3.21314">
        <ele>242.18635559082</ele>
        <time>2015-11-04T15:15:53.000Z</time>
      </trkpt>
      <trkpt lat="47.17611" lon="3.21318">
        <ele>242.05825805664</ele>
        <time>2015-11-04T15:15:55.000Z</time>
      </trkpt>
      <trkpt lat="47.17612" lon="3.21323">
        <ele>241.9253692627</ele>
        <time>2015-11-04T15:15:58.000Z</time>
      </trkpt>
      <trkpt lat="47.17611" lon="3.21327">
        <ele>241.78625488281</ele>
        <time>2015-11-04T15:16:00.000Z</time>
      </trkpt>
      <trkpt lat="47.17611" lon="3.21329">
        <ele>241.64936828613</ele>
        <time>2015-11-04T15:16:02.000Z</time>
      </trkpt>
      <trkpt lat="47.17611" lon="3.21334">
        <ele>241.53686523438</ele>
        <time>2015-11-04T15:16:05.000Z</time>
      </trkpt>
      <trkpt lat="47.17611" lon="3.21337">
        <ele>241.44607543945</ele>
        <time>2015-11-04T15:16:08.000Z</time>
      </trkpt>
      <trkpt lat="47.17611" lon="3.21339">
        <ele>241.38960266113</ele>
        <time>2015-11-04T15:16:11.000Z</time>
      </trkpt>
      <trkpt lat="47.17609" lon="3.21339">
        <ele>241.33889770508</ele>
        <time>2015-11-04T15:16:20.000Z</time>
      </trkpt>
      <trkpt lat="47.17607" lon="3.21341">
        <ele>241.27412414551</ele>
        <time>2015-11-04T15:16:22.000Z</time>
      </trkpt>
      <trkpt lat="47.17605" lon="3.21344">
        <ele>241.20785522461</ele>
        <time>2015-11-04T15:16:25.000Z</time>
      </trkpt>
      <trkpt lat="47.17604" lon="3.21351">
        <ele>241.14143371582</ele>
        <time>2015-11-04T15:16:28.000Z</time>
      </trkpt>
      <trkpt lat="47.17604" lon="3.21355">
        <ele>241.0834197998</ele>
        <time>2015-11-04T15:16:30.000Z</time>
      </trkpt>
      <trkpt lat="47.17603" lon="3.21359">
        <ele>241.03840637207</ele>
        <time>2015-11-04T15:16:33.000Z</time>
      </trkpt>
      <trkpt lat="47.17602" lon="3.21362">
        <ele>241.02127075195</ele>
        <time>2015-11-04T15:16:35.000Z</time>
      </trkpt>
      <trkpt lat="47.17601" lon="3.21365">
        <ele>241.02070617676</ele>
        <time>2015-11-04T15:16:37.000Z</time>
      </trkpt>
      <trkpt lat="47.17601" lon="3.21371">
        <ele>241.03385925293</ele>
        <time>2015-11-04T15:16:40.000Z</time>
      </trkpt>
      <trkpt lat="47.176" lon="3.21375">
        <ele>241.03500366211</ele>
        <time>2015-11-04T15:16:42.000Z</time>
      </trkpt>
      <trkpt lat="47.17599" lon="3.21383">
        <ele>241.0697479248</ele>
        <time>2015-11-04T15:16:45.000Z</time>
      </trkpt>
      <trkpt lat="47.17598" lon="3.21388">
        <ele>241.1078338623</ele>
        <time>2015-11-04T15:16:48.000Z</time>
      </trkpt>
      <trkpt lat="47.17596" lon="3.21393">
        <ele>241.14628601074</ele>
        <time>2015-11-04T15:16:51.000Z</time>
      </trkpt>
      <trkpt lat="47.17596" lon="3.21397">
        <ele>241.17532348633</ele>
        <time>2015-11-04T15:16:53.000Z</time>
      </trkpt>
      <trkpt lat="47.17595" lon="3.21402">
        <ele>241.21151733398</ele>
        <time>2015-11-04T15:16:56.000Z</time>
      </trkpt>
      <trkpt lat="47.17595" lon="3.21408">
        <ele>241.25198364258</ele>
        <time>2015-11-04T15:16:59.000Z</time>
      </trkpt>
      <trkpt lat="47.17595" lon="3.21414">
        <ele>241.31860351562</ele>
        <time>2015-11-04T15:17:02.000Z</time>
      </trkpt>
      <trkpt lat="47.17595" lon="3.21417">
        <ele>241.38711547852</ele>
        <time>2015-11-04T15:17:04.000Z</time>
      </trkpt>
      <trkpt lat="47.17593" lon="3.21421">
        <ele>241.45942687988</ele>
        <time>2015-11-04T15:17:07.000Z</time>
      </trkpt>
      <trkpt lat="47.17593" lon="3.21425">
        <ele>241.53271484375</ele>
        <time>2015-11-04T15:17:09.000Z</time>
      </trkpt>
      <trkpt lat="47.17592" lon="3.21431">
        <ele>241.59829711914</ele>
        <time>2015-11-04T15:17:12.000Z</time>
      </trkpt>
      <trkpt lat="47.17591" lon="3.21438">
        <ele>241.65249633789</ele>
        <time>2015-11-04T15:17:15.000Z</time>
      </trkpt>
      <trkpt lat="47.1759" lon="3.21445">
        <ele>241.7268371582</ele>
        <time>2015-11-04T15:17:18.000Z</time>
      </trkpt>
      <trkpt lat="47.17589" lon="3.21452">
        <ele>241.8171081543</ele>
        <time>2015-11-04T15:17:21.000Z</time>
      </trkpt>
      <trkpt lat="47.17588" lon="3.21457">
        <ele>241.91117858887</ele>
        <time>2015-11-04T15:17:23.000Z</time>
      </trkpt>
      <trkpt lat="47.17586" lon="3.21463">
        <ele>242.00634765625</ele>
        <time>2015-11-04T15:17:26.000Z</time>
      </trkpt>
      <trkpt lat="47.17586" lon="3.21466">
        <ele>242.09684753418</ele>
        <time>2015-11-04T15:17:28.000Z</time>
      </trkpt>
      <trkpt lat="47.17584" lon="3.21471">
        <ele>242.17944335938</ele>
        <time>2015-11-04T15:17:31.000Z</time>
      </trkpt>
      <trkpt lat="47.17583" lon="3.21478">
        <ele>242.26675415039</ele>
        <time>2015-11-04T15:17:34.000Z</time>
      </trkpt>
      <trkpt lat="47.17583" lon="3.21482">
        <ele>242.36172485352</ele>
        <time>2015-11-04T15:17:36.000Z</time>
      </trkpt>
      <trkpt lat="47.17582" lon="3.21489">
        <ele>242.4714050293</ele>
        <time>2015-11-04T15:17:39.000Z</time>
      </trkpt>
      <trkpt lat="47.17583" lon="3.21494">
        <ele>242.59579467773</ele>
        <time>2015-11-04T15:17:42.000Z</time>
      </trkpt>
      <trkpt lat="47.17584" lon="3.215">
        <ele>242.73286437988</ele>
        <time>2015-11-04T15:17:45.000Z</time>
      </trkpt>
      <trkpt lat="47.17584" lon="3.21503">
        <ele>242.8352355957</ele>
        <time>2015-11-04T15:17:47.000Z</time>
      </trkpt>
      <trkpt lat="47.17585" lon="3.21507">
        <ele>242.90718078613</ele>
        <time>2015-11-04T15:17:50.000Z</time>
      </trkpt>
      <trkpt lat="47.17585" lon="3.21511">
        <ele>242.93701171875</ele>
        <time>2015-11-04T15:17:52.000Z</time>
      </trkpt>
      <trkpt lat="47.17587" lon="3.21518">
        <ele>242.9306640625</ele>
        <time>2015-11-04T15:17:55.000Z</time>
      </trkpt>
      <trkpt lat="47.17588" lon="3.21523">
        <ele>242.88635253906</ele>
        <time>2015-11-04T15:17:58.000Z</time>
      </trkpt>
      <trkpt lat="47.17589" lon="3.21527">
        <ele>242.84146118164</ele>
        <time>2015-11-04T15:18:01.000Z</time>
      </trkpt>
      <trkpt lat="47.1759" lon="3.21535">
        <ele>242.79272460938</ele>
        <time>2015-11-04T15:18:04.000Z</time>
      </trkpt>
      <trkpt lat="47.17591" lon="3.21541">
        <ele>242.74594116211</ele>
        <time>2015-11-04T15:18:07.000Z</time>
      </trkpt>
      <trkpt lat="47.17592" lon="3.21545">
        <ele>242.7036895752</ele>
        <time>2015-11-04T15:18:09.000Z</time>
      </trkpt>
      <trkpt lat="47.17593" lon="3.21551">
        <ele>242.66171264648</ele>
        <time>2015-11-04T15:18:12.000Z</time>
      </trkpt>
      <trkpt lat="47.17593" lon="3.21557">
        <ele>242.61589050293</ele>
        <time>2015-11-04T15:18:15.000Z</time>
      </trkpt>
      <trkpt lat="47.17594" lon="3.21563">
        <ele>242.56982421875</ele>
        <time>2015-11-04T15:18:18.000Z</time>
      </trkpt>
      <trkpt lat="47.17593" lon="3.21567">
        <ele>242.52236938477</ele>
        <time>2015-11-04T15:18:20.000Z</time>
      </trkpt>
      <trkpt lat="47.17592" lon="3.21572">
        <ele>242.46231079102</ele>
        <time>2015-11-04T15:18:22.000Z</time>
      </trkpt>
      <trkpt lat="47.1759" lon="3.21578">
        <ele>242.392578125</ele>
        <time>2015-11-04T15:18:25.000Z</time>
      </trkpt>
      <trkpt lat="47.1759" lon="3.21582">
        <ele>242.32011413574</ele>
        <time>2015-11-04T15:18:27.000Z</time>
      </trkpt>
      <trkpt lat="47.1759" lon="3.21585">
        <ele>242.23086547852</ele>
        <time>2015-11-04T15:18:29.000Z</time>
      </trkpt>
      <trkpt lat="47.17591" lon="3.21588">
        <ele>242.12124633789</ele>
        <time>2015-11-04T15:18:31.000Z</time>
      </trkpt>
      <trkpt lat="47.17593" lon="3.21593">
        <ele>241.96186828613</ele>
        <time>2015-11-04T15:18:34.000Z</time>
      </trkpt>
      <trkpt lat="47.17591" lon="3.21598">
        <ele>241.74984741211</ele>
        <time>2015-11-04T15:18:36.000Z</time>
      </trkpt>
      <trkpt lat="47.17592" lon="3.21603">
        <ele>241.48229980469</ele>
        <time>2015-11-04T15:18:39.000Z</time>
      </trkpt>
      <trkpt lat="47.17592" lon="3.21608">
        <ele>241.16870117188</ele>
        <time>2015-11-04T15:18:42.000Z</time>
      </trkpt>
      <trkpt lat="47.17592" lon="3.21613">
        <ele>240.81848144531</ele>
        <time>2015-11-04T15:18:45.000Z</time>
      </trkpt>
      <trkpt lat="47.17591" lon="3.21619">
        <ele>240.42749023438</ele>
        <time>2015-11-04T15:18:48.000Z</time>
      </trkpt>
      <trkpt lat="47.17591" lon="3.21622">
        <ele>240.06726074219</ele>
        <time>2015-11-04T15:18:50.000Z</time>
      </trkpt>
      <trkpt lat="47.17592" lon="3.21628">
        <ele>239.69909667969</ele>
        <time>2015-11-04T15:18:53.000Z</time>
      </trkpt>
      <trkpt lat="47.17591" lon="3.21634">
        <ele>239.32348632812</ele>
        <time>2015-11-04T15:18:56.000Z</time>
      </trkpt>
      <trkpt lat="47.17592" lon="3.21638">
        <ele>238.94763183594</ele>
        <time>2015-11-04T15:18:59.000Z</time>
      </trkpt>
      <trkpt lat="47.17592" lon="3.21644">
        <ele>238.60009765625</ele>
        <time>2015-11-04T15:19:02.000Z</time>
      </trkpt>
      <trkpt lat="47.17591" lon="3.2165">
        <ele>238.2080078125</ele>
        <time>2015-11-04T15:19:05.000Z</time>
      </trkpt>
      <trkpt lat="47.1759" lon="3.21654">
        <ele>237.81872558594</ele>
        <time>2015-11-04T15:19:07.000Z</time>
      </trkpt>
      <trkpt lat="47.17588" lon="3.21658">
        <ele>237.44860839844</ele>
        <time>2015-11-04T15:19:10.000Z</time>
      </trkpt>
      <trkpt lat="47.17588" lon="3.21661">
        <ele>237.10083007812</ele>
        <time>2015-11-04T15:19:12.000Z</time>
      </trkpt>
      <trkpt lat="47.17587" lon="3.21666">
        <ele>236.765625</ele>
        <time>2015-11-04T15:19:15.000Z</time>
      </trkpt>
      <trkpt lat="47.17585" lon="3.21669">
        <ele>236.45393371582</ele>
        <time>2015-11-04T15:19:17.000Z</time>
      </trkpt>
      <trkpt lat="47.17585" lon="3.21672">
        <ele>236.16186523438</ele>
        <time>2015-11-04T15:19:19.000Z</time>
      </trkpt>
      <trkpt lat="47.17585" lon="3.21677">
        <ele>235.85697937012</ele>
        <time>2015-11-04T15:19:22.000Z</time>
      </trkpt>
      <trkpt lat="47.17584" lon="3.21681">
        <ele>235.51843261719</ele>
        <time>2015-11-04T15:19:25.000Z</time>
      </trkpt>
      <trkpt lat="47.17584" lon="3.21682">
        <ele>235.22444152832</ele>
        <time>2015-11-04T15:19:28.000Z</time>
      </trkpt>
      <trkpt lat="47.17585" lon="3.21682">
        <ele>235.00048828125</ele>
        <time>2015-11-04T15:19:33.000Z</time>
      </trkpt>
      <trkpt lat="47.17586" lon="3.21682">
        <ele>234.83081054688</ele>
        <time>2015-11-04T15:19:36.000Z</time>
      </trkpt>
      <trkpt lat="47.17588" lon="3.21684">
        <ele>234.71789550781</ele>
        <time>2015-11-04T15:19:39.000Z</time>
      </trkpt>
      <trkpt lat="47.17588" lon="3.21685">
        <ele>234.66244506836</ele>
        <time>2015-11-04T15:19:41.000Z</time>
      </trkpt>
      <trkpt lat="47.17589" lon="3.21689">
        <ele>234.56184387207</ele>
        <time>2015-11-04T15:19:44.000Z</time>
      </trkpt>
      <trkpt lat="47.17589" lon="3.21691">
        <ele>234.40701293945</ele>
        <time>2015-11-04T15:19:46.000Z</time>
      </trkpt>
      <trkpt lat="47.1759" lon="3.21696">
        <ele>234.17797851562</ele>
        <time>2015-11-04T15:19:49.000Z</time>
      </trkpt>
      <trkpt lat="47.17589" lon="3.21699">
        <ele>233.91323852539</ele>
        <time>2015-11-04T15:19:51.000Z</time>
      </trkpt>
      <trkpt lat="47.17588" lon="3.21703">
        <ele>233.5913848877</ele>
        <time>2015-11-04T15:19:54.000Z</time>
      </trkpt>
      <trkpt lat="47.17588" lon="3.21707">
        <ele>233.27217102051</ele>
        <time>2015-11-04T15:19:56.000Z</time>
      </trkpt>
      <trkpt lat="47.17587" lon="3.21713">
        <ele>232.90371704102</ele>
        <time>2015-11-04T15:20:09.000Z</time>
      </trkpt>
      <trkpt lat="47.17586" lon="3.21718">
        <ele>232.51188659668</ele>
        <time>2015-11-04T15:20:10.000Z</time>
      </trkpt>
      <trkpt lat="47.17586" lon="3.21721">
        <ele>232.13516235352</ele>
        <time>2015-11-04T15:20:10.000Z</time>
      </trkpt>
      <trkpt lat="47.17586" lon="3.21725">
        <ele>231.7614440918</ele>
        <time>2015-11-04T15:20:11.000Z</time>
      </trkpt>
      <trkpt lat="47.17587" lon="3.2173">
        <ele>231.3671875</ele>
        <time>2015-11-04T15:20:11.000Z</time>
      </trkpt>
      <trkpt lat="47.17587" lon="3.21736">
        <ele>230.9557800293</ele>
        <time>2015-11-04T15:20:12.000Z</time>
      </trkpt>
      <trkpt lat="47.17587" lon="3.21742">
        <ele>230.54753112793</ele>
        <time>2015-11-04T15:20:16.000Z</time>
      </trkpt>
      <trkpt lat="47.17588" lon="3.21747">
        <ele>230.08316040039</ele>
        <time>2015-11-04T15:20:18.000Z</time>
      </trkpt>
      <trkpt lat="47.17588" lon="3.21752">
        <ele>229.6162109375</ele>
        <time>2015-11-04T15:20:21.000Z</time>
      </trkpt>
      <trkpt lat="47.17589" lon="3.21756">
        <ele>229.20071411133</ele>
        <time>2015-11-04T15:20:23.000Z</time>
      </trkpt>
      <trkpt lat="47.17589" lon="3.21758">
        <ele>228.87284851074</ele>
        <time>2015-11-04T15:20:25.000Z</time>
      </trkpt>
      <trkpt lat="47.17589" lon="3.21763">
        <ele>228.59147644043</ele>
        <time>2015-11-04T15:20:28.000Z</time>
      </trkpt>
      <trkpt lat="47.1759" lon="3.21768">
        <ele>228.35238647461</ele>
        <time>2015-11-04T15:20:31.000Z</time>
      </trkpt>
      <trkpt lat="47.1759" lon="3.21775">
        <ele>228.12753295898</ele>
        <time>2015-11-04T15:20:34.000Z</time>
      </trkpt>
      <trkpt lat="47.1759" lon="3.21779">
        <ele>227.8911895752</ele>
        <time>2015-11-04T15:20:36.000Z</time>
      </trkpt>
      <trkpt lat="47.17591" lon="3.21783">
        <ele>227.6402130127</ele>
        <time>2015-11-04T15:20:38.000Z</time>
      </trkpt>
      <trkpt lat="47.17591" lon="3.21788">
        <ele>227.39102172852</ele>
        <time>2015-11-04T15:20:41.000Z</time>
      </trkpt>
      <trkpt lat="47.17591" lon="3.21792">
        <ele>227.15383911133</ele>
        <time>2015-11-04T15:20:43.000Z</time>
      </trkpt>
      <trkpt lat="47.17591" lon="3.21797">
        <ele>226.93705749512</ele>
        <time>2015-11-04T15:20:46.000Z</time>
      </trkpt>
      <trkpt lat="47.17591" lon="3.21801">
        <ele>226.73091125488</ele>
        <time>2015-11-04T15:20:48.000Z</time>
      </trkpt>
      <trkpt lat="47.17591" lon="3.21805">
        <ele>226.52462768555</ele>
        <time>2015-11-04T15:20:51.000Z</time>
      </trkpt>
      <trkpt lat="47.17592" lon="3.21809">
        <ele>226.32392883301</ele>
        <time>2015-11-04T15:20:54.000Z</time>
      </trkpt>
      <trkpt lat="47.17591" lon="3.21814">
        <ele>226.12155151367</ele>
        <time>2015-11-04T15:20:57.000Z</time>
      </trkpt>
      <trkpt lat="47.17591" lon="3.21821">
        <ele>225.89794921875</ele>
        <time>2015-11-04T15:21:00.000Z</time>
      </trkpt>
      <trkpt lat="47.17591" lon="3.21827">
        <ele>225.65249633789</ele>
        <time>2015-11-04T15:21:03.000Z</time>
      </trkpt>
      <trkpt lat="47.17592" lon="3.2183">
        <ele>225.4125213623</ele>
        <time>2015-11-04T15:21:05.000Z</time>
      </trkpt>
      <trkpt lat="47.17593" lon="3.21835">
        <ele>225.17318725586</ele>
        <time>2015-11-04T15:21:08.000Z</time>
      </trkpt>
      <trkpt lat="47.17592" lon="3.21842">
        <ele>224.95283508301</ele>
        <time>2015-11-04T15:21:11.000Z</time>
      </trkpt>
      <trkpt lat="47.17592" lon="3.21846">
        <ele>224.77883911133</ele>
        <time>2015-11-04T15:21:13.000Z</time>
      </trkpt>
      <trkpt lat="47.17592" lon="3.2185">
        <ele>224.64189147949</ele>
        <time>2015-11-04T15:21:16.000Z</time>
      </trkpt>
      <trkpt lat="47.17593" lon="3.21856">
        <ele>224.51528930664</ele>
        <time>2015-11-04T15:21:19.000Z</time>
      </trkpt>
      <trkpt lat="47.17593" lon="3.2186">
        <ele>224.40910339355</ele>
        <time>2015-11-04T15:21:21.000Z</time>
      </trkpt>
      <trkpt lat="47.17592" lon="3.21865">
        <ele>224.30899047852</ele>
        <time>2015-11-04T15:21:24.000Z</time>
      </trkpt>
      <trkpt lat="47.17593" lon="3.21869">
        <ele>224.20771789551</ele>
        <time>2015-11-04T15:21:26.000Z</time>
      </trkpt>
      <trkpt lat="47.17593" lon="3.21875">
        <ele>224.10095214844</ele>
        <time>2015-11-04T15:21:29.000Z</time>
      </trkpt>
      <trkpt lat="47.17593" lon="3.2188">
        <ele>223.99458312988</ele>
        <time>2015-11-04T15:21:32.000Z</time>
      </trkpt>
      <trkpt lat="47.17594" lon="3.21884">
        <ele>223.89184570312</ele>
        <time>2015-11-04T15:21:34.000Z</time>
      </trkpt>
      <trkpt lat="47.17594" lon="3.21887">
        <ele>223.79570007324</ele>
        <time>2015-11-04T15:21:36.000Z</time>
      </trkpt>
      <trkpt lat="47.17595" lon="3.21893">
        <ele>223.69035339355</ele>
        <time>2015-11-04T15:21:39.000Z</time>
      </trkpt>
      <trkpt lat="47.17595" lon="3.21899">
        <ele>223.58833312988</ele>
        <time>2015-11-04T15:21:42.000Z</time>
      </trkpt>
      <trkpt lat="47.17595" lon="3.21903">
        <ele>223.49145507812</ele>
        <time>2015-11-04T15:21:45.000Z</time>
      </trkpt>
      <trkpt lat="47.17595" lon="3.21909">
        <ele>223.38703918457</ele>
        <time>2015-11-04T15:21:48.000Z</time>
      </trkpt>
      <trkpt lat="47.17595" lon="3.21916">
        <ele>223.26643371582</ele>
        <time>2015-11-04T15:21:51.000Z</time>
      </trkpt>
      <trkpt lat="47.17595" lon="3.21921">
        <ele>223.16096496582</ele>
        <time>2015-11-04T15:21:54.000Z</time>
      </trkpt>
      <trkpt lat="47.17596" lon="3.21924">
        <ele>223.07133483887</ele>
        <time>2015-11-04T15:21:56.000Z</time>
      </trkpt>
      <trkpt lat="47.17596" lon="3.21929">
        <ele>222.98971557617</ele>
        <time>2015-11-04T15:21:59.000Z</time>
      </trkpt>
      <trkpt lat="47.17596" lon="3.21933">
        <ele>222.92399597168</ele>
        <time>2015-11-04T15:22:01.000Z</time>
      </trkpt>
      <trkpt lat="47.17596" lon="3.21938">
        <ele>222.87521362305</ele>
        <time>2015-11-04T15:22:04.000Z</time>
      </trkpt>
      <trkpt lat="47.17597" lon="3.21943">
        <ele>222.83085632324</ele>
        <time>2015-11-04T15:22:07.000Z</time>
      </trkpt>
      <trkpt lat="47.17598" lon="3.21948">
        <ele>222.78286743164</ele>
        <time>2015-11-04T15:22:10.000Z</time>
      </trkpt>
      <trkpt lat="47.17599" lon="3.21954">
        <ele>222.73666381836</ele>
        <time>2015-11-04T15:22:13.000Z</time>
      </trkpt>
      <trkpt lat="47.176" lon="3.21959">
        <ele>222.68673706055</ele>
        <time>2015-11-04T15:22:16.000Z</time>
      </trkpt>
      <trkpt lat="47.176" lon="3.21964">
        <ele>222.64033508301</ele>
        <time>2015-11-04T15:22:18.000Z</time>
      </trkpt>
      <trkpt lat="47.17601" lon="3.21969">
        <ele>222.59208679199</ele>
        <time>2015-11-04T15:22:21.000Z</time>
      </trkpt>
      <trkpt lat="47.17602" lon="3.21975">
        <ele>222.54479980469</ele>
        <time>2015-11-04T15:22:24.000Z</time>
      </trkpt>
      <trkpt lat="47.17602" lon="3.21979">
        <ele>222.5007019043</ele>
        <time>2015-11-04T15:22:26.000Z</time>
      </trkpt>
      <trkpt lat="47.17603" lon="3.21984">
        <ele>222.45967102051</ele>
        <time>2015-11-04T15:22:29.000Z</time>
      </trkpt>
      <trkpt lat="47.17603" lon="3.21987">
        <ele>222.42065429688</ele>
        <time>2015-11-04T15:22:31.000Z</time>
      </trkpt>
      <trkpt lat="47.17604" lon="3.21993">
        <ele>222.38346862793</ele>
        <time>2015-11-04T15:22:34.000Z</time>
      </trkpt>
      <trkpt lat="47.17604" lon="3.21996">
        <ele>222.3521270752</ele>
        <time>2015-11-04T15:22:36.000Z</time>
      </trkpt>
      <trkpt lat="47.17604" lon="3.21999">
        <ele>222.32083129883</ele>
        <time>2015-11-04T15:22:38.000Z</time>
      </trkpt>
      <trkpt lat="47.17605" lon="3.22007">
        <ele>222.26322937012</ele>
        <time>2015-11-04T15:22:41.000Z</time>
      </trkpt>
      <trkpt lat="47.17606" lon="3.22012">
        <ele>222.18937683105</ele>
        <time>2015-11-04T15:22:44.000Z</time>
      </trkpt>
      <trkpt lat="47.17607" lon="3.22015">
        <ele>222.109375</ele>
        <time>2015-11-04T15:22:47.000Z</time>
      </trkpt>
      <trkpt lat="47.17608" lon="3.2202">
        <ele>222.01376342773</ele>
        <time>2015-11-04T15:22:49.000Z</time>
      </trkpt>
      <trkpt lat="47.17608" lon="3.22025">
        <ele>221.90124511719</ele>
        <time>2015-11-04T15:22:52.000Z</time>
      </trkpt>
      <trkpt lat="47.17609" lon="3.2203">
        <ele>221.79956054688</ele>
        <time>2015-11-04T15:22:55.000Z</time>
      </trkpt>
      <trkpt lat="47.1761" lon="3.22036">
        <ele>221.69360351562</ele>
        <time>2015-11-04T15:22:58.000Z</time>
      </trkpt>
      <trkpt lat="47.17611" lon="3.2204">
        <ele>221.58532714844</ele>
        <time>2015-11-04T15:23:01.000Z</time>
      </trkpt>
      <trkpt lat="47.17612" lon="3.22043">
        <ele>221.48291015625</ele>
        <time>2015-11-04T15:23:03.000Z</time>
      </trkpt>
      <trkpt lat="47.17613" lon="3.22048">
        <ele>221.38305664062</ele>
        <time>2015-11-04T15:23:06.000Z</time>
      </trkpt>
      <trkpt lat="47.17614" lon="3.22052">
        <ele>221.28894042969</ele>
        <time>2015-11-04T15:23:09.000Z</time>
      </trkpt>
      <trkpt lat="47.17615" lon="3.22057">
        <ele>221.20068359375</ele>
        <time>2015-11-04T15:23:12.000Z</time>
      </trkpt>
      <trkpt lat="47.17616" lon="3.22063">
        <ele>221.10180664062</ele>
        <time>2015-11-04T15:23:15.000Z</time>
      </trkpt>
      <trkpt lat="47.17616" lon="3.22067">
        <ele>220.99780273438</ele>
        <time>2015-11-04T15:23:17.000Z</time>
      </trkpt>
      <trkpt lat="47.17617" lon="3.22072">
        <ele>220.89294433594</ele>
        <time>2015-11-04T15:23:20.000Z</time>
      </trkpt>
      <trkpt lat="47.17618" lon="3.22076">
        <ele>220.78942871094</ele>
        <time>2015-11-04T15:23:22.000Z</time>
      </trkpt>
      <trkpt lat="47.17619" lon="3.2208">
        <ele>220.68969726562</ele>
        <time>2015-11-04T15:23:24.000Z</time>
      </trkpt>
      <trkpt lat="47.1762" lon="3.22085">
        <ele>220.59362792969</ele>
        <time>2015-11-04T15:23:27.000Z</time>
      </trkpt>
      <trkpt lat="47.17622" lon="3.2209">
        <ele>220.49150085449</ele>
        <time>2015-11-04T15:23:30.000Z</time>
      </trkpt>
      <trkpt lat="47.17623" lon="3.22094">
        <ele>220.39096069336</ele>
        <time>2015-11-04T15:23:32.000Z</time>
      </trkpt>
      <trkpt lat="47.17624" lon="3.22099">
        <ele>220.27633666992</ele>
        <time>2015-11-04T15:23:35.000Z</time>
      </trkpt>
      <trkpt lat="47.17625" lon="3.22103">
        <ele>220.15812683105</ele>
        <time>2015-11-04T15:23:37.000Z</time>
      </trkpt>
      <trkpt lat="47.17625" lon="3.22107">
        <ele>220.03482055664</ele>
        <time>2015-11-04T15:23:40.000Z</time>
      </trkpt>
      <trkpt lat="47.17627" lon="3.22112">
        <ele>219.90512084961</ele>
        <time>2015-11-04T15:23:43.000Z</time>
      </trkpt>
      <trkpt lat="47.17628" lon="3.22118">
        <ele>219.75785827637</ele>
        <time>2015-11-04T15:23:46.000Z</time>
      </trkpt>
      <trkpt lat="47.1763" lon="3.22124">
        <ele>219.60620117188</ele>
        <time>2015-11-04T15:23:49.000Z</time>
      </trkpt>
      <trkpt lat="47.17632" lon="3.22128">
        <ele>219.44677734375</ele>
        <time>2015-11-04T15:23:52.000Z</time>
      </trkpt>
      <trkpt lat="47.17632" lon="3.22131">
        <ele>219.29409790039</ele>
        <time>2015-11-04T15:23:54.000Z</time>
      </trkpt>
      <trkpt lat="47.17634" lon="3.22136">
        <ele>219.13578796387</ele>
        <time>2015-11-04T15:23:57.000Z</time>
      </trkpt>
      <trkpt lat="47.17636" lon="3.22142">
        <ele>218.96762084961</ele>
        <time>2015-11-04T15:24:00.000Z</time>
      </trkpt>
      <trkpt lat="47.1764" lon="3.22146">
        <ele>218.79263305664</ele>
        <time>2015-11-04T15:24:03.000Z</time>
      </trkpt>
      <trkpt lat="47.17641" lon="3.22148">
        <ele>218.62997436523</ele>
        <time>2015-11-04T15:24:05.000Z</time>
      </trkpt>
      <trkpt lat="47.17642" lon="3.22151">
        <ele>218.46286010742</ele>
        <time>2015-11-04T15:24:08.000Z</time>
      </trkpt>
      <trkpt lat="47.17645" lon="3.22154">
        <ele>218.30265808105</ele>
        <time>2015-11-04T15:24:11.000Z</time>
      </trkpt>
      <trkpt lat="47.17647" lon="3.22156">
        <ele>218.15730285645</ele>
        <time>2015-11-04T15:24:14.000Z</time>
      </trkpt>
      <trkpt lat="47.17651" lon="3.22162">
        <ele>217.99043273926</ele>
        <time>2015-11-04T15:24:17.000Z</time>
      </trkpt>
      <trkpt lat="47.17653" lon="3.22166">
        <ele>217.80448913574</ele>
        <time>2015-11-04T15:24:19.000Z</time>
      </trkpt>
      <trkpt lat="47.17654" lon="3.22171">
        <ele>217.60348510742</ele>
        <time>2015-11-04T15:24:22.000Z</time>
      </trkpt>
      <trkpt lat="47.17655" lon="3.22173">
        <ele>217.41299438477</ele>
        <time>2015-11-04T15:24:24.000Z</time>
      </trkpt>
      <trkpt lat="47.17657" lon="3.22178">
        <ele>217.21401977539</ele>
        <time>2015-11-04T15:24:27.000Z</time>
      </trkpt>
      <trkpt lat="47.17659" lon="3.22183">
        <ele>217.03036499023</ele>
        <time>2015-11-04T15:24:30.000Z</time>
      </trkpt>
      <trkpt lat="47.1766" lon="3.22185">
        <ele>216.85676574707</ele>
        <time>2015-11-04T15:24:32.000Z</time>
      </trkpt>
      <trkpt lat="47.17661" lon="3.22188">
        <ele>216.69848632812</ele>
        <time>2015-11-04T15:24:35.000Z</time>
      </trkpt>
      <trkpt lat="47.17662" lon="3.22192">
        <ele>216.5285949707</ele>
        <time>2015-11-04T15:24:37.000Z</time>
      </trkpt>
      <trkpt lat="47.17664" lon="3.22198">
        <ele>216.34884643555</ele>
        <time>2015-11-04T15:24:40.000Z</time>
      </trkpt>
      <trkpt lat="47.17665" lon="3.22204">
        <ele>216.16654968262</ele>
        <time>2015-11-04T15:24:43.000Z</time>
      </trkpt>
      <trkpt lat="47.17664" lon="3.22206">
        <ele>215.99430847168</ele>
        <time>2015-11-04T15:24:45.000Z</time>
      </trkpt>
      <trkpt lat="47.17663" lon="3.22209">
        <ele>215.83572387695</ele>
        <time>2015-11-04T15:24:47.000Z</time>
      </trkpt>
      <trkpt lat="47.17663" lon="3.22213">
        <ele>215.68594360352</ele>
        <time>2015-11-04T15:24:50.000Z</time>
      </trkpt>
      <trkpt lat="47.17663" lon="3.22215">
        <ele>215.56706237793</ele>
        <time>2015-11-04T15:24:53.000Z</time>
      </trkpt>
      <trkpt lat="47.17664" lon="3.22218">
        <ele>215.46797180176</ele>
        <time>2015-11-04T15:24:55.000Z</time>
      </trkpt>
      <trkpt lat="47.17665" lon="3.22222">
        <ele>215.35180664062</ele>
        <time>2015-11-04T15:24:57.000Z</time>
      </trkpt>
      <trkpt lat="47.17666" lon="3.22226">
        <ele>215.21000671387</ele>
        <time>2015-11-04T15:25:00.000Z</time>
      </trkpt>
      <trkpt lat="47.17666" lon="3.22229">
        <ele>215.07023620605</ele>
        <time>2015-11-04T15:25:02.000Z</time>
      </trkpt>
      <trkpt lat="47.17666" lon="3.22232">
        <ele>214.92724609375</ele>
        <time>2015-11-04T15:25:04.000Z</time>
      </trkpt>
      <trkpt lat="47.17667" lon="3.22237">
        <ele>214.77355957031</ele>
        <time>2015-11-04T15:25:07.000Z</time>
      </trkpt>
      <trkpt lat="47.17668" lon="3.22241">
        <ele>214.62533569336</ele>
        <time>2015-11-04T15:25:09.000Z</time>
      </trkpt>
      <trkpt lat="47.17668" lon="3.22246">
        <ele>214.47476196289</ele>
        <time>2015-11-04T15:25:12.000Z</time>
      </trkpt>
      <trkpt lat="47.17669" lon="3.22253">
        <ele>214.33744812012</ele>
        <time>2015-11-04T15:25:15.000Z</time>
      </trkpt>
      <trkpt lat="47.17669" lon="3.22257">
        <ele>214.2494354248</ele>
        <time>2015-11-04T15:25:18.000Z</time>
      </trkpt>
      <trkpt lat="47.1767" lon="3.22261">
        <ele>214.23287963867</ele>
        <time>2015-11-04T15:25:21.000Z</time>
      </trkpt>
      <trkpt lat="47.1767" lon="3.22266">
        <ele>214.27600097656</ele>
        <time>2015-11-04T15:25:24.000Z</time>
      </trkpt>
      <trkpt lat="47.17671" lon="3.22269">
        <ele>214.38131713867</ele>
        <time>2015-11-04T15:25:26.000Z</time>
      </trkpt>
      <trkpt lat="47.17671" lon="3.22275">
        <ele>214.52934265137</ele>
        <time>2015-11-04T15:25:29.000Z</time>
      </trkpt>
      <trkpt lat="47.17671" lon="3.22278">
        <ele>214.67221069336</ele>
        <time>2015-11-04T15:25:31.000Z</time>
      </trkpt>
      <trkpt lat="47.17671" lon="3.22284">
        <ele>214.82475280762</ele>
        <time>2015-11-04T15:25:34.000Z</time>
      </trkpt>
      <trkpt lat="47.1767" lon="3.22289">
        <ele>214.97705078125</ele>
        <time>2015-11-04T15:25:37.000Z</time>
      </trkpt>
      <trkpt lat="47.1767" lon="3.22291">
        <ele>215.12545776367</ele>
        <time>2015-11-04T15:25:40.000Z</time>
      </trkpt>
      <trkpt lat="47.1767" lon="3.22298">
        <ele>215.28425598145</ele>
        <time>2015-11-04T15:25:43.000Z</time>
      </trkpt>
      <trkpt lat="47.1767" lon="3.22305">
        <ele>215.4729309082</ele>
        <time>2015-11-04T15:25:46.000Z</time>
      </trkpt>
      <trkpt lat="47.1767" lon="3.2231">
        <ele>215.64804077148</ele>
        <time>2015-11-04T15:25:48.000Z</time>
      </trkpt>
      <trkpt lat="47.17672" lon="3.22316">
        <ele>215.82119750977</ele>
        <time>2015-11-04T15:25:51.000Z</time>
      </trkpt>
      <trkpt lat="47.17672" lon="3.22319">
        <ele>215.99792480469</ele>
        <time>2015-11-04T15:25:53.000Z</time>
      </trkpt>
      <trkpt lat="47.17673" lon="3.22325">
        <ele>216.15888977051</ele>
        <time>2015-11-04T15:25:56.000Z</time>
      </trkpt>
      <trkpt lat="47.17673" lon="3.2233">
        <ele>216.29428100586</ele>
        <time>2015-11-04T15:25:59.000Z</time>
      </trkpt>
      <trkpt lat="47.17673" lon="3.22334">
        <ele>216.43295288086</ele>
        <time>2015-11-04T15:26:02.000Z</time>
      </trkpt>
      <trkpt lat="47.17674" lon="3.2234">
        <ele>216.54911804199</ele>
        <time>2015-11-04T15:26:05.000Z</time>
      </trkpt>
      <trkpt lat="47.17674" lon="3.22344">
        <ele>216.65258789062</ele>
        <time>2015-11-04T15:26:07.000Z</time>
      </trkpt>
      <trkpt lat="47.17674" lon="3.22351">
        <ele>216.74963378906</ele>
        <time>2015-11-04T15:26:10.000Z</time>
      </trkpt>
      <trkpt lat="47.17675" lon="3.22356">
        <ele>216.82736206055</ele>
        <time>2015-11-04T15:26:13.000Z</time>
      </trkpt>
      <trkpt lat="47.17676" lon="3.22362">
        <ele>216.8892364502</ele>
        <time>2015-11-04T15:26:16.000Z</time>
      </trkpt>
      <trkpt lat="47.17676" lon="3.22367">
        <ele>216.95454406738</ele>
        <time>2015-11-04T15:26:19.000Z</time>
      </trkpt>
      <trkpt lat="47.17677" lon="3.22371">
        <ele>217.01943969727</ele>
        <time>2015-11-04T15:26:20.000Z</time>
      </trkpt>
      <trkpt lat="47.17677" lon="3.22375">
        <ele>217.07160949707</ele>
        <time>2015-11-04T15:26:22.000Z</time>
      </trkpt>
      <trkpt lat="47.17678" lon="3.22381">
        <ele>217.13566589355</ele>
        <time>2015-11-04T15:26:25.000Z</time>
      </trkpt>
      <trkpt lat="47.17677" lon="3.22387">
        <ele>217.20764160156</ele>
        <time>2015-11-04T15:26:28.000Z</time>
      </trkpt>
      <trkpt lat="47.17678" lon="3.22391">
        <ele>217.27597045898</ele>
        <time>2015-11-04T15:26:31.000Z</time>
      </trkpt>
      <trkpt lat="47.17679" lon="3.22394">
        <ele>217.34201049805</ele>
        <time>2015-11-04T15:26:33.000Z</time>
      </trkpt>
      <trkpt lat="47.1768" lon="3.22397">
        <ele>217.40771484375</ele>
        <time>2015-11-04T15:26:37.000Z</time>
      </trkpt>
      <trkpt lat="47.17681" lon="3.22401">
        <ele>217.46255493164</ele>
        <time>2015-11-04T15:26:38.000Z</time>
      </trkpt>
      <trkpt lat="47.17684" lon="3.22406">
        <ele>217.50271606445</ele>
        <time>2015-11-04T15:26:41.000Z</time>
      </trkpt>
      <trkpt lat="47.17685" lon="3.22411">
        <ele>217.55195617676</ele>
        <time>2015-11-04T15:26:44.000Z</time>
      </trkpt>
      <trkpt lat="47.17686" lon="3.22416">
        <ele>217.61410522461</ele>
        <time>2015-11-04T15:26:46.000Z</time>
      </trkpt>
      <trkpt lat="47.17686" lon="3.22422">
        <ele>217.67700195312</ele>
        <time>2015-11-04T15:26:54.000Z</time>
      </trkpt>
      <trkpt lat="47.17686" lon="3.22428">
        <ele>217.7466583252</ele>
        <time>2015-11-04T15:26:55.000Z</time>
      </trkpt>
      <trkpt lat="47.17687" lon="3.22433">
        <ele>217.8203125</ele>
        <time>2015-11-04T15:26:55.000Z</time>
      </trkpt>
      <trkpt lat="47.17688" lon="3.22436">
        <ele>217.88284301758</ele>
        <time>2015-11-04T15:26:57.000Z</time>
      </trkpt>
      <trkpt lat="47.17688" lon="3.2244">
        <ele>217.93734741211</ele>
        <time>2015-11-04T15:27:01.000Z</time>
      </trkpt>
      <trkpt lat="47.1769" lon="3.22444">
        <ele>217.99075317383</ele>
        <time>2015-11-04T15:27:02.000Z</time>
      </trkpt>
      <trkpt lat="47.1769" lon="3.22449">
        <ele>218.04292297363</ele>
        <time>2015-11-04T15:27:04.000Z</time>
      </trkpt>
      <trkpt lat="47.17691" lon="3.22456">
        <ele>218.10501098633</ele>
        <time>2015-11-04T15:27:07.000Z</time>
      </trkpt>
      <trkpt lat="47.17693" lon="3.22459">
        <ele>218.17245483398</ele>
        <time>2015-11-04T15:27:09.000Z</time>
      </trkpt>
      <trkpt lat="47.17694" lon="3.22464">
        <ele>218.24826049805</ele>
        <time>2015-11-04T15:27:12.000Z</time>
      </trkpt>
      <trkpt lat="47.17694" lon="3.22467">
        <ele>218.32357788086</ele>
        <time>2015-11-04T15:27:14.000Z</time>
      </trkpt>
      <trkpt lat="47.17696" lon="3.22472">
        <ele>218.40979003906</ele>
        <time>2015-11-04T15:27:17.000Z</time>
      </trkpt>
      <trkpt lat="47.17696" lon="3.22476">
        <ele>218.48934936523</ele>
        <time>2015-11-04T15:27:19.000Z</time>
      </trkpt>
      <trkpt lat="47.17696" lon="3.22481">
        <ele>218.576171875</ele>
        <time>2015-11-04T15:27:22.000Z</time>
      </trkpt>
      <trkpt lat="47.17698" lon="3.22484">
        <ele>218.65800476074</ele>
        <time>2015-11-04T15:27:24.000Z</time>
      </trkpt>
      <trkpt lat="47.17699" lon="3.2249">
        <ele>218.75668334961</ele>
        <time>2015-11-04T15:27:27.000Z</time>
      </trkpt>
      <trkpt lat="47.17699" lon="3.22494">
        <ele>218.85342407227</ele>
        <time>2015-11-04T15:27:30.000Z</time>
      </trkpt>
      <trkpt lat="47.17701" lon="3.22498">
        <ele>218.95771789551</ele>
        <time>2015-11-04T15:27:33.000Z</time>
      </trkpt>
      <trkpt lat="47.17702" lon="3.22502">
        <ele>219.06021118164</ele>
        <time>2015-11-04T15:27:36.000Z</time>
      </trkpt>
      <trkpt lat="47.17703" lon="3.22505">
        <ele>219.14828491211</ele>
        <time>2015-11-04T15:27:43.000Z</time>
      </trkpt>
      <trkpt lat="47.17704" lon="3.22509">
        <ele>219.20678710938</ele>
        <time>2015-11-04T15:27:44.000Z</time>
      </trkpt>
      <trkpt lat="47.17704" lon="3.22514">
        <ele>219.23892211914</ele>
        <time>2015-11-04T15:27:44.000Z</time>
      </trkpt>
      <trkpt lat="47.17704" lon="3.22518">
        <ele>219.24494934082</ele>
        <time>2015-11-04T15:27:46.000Z</time>
      </trkpt>
      <trkpt lat="47.17705" lon="3.22522">
        <ele>219.23530578613</ele>
        <time>2015-11-04T15:27:48.000Z</time>
      </trkpt>
      <trkpt lat="47.17706" lon="3.22527">
        <ele>219.2310333252</ele>
        <time>2015-11-04T15:27:50.000Z</time>
      </trkpt>
      <trkpt lat="47.17707" lon="3.22533">
        <ele>219.23217773438</ele>
        <time>2015-11-04T15:27:54.000Z</time>
      </trkpt>
      <trkpt lat="47.17708" lon="3.22536">
        <ele>219.23808288574</ele>
        <time>2015-11-04T15:27:55.000Z</time>
      </trkpt>
      <trkpt lat="47.17709" lon="3.2254">
        <ele>219.25260925293</ele>
        <time>2015-11-04T15:27:57.000Z</time>
      </trkpt>
      <trkpt lat="47.17709" lon="3.22543">
        <ele>219.2660369873</ele>
        <time>2015-11-04T15:27:59.000Z</time>
      </trkpt>
      <trkpt lat="47.1771" lon="3.22547">
        <ele>219.27481079102</ele>
        <time>2015-11-04T15:28:01.000Z</time>
      </trkpt>
      <trkpt lat="47.17712" lon="3.22553">
        <ele>219.3072052002</ele>
        <time>2015-11-04T15:28:04.000Z</time>
      </trkpt>
      <trkpt lat="47.17713" lon="3.22556">
        <ele>219.34652709961</ele>
        <time>2015-11-04T15:28:06.000Z</time>
      </trkpt>
      <trkpt lat="47.17714" lon="3.22558">
        <ele>219.39474487305</ele>
        <time>2015-11-04T15:28:08.000Z</time>
      </trkpt>
      <trkpt lat="47.17715" lon="3.22563">
        <ele>219.45520019531</ele>
        <time>2015-11-04T15:28:11.000Z</time>
      </trkpt>
      <trkpt lat="47.17717" lon="3.22568">
        <ele>219.52787780762</ele>
        <time>2015-11-04T15:28:14.000Z</time>
      </trkpt>
      <trkpt lat="47.17719" lon="3.22573">
        <ele>219.59887695312</ele>
        <time>2015-11-04T15:28:17.000Z</time>
      </trkpt>
      <trkpt lat="47.1772" lon="3.22575">
        <ele>219.67309570312</ele>
        <time>2015-11-04T15:28:19.000Z</time>
      </trkpt>
      <trkpt lat="47.17721" lon="3.22579">
        <ele>219.75045776367</ele>
        <time>2015-11-04T15:28:22.000Z</time>
      </trkpt>
      <trkpt lat="47.17723" lon="3.22584">
        <ele>219.83964538574</ele>
        <time>2015-11-04T15:28:29.000Z</time>
      </trkpt>
      <trkpt lat="47.17724" lon="3.22586">
        <ele>219.94425964355</ele>
        <time>2015-11-04T15:28:30.000Z</time>
      </trkpt>
      <trkpt lat="47.17727" lon="3.22592">
        <ele>220.0930480957</ele>
        <time>2015-11-04T15:28:30.000Z</time>
      </trkpt>
      <trkpt lat="47.17728" lon="3.22595">
        <ele>220.25698852539</ele>
        <time>2015-11-04T15:28:32.000Z</time>
      </trkpt>
      <trkpt lat="47.17729" lon="3.22598">
        <ele>220.42948913574</ele>
        <time>2015-11-04T15:28:37.000Z</time>
      </trkpt>
      <trkpt lat="47.1773" lon="3.22604">
        <ele>220.62496948242</ele>
        <time>2015-11-04T15:28:37.000Z</time>
      </trkpt>
      <trkpt lat="47.17731" lon="3.22607">
        <ele>220.8200378418</ele>
        <time>2015-11-04T15:28:42.000Z</time>
      </trkpt>
      <trkpt lat="47.17733" lon="3.22613">
        <ele>220.9947052002</ele>
        <time>2015-11-04T15:28:42.000Z</time>
      </trkpt>
      <trkpt lat="47.17734" lon="3.22616">
        <ele>221.17141723633</ele>
        <time>2015-11-04T15:28:44.000Z</time>
      </trkpt>
      <trkpt lat="47.17736" lon="3.22621">
        <ele>221.37455749512</ele>
        <time>2015-11-04T15:28:47.000Z</time>
      </trkpt>
      <trkpt lat="47.17737" lon="3.22625">
        <ele>221.57421875</ele>
        <time>2015-11-04T15:28:49.000Z</time>
      </trkpt>
      <trkpt lat="47.17738" lon="3.22628">
        <ele>221.77001953125</ele>
        <time>2015-11-04T15:28:51.000Z</time>
      </trkpt>
      <trkpt lat="47.1774" lon="3.22632">
        <ele>221.96676635742</ele>
        <time>2015-11-04T15:28:54.000Z</time>
      </trkpt>
      <trkpt lat="47.17743" lon="3.22633">
        <ele>222.181640625</ele>
        <time>2015-11-04T15:28:56.000Z</time>
      </trkpt>
      <trkpt lat="47.17746" lon="3.22633">
        <ele>222.39602661133</ele>
        <time>2015-11-04T15:28:59.000Z</time>
      </trkpt>
      <trkpt lat="47.17747" lon="3.22633">
        <ele>222.5859375</ele>
        <time>2015-11-04T15:29:02.000Z</time>
      </trkpt>
      <trkpt lat="47.17748" lon="3.22635">
        <ele>222.77229309082</ele>
        <time>2015-11-04T15:29:09.000Z</time>
      </trkpt>
      <trkpt lat="47.17747" lon="3.22637">
        <ele>222.90490722656</ele>
        <time>2015-11-04T15:29:11.000Z</time>
      </trkpt>
      <trkpt lat="47.17747" lon="3.22641">
        <ele>223.00344848633</ele>
        <time>2015-11-04T15:29:13.000Z</time>
      </trkpt>
      <trkpt lat="47.17746" lon="3.22646">
        <ele>223.06913757324</ele>
        <time>2015-11-04T15:29:16.000Z</time>
      </trkpt>
      <trkpt lat="47.17747" lon="3.22648">
        <ele>223.13143920898</ele>
        <time>2015-11-04T15:29:18.000Z</time>
      </trkpt>
      <trkpt lat="47.17749" lon="3.22653">
        <ele>223.22998046875</ele>
        <time>2015-11-04T15:29:21.000Z</time>
      </trkpt>
      <trkpt lat="47.17749" lon="3.22655">
        <ele>223.3567199707</ele>
        <time>2015-11-04T15:29:23.000Z</time>
      </trkpt>
      <trkpt lat="47.17751" lon="3.22659">
        <ele>223.50671386719</ele>
        <time>2015-11-04T15:29:26.000Z</time>
      </trkpt>
      <trkpt lat="47.17752" lon="3.22663">
        <ele>223.66796875</ele>
        <time>2015-11-04T15:29:29.000Z</time>
      </trkpt>
      <trkpt lat="47.17754" lon="3.22666">
        <ele>223.83486938477</ele>
        <time>2015-11-04T15:29:31.000Z</time>
      </trkpt>
      <trkpt lat="47.17756" lon="3.22669">
        <ele>223.97384643555</ele>
        <time>2015-11-04T15:29:34.000Z</time>
      </trkpt>
      <trkpt lat="47.17757" lon="3.22671">
        <ele>224.11343383789</ele>
        <time>2015-11-04T15:29:36.000Z</time>
      </trkpt>
      <trkpt lat="47.17759" lon="3.22673">
        <ele>224.23649597168</ele>
        <time>2015-11-04T15:29:39.000Z</time>
      </trkpt>
      <trkpt lat="47.17761" lon="3.22673">
        <ele>224.34391784668</ele>
        <time>2015-11-04T15:29:41.000Z</time>
      </trkpt>
      <trkpt lat="47.17763" lon="3.22672">
        <ele>224.44393920898</ele>
        <time>2015-11-04T15:29:44.000Z</time>
      </trkpt>
      <trkpt lat="47.17764" lon="3.22671">
        <ele>224.51901245117</ele>
        <time>2015-11-04T15:29:47.000Z</time>
      </trkpt>
      <trkpt lat="47.17765" lon="3.2267">
        <ele>224.56204223633</ele>
        <time>2015-11-04T15:29:58.000Z</time>
      </trkpt>
      <trkpt lat="47.17765" lon="3.22667">
        <ele>224.57917785645</ele>
        <time>2015-11-04T15:30:00.000Z</time>
      </trkpt>
      <trkpt lat="47.17766" lon="3.22666">
        <ele>224.58358764648</ele>
        <time>2015-11-04T15:30:04.000Z</time>
      </trkpt>
      <trkpt lat="47.17767" lon="3.22666">
        <ele>224.57833862305</ele>
        <time>2015-11-04T15:30:07.000Z</time>
      </trkpt>
      <trkpt lat="47.17769" lon="3.22664">
        <ele>224.57968139648</ele>
        <time>2015-11-04T15:30:09.000Z</time>
      </trkpt>
      <trkpt lat="47.17771" lon="3.22661">
        <ele>224.58898925781</ele>
        <time>2015-11-04T15:30:12.000Z</time>
      </trkpt>
      <trkpt lat="47.17774" lon="3.22658">
        <ele>224.61613464355</ele>
        <time>2015-11-04T15:30:14.000Z</time>
      </trkpt>
      <trkpt lat="47.17776" lon="3.22657">
        <ele>224.6538848877</ele>
        <time>2015-11-04T15:30:17.000Z</time>
      </trkpt>
      <trkpt lat="47.17779" lon="3.22654">
        <ele>224.69717407227</ele>
        <time>2015-11-04T15:30:20.000Z</time>
      </trkpt>
      <trkpt lat="47.17781" lon="3.22651">
        <ele>224.7359161377</ele>
        <time>2015-11-04T15:30:23.000Z</time>
      </trkpt>
      <trkpt lat="47.17782" lon="3.22647">
        <ele>224.76498413086</ele>
        <time>2015-11-04T15:30:26.000Z</time>
      </trkpt>
      <trkpt lat="47.17783" lon="3.22646">
        <ele>224.78193664551</ele>
        <time>2015-11-04T15:30:29.000Z</time>
      </trkpt>
      <trkpt lat="47.17783" lon="3.22645">
        <ele>224.7880859375</ele>
        <time>2015-11-04T15:30:31.000Z</time>
      </trkpt>
      <trkpt lat="47.17785" lon="3.22643">
        <ele>224.78833007812</ele>
        <time>2015-11-04T15:30:33.000Z</time>
      </trkpt>
      <trkpt lat="47.17785" lon="3.22642">
        <ele>224.78256225586</ele>
        <time>2015-11-04T15:30:36.000Z</time>
      </trkpt>
      <trkpt lat="47.17787" lon="3.22638">
        <ele>224.78935241699</ele>
        <time>2015-11-04T15:30:39.000Z</time>
      </trkpt>
      <trkpt lat="47.17789" lon="3.22637">
        <ele>224.80683898926</ele>
        <time>2015-11-04T15:30:41.000Z</time>
      </trkpt>
      <trkpt lat="47.1779" lon="3.22639">
        <ele>224.84135437012</ele>
        <time>2015-11-04T15:30:48.000Z</time>
      </trkpt>
      <trkpt lat="47.17789" lon="3.22641">
        <ele>224.86743164062</ele>
        <time>2015-11-04T15:30:57.000Z</time>
      </trkpt>
      <trkpt lat="47.1779" lon="3.22641">
        <ele>224.9038848877</ele>
        <time>2015-11-04T15:31:01.000Z</time>
      </trkpt>
      <trkpt lat="47.17792" lon="3.22638">
        <ele>224.9390411377</ele>
        <time>2015-11-04T15:31:03.000Z</time>
      </trkpt>
      <trkpt lat="47.17793" lon="3.22636">
        <ele>224.96762084961</ele>
        <time>2015-11-04T15:31:05.000Z</time>
      </trkpt>
      <trkpt lat="47.17794" lon="3.22634">
        <ele>224.98245239258</ele>
        <time>2015-11-04T15:31:07.000Z</time>
      </trkpt>
      <trkpt lat="47.17795" lon="3.22632">
        <ele>225.0002746582</ele>
        <time>2015-11-04T15:31:10.000Z</time>
      </trkpt>
      <trkpt lat="47.17799" lon="3.22628">
        <ele>225.02456665039</ele>
        <time>2015-11-04T15:31:13.000Z</time>
      </trkpt>
      <trkpt lat="47.178" lon="3.22627">
        <ele>225.0523223877</ele>
        <time>2015-11-04T15:31:15.000Z</time>
      </trkpt>
      <trkpt lat="47.17801" lon="3.22625">
        <ele>225.08024597168</ele>
        <time>2015-11-04T15:31:17.000Z</time>
      </trkpt>
      <trkpt lat="47.17805" lon="3.22617">
        <ele>225.11421203613</ele>
        <time>2015-11-04T15:31:20.000Z</time>
      </trkpt>
      <trkpt lat="47.17807" lon="3.22614">
        <ele>225.15364074707</ele>
        <time>2015-11-04T15:31:23.000Z</time>
      </trkpt>
      <trkpt lat="47.17809" lon="3.22612">
        <ele>225.18801879883</ele>
        <time>2015-11-04T15:31:26.000Z</time>
      </trkpt>
      <trkpt lat="47.1781" lon="3.2261">
        <ele>225.22378540039</ele>
        <time>2015-11-04T15:31:28.000Z</time>
      </trkpt>
      <trkpt lat="47.17812" lon="3.22606">
        <ele>225.25654602051</ele>
        <time>2015-11-04T15:31:31.000Z</time>
      </trkpt>
      <trkpt lat="47.17812" lon="3.22602">
        <ele>225.27304077148</ele>
        <time>2015-11-04T15:31:39.000Z</time>
      </trkpt>
      <trkpt lat="47.17813" lon="3.22599">
        <ele>225.28170776367</ele>
        <time>2015-11-04T15:31:42.000Z</time>
      </trkpt>
      <trkpt lat="47.17814" lon="3.22598">
        <ele>225.28793334961</ele>
        <time>2015-11-04T15:31:45.000Z</time>
      </trkpt>
      <trkpt lat="47.17815" lon="3.22598">
        <ele>225.29598999023</ele>
        <time>2015-11-04T15:31:48.000Z</time>
      </trkpt>
      <trkpt lat="47.17817" lon="3.22595">
        <ele>225.30830383301</ele>
        <time>2015-11-04T15:31:52.000Z</time>
      </trkpt>
      <trkpt lat="47.17817" lon="3.22593">
        <ele>225.32710266113</ele>
        <time>2015-11-04T15:31:55.000Z</time>
      </trkpt>
      <trkpt lat="47.17819" lon="3.22592">
        <ele>225.36238098145</ele>
        <time>2015-11-04T15:31:56.000Z</time>
      </trkpt>
      <trkpt lat="47.17822" lon="3.2259">
        <ele>225.4091796875</ele>
        <time>2015-11-04T15:31:59.000Z</time>
      </trkpt>
      <trkpt lat="47.17824" lon="3.22589">
        <ele>225.46366882324</ele>
        <time>2015-11-04T15:32:01.000Z</time>
      </trkpt>
      <trkpt lat="47.17826" lon="3.22586">
        <ele>225.52639770508</ele>
        <time>2015-11-04T15:32:04.000Z</time>
      </trkpt>
      <trkpt lat="47.17827" lon="3.22585">
        <ele>225.59757995605</ele>
        <time>2015-11-04T15:32:16.000Z</time>
      </trkpt>
      <trkpt lat="47.1783" lon="3.22582">
        <ele>225.67288208008</ele>
        <time>2015-11-04T15:32:18.000Z</time>
      </trkpt>
      <trkpt lat="47.17832" lon="3.22581">
        <ele>225.73120117188</ele>
        <time>2015-11-04T15:32:19.000Z</time>
      </trkpt>
      <trkpt lat="47.17834" lon="3.22578">
        <ele>225.75527954102</ele>
        <time>2015-11-04T15:32:26.000Z</time>
      </trkpt>
      <trkpt lat="47.17838" lon="3.22578">
        <ele>225.7200012207</ele>
        <time>2015-11-04T15:32:26.000Z</time>
      </trkpt>
      <trkpt lat="47.17839" lon="3.22578">
        <ele>225.65005493164</ele>
        <time>2015-11-04T15:32:29.000Z</time>
      </trkpt>
      <trkpt lat="47.17844" lon="3.22578">
        <ele>225.49031066895</ele>
        <time>2015-11-04T15:32:32.000Z</time>
      </trkpt>
      <trkpt lat="47.17849" lon="3.22577">
        <ele>225.25988769531</ele>
        <time>2015-11-04T15:32:35.000Z</time>
      </trkpt>
      <trkpt lat="47.17849" lon="3.22577">
        <ele>225.25988769531</ele>
        <time>2015-11-04T15:32:57.000Z</time>
      </trkpt>
      <trkpt lat="47.17846" lon="3.22578">
        <ele>225.09053039551</ele>
        <time>2015-11-04T15:33:02.000Z</time>
      </trkpt>
      <trkpt lat="47.17843" lon="3.22579">
        <ele>225.02075195312</ele>
        <time>2015-11-04T15:33:14.000Z</time>
      </trkpt>
      <trkpt lat="47.17841" lon="3.22578">
        <ele>224.99092102051</ele>
        <time>2015-11-04T15:33:17.000Z</time>
      </trkpt>
      <trkpt lat="47.17837" lon="3.22574">
        <ele>225.07148742676</ele>
        <time>2015-11-04T15:33:19.000Z</time>
      </trkpt>
      <trkpt lat="47.17835" lon="3.22574">
        <ele>225.24157714844</ele>
        <time>2015-11-04T15:33:22.000Z</time>
      </trkpt>
      <trkpt lat="47.17833" lon="3.22574">
        <ele>225.3908996582</ele>
        <time>2015-11-04T15:33:26.000Z</time>
      </trkpt>
      <trkpt lat="47.17832" lon="3.22572">
        <ele>225.46125793457</ele>
        <time>2015-11-04T15:33:29.000Z</time>
      </trkpt>
      <trkpt lat="47.17828" lon="3.22573">
        <ele>225.49040222168</ele>
        <time>2015-11-04T15:33:32.000Z</time>
      </trkpt>
      <trkpt lat="47.17826" lon="3.22576">
        <ele>225.49092102051</ele>
        <time>2015-11-04T15:33:34.000Z</time>
      </trkpt>
      <trkpt lat="47.17824" lon="3.2258">
        <ele>225.47538757324</ele>
        <time>2015-11-04T15:33:36.000Z</time>
      </trkpt>
      <trkpt lat="47.17822" lon="3.22583">
        <ele>225.43249511719</ele>
        <time>2015-11-04T15:33:43.000Z</time>
      </trkpt>
      <trkpt lat="47.17818" lon="3.22588">
        <ele>225.3942565918</ele>
        <time>2015-11-04T15:33:44.000Z</time>
      </trkpt>
      <trkpt lat="47.17815" lon="3.22591">
        <ele>225.36869812012</ele>
        <time>2015-11-04T15:33:44.000Z</time>
      </trkpt>
      <trkpt lat="47.17813" lon="3.22592">
        <ele>225.31474304199</ele>
        <time>2015-11-04T15:33:46.000Z</time>
      </trkpt>
      <trkpt lat="47.1781" lon="3.22593">
        <ele>225.23539733887</ele>
        <time>2015-11-04T15:33:49.000Z</time>
      </trkpt>
      <trkpt lat="47.17807" lon="3.22596">
        <ele>225.13510131836</ele>
        <time>2015-11-04T15:33:52.000Z</time>
      </trkpt>
      <trkpt lat="47.17805" lon="3.22598">
        <ele>225.0454864502</ele>
        <time>2015-11-04T15:33:54.000Z</time>
      </trkpt>
      <trkpt lat="47.17802" lon="3.22602">
        <ele>224.95307922363</ele>
        <time>2015-11-04T15:33:57.000Z</time>
      </trkpt>
      <trkpt lat="47.17799" lon="3.22605">
        <ele>224.86978149414</ele>
        <time>2015-11-04T15:34:00.000Z</time>
      </trkpt>
      <trkpt lat="47.17796" lon="3.2261">
        <ele>224.78886413574</ele>
        <time>2015-11-04T15:34:03.000Z</time>
      </trkpt>
      <trkpt lat="47.17794" lon="3.22612">
        <ele>224.73281860352</ele>
        <time>2015-11-04T15:34:05.000Z</time>
      </trkpt>
      <trkpt lat="47.17793" lon="3.22616">
        <ele>224.68453979492</ele>
        <time>2015-11-04T15:34:08.000Z</time>
      </trkpt>
      <trkpt lat="47.1779" lon="3.22622">
        <ele>224.65438842773</ele>
        <time>2015-11-04T15:34:11.000Z</time>
      </trkpt>
      <trkpt lat="47.17789" lon="3.22625">
        <ele>224.63549804688</ele>
        <time>2015-11-04T15:34:13.000Z</time>
      </trkpt>
      <trkpt lat="47.17788" lon="3.22628">
        <ele>224.63327026367</ele>
        <time>2015-11-04T15:34:15.000Z</time>
      </trkpt>
      <trkpt lat="47.17786" lon="3.22631">
        <ele>224.63088989258</ele>
        <time>2015-11-04T15:34:18.000Z</time>
      </trkpt>
      <trkpt lat="47.17781" lon="3.22639">
        <ele>224.61738586426</ele>
        <time>2015-11-04T15:34:30.000Z</time>
      </trkpt>
      <trkpt lat="47.17777" lon="3.22644">
        <ele>224.59379577637</ele>
        <time>2015-11-04T15:34:33.000Z</time>
      </trkpt>
      <trkpt lat="47.17774" lon="3.2265">
        <ele>224.57485961914</ele>
        <time>2015-11-04T15:34:39.000Z</time>
      </trkpt>
      <trkpt lat="47.17774" lon="3.22652">
        <ele>224.56391906738</ele>
        <time>2015-11-04T15:34:42.000Z</time>
      </trkpt>
      <trkpt lat="47.17775" lon="3.22654">
        <ele>224.564453125</ele>
        <time>2015-11-04T15:34:45.000Z</time>
      </trkpt>
      <trkpt lat="47.17778" lon="3.22655">
        <ele>224.60525512695</ele>
        <time>2015-11-04T15:34:55.000Z</time>
      </trkpt>
      <trkpt lat="47.17778" lon="3.22655">
        <ele>224.60525512695</ele>
        <time>2015-11-04T15:35:15.000Z</time>
      </trkpt>
      <trkpt lat="47.17777" lon="3.22656">
        <ele>224.65608215332</ele>
        <time>2015-11-04T15:35:28.000Z</time>
      </trkpt>
      <trkpt lat="47.17777" lon="3.22654">
        <ele>224.69047546387</ele>
        <time>2015-11-04T15:35:31.000Z</time>
      </trkpt>
      <trkpt lat="47.17776" lon="3.22654">
        <ele>224.70938110352</ele>
        <time>2015-11-04T15:35:33.000Z</time>
      </trkpt>
      <trkpt lat="47.17772" lon="3.22657">
        <ele>224.70239257812</ele>
        <time>2015-11-04T15:35:36.000Z</time>
      </trkpt>
      <trkpt lat="47.1777" lon="3.2266">
        <ele>224.66450500488</ele>
        <time>2015-11-04T15:35:39.000Z</time>
      </trkpt>
      <trkpt lat="47.17767" lon="3.22664">
        <ele>224.61869812012</ele>
        <time>2015-11-04T15:35:42.000Z</time>
      </trkpt>
      <trkpt lat="47.17764" lon="3.22667">
        <ele>224.58198547363</ele>
        <time>2015-11-04T15:35:45.000Z</time>
      </trkpt>
      <trkpt lat="47.17763" lon="3.22671">
        <ele>224.5569152832</ele>
        <time>2015-11-04T15:35:47.000Z</time>
      </trkpt>
      <trkpt lat="47.17764" lon="3.22678">
        <ele>224.58633422852</ele>
        <time>2015-11-04T15:35:50.000Z</time>
      </trkpt>
      <trkpt lat="47.17767" lon="3.22684">
        <ele>224.6689453125</ele>
        <time>2015-11-04T15:35:53.000Z</time>
      </trkpt>
      <trkpt lat="47.17768" lon="3.22687">
        <ele>224.7798614502</ele>
        <time>2015-11-04T15:35:56.000Z</time>
      </trkpt>
      <trkpt lat="47.1777" lon="3.2269">
        <ele>224.91963195801</ele>
        <time>2015-11-04T15:35:59.000Z</time>
      </trkpt>
      <trkpt lat="47.17772" lon="3.22693">
        <ele>225.07929992676</ele>
        <time>2015-11-04T15:36:01.000Z</time>
      </trkpt>
      <trkpt lat="47.17773" lon="3.22695">
        <ele>225.21183776855</ele>
        <time>2015-11-04T15:36:04.000Z</time>
      </trkpt>
      <trkpt lat="47.17774" lon="3.22697">
        <ele>225.31437683105</ele>
        <time>2015-11-04T15:36:06.000Z</time>
      </trkpt>
      <trkpt lat="47.17777" lon="3.22702">
        <ele>225.43319702148</ele>
        <time>2015-11-04T15:36:14.000Z</time>
      </trkpt>
      <trkpt lat="47.17778" lon="3.22703">
        <ele>225.53569030762</ele>
        <time>2015-11-04T15:36:14.000Z</time>
      </trkpt>
      <trkpt lat="47.17781" lon="3.22709">
        <ele>225.65744018555</ele>
        <time>2015-11-04T15:36:16.000Z</time>
      </trkpt>
      <trkpt lat="47.17783" lon="3.22712">
        <ele>225.78507995605</ele>
        <time>2015-11-04T15:36:16.000Z</time>
      </trkpt>
      <trkpt lat="47.17785" lon="3.22714">
        <ele>225.91458129883</ele>
        <time>2015-11-04T15:36:18.000Z</time>
      </trkpt>
      <trkpt lat="47.17786" lon="3.22717">
        <ele>226.02841186523</ele>
        <time>2015-11-04T15:36:20.000Z</time>
      </trkpt>
      <trkpt lat="47.17789" lon="3.2272">
        <ele>226.15832519531</ele>
        <time>2015-11-04T15:36:23.000Z</time>
      </trkpt>
      <trkpt lat="47.17791" lon="3.22725">
        <ele>226.27433776855</ele>
        <time>2015-11-04T15:36:27.000Z</time>
      </trkpt>
      <trkpt lat="47.17793" lon="3.22727">
        <ele>226.38973999023</ele>
        <time>2015-11-04T15:36:28.000Z</time>
      </trkpt>
      <trkpt lat="47.17796" lon="3.2273">
        <ele>226.50942993164</ele>
        <time>2015-11-04T15:36:31.000Z</time>
      </trkpt>
      <trkpt lat="47.17799" lon="3.22733">
        <ele>226.63607788086</ele>
        <time>2015-11-04T15:36:34.000Z</time>
      </trkpt>
      <trkpt lat="47.17802" lon="3.22737">
        <ele>226.76127624512</ele>
        <time>2015-11-04T15:36:37.000Z</time>
      </trkpt>
      <trkpt lat="47.17805" lon="3.22741">
        <ele>226.88659667969</ele>
        <time>2015-11-04T15:36:40.000Z</time>
      </trkpt>
      <trkpt lat="47.17808" lon="3.22745">
        <ele>227.02560424805</ele>
        <time>2015-11-04T15:36:43.000Z</time>
      </trkpt>
      <trkpt lat="47.1781" lon="3.22748">
        <ele>227.16122436523</ele>
        <time>2015-11-04T15:36:45.000Z</time>
      </trkpt>
      <trkpt lat="47.17812" lon="3.22752">
        <ele>227.28475952148</ele>
        <time>2015-11-04T15:36:48.000Z</time>
      </trkpt>
      <trkpt lat="47.17815" lon="3.22755">
        <ele>227.39645385742</ele>
        <time>2015-11-04T15:36:51.000Z</time>
      </trkpt>
      <trkpt lat="47.17817" lon="3.22759">
        <ele>227.49172973633</ele>
        <time>2015-11-04T15:36:54.000Z</time>
      </trkpt>
      <trkpt lat="47.17819" lon="3.22762">
        <ele>227.56413269043</ele>
        <time>2015-11-04T15:36:56.000Z</time>
      </trkpt>
      <trkpt lat="47.17821" lon="3.22764">
        <ele>227.62387084961</ele>
        <time>2015-11-04T15:36:59.000Z</time>
      </trkpt>
      <trkpt lat="47.17821" lon="3.22764">
        <ele>227.62387084961</ele>
        <time>2015-11-04T15:37:19.000Z</time>
      </trkpt>
      <trkpt lat="47.17821" lon="3.22766">
        <ele>227.66934204102</ele>
        <time>2015-11-04T15:37:37.000Z</time>
      </trkpt>
      <trkpt lat="47.17822" lon="3.22769">
        <ele>227.70597839355</ele>
        <time>2015-11-04T15:37:39.000Z</time>
      </trkpt>
      <trkpt lat="47.17824" lon="3.22773">
        <ele>227.7392578125</ele>
        <time>2015-11-04T15:37:42.000Z</time>
      </trkpt>
      <trkpt lat="47.17825" lon="3.22775">
        <ele>227.76789855957</ele>
        <time>2015-11-04T15:37:44.000Z</time>
      </trkpt>
      <trkpt lat="47.17827" lon="3.2278">
        <ele>227.79768371582</ele>
        <time>2015-11-04T15:37:47.000Z</time>
      </trkpt>
      <trkpt lat="47.1783" lon="3.22785">
        <ele>227.8384552002</ele>
        <time>2015-11-04T15:37:50.000Z</time>
      </trkpt>
      <trkpt lat="47.17833" lon="3.22788">
        <ele>227.88391113281</ele>
        <time>2015-11-04T15:37:53.000Z</time>
      </trkpt>
      <trkpt lat="47.17835" lon="3.22792">
        <ele>227.92080688477</ele>
        <time>2015-11-04T15:37:56.000Z</time>
      </trkpt>
      <trkpt lat="47.17837" lon="3.22795">
        <ele>227.95370483398</ele>
        <time>2015-11-04T15:37:59.000Z</time>
      </trkpt>
      <trkpt lat="47.1784" lon="3.22799">
        <ele>227.9814453125</ele>
        <time>2015-11-04T15:38:03.000Z</time>
      </trkpt>
      <trkpt lat="47.17841" lon="3.22803">
        <ele>228.00227355957</ele>
        <time>2015-11-04T15:38:04.000Z</time>
      </trkpt>
      <trkpt lat="47.17843" lon="3.22805">
        <ele>228.02090454102</ele>
        <time>2015-11-04T15:38:06.000Z</time>
      </trkpt>
      <trkpt lat="47.17846" lon="3.22808">
        <ele>228.05029296875</ele>
        <time>2015-11-04T15:38:09.000Z</time>
      </trkpt>
      <trkpt lat="47.17848" lon="3.2281">
        <ele>228.09020996094</ele>
        <time>2015-11-04T15:38:11.000Z</time>
      </trkpt>
      <trkpt lat="47.1785" lon="3.22814">
        <ele>228.1423034668</ele>
        <time>2015-11-04T15:38:14.000Z</time>
      </trkpt>
      <trkpt lat="47.17851" lon="3.22817">
        <ele>228.20263671875</ele>
        <time>2015-11-04T15:38:16.000Z</time>
      </trkpt>
      <trkpt lat="47.17854" lon="3.22822">
        <ele>228.28945922852</ele>
        <time>2015-11-04T15:38:19.000Z</time>
      </trkpt>
      <trkpt lat="47.17856" lon="3.22825">
        <ele>228.38464355469</ele>
        <time>2015-11-04T15:38:21.000Z</time>
      </trkpt>
      <trkpt lat="47.17857" lon="3.22828">
        <ele>228.49328613281</ele>
        <time>2015-11-04T15:38:23.000Z</time>
      </trkpt>
      <trkpt lat="47.17859" lon="3.22831">
        <ele>228.60934448242</ele>
        <time>2015-11-04T15:38:25.000Z</time>
      </trkpt>
      <trkpt lat="47.17862" lon="3.22834">
        <ele>228.75009155273</ele>
        <time>2015-11-04T15:38:28.000Z</time>
      </trkpt>
      <trkpt lat="47.17864" lon="3.22838">
        <ele>228.88786315918</ele>
        <time>2015-11-04T15:38:31.000Z</time>
      </trkpt>
      <trkpt lat="47.17866" lon="3.22843">
        <ele>229.04414367676</ele>
        <time>2015-11-04T15:38:34.000Z</time>
      </trkpt>
      <trkpt lat="47.1787" lon="3.22848">
        <ele>229.22424316406</ele>
        <time>2015-11-04T15:38:37.000Z</time>
      </trkpt>
      <trkpt lat="47.17872" lon="3.22852">
        <ele>229.41796875</ele>
        <time>2015-11-04T15:38:40.000Z</time>
      </trkpt>
      <trkpt lat="47.17875" lon="3.22855">
        <ele>229.60795593262</ele>
        <time>2015-11-04T15:38:43.000Z</time>
      </trkpt>
      <trkpt lat="47.17876" lon="3.22857">
        <ele>229.78877258301</ele>
        <time>2015-11-04T15:38:45.000Z</time>
      </trkpt>
      <trkpt lat="47.17878" lon="3.22862">
        <ele>229.97573852539</ele>
        <time>2015-11-04T15:38:48.000Z</time>
      </trkpt>
      <trkpt lat="47.17881" lon="3.22867">
        <ele>230.16206359863</ele>
        <time>2015-11-04T15:38:51.000Z</time>
      </trkpt>
      <trkpt lat="47.17883" lon="3.2287">
        <ele>230.35200500488</ele>
        <time>2015-11-04T15:38:54.000Z</time>
      </trkpt>
      <trkpt lat="47.17885" lon="3.22874">
        <ele>230.54670715332</ele>
        <time>2015-11-04T15:38:57.000Z</time>
      </trkpt>
      <trkpt lat="47.17887" lon="3.22877">
        <ele>230.74740600586</ele>
        <time>2015-11-04T15:38:59.000Z</time>
      </trkpt>
      <trkpt lat="47.17888" lon="3.22879">
        <ele>230.93305969238</ele>
        <time>2015-11-04T15:39:01.000Z</time>
      </trkpt>
      <trkpt lat="47.1789" lon="3.22884">
        <ele>231.11340332031</ele>
        <time>2015-11-04T15:39:05.000Z</time>
      </trkpt>
      <trkpt lat="47.17893" lon="3.22888">
        <ele>231.30740356445</ele>
        <time>2015-11-04T15:39:07.000Z</time>
      </trkpt>
      <trkpt lat="47.17894" lon="3.22891">
        <ele>231.49308776855</ele>
        <time>2015-11-04T15:39:09.000Z</time>
      </trkpt>
      <trkpt lat="47.17897" lon="3.22895">
        <ele>231.70658874512</ele>
        <time>2015-11-04T15:39:12.000Z</time>
      </trkpt>
      <trkpt lat="47.179" lon="3.22898">
        <ele>231.9458770752</ele>
        <time>2015-11-04T15:39:15.000Z</time>
      </trkpt>
      <trkpt lat="47.17903" lon="3.22901">
        <ele>232.18594360352</ele>
        <time>2015-11-04T15:39:17.000Z</time>
      </trkpt>
      <trkpt lat="47.17906" lon="3.22905">
        <ele>232.43022155762</ele>
        <time>2015-11-04T15:39:20.000Z</time>
      </trkpt>
      <trkpt lat="47.17908" lon="3.22909">
        <ele>232.69132995605</ele>
        <time>2015-11-04T15:39:23.000Z</time>
      </trkpt>
      <trkpt lat="47.1791" lon="3.22912">
        <ele>232.95162963867</ele>
        <time>2015-11-04T15:39:26.000Z</time>
      </trkpt>
      <trkpt lat="47.17913" lon="3.22916">
        <ele>233.20683288574</ele>
        <time>2015-11-04T15:39:29.000Z</time>
      </trkpt>
      <trkpt lat="47.17915" lon="3.2292">
        <ele>233.44418334961</ele>
        <time>2015-11-04T15:39:32.000Z</time>
      </trkpt>
      <trkpt lat="47.17917" lon="3.22923">
        <ele>233.62133789062</ele>
        <time>2015-11-04T15:39:34.000Z</time>
      </trkpt>
      <trkpt lat="47.17918" lon="3.22925">
        <ele>233.72988891602</ele>
        <time>2015-11-04T15:39:36.000Z</time>
      </trkpt>
      <trkpt lat="47.1792" lon="3.22928">
        <ele>233.76303100586</ele>
        <time>2015-11-04T15:39:38.000Z</time>
      </trkpt>
      <trkpt lat="47.17923" lon="3.22931">
        <ele>233.7214050293</ele>
        <time>2015-11-04T15:39:41.000Z</time>
      </trkpt>
      <trkpt lat="47.17925" lon="3.22935">
        <ele>233.63236999512</ele>
        <time>2015-11-04T15:39:44.000Z</time>
      </trkpt>
      <trkpt lat="47.17927" lon="3.22939">
        <ele>233.52868652344</ele>
        <time>2015-11-04T15:39:47.000Z</time>
      </trkpt>
      <trkpt lat="47.1793" lon="3.22942">
        <ele>233.42984008789</ele>
        <time>2015-11-04T15:39:50.000Z</time>
      </trkpt>
      <trkpt lat="47.17932" lon="3.22945">
        <ele>233.34387207031</ele>
        <time>2015-11-04T15:39:52.000Z</time>
      </trkpt>
      <trkpt lat="47.17934" lon="3.22947">
        <ele>233.27444458008</ele>
        <time>2015-11-04T15:39:55.000Z</time>
      </trkpt>
      <trkpt lat="47.17937" lon="3.22951">
        <ele>233.22245788574</ele>
        <time>2015-11-04T15:39:58.000Z</time>
      </trkpt>
      <trkpt lat="47.17939" lon="3.22953">
        <ele>233.18557739258</ele>
        <time>2015-11-04T15:40:00.000Z</time>
      </trkpt>
      <trkpt lat="47.17941" lon="3.22956">
        <ele>233.16413879395</ele>
        <time>2015-11-04T15:40:02.000Z</time>
      </trkpt>
      <trkpt lat="47.17944" lon="3.2296">
        <ele>233.15644836426</ele>
        <time>2015-11-04T15:40:06.000Z</time>
      </trkpt>
      <trkpt lat="47.17946" lon="3.22963">
        <ele>233.16300964355</ele>
        <time>2015-11-04T15:40:07.000Z</time>
      </trkpt>
      <trkpt lat="47.17949" lon="3.22967">
        <ele>233.18823242188</ele>
        <time>2015-11-04T15:40:10.000Z</time>
      </trkpt>
      <trkpt lat="47.17951" lon="3.2297">
        <ele>233.2259979248</ele>
        <time>2015-11-04T15:40:12.000Z</time>
      </trkpt>
      <trkpt lat="47.17952" lon="3.22973">
        <ele>233.27632141113</ele>
        <time>2015-11-04T15:40:14.000Z</time>
      </trkpt>
      <trkpt lat="47.17955" lon="3.22976">
        <ele>233.33821105957</ele>
        <time>2015-11-04T15:40:16.000Z</time>
      </trkpt>
      <trkpt lat="47.17957" lon="3.22981">
        <ele>233.42324829102</ele>
        <time>2015-11-04T15:40:19.000Z</time>
      </trkpt>
      <trkpt lat="47.17959" lon="3.22984">
        <ele>233.51672363281</ele>
        <time>2015-11-04T15:40:22.000Z</time>
      </trkpt>
      <trkpt lat="47.1796" lon="3.22988">
        <ele>233.61953735352</ele>
        <time>2015-11-04T15:40:23.000Z</time>
      </trkpt>
      <trkpt lat="47.17962" lon="3.22992">
        <ele>233.73892211914</ele>
        <time>2015-11-04T15:40:25.000Z</time>
      </trkpt>
      <trkpt lat="47.17965" lon="3.22997">
        <ele>233.89468383789</ele>
        <time>2015-11-04T15:40:28.000Z</time>
      </trkpt>
      <trkpt lat="47.17967" lon="3.22999">
        <ele>234.04829406738</ele>
        <time>2015-11-04T15:40:30.000Z</time>
      </trkpt>
      <trkpt lat="47.1797" lon="3.23003">
        <ele>234.19564819336</ele>
        <time>2015-11-04T15:40:33.000Z</time>
      </trkpt>
      <trkpt lat="47.17972" lon="3.23007">
        <ele>234.33129882812</ele>
        <time>2015-11-04T15:40:36.000Z</time>
      </trkpt>
      <trkpt lat="47.17976" lon="3.2301">
        <ele>234.45986938477</ele>
        <time>2015-11-04T15:40:39.000Z</time>
      </trkpt>
      <trkpt lat="47.17978" lon="3.23012">
        <ele>234.53628540039</ele>
        <time>2015-11-04T15:40:41.000Z</time>
      </trkpt>
      <trkpt lat="47.1798" lon="3.23017">
        <ele>234.58389282227</ele>
        <time>2015-11-04T15:40:44.000Z</time>
      </trkpt>
      <trkpt lat="47.17982" lon="3.2302">
        <ele>234.61795043945</ele>
        <time>2015-11-04T15:40:47.000Z</time>
      </trkpt>
      <trkpt lat="47.17985" lon="3.23023">
        <ele>234.63888549805</ele>
        <time>2015-11-04T15:40:51.000Z</time>
      </trkpt>
      <trkpt lat="47.17986" lon="3.23027">
        <ele>234.62890625</ele>
        <time>2015-11-04T15:40:52.000Z</time>
      </trkpt>
      <trkpt lat="47.17989" lon="3.2303">
        <ele>234.61494445801</ele>
        <time>2015-11-04T15:40:55.000Z</time>
      </trkpt>
      <trkpt lat="47.1799" lon="3.23033">
        <ele>234.59452819824</ele>
        <time>2015-11-04T15:40:57.000Z</time>
      </trkpt>
      <trkpt lat="47.17993" lon="3.23036">
        <ele>234.56887817383</ele>
        <time>2015-11-04T15:41:00.000Z</time>
      </trkpt>
      <trkpt lat="47.17994" lon="3.23039">
        <ele>234.53649902344</ele>
        <time>2015-11-04T15:41:02.000Z</time>
      </trkpt>
      <trkpt lat="47.17997" lon="3.23041">
        <ele>234.50399780273</ele>
        <time>2015-11-04T15:41:05.000Z</time>
      </trkpt>
      <trkpt lat="47.17999" lon="3.23046">
        <ele>234.45552062988</ele>
        <time>2015-11-04T15:41:08.000Z</time>
      </trkpt>
      <trkpt lat="47.18" lon="3.23049">
        <ele>234.39045715332</ele>
        <time>2015-11-04T15:41:10.000Z</time>
      </trkpt>
      <trkpt lat="47.18003" lon="3.23053">
        <ele>234.27383422852</ele>
        <time>2015-11-04T15:41:13.000Z</time>
      </trkpt>
      <trkpt lat="47.18005" lon="3.23057">
        <ele>234.10928344727</ele>
        <time>2015-11-04T15:41:16.000Z</time>
      </trkpt>
      <trkpt lat="47.18008" lon="3.23062">
        <ele>233.88862609863</ele>
        <time>2015-11-04T15:41:19.000Z</time>
      </trkpt>
      <trkpt lat="47.1801" lon="3.23067">
        <ele>233.63887023926</ele>
        <time>2015-11-04T15:41:22.000Z</time>
      </trkpt>
      <trkpt lat="47.18011" lon="3.23071">
        <ele>233.38298034668</ele>
        <time>2015-11-04T15:41:24.000Z</time>
      </trkpt>
      <trkpt lat="47.18012" lon="3.23074">
        <ele>233.15219116211</ele>
        <time>2015-11-04T15:41:26.000Z</time>
      </trkpt>
      <trkpt lat="47.18014" lon="3.23078">
        <ele>232.95077514648</ele>
        <time>2015-11-04T15:41:28.000Z</time>
      </trkpt>
      <trkpt lat="47.18016" lon="3.23083">
        <ele>232.77397155762</ele>
        <time>2015-11-04T15:41:31.000Z</time>
      </trkpt>
      <trkpt lat="47.18018" lon="3.23087">
        <ele>232.61474609375</ele>
        <time>2015-11-04T15:41:33.000Z</time>
      </trkpt>
      <trkpt lat="47.18021" lon="3.23094">
        <ele>232.44746398926</ele>
        <time>2015-11-04T15:41:36.000Z</time>
      </trkpt>
      <trkpt lat="47.18023" lon="3.231">
        <ele>232.28227233887</ele>
        <time>2015-11-04T15:41:39.000Z</time>
      </trkpt>
      <trkpt lat="47.18024" lon="3.23103">
        <ele>232.12753295898</ele>
        <time>2015-11-04T15:41:42.000Z</time>
      </trkpt>
      <trkpt lat="47.18024" lon="3.23105">
        <ele>232.00540161133</ele>
        <time>2015-11-04T15:41:44.000Z</time>
      </trkpt>
      <trkpt lat="47.18025" lon="3.23107">
        <ele>231.90463256836</ele>
        <time>2015-11-04T15:41:46.000Z</time>
      </trkpt>
      <trkpt lat="47.18027" lon="3.23112">
        <ele>231.82070922852</ele>
        <time>2015-11-04T15:41:49.000Z</time>
      </trkpt>
      <trkpt lat="47.18028" lon="3.23115">
        <ele>231.75175476074</ele>
        <time>2015-11-04T15:41:51.000Z</time>
      </trkpt>
      <trkpt lat="47.18029" lon="3.23118">
        <ele>231.69018554688</ele>
        <time>2015-11-04T15:41:53.000Z</time>
      </trkpt>
      <trkpt lat="47.18032" lon="3.23123">
        <ele>231.61299133301</ele>
        <time>2015-11-04T15:41:56.000Z</time>
      </trkpt>
      <trkpt lat="47.18034" lon="3.23126">
        <ele>231.53446960449</ele>
        <time>2015-11-04T15:41:58.000Z</time>
      </trkpt>
      <trkpt lat="47.18035" lon="3.2313">
        <ele>231.46391296387</ele>
        <time>2015-11-04T15:42:01.000Z</time>
      </trkpt>
      <trkpt lat="47.18037" lon="3.23133">
        <ele>231.3949432373</ele>
        <time>2015-11-04T15:42:03.000Z</time>
      </trkpt>
      <trkpt lat="47.18038" lon="3.23136">
        <ele>231.33126831055</ele>
        <time>2015-11-04T15:42:05.000Z</time>
      </trkpt>
      <trkpt lat="47.1804" lon="3.23139">
        <ele>231.28164672852</ele>
        <time>2015-11-04T15:42:07.000Z</time>
      </trkpt>
      <trkpt lat="47.18042" lon="3.23145">
        <ele>231.22793579102</ele>
        <time>2015-11-04T15:42:10.000Z</time>
      </trkpt>
      <trkpt lat="47.18045" lon="3.2315">
        <ele>231.17819213867</ele>
        <time>2015-11-04T15:42:13.000Z</time>
      </trkpt>
      <trkpt lat="47.18047" lon="3.23153">
        <ele>231.13500976562</ele>
        <time>2015-11-04T15:42:15.000Z</time>
      </trkpt>
      <trkpt lat="47.18048" lon="3.23157">
        <ele>231.09329223633</ele>
        <time>2015-11-04T15:42:18.000Z</time>
      </trkpt>
      <trkpt lat="47.18051" lon="3.23162">
        <ele>231.05683898926</ele>
        <time>2015-11-04T15:42:21.000Z</time>
      </trkpt>
      <trkpt lat="47.18053" lon="3.23166">
        <ele>231.03256225586</ele>
        <time>2015-11-04T15:42:24.000Z</time>
      </trkpt>
      <trkpt lat="47.18055" lon="3.23171">
        <ele>231.0210723877</ele>
        <time>2015-11-04T15:42:27.000Z</time>
      </trkpt>
      <trkpt lat="47.18057" lon="3.23174">
        <ele>231.0163269043</ele>
        <time>2015-11-04T15:42:29.000Z</time>
      </trkpt>
      <trkpt lat="47.1806" lon="3.2318">
        <ele>231.01965332031</ele>
        <time>2015-11-04T15:42:32.000Z</time>
      </trkpt>
      <trkpt lat="47.18061" lon="3.23183">
        <ele>231.02780151367</ele>
        <time>2015-11-04T15:42:34.000Z</time>
      </trkpt>
      <trkpt lat="47.18064" lon="3.23187">
        <ele>231.03921508789</ele>
        <time>2015-11-04T15:42:37.000Z</time>
      </trkpt>
      <trkpt lat="47.18064" lon="3.2319">
        <ele>231.04861450195</ele>
        <time>2015-11-04T15:42:39.000Z</time>
      </trkpt>
      <trkpt lat="47.18066" lon="3.23194">
        <ele>231.05647277832</ele>
        <time>2015-11-04T15:42:42.000Z</time>
      </trkpt>
      <trkpt lat="47.18068" lon="3.23199">
        <ele>231.06172180176</ele>
        <time>2015-11-04T15:42:45.000Z</time>
      </trkpt>
      <trkpt lat="47.1807" lon="3.23203">
        <ele>231.06604003906</ele>
        <time>2015-11-04T15:42:48.000Z</time>
      </trkpt>
      <trkpt lat="47.18072" lon="3.23207">
        <ele>231.06806945801</ele>
        <time>2015-11-04T15:42:51.000Z</time>
      </trkpt>
      <trkpt lat="47.18074" lon="3.23211">
        <ele>231.0666809082</ele>
        <time>2015-11-04T15:42:54.000Z</time>
      </trkpt>
      <trkpt lat="47.18076" lon="3.23215">
        <ele>231.06369018555</ele>
        <time>2015-11-04T15:42:57.000Z</time>
      </trkpt>
      <trkpt lat="47.18077" lon="3.23217">
        <ele>231.05880737305</ele>
        <time>2015-11-04T15:43:00.000Z</time>
      </trkpt>
      <trkpt lat="47.18078" lon="3.2322">
        <ele>231.05294799805</ele>
        <time>2015-11-04T15:43:03.000Z</time>
      </trkpt>
      <trkpt lat="47.18078" lon="3.2322">
        <ele>231.05294799805</ele>
        <time>2015-11-04T15:43:23.000Z</time>
      </trkpt>
      <trkpt lat="47.18078" lon="3.23221">
        <ele>231.04751586914</ele>
        <time>2015-11-04T15:44:02.000Z</time>
      </trkpt>
      <trkpt lat="47.18079" lon="3.23224">
        <ele>231.0433807373</ele>
        <time>2015-11-04T15:44:03.000Z</time>
      </trkpt>
      <trkpt lat="47.18081" lon="3.23229">
        <ele>231.03703308105</ele>
        <time>2015-11-04T15:44:03.000Z</time>
      </trkpt>
      <trkpt lat="47.18082" lon="3.23232">
        <ele>231.03048706055</ele>
        <time>2015-11-04T15:44:04.000Z</time>
      </trkpt>
      <trkpt lat="47.18085" lon="3.23234">
        <ele>231.02604675293</ele>
        <time>2015-11-04T15:44:07.000Z</time>
      </trkpt>
      <trkpt lat="47.18088" lon="3.23237">
        <ele>231.03176879883</ele>
        <time>2015-11-04T15:44:08.000Z</time>
      </trkpt>
      <trkpt lat="47.18089" lon="3.23238">
        <ele>231.04487609863</ele>
        <time>2015-11-04T15:44:10.000Z</time>
      </trkpt>
      <trkpt lat="47.18092" lon="3.23242">
        <ele>231.07431030273</ele>
        <time>2015-11-04T15:44:13.000Z</time>
      </trkpt>
      <trkpt lat="47.18094" lon="3.23244">
        <ele>231.11618041992</ele>
        <time>2015-11-04T15:44:17.000Z</time>
      </trkpt>
      <trkpt lat="47.18095" lon="3.23246">
        <ele>231.16293334961</ele>
        <time>2015-11-04T15:44:18.000Z</time>
      </trkpt>
      <trkpt lat="47.18096" lon="3.23248">
        <ele>231.20515441895</ele>
        <time>2015-11-04T15:44:20.000Z</time>
      </trkpt>
      <trkpt lat="47.18097" lon="3.23249">
        <ele>231.24899291992</ele>
        <time>2015-11-04T15:44:23.000Z</time>
      </trkpt>
      <trkpt lat="47.18098" lon="3.2325">
        <ele>231.28927612305</ele>
        <time>2015-11-04T15:44:25.000Z</time>
      </trkpt>
      <trkpt lat="47.181" lon="3.23251">
        <ele>231.33288574219</ele>
        <time>2015-11-04T15:44:28.000Z</time>
      </trkpt>
      <trkpt lat="47.18102" lon="3.23252">
        <ele>231.38662719727</ele>
        <time>2015-11-04T15:44:30.000Z</time>
      </trkpt>
      <trkpt lat="47.18103" lon="3.23253">
        <ele>231.45100402832</ele>
        <time>2015-11-04T15:44:33.000Z</time>
      </trkpt>
      <trkpt lat="47.18105" lon="3.23256">
        <ele>231.53353881836</ele>
        <time>2015-11-04T15:44:36.000Z</time>
      </trkpt>
      <trkpt lat="47.18106" lon="3.23258">
        <ele>231.62905883789</ele>
        <time>2015-11-04T15:44:39.000Z</time>
      </trkpt>
      <trkpt lat="47.18107" lon="3.23259">
        <ele>231.72636413574</ele>
        <time>2015-11-04T15:44:42.000Z</time>
      </trkpt>
      <trkpt lat="47.18108" lon="3.2326">
        <ele>231.81576538086</ele>
        <time>2015-11-04T15:44:44.000Z</time>
      </trkpt>
      <trkpt lat="47.18111" lon="3.2326">
        <ele>231.90628051758</ele>
        <time>2015-11-04T15:44:47.000Z</time>
      </trkpt>
      <trkpt lat="47.18113" lon="3.23259">
        <ele>231.97451782227</ele>
        <time>2015-11-04T15:44:49.000Z</time>
      </trkpt>
      <trkpt lat="47.18115" lon="3.2326">
        <ele>232.03964233398</ele>
        <time>2015-11-04T15:44:58.000Z</time>
      </trkpt>
      <trkpt lat="47.18117" lon="3.23261">
        <ele>232.10452270508</ele>
        <time>2015-11-04T15:45:00.000Z</time>
      </trkpt>
      <trkpt lat="47.1812" lon="3.23264">
        <ele>232.19905090332</ele>
        <time>2015-11-04T15:45:03.000Z</time>
      </trkpt>
      <trkpt lat="47.18122" lon="3.23267">
        <ele>232.31954956055</ele>
        <time>2015-11-04T15:45:05.000Z</time>
      </trkpt>
      <trkpt lat="47.18124" lon="3.2327">
        <ele>232.4673614502</ele>
        <time>2015-11-04T15:45:08.000Z</time>
      </trkpt>
      <trkpt lat="47.18126" lon="3.23271">
        <ele>232.61679077148</ele>
        <time>2015-11-04T15:45:10.000Z</time>
      </trkpt>
      <trkpt lat="47.18128" lon="3.23273">
        <ele>232.7744140625</ele>
        <time>2015-11-04T15:45:13.000Z</time>
      </trkpt>
      <trkpt lat="47.1813" lon="3.23274">
        <ele>232.91645812988</ele>
        <time>2015-11-04T15:45:16.000Z</time>
      </trkpt>
      <trkpt lat="47.18131" lon="3.23276">
        <ele>233.03820800781</ele>
        <time>2015-11-04T15:45:19.000Z</time>
      </trkpt>
      <trkpt lat="47.18131" lon="3.23281">
        <ele>233.1693572998</ele>
        <time>2015-11-04T15:45:23.000Z</time>
      </trkpt>
      <trkpt lat="47.18136" lon="3.23283">
        <ele>233.32524108887</ele>
        <time>2015-11-04T15:45:26.000Z</time>
      </trkpt>
      <trkpt lat="47.18139" lon="3.23285">
        <ele>233.48999023438</ele>
        <time>2015-11-04T15:45:29.000Z</time>
      </trkpt>
      <trkpt lat="47.18142" lon="3.23289">
        <ele>233.68437194824</ele>
        <time>2015-11-04T15:45:32.000Z</time>
      </trkpt>
      <trkpt lat="47.18144" lon="3.23292">
        <ele>233.89651489258</ele>
        <time>2015-11-04T15:45:35.000Z</time>
      </trkpt>
      <trkpt lat="47.18147" lon="3.23292">
        <ele>234.08915710449</ele>
        <time>2015-11-04T15:45:38.000Z</time>
      </trkpt>
      <trkpt lat="47.1815" lon="3.23293">
        <ele>234.26083374023</ele>
        <time>2015-11-04T15:45:41.000Z</time>
      </trkpt>
      <trkpt lat="47.18153" lon="3.23293">
        <ele>234.41561889648</ele>
        <time>2015-11-04T15:45:43.000Z</time>
      </trkpt>
      <trkpt lat="47.18156" lon="3.23292">
        <ele>234.53071594238</ele>
        <time>2015-11-04T15:45:46.000Z</time>
      </trkpt>
      <trkpt lat="47.1816" lon="3.2329">
        <ele>234.61328125</ele>
        <time>2015-11-04T15:45:48.000Z</time>
      </trkpt>
      <trkpt lat="47.18162" lon="3.2329">
        <ele>234.68200683594</ele>
        <time>2015-11-04T15:45:51.000Z</time>
      </trkpt>
      <trkpt lat="47.18166" lon="3.23292">
        <ele>234.76945495605</ele>
        <time>2015-11-04T15:45:54.000Z</time>
      </trkpt>
      <trkpt lat="47.18169" lon="3.23292">
        <ele>234.86259460449</ele>
        <time>2015-11-04T15:45:57.000Z</time>
      </trkpt>
      <trkpt lat="47.18174" lon="3.23298">
        <ele>235.01875305176</ele>
        <time>2015-11-04T15:46:04.000Z</time>
      </trkpt>
      <trkpt lat="47.18175" lon="3.23298">
        <ele>235.17231750488</ele>
        <time>2015-11-04T15:46:07.000Z</time>
      </trkpt>
      <trkpt lat="47.18178" lon="3.23298">
        <ele>235.3427734375</ele>
        <time>2015-11-04T15:46:09.000Z</time>
      </trkpt>
      <trkpt lat="47.18182" lon="3.23297">
        <ele>235.48538208008</ele>
        <time>2015-11-04T15:46:12.000Z</time>
      </trkpt>
      <trkpt lat="47.18187" lon="3.23295">
        <ele>235.61254882812</ele>
        <time>2015-11-04T15:46:16.000Z</time>
      </trkpt>
      <trkpt lat="47.18192" lon="3.23296">
        <ele>235.69999694824</ele>
        <time>2015-11-04T15:46:19.000Z</time>
      </trkpt>
      <trkpt lat="47.18198" lon="3.23297">
        <ele>235.81782531738</ele>
        <time>2015-11-04T15:46:23.000Z</time>
      </trkpt>
      <trkpt lat="47.18202" lon="3.23296">
        <ele>235.9367980957</ele>
        <time>2015-11-04T15:46:25.000Z</time>
      </trkpt>
      <trkpt lat="47.18207" lon="3.23295">
        <ele>236.05776977539</ele>
        <time>2015-11-04T15:46:31.000Z</time>
      </trkpt>
      <trkpt lat="47.18209" lon="3.23295">
        <ele>236.18270874023</ele>
        <time>2015-11-04T15:46:33.000Z</time>
      </trkpt>
      <trkpt lat="47.18214" lon="3.23294">
        <ele>236.29814147949</ele>
        <time>2015-11-04T15:46:36.000Z</time>
      </trkpt>
      <trkpt lat="47.18222" lon="3.23291">
        <ele>236.41098022461</ele>
        <time>2015-11-04T15:46:39.000Z</time>
      </trkpt>
      <trkpt lat="47.18227" lon="3.23291">
        <ele>236.52819824219</ele>
        <time>2015-11-04T15:46:42.000Z</time>
      </trkpt>
      <trkpt lat="47.18231" lon="3.23291">
        <ele>236.64611816406</ele>
        <time>2015-11-04T15:46:44.000Z</time>
      </trkpt>
      <trkpt lat="47.18234" lon="3.23289">
        <ele>236.76770019531</ele>
        <time>2015-11-04T15:46:47.000Z</time>
      </trkpt>
      <trkpt lat="47.18237" lon="3.23289">
        <ele>236.88467407227</ele>
        <time>2015-11-04T15:46:50.000Z</time>
      </trkpt>
      <trkpt lat="47.1824" lon="3.2329">
        <ele>236.98425292969</ele>
        <time>2015-11-04T15:46:52.000Z</time>
      </trkpt>
      <trkpt lat="47.18242" lon="3.23289">
        <ele>237.06205749512</ele>
        <time>2015-11-04T15:46:55.000Z</time>
      </trkpt>
      <trkpt lat="47.18245" lon="3.23287">
        <ele>237.13781738281</ele>
        <time>2015-11-04T15:46:59.000Z</time>
      </trkpt>
      <trkpt lat="47.1825" lon="3.23285">
        <ele>237.22457885742</ele>
        <time>2015-11-04T15:47:05.000Z</time>
      </trkpt>
      <trkpt lat="47.18252" lon="3.23284">
        <ele>237.30599975586</ele>
        <time>2015-11-04T15:47:08.000Z</time>
      </trkpt>
      <trkpt lat="47.18254" lon="3.23283">
        <ele>237.38496398926</ele>
        <time>2015-11-04T15:47:10.000Z</time>
      </trkpt>
      <trkpt lat="47.18259" lon="3.23282">
        <ele>237.48579406738</ele>
        <time>2015-11-04T15:47:12.000Z</time>
      </trkpt>
      <trkpt lat="47.18261" lon="3.2328">
        <ele>237.58578491211</ele>
        <time>2015-11-04T15:47:15.000Z</time>
      </trkpt>
      <trkpt lat="47.18266" lon="3.23275">
        <ele>237.67288208008</ele>
        <time>2015-11-04T15:47:19.000Z</time>
      </trkpt>
      <trkpt lat="47.18267" lon="3.23274">
        <ele>237.7515411377</ele>
        <time>2015-11-04T15:47:21.000Z</time>
      </trkpt>
      <trkpt lat="47.1827" lon="3.23272">
        <ele>237.82766723633</ele>
        <time>2015-11-04T15:47:24.000Z</time>
      </trkpt>
      <trkpt lat="47.18272" lon="3.2327">
        <ele>237.87710571289</ele>
        <time>2015-11-04T15:47:27.000Z</time>
      </trkpt>
      <trkpt lat="47.18276" lon="3.23269">
        <ele>237.93351745605</ele>
        <time>2015-11-04T15:47:31.000Z</time>
      </trkpt>
      <trkpt lat="47.18279" lon="3.23269">
        <ele>237.99215698242</ele>
        <time>2015-11-04T15:47:34.000Z</time>
      </trkpt>
      <trkpt lat="47.18281" lon="3.23269">
        <ele>238.06221008301</ele>
        <time>2015-11-04T15:47:37.000Z</time>
      </trkpt>
      <trkpt lat="47.18284" lon="3.23268">
        <ele>238.13467407227</ele>
        <time>2015-11-04T15:47:39.000Z</time>
      </trkpt>
      <trkpt lat="47.18287" lon="3.23267">
        <ele>238.22204589844</ele>
        <time>2015-11-04T15:47:42.000Z</time>
      </trkpt>
      <trkpt lat="47.18289" lon="3.23268">
        <ele>238.30258178711</ele>
        <time>2015-11-04T15:47:45.000Z</time>
      </trkpt>
      <trkpt lat="47.18294" lon="3.23267">
        <ele>238.39706420898</ele>
        <time>2015-11-04T15:47:48.000Z</time>
      </trkpt>
      <trkpt lat="47.18297" lon="3.23265">
        <ele>238.4741973877</ele>
        <time>2015-11-04T15:47:51.000Z</time>
      </trkpt>
      <trkpt lat="47.18298" lon="3.23265">
        <ele>238.54153442383</ele>
        <time>2015-11-04T15:47:53.000Z</time>
      </trkpt>
      <trkpt lat="47.18301" lon="3.23262">
        <ele>238.5947265625</ele>
        <time>2015-11-04T15:47:55.000Z</time>
      </trkpt>
      <trkpt lat="47.18304" lon="3.23261">
        <ele>238.63809204102</ele>
        <time>2015-11-04T15:47:58.000Z</time>
      </trkpt>
      <trkpt lat="47.18307" lon="3.2326">
        <ele>238.66232299805</ele>
        <time>2015-11-04T15:48:00.000Z</time>
      </trkpt>
      <trkpt lat="47.18314" lon="3.23256">
        <ele>238.69198608398</ele>
        <time>2015-11-04T15:48:03.000Z</time>
      </trkpt>
      <trkpt lat="47.18318" lon="3.23252">
        <ele>238.70486450195</ele>
        <time>2015-11-04T15:48:11.000Z</time>
      </trkpt>
      <trkpt lat="47.18321" lon="3.23246">
        <ele>238.70649719238</ele>
        <time>2015-11-04T15:48:12.000Z</time>
      </trkpt>
      <trkpt lat="47.18325" lon="3.23244">
        <ele>238.71366882324</ele>
        <time>2015-11-04T15:48:19.000Z</time>
      </trkpt>
      <trkpt lat="47.18327" lon="3.23243">
        <ele>238.72123718262</ele>
        <time>2015-11-04T15:48:21.000Z</time>
      </trkpt>
      <trkpt lat="47.18329" lon="3.23243">
        <ele>238.73164367676</ele>
        <time>2015-11-04T15:48:23.000Z</time>
      </trkpt>
      <trkpt lat="47.18335" lon="3.2324">
        <ele>238.7601776123</ele>
        <time>2015-11-04T15:48:31.000Z</time>
      </trkpt>
      <trkpt lat="47.1834" lon="3.23233">
        <ele>238.76150512695</ele>
        <time>2015-11-04T15:48:34.000Z</time>
      </trkpt>
      <trkpt lat="47.1834" lon="3.23233">
        <ele>238.7465057373</ele>
        <time>2015-11-04T15:48:38.000Z</time>
      </trkpt>
      <trkpt lat="47.18349" lon="3.2323">
        <ele>238.67700195312</ele>
        <time>2015-11-04T15:48:40.000Z</time>
      </trkpt>
      <trkpt lat="47.18351" lon="3.23229">
        <ele>238.58834838867</ele>
        <time>2015-11-04T15:48:42.000Z</time>
      </trkpt>
      <trkpt lat="47.18356" lon="3.23227">
        <ele>238.4709777832</ele>
        <time>2015-11-04T15:48:45.000Z</time>
      </trkpt>
      <trkpt lat="47.18359" lon="3.23226">
        <ele>238.375</ele>
        <time>2015-11-04T15:48:47.000Z</time>
      </trkpt>
      <trkpt lat="47.18362" lon="3.23225">
        <ele>238.2682800293</ele>
        <time>2015-11-04T15:48:50.000Z</time>
      </trkpt>
      <trkpt lat="47.18365" lon="3.23219">
        <ele>238.18838500977</ele>
        <time>2015-11-04T15:48:53.000Z</time>
      </trkpt>
      <trkpt lat="47.18367" lon="3.23216">
        <ele>238.10098266602</ele>
        <time>2015-11-04T15:48:56.000Z</time>
      </trkpt>
      <trkpt lat="47.18369" lon="3.23214">
        <ele>238.02861022949</ele>
        <time>2015-11-04T15:49:01.000Z</time>
      </trkpt>
      <trkpt lat="47.18373" lon="3.2321">
        <ele>237.94906616211</ele>
        <time>2015-11-04T15:49:02.000Z</time>
      </trkpt>
      <trkpt lat="47.18375" lon="3.23207">
        <ele>237.87658691406</ele>
        <time>2015-11-04T15:49:03.000Z</time>
      </trkpt>
      <trkpt lat="47.18377" lon="3.23204">
        <ele>237.81103515625</ele>
        <time>2015-11-04T15:49:06.000Z</time>
      </trkpt>
      <trkpt lat="47.1838" lon="3.232">
        <ele>237.74691772461</ele>
        <time>2015-11-04T15:49:09.000Z</time>
      </trkpt>
      <trkpt lat="47.18381" lon="3.23198">
        <ele>237.68840026855</ele>
        <time>2015-11-04T15:49:11.000Z</time>
      </trkpt>
      <trkpt lat="47.18382" lon="3.23195">
        <ele>237.64270019531</ele>
        <time>2015-11-04T15:49:13.000Z</time>
      </trkpt>
      <trkpt lat="47.18384" lon="3.23191">
        <ele>237.59516906738</ele>
        <time>2015-11-04T15:49:16.000Z</time>
      </trkpt>
      <trkpt lat="47.18386" lon="3.23188">
        <ele>237.54975891113</ele>
        <time>2015-11-04T15:49:18.000Z</time>
      </trkpt>
      <trkpt lat="47.18389" lon="3.23184">
        <ele>237.50747680664</ele>
        <time>2015-11-04T15:49:21.000Z</time>
      </trkpt>
      <trkpt lat="47.18391" lon="3.23182">
        <ele>237.4616394043</ele>
        <time>2015-11-04T15:49:23.000Z</time>
      </trkpt>
      <trkpt lat="47.18393" lon="3.23179">
        <ele>237.41520690918</ele>
        <time>2015-11-04T15:49:29.000Z</time>
      </trkpt>
      <trkpt lat="47.18395" lon="3.23175">
        <ele>237.37007141113</ele>
        <time>2015-11-04T15:49:29.000Z</time>
      </trkpt>
      <trkpt lat="47.18397" lon="3.23172">
        <ele>237.32711791992</ele>
        <time>2015-11-04T15:49:31.000Z</time>
      </trkpt>
      <trkpt lat="47.184" lon="3.23169">
        <ele>237.28706359863</ele>
        <time>2015-11-04T15:49:34.000Z</time>
      </trkpt>
      <trkpt lat="47.18402" lon="3.23166">
        <ele>237.24905395508</ele>
        <time>2015-11-04T15:49:36.000Z</time>
      </trkpt>
      <trkpt lat="47.18406" lon="3.23162">
        <ele>237.21676635742</ele>
        <time>2015-11-04T15:49:39.000Z</time>
      </trkpt>
      <trkpt lat="47.18409" lon="3.23158">
        <ele>237.19320678711</ele>
        <time>2015-11-04T15:49:42.000Z</time>
      </trkpt>
      <trkpt lat="47.18411" lon="3.23155">
        <ele>237.17866516113</ele>
        <time>2015-11-04T15:49:45.000Z</time>
      </trkpt>
      <trkpt lat="47.18414" lon="3.2315">
        <ele>237.18110656738</ele>
        <time>2015-11-04T15:49:48.000Z</time>
      </trkpt>
      <trkpt lat="47.18417" lon="3.23146">
        <ele>237.19290161133</ele>
        <time>2015-11-04T15:49:51.000Z</time>
      </trkpt>
      <trkpt lat="47.18421" lon="3.23144">
        <ele>237.20231628418</ele>
        <time>2015-11-04T15:49:54.000Z</time>
      </trkpt>
      <trkpt lat="47.18425" lon="3.23141">
        <ele>237.2105255127</ele>
        <time>2015-11-04T15:49:57.000Z</time>
      </trkpt>
      <trkpt lat="47.18427" lon="3.23139">
        <ele>237.21513366699</ele>
        <time>2015-11-04T15:49:59.000Z</time>
      </trkpt>
      <trkpt lat="47.1843" lon="3.23135">
        <ele>237.21553039551</ele>
        <time>2015-11-04T15:50:02.000Z</time>
      </trkpt>
      <trkpt lat="47.18432" lon="3.23133">
        <ele>237.21162414551</ele>
        <time>2015-11-04T15:50:04.000Z</time>
      </trkpt>
      <trkpt lat="47.18435" lon="3.2313">
        <ele>237.21350097656</ele>
        <time>2015-11-04T15:50:07.000Z</time>
      </trkpt>
      <trkpt lat="47.18437" lon="3.23128">
        <ele>237.21699523926</ele>
        <time>2015-11-04T15:50:09.000Z</time>
      </trkpt>
      <trkpt lat="47.18439" lon="3.23125">
        <ele>237.22229003906</ele>
        <time>2015-11-04T15:50:11.000Z</time>
      </trkpt>
      <trkpt lat="47.18442" lon="3.23122">
        <ele>237.22534179688</ele>
        <time>2015-11-04T15:50:14.000Z</time>
      </trkpt>
      <trkpt lat="47.18444" lon="3.23118">
        <ele>237.23120117188</ele>
        <time>2015-11-04T15:50:17.000Z</time>
      </trkpt>
      <trkpt lat="47.18447" lon="3.23114">
        <ele>237.23735046387</ele>
        <time>2015-11-04T15:50:20.000Z</time>
      </trkpt>
      <trkpt lat="47.18449" lon="3.23112">
        <ele>237.24516296387</ele>
        <time>2015-11-04T15:50:22.000Z</time>
      </trkpt>
      <trkpt lat="47.18451" lon="3.2311">
        <ele>237.25280761719</ele>
        <time>2015-11-04T15:50:24.000Z</time>
      </trkpt>
      <trkpt lat="47.18453" lon="3.23107">
        <ele>237.26184082031</ele>
        <time>2015-11-04T15:50:27.000Z</time>
      </trkpt>
      <trkpt lat="47.18456" lon="3.23104">
        <ele>237.27075195312</ele>
        <time>2015-11-04T15:50:30.000Z</time>
      </trkpt>
      <trkpt lat="47.18459" lon="3.23099">
        <ele>237.28096008301</ele>
        <time>2015-11-04T15:50:33.000Z</time>
      </trkpt>
      <trkpt lat="47.18462" lon="3.23095">
        <ele>237.29333496094</ele>
        <time>2015-11-04T15:50:36.000Z</time>
      </trkpt>
      <trkpt lat="47.18465" lon="3.23091">
        <ele>237.30651855469</ele>
        <time>2015-11-04T15:50:39.000Z</time>
      </trkpt>
      <trkpt lat="47.18468" lon="3.23088">
        <ele>237.31791687012</ele>
        <time>2015-11-04T15:50:42.000Z</time>
      </trkpt>
      <trkpt lat="47.1847" lon="3.23085">
        <ele>237.32719421387</ele>
        <time>2015-11-04T15:50:44.000Z</time>
      </trkpt>
      <trkpt lat="47.18473" lon="3.23082">
        <ele>237.33601379395</ele>
        <time>2015-11-04T15:50:47.000Z</time>
      </trkpt>
      <trkpt lat="47.18476" lon="3.23079">
        <ele>237.34713745117</ele>
        <time>2015-11-04T15:50:50.000Z</time>
      </trkpt>
      <trkpt lat="47.18479" lon="3.23077">
        <ele>237.36267089844</ele>
        <time>2015-11-04T15:50:53.000Z</time>
      </trkpt>
      <trkpt lat="47.18481" lon="3.23075">
        <ele>237.38447570801</ele>
        <time>2015-11-04T15:50:56.000Z</time>
      </trkpt>
      <trkpt lat="47.18486" lon="3.23071">
        <ele>237.4221496582</ele>
        <time>2015-11-04T15:50:59.000Z</time>
      </trkpt>
      <trkpt lat="47.1849" lon="3.23067">
        <ele>237.47453308105</ele>
        <time>2015-11-04T15:51:02.000Z</time>
      </trkpt>
      <trkpt lat="47.18494" lon="3.23063">
        <ele>237.54740905762</ele>
        <time>2015-11-04T15:51:05.000Z</time>
      </trkpt>
      <trkpt lat="47.18496" lon="3.2306">
        <ele>237.63288879395</ele>
        <time>2015-11-04T15:51:07.000Z</time>
      </trkpt>
      <trkpt lat="47.18498" lon="3.23055">
        <ele>237.74592590332</ele>
        <time>2015-11-04T15:51:10.000Z</time>
      </trkpt>
      <trkpt lat="47.18501" lon="3.2305">
        <ele>237.87942504883</ele>
        <time>2015-11-04T15:51:13.000Z</time>
      </trkpt>
      <trkpt lat="47.18502" lon="3.23049">
        <ele>238.00456237793</ele>
        <time>2015-11-04T15:51:15.000Z</time>
      </trkpt>
      <trkpt lat="47.18503" lon="3.23046">
        <ele>238.12138366699</ele>
        <time>2015-11-04T15:51:18.000Z</time>
      </trkpt>
      <trkpt lat="47.18505" lon="3.23045">
        <ele>238.22885131836</ele>
        <time>2015-11-04T15:51:20.000Z</time>
      </trkpt>
      <trkpt lat="47.18509" lon="3.23042">
        <ele>238.3166809082</ele>
        <time>2015-11-04T15:51:23.000Z</time>
      </trkpt>
      <trkpt lat="47.1851" lon="3.2304">
        <ele>238.37551879883</ele>
        <time>2015-11-04T15:51:26.000Z</time>
      </trkpt>
      <trkpt lat="47.18514" lon="3.23036">
        <ele>238.44677734375</ele>
        <time>2015-11-04T15:51:29.000Z</time>
      </trkpt>
      <trkpt lat="47.18516" lon="3.23034">
        <ele>238.50796508789</ele>
        <time>2015-11-04T15:51:32.000Z</time>
      </trkpt>
      <trkpt lat="47.18519" lon="3.23031">
        <ele>238.56828308105</ele>
        <time>2015-11-04T15:51:35.000Z</time>
      </trkpt>
      <trkpt lat="47.18521" lon="3.23028">
        <ele>238.62492370605</ele>
        <time>2015-11-04T15:51:38.000Z</time>
      </trkpt>
      <trkpt lat="47.18523" lon="3.23025">
        <ele>238.68891906738</ele>
        <time>2015-11-04T15:51:41.000Z</time>
      </trkpt>
      <trkpt lat="47.18522" lon="3.2302">
        <ele>238.75871276855</ele>
        <time>2015-11-04T15:51:44.000Z</time>
      </trkpt>
      <trkpt lat="47.18524" lon="3.23018">
        <ele>238.82707214355</ele>
        <time>2015-11-04T15:51:46.000Z</time>
      </trkpt>
      <trkpt lat="47.18527" lon="3.23014">
        <ele>238.89282226562</ele>
        <time>2015-11-04T15:51:48.000Z</time>
      </trkpt>
      <trkpt lat="47.18532" lon="3.23013">
        <ele>238.93725585938</ele>
        <time>2015-11-04T15:51:52.000Z</time>
      </trkpt>
      <trkpt lat="47.18536" lon="3.23009">
        <ele>238.96469116211</ele>
        <time>2015-11-04T15:51:55.000Z</time>
      </trkpt>
      <trkpt lat="47.18537" lon="3.23008">
        <ele>238.96504211426</ele>
        <time>2015-11-04T15:51:57.000Z</time>
      </trkpt>
      <trkpt lat="47.1854" lon="3.23006">
        <ele>238.95761108398</ele>
        <time>2015-11-04T15:52:00.000Z</time>
      </trkpt>
      <trkpt lat="47.18541" lon="3.23003">
        <ele>238.95051574707</ele>
        <time>2015-11-04T15:52:02.000Z</time>
      </trkpt>
      <trkpt lat="47.18544" lon="3.22999">
        <ele>238.9499206543</ele>
        <time>2015-11-04T15:52:05.000Z</time>
      </trkpt>
      <trkpt lat="47.18546" lon="3.22995">
        <ele>238.95356750488</ele>
        <time>2015-11-04T15:52:07.000Z</time>
      </trkpt>
      <trkpt lat="47.18548" lon="3.22992">
        <ele>238.96044921875</ele>
        <time>2015-11-04T15:52:09.000Z</time>
      </trkpt>
      <trkpt lat="47.18552" lon="3.2299">
        <ele>238.966796875</ele>
        <time>2015-11-04T15:52:12.000Z</time>
      </trkpt>
      <trkpt lat="47.18555" lon="3.22988">
        <ele>238.96687316895</ele>
        <time>2015-11-04T15:52:15.000Z</time>
      </trkpt>
      <trkpt lat="47.18559" lon="3.22982">
        <ele>238.9892578125</ele>
        <time>2015-11-04T15:52:18.000Z</time>
      </trkpt>
      <trkpt lat="47.18563" lon="3.22979">
        <ele>239.02262878418</ele>
        <time>2015-11-04T15:52:21.000Z</time>
      </trkpt>
      <trkpt lat="47.18566" lon="3.22976">
        <ele>239.06665039062</ele>
        <time>2015-11-04T15:52:24.000Z</time>
      </trkpt>
      <trkpt lat="47.18568" lon="3.22974">
        <ele>239.12329101562</ele>
        <time>2015-11-04T15:52:26.000Z</time>
      </trkpt>
      <trkpt lat="47.18571" lon="3.22971">
        <ele>239.20527648926</ele>
        <time>2015-11-04T15:52:29.000Z</time>
      </trkpt>
      <trkpt lat="47.18572" lon="3.22968">
        <ele>239.28805541992</ele>
        <time>2015-11-04T15:52:31.000Z</time>
      </trkpt>
      <trkpt lat="47.18572" lon="3.22967">
        <ele>239.37170410156</ele>
        <time>2015-11-04T15:52:33.000Z</time>
      </trkpt>
      <trkpt lat="47.18574" lon="3.22964">
        <ele>239.46179199219</ele>
        <time>2015-11-04T15:52:35.000Z</time>
      </trkpt>
      <trkpt lat="47.18577" lon="3.22961">
        <ele>239.57099914551</ele>
        <time>2015-11-04T15:52:38.000Z</time>
      </trkpt>
      <trkpt lat="47.18581" lon="3.2296">
        <ele>239.67288208008</ele>
        <time>2015-11-04T15:52:41.000Z</time>
      </trkpt>
      <trkpt lat="47.18583" lon="3.22959">
        <ele>239.76847839355</ele>
        <time>2015-11-04T15:52:43.000Z</time>
      </trkpt>
      <trkpt lat="47.18587" lon="3.22955">
        <ele>239.87634277344</ele>
        <time>2015-11-04T15:52:48.000Z</time>
      </trkpt>
      <trkpt lat="47.18591" lon="3.22952">
        <ele>239.98669433594</ele>
        <time>2015-11-04T15:52:49.000Z</time>
      </trkpt>
      <trkpt lat="47.18593" lon="3.2295">
        <ele>240.07046508789</ele>
        <time>2015-11-04T15:52:51.000Z</time>
      </trkpt>
      <trkpt lat="47.18596" lon="3.22947">
        <ele>240.15600585938</ele>
        <time>2015-11-04T15:52:54.000Z</time>
      </trkpt>
      <trkpt lat="47.18597" lon="3.22945">
        <ele>240.23945617676</ele>
        <time>2015-11-04T15:52:56.000Z</time>
      </trkpt>
      <trkpt lat="47.18598" lon="3.22943">
        <ele>240.30615234375</ele>
        <time>2015-11-04T15:53:00.000Z</time>
      </trkpt>
      <trkpt lat="47.186" lon="3.22941">
        <ele>240.36015319824</ele>
        <time>2015-11-04T15:53:02.000Z</time>
      </trkpt>
      <trkpt lat="47.18604" lon="3.22937">
        <ele>240.41763305664</ele>
        <time>2015-11-04T15:53:07.000Z</time>
      </trkpt>
      <trkpt lat="47.18605" lon="3.22934">
        <ele>240.47341918945</ele>
        <time>2015-11-04T15:53:08.000Z</time>
      </trkpt>
      <trkpt lat="47.18608" lon="3.2293">
        <ele>240.53384399414</ele>
        <time>2015-11-04T15:53:14.000Z</time>
      </trkpt>
      <trkpt lat="47.1861" lon="3.22926">
        <ele>240.59465026855</ele>
        <time>2015-11-04T15:53:15.000Z</time>
      </trkpt>
      <trkpt lat="47.18613" lon="3.22923">
        <ele>240.64863586426</ele>
        <time>2015-11-04T15:53:18.000Z</time>
      </trkpt>
      <trkpt lat="47.18615" lon="3.22918">
        <ele>240.71028137207</ele>
        <time>2015-11-04T15:53:21.000Z</time>
      </trkpt>
      <trkpt lat="47.18617" lon="3.22916">
        <ele>240.74597167969</ele>
        <time>2015-11-04T15:53:23.000Z</time>
      </trkpt>
      <trkpt lat="47.1862" lon="3.22914">
        <ele>240.73104858398</ele>
        <time>2015-11-04T15:53:26.000Z</time>
      </trkpt>
      <trkpt lat="47.18622" lon="3.22912">
        <ele>240.67204284668</ele>
        <time>2015-11-04T15:53:29.000Z</time>
      </trkpt>
      <trkpt lat="47.18624" lon="3.2291">
        <ele>240.58432006836</ele>
        <time>2015-11-04T15:53:31.000Z</time>
      </trkpt>
      <trkpt lat="47.18627" lon="3.22908">
        <ele>240.44462585449</ele>
        <time>2015-11-04T15:53:36.000Z</time>
      </trkpt>
      <trkpt lat="47.18629" lon="3.22907">
        <ele>240.28886413574</ele>
        <time>2015-11-04T15:53:37.000Z</time>
      </trkpt>
      <trkpt lat="47.18633" lon="3.22905">
        <ele>240.12966918945</ele>
        <time>2015-11-04T15:53:42.000Z</time>
      </trkpt>
      <trkpt lat="47.18637" lon="3.22902">
        <ele>239.95736694336</ele>
        <time>2015-11-04T15:53:42.000Z</time>
      </trkpt>
      <trkpt lat="47.18641" lon="3.22899">
        <ele>239.76815795898</ele>
        <time>2015-11-04T15:53:46.000Z</time>
      </trkpt>
      <trkpt lat="47.18642" lon="3.22895">
        <ele>239.58569335938</ele>
        <time>2015-11-04T15:53:48.000Z</time>
      </trkpt>
      <trkpt lat="47.18643" lon="3.22893">
        <ele>239.4094543457</ele>
        <time>2015-11-04T15:53:50.000Z</time>
      </trkpt>
      <trkpt lat="47.18645" lon="3.2289">
        <ele>239.24295043945</ele>
        <time>2015-11-04T15:53:53.000Z</time>
      </trkpt>
      <trkpt lat="47.18648" lon="3.22887">
        <ele>239.08512878418</ele>
        <time>2015-11-04T15:53:56.000Z</time>
      </trkpt>
      <trkpt lat="47.18651" lon="3.22882">
        <ele>238.92948913574</ele>
        <time>2015-11-04T15:53:59.000Z</time>
      </trkpt>
      <trkpt lat="47.18654" lon="3.22879">
        <ele>238.76998901367</ele>
        <time>2015-11-04T15:54:02.000Z</time>
      </trkpt>
      <trkpt lat="47.18656" lon="3.22876">
        <ele>238.60771179199</ele>
        <time>2015-11-04T15:54:04.000Z</time>
      </trkpt>
      <trkpt lat="47.18658" lon="3.22872">
        <ele>238.4390411377</ele>
        <time>2015-11-04T15:54:07.000Z</time>
      </trkpt>
      <trkpt lat="47.18661" lon="3.2287">
        <ele>238.28364562988</ele>
        <time>2015-11-04T15:54:19.000Z</time>
      </trkpt>
      <trkpt lat="47.18665" lon="3.22868">
        <ele>238.13961791992</ele>
        <time>2015-11-04T15:54:21.000Z</time>
      </trkpt>
      <trkpt lat="47.18667" lon="3.22866">
        <ele>238.01257324219</ele>
        <time>2015-11-04T15:54:21.000Z</time>
      </trkpt>
      <trkpt lat="47.18671" lon="3.22864">
        <ele>237.8505859375</ele>
        <time>2015-11-04T15:54:22.000Z</time>
      </trkpt>
      <trkpt lat="47.18672" lon="3.22862">
        <ele>237.69458007812</ele>
        <time>2015-11-04T15:54:22.000Z</time>
      </trkpt>
      <trkpt lat="47.18675" lon="3.2286">
        <ele>237.52505493164</ele>
        <time>2015-11-04T15:54:23.000Z</time>
      </trkpt>
      <trkpt lat="47.18676" lon="3.22859">
        <ele>237.35888671875</ele>
        <time>2015-11-04T15:54:25.000Z</time>
      </trkpt>
      <trkpt lat="47.1868" lon="3.22857">
        <ele>237.15856933594</ele>
        <time>2015-11-04T15:54:28.000Z</time>
      </trkpt>
      <trkpt lat="47.18684" lon="3.22856">
        <ele>236.9580078125</ele>
        <time>2015-11-04T15:54:31.000Z</time>
      </trkpt>
      <trkpt lat="47.18687" lon="3.22856">
        <ele>236.75903320312</ele>
        <time>2015-11-04T15:54:33.000Z</time>
      </trkpt>
      <trkpt lat="47.18689" lon="3.22855">
        <ele>236.56994628906</ele>
        <time>2015-11-04T15:54:35.000Z</time>
      </trkpt>
      <trkpt lat="47.18692" lon="3.22853">
        <ele>236.35437011719</ele>
        <time>2015-11-04T15:54:38.000Z</time>
      </trkpt>
      <trkpt lat="47.18694" lon="3.22853">
        <ele>236.16381835938</ele>
        <time>2015-11-04T15:54:40.000Z</time>
      </trkpt>
      <trkpt lat="47.18697" lon="3.22854">
        <ele>235.99780273438</ele>
        <time>2015-11-04T15:54:42.000Z</time>
      </trkpt>
      <trkpt lat="47.18699" lon="3.22854">
        <ele>235.83459472656</ele>
        <time>2015-11-04T15:54:45.000Z</time>
      </trkpt>
      <trkpt lat="47.18702" lon="3.22854">
        <ele>235.67102050781</ele>
        <time>2015-11-04T15:54:48.000Z</time>
      </trkpt>
      <trkpt lat="47.18705" lon="3.22854">
        <ele>235.52136230469</ele>
        <time>2015-11-04T15:54:51.000Z</time>
      </trkpt>
      <trkpt lat="47.18708" lon="3.22855">
        <ele>235.37023925781</ele>
        <time>2015-11-04T15:54:54.000Z</time>
      </trkpt>
      <trkpt lat="47.1871" lon="3.22857">
        <ele>235.23059082031</ele>
        <time>2015-11-04T15:54:58.000Z</time>
      </trkpt>
      <trkpt lat="47.18714" lon="3.22858">
        <ele>235.07592773438</ele>
        <time>2015-11-04T15:55:01.000Z</time>
      </trkpt>
      <trkpt lat="47.18715" lon="3.22858">
        <ele>234.93298339844</ele>
        <time>2015-11-04T15:55:03.000Z</time>
      </trkpt>
      <trkpt lat="47.18721" lon="3.2286">
        <ele>234.77124023438</ele>
        <time>2015-11-04T15:55:06.000Z</time>
      </trkpt>
      <trkpt lat="47.18723" lon="3.2286">
        <ele>234.60766601562</ele>
        <time>2015-11-04T15:55:08.000Z</time>
      </trkpt>
      <trkpt lat="47.18726" lon="3.2286">
        <ele>234.43505859375</ele>
        <time>2015-11-04T15:55:10.000Z</time>
      </trkpt>
      <trkpt lat="47.18727" lon="3.22861">
        <ele>234.28393554688</ele>
        <time>2015-11-04T15:55:13.000Z</time>
      </trkpt>
      <trkpt lat="47.18729" lon="3.22863">
        <ele>234.14270019531</ele>
        <time>2015-11-04T15:55:15.000Z</time>
      </trkpt>
      <trkpt lat="47.1873" lon="3.22863">
        <ele>234.0517578125</ele>
        <time>2015-11-04T15:55:17.000Z</time>
      </trkpt>
      <trkpt lat="47.18734" lon="3.22864">
        <ele>233.94775390625</ele>
        <time>2015-11-04T15:55:20.000Z</time>
      </trkpt>
      <trkpt lat="47.18737" lon="3.22865">
        <ele>233.83837890625</ele>
        <time>2015-11-04T15:55:23.000Z</time>
      </trkpt>
      <trkpt lat="47.1874" lon="3.22867">
        <ele>233.71838378906</ele>
        <time>2015-11-04T15:55:25.000Z</time>
      </trkpt>
      <trkpt lat="47.18742" lon="3.22868">
        <ele>233.58410644531</ele>
        <time>2015-11-04T15:55:27.000Z</time>
      </trkpt>
      <trkpt lat="47.18745" lon="3.22868">
        <ele>233.42846679688</ele>
        <time>2015-11-04T15:55:30.000Z</time>
      </trkpt>
      <trkpt lat="47.18747" lon="3.22869">
        <ele>233.29345703125</ele>
        <time>2015-11-04T15:55:33.000Z</time>
      </trkpt>
      <trkpt lat="47.1875" lon="3.22869">
        <ele>233.16052246094</ele>
        <time>2015-11-04T15:55:35.000Z</time>
      </trkpt>
      <trkpt lat="47.18753" lon="3.22871">
        <ele>233.03552246094</ele>
        <time>2015-11-04T15:55:38.000Z</time>
      </trkpt>
      <trkpt lat="47.18757" lon="3.22871">
        <ele>232.90588378906</ele>
        <time>2015-11-04T15:55:41.000Z</time>
      </trkpt>
      <trkpt lat="47.18761" lon="3.22871">
        <ele>232.77783203125</ele>
        <time>2015-11-04T15:55:44.000Z</time>
      </trkpt>
      <trkpt lat="47.18765" lon="3.2287">
        <ele>232.63427734375</ele>
        <time>2015-11-04T15:55:47.000Z</time>
      </trkpt>
      <trkpt lat="47.18769" lon="3.2287">
        <ele>232.49389648438</ele>
        <time>2015-11-04T15:55:50.000Z</time>
      </trkpt>
      <trkpt lat="47.18773" lon="3.22869">
        <ele>232.34777832031</ele>
        <time>2015-11-04T15:55:52.000Z</time>
      </trkpt>
      <trkpt lat="47.18774" lon="3.22868">
        <ele>232.20764160156</ele>
        <time>2015-11-04T15:55:54.000Z</time>
      </trkpt>
      <trkpt lat="47.18779" lon="3.22865">
        <ele>232.04919433594</ele>
        <time>2015-11-04T15:55:57.000Z</time>
      </trkpt>
      <trkpt lat="47.18783" lon="3.22864">
        <ele>231.88854980469</ele>
        <time>2015-11-04T15:56:00.000Z</time>
      </trkpt>
      <trkpt lat="47.18786" lon="3.22862">
        <ele>231.73315429688</ele>
        <time>2015-11-04T15:56:03.000Z</time>
      </trkpt>
      <trkpt lat="47.18788" lon="3.22861">
        <ele>231.58215332031</ele>
        <time>2015-11-04T15:56:04.000Z</time>
      </trkpt>
      <trkpt lat="47.18789" lon="3.2286">
        <ele>231.43933105469</ele>
        <time>2015-11-04T15:56:06.000Z</time>
      </trkpt>
      <trkpt lat="47.18792" lon="3.22858">
        <ele>231.31103515625</ele>
        <time>2015-11-04T15:56:09.000Z</time>
      </trkpt>
      <trkpt lat="47.18796" lon="3.22855">
        <ele>231.18212890625</ele>
        <time>2015-11-04T15:56:12.000Z</time>
      </trkpt>
      <trkpt lat="47.18799" lon="3.22853">
        <ele>231.03979492188</ele>
        <time>2015-11-04T15:56:15.000Z</time>
      </trkpt>
      <trkpt lat="47.18801" lon="3.22851">
        <ele>230.89331054688</ele>
        <time>2015-11-04T15:56:18.000Z</time>
      </trkpt>
      <trkpt lat="47.18803" lon="3.22849">
        <ele>230.73828125</ele>
        <time>2015-11-04T15:56:20.000Z</time>
      </trkpt>
      <trkpt lat="47.18806" lon="3.22847">
        <ele>230.58410644531</ele>
        <time>2015-11-04T15:56:23.000Z</time>
      </trkpt>
      <trkpt lat="47.18808" lon="3.22846">
        <ele>230.45092773438</ele>
        <time>2015-11-04T15:56:25.000Z</time>
      </trkpt>
      <trkpt lat="47.18811" lon="3.22845">
        <ele>230.32885742188</ele>
        <time>2015-11-04T15:56:28.000Z</time>
      </trkpt>
      <trkpt lat="47.18814" lon="3.22843">
        <ele>230.2001953125</ele>
        <time>2015-11-04T15:56:31.000Z</time>
      </trkpt>
      <trkpt lat="47.18818" lon="3.22842">
        <ele>230.06274414062</ele>
        <time>2015-11-04T15:56:34.000Z</time>
      </trkpt>
      <trkpt lat="47.1882" lon="3.22841">
        <ele>229.93322753906</ele>
        <time>2015-11-04T15:56:36.000Z</time>
      </trkpt>
      <trkpt lat="47.18822" lon="3.22838">
        <ele>229.79248046875</ele>
        <time>2015-11-04T15:56:39.000Z</time>
      </trkpt>
      <trkpt lat="47.18826" lon="3.22836">
        <ele>229.6416015625</ele>
        <time>2015-11-04T15:56:42.000Z</time>
      </trkpt>
      <trkpt lat="47.1883" lon="3.22834">
        <ele>229.48767089844</ele>
        <time>2015-11-04T15:56:45.000Z</time>
      </trkpt>
      <trkpt lat="47.18833" lon="3.22833">
        <ele>229.33499145508</ele>
        <time>2015-11-04T15:56:48.000Z</time>
      </trkpt>
      <trkpt lat="47.18836" lon="3.22831">
        <ele>229.18046569824</ele>
        <time>2015-11-04T15:56:51.000Z</time>
      </trkpt>
      <trkpt lat="47.1884" lon="3.22829">
        <ele>229.03022766113</ele>
        <time>2015-11-04T15:56:54.000Z</time>
      </trkpt>
      <trkpt lat="47.18842" lon="3.22828">
        <ele>228.8991394043</ele>
        <time>2015-11-04T15:56:56.000Z</time>
      </trkpt>
      <trkpt lat="47.18846" lon="3.22826">
        <ele>228.7802734375</ele>
        <time>2015-11-04T15:56:59.000Z</time>
      </trkpt>
      <trkpt lat="47.18848" lon="3.22824">
        <ele>228.6689453125</ele>
        <time>2015-11-04T15:57:01.000Z</time>
      </trkpt>
      <trkpt lat="47.18851" lon="3.22823">
        <ele>228.560546875</ele>
        <time>2015-11-04T15:57:05.000Z</time>
      </trkpt>
      <trkpt lat="47.18853" lon="3.22822">
        <ele>228.466796875</ele>
        <time>2015-11-04T15:57:06.000Z</time>
      </trkpt>
      <trkpt lat="47.18856" lon="3.22821">
        <ele>228.3671875</ele>
        <time>2015-11-04T15:57:08.000Z</time>
      </trkpt>
      <trkpt lat="47.1886" lon="3.22819">
        <ele>228.2646484375</ele>
        <time>2015-11-04T15:57:11.000Z</time>
      </trkpt>
      <trkpt lat="47.18863" lon="3.22818">
        <ele>228.1591796875</ele>
        <time>2015-11-04T15:57:13.000Z</time>
      </trkpt>
      <trkpt lat="47.18867" lon="3.22817">
        <ele>228.044921875</ele>
        <time>2015-11-04T15:57:16.000Z</time>
      </trkpt>
      <trkpt lat="47.18869" lon="3.22817">
        <ele>227.927734375</ele>
        <time>2015-11-04T15:57:18.000Z</time>
      </trkpt>
      <trkpt lat="47.18874" lon="3.22815">
        <ele>227.798828125</ele>
        <time>2015-11-04T15:57:21.000Z</time>
      </trkpt>
      <trkpt lat="47.18877" lon="3.22814">
        <ele>227.6787109375</ele>
        <time>2015-11-04T15:57:23.000Z</time>
      </trkpt>
      <trkpt lat="47.1888" lon="3.22813">
        <ele>227.5556640625</ele>
        <time>2015-11-04T15:57:26.000Z</time>
      </trkpt>
      <trkpt lat="47.18882" lon="3.22811">
        <ele>227.447265625</ele>
        <time>2015-11-04T15:57:28.000Z</time>
      </trkpt>
      <trkpt lat="47.18885" lon="3.2281">
        <ele>227.3330078125</ele>
        <time>2015-11-04T15:57:31.000Z</time>
      </trkpt>
      <trkpt lat="47.18887" lon="3.22809">
        <ele>227.2421875</ele>
        <time>2015-11-04T15:57:33.000Z</time>
      </trkpt>
      <trkpt lat="47.18889" lon="3.22808">
        <ele>227.154296875</ele>
        <time>2015-11-04T15:57:35.000Z</time>
      </trkpt>
      <trkpt lat="47.18892" lon="3.22807">
        <ele>227.072265625</ele>
        <time>2015-11-04T15:57:38.000Z</time>
      </trkpt>
      <trkpt lat="47.18892" lon="3.22801">
        <ele>226.9990234375</ele>
        <time>2015-11-04T15:57:56.000Z</time>
      </trkpt>
      <trkpt lat="47.18895" lon="3.22799">
        <ele>226.92578125</ele>
        <time>2015-11-04T15:57:59.000Z</time>
      </trkpt>
      <trkpt lat="47.18898" lon="3.22797">
        <ele>226.8466796875</ele>
        <time>2015-11-04T15:58:02.000Z</time>
      </trkpt>
      <trkpt lat="47.18899" lon="3.22796">
        <ele>226.7734375</ele>
        <time>2015-11-04T15:58:05.000Z</time>
      </trkpt>
      <trkpt lat="47.189" lon="3.22795">
        <ele>226.7119140625</ele>
        <time>2015-11-04T15:58:14.000Z</time>
      </trkpt>
      <trkpt lat="47.18906" lon="3.2279">
        <ele>226.6181640625</ele>
        <time>2015-11-04T15:58:17.000Z</time>
      </trkpt>
      <trkpt lat="47.18908" lon="3.22791">
        <ele>226.5302734375</ele>
        <time>2015-11-04T15:58:19.000Z</time>
      </trkpt>
      <trkpt lat="47.18909" lon="3.22791">
        <ele>226.451171875</ele>
        <time>2015-11-04T15:58:22.000Z</time>
      </trkpt>
      <trkpt lat="47.18911" lon="3.2279">
        <ele>226.3662109375</ele>
        <time>2015-11-04T15:58:25.000Z</time>
      </trkpt>
      <trkpt lat="47.18912" lon="3.22791">
        <ele>226.28125</ele>
        <time>2015-11-04T15:58:28.000Z</time>
      </trkpt>
      <trkpt lat="47.18914" lon="3.22789">
        <ele>226.2197265625</ele>
        <time>2015-11-04T15:58:30.000Z</time>
      </trkpt>
      <trkpt lat="47.18917" lon="3.22785">
        <ele>226.15576171875</ele>
        <time>2015-11-04T15:58:33.000Z</time>
      </trkpt>
      <trkpt lat="47.18918" lon="3.22782">
        <ele>226.11776733398</ele>
        <time>2015-11-04T15:58:35.000Z</time>
      </trkpt>
      <trkpt lat="47.18921" lon="3.22778">
        <ele>226.13005065918</ele>
        <time>2015-11-04T15:58:38.000Z</time>
      </trkpt>
      <trkpt lat="47.18923" lon="3.22773">
        <ele>226.19491577148</ele>
        <time>2015-11-04T15:58:40.000Z</time>
      </trkpt>
      <trkpt lat="47.18927" lon="3.22768">
        <ele>226.33283996582</ele>
        <time>2015-11-04T15:58:43.000Z</time>
      </trkpt>
      <trkpt lat="47.18928" lon="3.22766">
        <ele>226.50881958008</ele>
        <time>2015-11-04T15:58:45.000Z</time>
      </trkpt>
      <trkpt lat="47.18929" lon="3.22763">
        <ele>226.68325805664</ele>
        <time>2015-11-04T15:58:47.000Z</time>
      </trkpt>
      <trkpt lat="47.1893" lon="3.22759">
        <ele>226.83981323242</ele>
        <time>2015-11-04T15:58:50.000Z</time>
      </trkpt>
      <trkpt lat="47.18931" lon="3.22753">
        <ele>226.97302246094</ele>
        <time>2015-11-04T15:58:53.000Z</time>
      </trkpt>
      <trkpt lat="47.18932" lon="3.22746">
        <ele>227.0980682373</ele>
        <time>2015-11-04T15:58:56.000Z</time>
      </trkpt>
      <trkpt lat="47.18934" lon="3.22741">
        <ele>227.26138305664</ele>
        <time>2015-11-04T15:58:59.000Z</time>
      </trkpt>
      <trkpt lat="47.18935" lon="3.22737">
        <ele>227.44064331055</ele>
        <time>2015-11-04T15:59:01.000Z</time>
      </trkpt>
      <trkpt lat="47.18937" lon="3.22733">
        <ele>227.64138793945</ele>
        <time>2015-11-04T15:59:03.000Z</time>
      </trkpt>
      <trkpt lat="47.18941" lon="3.22726">
        <ele>227.92956542969</ele>
        <time>2015-11-04T15:59:06.000Z</time>
      </trkpt>
      <trkpt lat="47.18943" lon="3.22724">
        <ele>228.20739746094</ele>
        <time>2015-11-04T15:59:08.000Z</time>
      </trkpt>
      <trkpt lat="47.18945" lon="3.2272">
        <ele>228.48266601562</ele>
        <time>2015-11-04T15:59:10.000Z</time>
      </trkpt>
      <trkpt lat="47.18948" lon="3.22716">
        <ele>228.80395507812</ele>
        <time>2015-11-04T15:59:13.000Z</time>
      </trkpt>
      <trkpt lat="47.18949" lon="3.22712">
        <ele>229.1171875</ele>
        <time>2015-11-04T15:59:15.000Z</time>
      </trkpt>
      <trkpt lat="47.18951" lon="3.22707">
        <ele>229.38012695312</ele>
        <time>2015-11-04T15:59:18.000Z</time>
      </trkpt>
      <trkpt lat="47.18952" lon="3.22705">
        <ele>229.634765625</ele>
        <time>2015-11-04T15:59:20.000Z</time>
      </trkpt>
      <trkpt lat="47.18954" lon="3.227">
        <ele>229.88500976562</ele>
        <time>2015-11-04T15:59:23.000Z</time>
      </trkpt>
      <trkpt lat="47.18954" lon="3.22697">
        <ele>230.07861328125</ele>
        <time>2015-11-04T15:59:25.000Z</time>
      </trkpt>
      <trkpt lat="47.18954" lon="3.22691">
        <ele>230.26086425781</ele>
        <time>2015-11-04T15:59:28.000Z</time>
      </trkpt>
      <trkpt lat="47.18952" lon="3.22685">
        <ele>230.37817382812</ele>
        <time>2015-11-04T15:59:31.000Z</time>
      </trkpt>
      <trkpt lat="47.18951" lon="3.22682">
        <ele>230.46740722656</ele>
        <time>2015-11-04T15:59:34.000Z</time>
      </trkpt>
      <trkpt lat="47.18951" lon="3.22678">
        <ele>230.52734375</ele>
        <time>2015-11-04T15:59:36.000Z</time>
      </trkpt>
      <trkpt lat="47.18952" lon="3.22671">
        <ele>230.61791992188</ele>
        <time>2015-11-04T15:59:39.000Z</time>
      </trkpt>
      <trkpt lat="47.18951" lon="3.22667">
        <ele>230.68020629883</ele>
        <time>2015-11-04T15:59:46.000Z</time>
      </trkpt>
      <trkpt lat="47.1895" lon="3.22663">
        <ele>230.72787475586</ele>
        <time>2015-11-04T15:59:47.000Z</time>
      </trkpt>
      <trkpt lat="47.18948" lon="3.22659">
        <ele>230.75704956055</ele>
        <time>2015-11-04T15:59:47.000Z</time>
      </trkpt>
      <trkpt lat="47.18947" lon="3.22653">
        <ele>230.73571777344</ele>
        <time>2015-11-04T15:59:50.000Z</time>
      </trkpt>
      <trkpt lat="47.18947" lon="3.22649">
        <ele>230.66195678711</ele>
        <time>2015-11-04T15:59:51.000Z</time>
      </trkpt>
      <trkpt lat="47.18946" lon="3.22645">
        <ele>230.57751464844</ele>
        <time>2015-11-04T15:59:53.000Z</time>
      </trkpt>
      <trkpt lat="47.18945" lon="3.22637">
        <ele>230.4967956543</ele>
        <time>2015-11-04T15:59:56.000Z</time>
      </trkpt>
      <trkpt lat="47.18943" lon="3.2263">
        <ele>230.41430664062</ele>
        <time>2015-11-04T15:59:59.000Z</time>
      </trkpt>
      <trkpt lat="47.18944" lon="3.22626">
        <ele>230.365234375</ele>
        <time>2015-11-04T16:00:04.000Z</time>
      </trkpt>
      <trkpt lat="47.18944" lon="3.22621">
        <ele>230.3225402832</ele>
        <time>2015-11-04T16:00:04.000Z</time>
      </trkpt>
      <trkpt lat="47.18944" lon="3.22618">
        <ele>230.29907226562</ele>
        <time>2015-11-04T16:00:07.000Z</time>
      </trkpt>
      <trkpt lat="47.18945" lon="3.22615">
        <ele>230.30400085449</ele>
        <time>2015-11-04T16:00:08.000Z</time>
      </trkpt>
      <trkpt lat="47.18947" lon="3.22611">
        <ele>230.35473632812</ele>
        <time>2015-11-04T16:00:11.000Z</time>
      </trkpt>
      <trkpt lat="47.18948" lon="3.22608">
        <ele>230.41311645508</ele>
        <time>2015-11-04T16:00:14.000Z</time>
      </trkpt>
      <trkpt lat="47.18949" lon="3.22605">
        <ele>230.46488952637</ele>
        <time>2015-11-04T16:00:16.000Z</time>
      </trkpt>
      <trkpt lat="47.1895" lon="3.22604">
        <ele>230.52563476562</ele>
        <time>2015-11-04T16:00:19.000Z</time>
      </trkpt>
      <trkpt lat="47.18953" lon="3.22603">
        <ele>230.61259460449</ele>
        <time>2015-11-04T16:00:23.000Z</time>
      </trkpt>
      <trkpt lat="47.18955" lon="3.226">
        <ele>230.69088745117</ele>
        <time>2015-11-04T16:00:29.000Z</time>
      </trkpt>
      <trkpt lat="47.18957" lon="3.22598">
        <ele>230.7802734375</ele>
        <time>2015-11-04T16:00:32.000Z</time>
      </trkpt>
      <trkpt lat="47.18958" lon="3.22592">
        <ele>230.87619018555</ele>
        <time>2015-11-04T16:00:35.000Z</time>
      </trkpt>
      <trkpt lat="47.18959" lon="3.22588">
        <ele>230.97074890137</ele>
        <time>2015-11-04T16:00:37.000Z</time>
      </trkpt>
      <trkpt lat="47.1896" lon="3.22583">
        <ele>231.0256652832</ele>
        <time>2015-11-04T16:00:40.000Z</time>
      </trkpt>
      <trkpt lat="47.1896" lon="3.22579">
        <ele>231.05009460449</ele>
        <time>2015-11-04T16:00:42.000Z</time>
      </trkpt>
      <trkpt lat="47.18962" lon="3.22573">
        <ele>231.04145812988</ele>
        <time>2015-11-04T16:00:46.000Z</time>
      </trkpt>
      <trkpt lat="47.18963" lon="3.2257">
        <ele>231.02485656738</ele>
        <time>2015-11-04T16:00:47.000Z</time>
      </trkpt>
      <trkpt lat="47.18964" lon="3.22565">
        <ele>230.99426269531</ele>
        <time>2015-11-04T16:00:50.000Z</time>
      </trkpt>
      <trkpt lat="47.18966" lon="3.22561">
        <ele>230.97383117676</ele>
        <time>2015-11-04T16:00:53.000Z</time>
      </trkpt>
      <trkpt lat="47.18968" lon="3.22558">
        <ele>230.96321105957</ele>
        <time>2015-11-04T16:00:56.000Z</time>
      </trkpt>
      <trkpt lat="47.1897" lon="3.22555">
        <ele>230.96740722656</ele>
        <time>2015-11-04T16:00:58.000Z</time>
      </trkpt>
      <trkpt lat="47.18972" lon="3.22552">
        <ele>230.98571777344</ele>
        <time>2015-11-04T16:01:01.000Z</time>
      </trkpt>
      <trkpt lat="47.18972" lon="3.2255">
        <ele>230.99519348145</ele>
        <time>2015-11-04T16:01:04.000Z</time>
      </trkpt>
      <trkpt lat="47.1897" lon="3.22548">
        <ele>230.97714233398</ele>
        <time>2015-11-04T16:01:07.000Z</time>
      </trkpt>
      <trkpt lat="47.1897" lon="3.2255">
        <ele>230.96389770508</ele>
        <time>2015-11-04T16:01:14.000Z</time>
      </trkpt>
      <trkpt lat="47.18969" lon="3.22553">
        <ele>230.94758605957</ele>
        <time>2015-11-04T16:01:17.000Z</time>
      </trkpt>
      <trkpt lat="47.18969" lon="3.2255">
        <ele>230.91250610352</ele>
        <time>2015-11-04T16:01:26.000Z</time>
      </trkpt>
      <trkpt lat="47.1897" lon="3.22546">
        <ele>230.87704467773</ele>
        <time>2015-11-04T16:01:29.000Z</time>
      </trkpt>
      <trkpt lat="47.18969" lon="3.22543">
        <ele>230.84135437012</ele>
        <time>2015-11-04T16:01:31.000Z</time>
      </trkpt>
      <trkpt lat="47.18969" lon="3.22536">
        <ele>230.78146362305</ele>
        <time>2015-11-04T16:01:34.000Z</time>
      </trkpt>
      <trkpt lat="47.1897" lon="3.2253">
        <ele>230.7028503418</ele>
        <time>2015-11-04T16:01:37.000Z</time>
      </trkpt>
      <trkpt lat="47.18972" lon="3.22527">
        <ele>230.63110351562</ele>
        <time>2015-11-04T16:01:40.000Z</time>
      </trkpt>
      <trkpt lat="47.18975" lon="3.22524">
        <ele>230.58976745605</ele>
        <time>2015-11-04T16:01:43.000Z</time>
      </trkpt>
      <trkpt lat="47.1898" lon="3.22525">
        <ele>230.61071777344</ele>
        <time>2015-11-04T16:01:46.000Z</time>
      </trkpt>
      <trkpt lat="47.18984" lon="3.22526">
        <ele>230.68911743164</ele>
        <time>2015-11-04T16:01:49.000Z</time>
      </trkpt>
      <trkpt lat="47.18988" lon="3.22526">
        <ele>230.81364440918</ele>
        <time>2015-11-04T16:01:52.000Z</time>
      </trkpt>
      <trkpt lat="47.18992" lon="3.22525">
        <ele>230.9651184082</ele>
        <time>2015-11-04T16:01:55.000Z</time>
      </trkpt>
      <trkpt lat="47.18995" lon="3.22526">
        <ele>231.13203430176</ele>
        <time>2015-11-04T16:01:58.000Z</time>
      </trkpt>
      <trkpt lat="47.18998" lon="3.22525">
        <ele>231.27157592773</ele>
        <time>2015-11-04T16:02:00.000Z</time>
      </trkpt>
      <trkpt lat="47.19" lon="3.22524">
        <ele>231.38896179199</ele>
        <time>2015-11-04T16:02:02.000Z</time>
      </trkpt>
      <trkpt lat="47.19003" lon="3.22524">
        <ele>231.43957519531</ele>
        <time>2015-11-04T16:02:05.000Z</time>
      </trkpt>
      <trkpt lat="47.19006" lon="3.22524">
        <ele>231.43124389648</ele>
        <time>2015-11-04T16:02:07.000Z</time>
      </trkpt>
      <trkpt lat="47.19008" lon="3.22525">
        <ele>231.3662109375</ele>
        <time>2015-11-04T16:02:10.000Z</time>
      </trkpt>
      <trkpt lat="47.19009" lon="3.22526">
        <ele>231.2865447998</ele>
        <time>2015-11-04T16:02:13.000Z</time>
      </trkpt>
      <trkpt lat="47.19012" lon="3.22529">
        <ele>231.17990112305</ele>
        <time>2015-11-04T16:02:16.000Z</time>
      </trkpt>
      <trkpt lat="47.19012" lon="3.22531">
        <ele>231.11653137207</ele>
        <time>2015-11-04T16:02:19.000Z</time>
      </trkpt>
      <trkpt lat="47.19012" lon="3.22532">
        <ele>231.09577941895</ele>
        <time>2015-11-04T16:02:27.000Z</time>
      </trkpt>
      <trkpt lat="47.19014" lon="3.22532">
        <ele>231.07614135742</ele>
        <time>2015-11-04T16:02:40.000Z</time>
      </trkpt>
      <trkpt lat="47.19015" lon="3.22532">
        <ele>231.05122375488</ele>
        <time>2015-11-04T16:02:48.000Z</time>
      </trkpt>
      <trkpt lat="47.19016" lon="3.22531">
        <ele>231.01908874512</ele>
        <time>2015-11-04T16:03:09.000Z</time>
      </trkpt>
      <trkpt lat="47.19016" lon="3.22531">
        <ele>231.01908874512</ele>
        <time>2015-11-04T16:03:21.000Z</time>
      </trkpt>
    </trkseg>
  </trk>
</gpx>